<gpx xmlns="http://www.topografix.com/GPX/1/1" xmlns:xsi="http://www.w3.org/2001/XMLSchema-instance" version="1.1" xsi:schemaLocation="http://www.topografix.com/GPX/1/1 http://www.topografix.com/GPX/1/1/gpx.xsd" creator="MotionXGPSFull 24.1 Build 5049R64">
<trk>
<name>Bruno's Run</name>
<desc>30 Dec 2015  6:16 am</desc>
<trkseg>
<trkpt lat="-27.3566285" lon="152.9564500">
<ele>41.819</ele>
<time>2015-12-29T20:17:29.999Z</time>
</trkpt>
<trkpt lat="-27.3568479" lon="152.9565089">
<ele>41.800</ele>
<time>2015-12-29T20:17:36.999Z</time>
</trkpt>
<trkpt lat="-27.3568479" lon="152.9565089">
<ele>38.153</ele>
<time>2015-12-29T20:17:37.000Z</time>
</trkpt>
<trkpt lat="-27.3568479" lon="152.9565089">
<ele>28.674</ele>
<time>2015-12-29T20:23:33.438Z</time>
</trkpt>
<trkpt lat="-27.3565786" lon="152.9566600">
<ele>20.468</ele>
<time>2015-12-29T20:23:44.511Z</time>
</trkpt>
<trkpt lat="-27.3563325" lon="152.9568464">
<ele>19.821</ele>
<time>2015-12-29T20:23:47.797Z</time>
</trkpt>
<trkpt lat="-27.3561356" lon="152.9569798">
<ele>23.057</ele>
<time>2015-12-29T20:23:49.928Z</time>
</trkpt>
<trkpt lat="-27.3559120" lon="152.9571247">
<ele>25.375</ele>
<time>2015-12-29T20:23:52.104Z</time>
</trkpt>
<trkpt lat="-27.3556375" lon="152.9573184">
<ele>25.727</ele>
<time>2015-12-29T20:23:55.189Z</time>
</trkpt>
<trkpt lat="-27.3554143" lon="152.9572880">
<ele>24.828</ele>
<time>2015-12-29T20:23:57.681Z</time>
</trkpt>
<trkpt lat="-27.3551226" lon="152.9573272">
<ele>24.352</ele>
<time>2015-12-29T20:24:00.994Z</time>
</trkpt>
<trkpt lat="-27.3549215" lon="152.9572318">
<ele>25.270</ele>
<time>2015-12-29T20:24:02.981Z</time>
</trkpt>
<trkpt lat="-27.3549215" lon="152.9572318">
<ele>25.270</ele>
<time>2015-12-29T20:24:02.981Z</time>
</trkpt>
<trkpt lat="-27.3548902" lon="152.9584425">
<ele>34.175</ele>
<time>2015-12-29T20:24:12.780Z</time>
</trkpt>
<trkpt lat="-27.3549150" lon="152.9589227">
<ele>34.159</ele>
<time>2015-12-29T20:24:15.899Z</time>
</trkpt>
<trkpt lat="-27.3549488" lon="152.9592542">
<ele>34.457</ele>
<time>2015-12-29T20:24:17.961Z</time>
</trkpt>
<trkpt lat="-27.3551041" lon="152.9596787">
<ele>35.250</ele>
<time>2015-12-29T20:24:20.851Z</time>
</trkpt>
<trkpt lat="-27.3552033" lon="152.9599280">
<ele>36.016</ele>
<time>2015-12-29T20:24:22.595Z</time>
</trkpt>
<trkpt lat="-27.3553282" lon="152.9602422">
<ele>36.274</ele>
<time>2015-12-29T20:24:24.764Z</time>
</trkpt>
<trkpt lat="-27.3555006" lon="152.9606767">
<ele>36.323</ele>
<time>2015-12-29T20:24:27.779Z</time>
</trkpt>
<trkpt lat="-27.3556042" lon="152.9609458">
<ele>36.515</ele>
<time>2015-12-29T20:24:29.739Z</time>
</trkpt>
<trkpt lat="-27.3556614" lon="152.9612787">
<ele>36.706</ele>
<time>2015-12-29T20:24:32.335Z</time>
</trkpt>
<trkpt lat="-27.3558699" lon="152.9615742">
<ele>36.473</ele>
<time>2015-12-29T20:24:35.540Z</time>
</trkpt>
<trkpt lat="-27.3559810" lon="152.9618191">
<ele>35.797</ele>
<time>2015-12-29T20:24:37.776Z</time>
</trkpt>
<trkpt lat="-27.3561163" lon="152.9621231">
<ele>35.202</ele>
<time>2015-12-29T20:24:40.119Z</time>
</trkpt>
<trkpt lat="-27.3563429" lon="152.9625923">
<ele>35.355</ele>
<time>2015-12-29T20:24:43.353Z</time>
</trkpt>
<trkpt lat="-27.3565021" lon="152.9628693">
<ele>36.522</ele>
<time>2015-12-29T20:24:45.293Z</time>
</trkpt>
<trkpt lat="-27.3567446" lon="152.9633095">
<ele>38.263</ele>
<time>2015-12-29T20:24:48.318Z</time>
</trkpt>
<trkpt lat="-27.3570709" lon="152.9636922">
<ele>39.746</ele>
<time>2015-12-29T20:24:51.330Z</time>
</trkpt>
<trkpt lat="-27.3574110" lon="152.9640693">
<ele>40.842</ele>
<time>2015-12-29T20:24:54.320Z</time>
</trkpt>
<trkpt lat="-27.3576400" lon="152.9643188">
<ele>42.059</ele>
<time>2015-12-29T20:24:56.302Z</time>
</trkpt>
<trkpt lat="-27.3578762" lon="152.9645761">
<ele>43.802</ele>
<time>2015-12-29T20:24:58.359Z</time>
</trkpt>
<trkpt lat="-27.3581839" lon="152.9649816">
<ele>46.026</ele>
<time>2015-12-29T20:25:01.385Z</time>
</trkpt>
<trkpt lat="-27.3584475" lon="152.9653912">
<ele>48.364</ele>
<time>2015-12-29T20:25:04.325Z</time>
</trkpt>
<trkpt lat="-27.3586425" lon="152.9658512">
<ele>50.259</ele>
<time>2015-12-29T20:25:07.344Z</time>
</trkpt>
<trkpt lat="-27.3587104" lon="152.9661676">
<ele>51.254</ele>
<time>2015-12-29T20:25:09.325Z</time>
</trkpt>
<trkpt lat="-27.3586833" lon="152.9666718">
<ele>50.978</ele>
<time>2015-12-29T20:25:12.436Z</time>
</trkpt>
<trkpt lat="-27.3585466" lon="152.9671257">
<ele>49.160</ele>
<time>2015-12-29T20:25:15.360Z</time>
</trkpt>
<trkpt lat="-27.3583665" lon="152.9675547">
<ele>46.235</ele>
<time>2015-12-29T20:25:18.254Z</time>
</trkpt>
<trkpt lat="-27.3582393" lon="152.9678536">
<ele>43.321</ele>
<time>2015-12-29T20:25:20.335Z</time>
</trkpt>
<trkpt lat="-27.3580852" lon="152.9681768">
<ele>40.976</ele>
<time>2015-12-29T20:25:22.999Z</time>
</trkpt>
<trkpt lat="-27.3580852" lon="152.9681768">
<ele>39.288</ele>
<time>2015-12-29T20:25:28.999Z</time>
</trkpt>
<trkpt lat="-27.3580852" lon="152.9681768">
<ele>38.519</ele>
<time>2015-12-29T20:25:29.099Z</time>
</trkpt>
<trkpt lat="-27.3579720" lon="152.9684086">
<ele>38.593</ele>
<time>2015-12-29T20:25:35.844Z</time>
</trkpt>
<trkpt lat="-27.3578950" lon="152.9685695">
<ele>38.170</ele>
<time>2015-12-29T20:25:37.450Z</time>
</trkpt>
<trkpt lat="-27.3577889" lon="152.9687912">
<ele>36.367</ele>
<time>2015-12-29T20:25:39.351Z</time>
</trkpt>
<trkpt lat="-27.3577233" lon="152.9689282">
<ele>34.351</ele>
<time>2015-12-29T20:25:40.468Z</time>
</trkpt>
<trkpt lat="-27.3575324" lon="152.9693320">
<ele>33.367</ele>
<time>2015-12-29T20:25:43.843Z</time>
</trkpt>
<trkpt lat="-27.3574729" lon="152.9694560">
<ele>32.919</ele>
<time>2015-12-29T20:25:44.999Z</time>
</trkpt>
<trkpt lat="-27.3574729" lon="152.9694560">
<ele>32.320</ele>
<time>2015-12-29T20:25:50.999Z</time>
</trkpt>
<trkpt lat="-27.3574729" lon="152.9694560">
<ele>31.815</ele>
<time>2015-12-29T20:25:51.427Z</time>
</trkpt>
<trkpt lat="-27.3573829" lon="152.9696962">
<ele>31.810</ele>
<time>2015-12-29T20:26:00.284Z</time>
</trkpt>
<trkpt lat="-27.3575589" lon="152.9697873">
<ele>32.060</ele>
<time>2015-12-29T20:26:02.585Z</time>
</trkpt>
<trkpt lat="-27.3577992" lon="152.9698841">
<ele>32.298</ele>
<time>2015-12-29T20:26:04.865Z</time>
</trkpt>
<trkpt lat="-27.3581484" lon="152.9701060">
<ele>32.509</ele>
<time>2015-12-29T20:26:07.852Z</time>
</trkpt>
<trkpt lat="-27.3585603" lon="152.9703581">
<ele>33.124</ele>
<time>2015-12-29T20:26:10.994Z</time>
</trkpt>
<trkpt lat="-27.3588616" lon="152.9705515">
<ele>34.781</ele>
<time>2015-12-29T20:26:13.119Z</time>
</trkpt>
<trkpt lat="-27.3593403" lon="152.9708763">
<ele>37.371</ele>
<time>2015-12-29T20:26:16.176Z</time>
</trkpt>
<trkpt lat="-27.3596530" lon="152.9710716">
<ele>40.099</ele>
<time>2015-12-29T20:26:18.105Z</time>
</trkpt>
<trkpt lat="-27.3599709" lon="152.9712819">
<ele>42.596</ele>
<time>2015-12-29T20:26:20.090Z</time>
</trkpt>
<trkpt lat="-27.3602799" lon="152.9714901">
<ele>44.791</ele>
<time>2015-12-29T20:26:22.023Z</time>
</trkpt>
<trkpt lat="-27.3606040" lon="152.9716875">
<ele>46.673</ele>
<time>2015-12-29T20:26:24.002Z</time>
</trkpt>
<trkpt lat="-27.3610634" lon="152.9719621">
<ele>48.643</ele>
<time>2015-12-29T20:26:26.797Z</time>
</trkpt>
<trkpt lat="-27.3615462" lon="152.9722609">
<ele>50.851</ele>
<time>2015-12-29T20:26:29.719Z</time>
</trkpt>
<trkpt lat="-27.3618847" lon="152.9724696">
<ele>52.870</ele>
<time>2015-12-29T20:26:31.744Z</time>
</trkpt>
<trkpt lat="-27.3621984" lon="152.9726981">
<ele>54.721</ele>
<time>2015-12-29T20:26:33.696Z</time>
</trkpt>
<trkpt lat="-27.3626438" lon="152.9730782">
<ele>56.580</ele>
<time>2015-12-29T20:26:36.626Z</time>
</trkpt>
<trkpt lat="-27.3630738" lon="152.9734831">
<ele>58.093</ele>
<time>2015-12-29T20:26:39.592Z</time>
</trkpt>
<trkpt lat="-27.3633747" lon="152.9737154">
<ele>58.959</ele>
<time>2015-12-29T20:26:41.520Z</time>
</trkpt>
<trkpt lat="-27.3638360" lon="152.9740184">
<ele>59.407</ele>
<time>2015-12-29T20:26:44.339Z</time>
</trkpt>
<trkpt lat="-27.3641793" lon="152.9742077">
<ele>59.969</ele>
<time>2015-12-29T20:26:46.381Z</time>
</trkpt>
<trkpt lat="-27.3646433" lon="152.9745299">
<ele>60.834</ele>
<time>2015-12-29T20:26:49.321Z</time>
</trkpt>
<trkpt lat="-27.3649317" lon="152.9747904">
<ele>61.619</ele>
<time>2015-12-29T20:26:51.329Z</time>
</trkpt>
<trkpt lat="-27.3651921" lon="152.9750722">
<ele>61.812</ele>
<time>2015-12-29T20:26:53.301Z</time>
</trkpt>
<trkpt lat="-27.3655459" lon="152.9755378">
<ele>61.023</ele>
<time>2015-12-29T20:26:56.253Z</time>
</trkpt>
<trkpt lat="-27.3658623" lon="152.9760060">
<ele>58.872</ele>
<time>2015-12-29T20:26:59.030Z</time>
</trkpt>
<trkpt lat="-27.3661068" lon="152.9764121">
<ele>55.454</ele>
<time>2015-12-29T20:27:01.244Z</time>
</trkpt>
<trkpt lat="-27.3664604" lon="152.9769440">
<ele>51.998</ele>
<time>2015-12-29T20:27:04.179Z</time>
</trkpt>
<trkpt lat="-27.3668247" lon="152.9774855">
<ele>49.992</ele>
<time>2015-12-29T20:27:07.147Z</time>
</trkpt>
<trkpt lat="-27.3671959" lon="152.9780104">
<ele>49.657</ele>
<time>2015-12-29T20:27:10.060Z</time>
</trkpt>
<trkpt lat="-27.3674854" lon="152.9783310">
<ele>50.507</ele>
<time>2015-12-29T20:27:12.035Z</time>
</trkpt>
<trkpt lat="-27.3679652" lon="152.9787515">
<ele>51.987</ele>
<time>2015-12-29T20:27:14.992Z</time>
</trkpt>
<trkpt lat="-27.3683136" lon="152.9789899">
<ele>53.265</ele>
<time>2015-12-29T20:27:16.980Z</time>
</trkpt>
<trkpt lat="-27.3688497" lon="152.9792722">
<ele>53.829</ele>
<time>2015-12-29T20:27:19.873Z</time>
</trkpt>
<trkpt lat="-27.3692184" lon="152.9794531">
<ele>53.288</ele>
<time>2015-12-29T20:27:21.846Z</time>
</trkpt>
<trkpt lat="-27.3695902" lon="152.9796341">
<ele>51.598</ele>
<time>2015-12-29T20:27:23.866Z</time>
</trkpt>
<trkpt lat="-27.3701387" lon="152.9798931">
<ele>49.861</ele>
<time>2015-12-29T20:27:26.864Z</time>
</trkpt>
<trkpt lat="-27.3706691" lon="152.9801243">
<ele>49.257</ele>
<time>2015-12-29T20:27:29.766Z</time>
</trkpt>
<trkpt lat="-27.3712443" lon="152.9803077">
<ele>50.567</ele>
<time>2015-12-29T20:27:32.836Z</time>
</trkpt>
<trkpt lat="-27.3716302" lon="152.9803893">
<ele>53.952</ele>
<time>2015-12-29T20:27:34.842Z</time>
</trkpt>
<trkpt lat="-27.3722316" lon="152.9804561">
<ele>58.213</ele>
<time>2015-12-29T20:27:37.902Z</time>
</trkpt>
<trkpt lat="-27.3728229" lon="152.9804641">
<ele>61.742</ele>
<time>2015-12-29T20:27:40.849Z</time>
</trkpt>
<trkpt lat="-27.3732278" lon="152.9804456">
<ele>63.978</ele>
<time>2015-12-29T20:27:42.840Z</time>
</trkpt>
<trkpt lat="-27.3738318" lon="152.9804367">
<ele>65.206</ele>
<time>2015-12-29T20:27:45.814Z</time>
</trkpt>
<trkpt lat="-27.3742471" lon="152.9804129">
<ele>65.661</ele>
<time>2015-12-29T20:27:47.895Z</time>
</trkpt>
<trkpt lat="-27.3748384" lon="152.9804206">
<ele>65.344</ele>
<time>2015-12-29T20:27:50.873Z</time>
</trkpt>
<trkpt lat="-27.3752338" lon="152.9804260">
<ele>64.620</ele>
<time>2015-12-29T20:27:52.912Z</time>
</trkpt>
<trkpt lat="-27.3758070" lon="152.9804630">
<ele>64.018</ele>
<time>2015-12-29T20:27:56.032Z</time>
</trkpt>
<trkpt lat="-27.3762977" lon="152.9805019">
<ele>63.952</ele>
<time>2015-12-29T20:27:58.887Z</time>
</trkpt>
<trkpt lat="-27.3767945" lon="152.9805259">
<ele>64.438</ele>
<time>2015-12-29T20:28:01.809Z</time>
</trkpt>
<trkpt lat="-27.3773190" lon="152.9805897">
<ele>65.297</ele>
<time>2015-12-29T20:28:04.847Z</time>
</trkpt>
<trkpt lat="-27.3776679" lon="152.9806318">
<ele>66.287</ele>
<time>2015-12-29T20:28:06.826Z</time>
</trkpt>
<trkpt lat="-27.3780405" lon="152.9806805">
<ele>66.987</ele>
<time>2015-12-29T20:28:08.949Z</time>
</trkpt>
<trkpt lat="-27.3783888" lon="152.9807407">
<ele>67.157</ele>
<time>2015-12-29T20:28:10.987Z</time>
</trkpt>
<trkpt lat="-27.3787157" lon="152.9808018">
<ele>67.033</ele>
<time>2015-12-29T20:28:12.950Z</time>
</trkpt>
<trkpt lat="-27.3792076" lon="152.9809128">
<ele>66.398</ele>
<time>2015-12-29T20:28:15.917Z</time>
</trkpt>
<trkpt lat="-27.3797129" lon="152.9810498">
<ele>64.574</ele>
<time>2015-12-29T20:28:18.967Z</time>
</trkpt>
<trkpt lat="-27.3801541" lon="152.9812996">
<ele>61.549</ele>
<time>2015-12-29T20:28:21.830Z</time>
</trkpt>
<trkpt lat="-27.3804501" lon="152.9815017">
<ele>58.103</ele>
<time>2015-12-29T20:28:23.802Z</time>
</trkpt>
<trkpt lat="-27.3807635" lon="152.9817574">
<ele>55.068</ele>
<time>2015-12-29T20:28:26.026Z</time>
</trkpt>
<trkpt lat="-27.3811453" lon="152.9821320">
<ele>52.943</ele>
<time>2015-12-29T20:28:28.952Z</time>
</trkpt>
<trkpt lat="-27.3813993" lon="152.9824112">
<ele>51.556</ele>
<time>2015-12-29T20:28:30.995Z</time>
</trkpt>
<trkpt lat="-27.3816376" lon="152.9826731">
<ele>50.461</ele>
<time>2015-12-29T20:28:32.907Z</time>
</trkpt>
<trkpt lat="-27.3819058" lon="152.9829178">
<ele>49.611</ele>
<time>2015-12-29T20:28:34.871Z</time>
</trkpt>
<trkpt lat="-27.3823834" lon="152.9831896">
<ele>49.175</ele>
<time>2015-12-29T20:28:37.876Z</time>
</trkpt>
<trkpt lat="-27.3827067" lon="152.9833110">
<ele>49.133</ele>
<time>2015-12-29T20:28:39.766Z</time>
</trkpt>
<trkpt lat="-27.3832068" lon="152.9834727">
<ele>49.765</ele>
<time>2015-12-29T20:28:42.670Z</time>
</trkpt>
<trkpt lat="-27.3835341" lon="152.9835569">
<ele>51.672</ele>
<time>2015-12-29T20:28:44.567Z</time>
</trkpt>
<trkpt lat="-27.3838614" lon="152.9836469">
<ele>54.706</ele>
<time>2015-12-29T20:28:46.468Z</time>
</trkpt>
<trkpt lat="-27.3843784" lon="152.9838049">
<ele>57.994</ele>
<time>2015-12-29T20:28:49.492Z</time>
</trkpt>
<trkpt lat="-27.3847019" lon="152.9839551">
<ele>61.651</ele>
<time>2015-12-29T20:28:51.472Z</time>
</trkpt>
<trkpt lat="-27.3851540" lon="152.9842574">
<ele>65.839</ele>
<time>2015-12-29T20:28:54.416Z</time>
</trkpt>
<trkpt lat="-27.3854449" lon="152.9844939">
<ele>69.325</ele>
<time>2015-12-29T20:28:56.419Z</time>
</trkpt>
<trkpt lat="-27.3858856" lon="152.9847584">
<ele>70.999</ele>
<time>2015-12-29T20:28:59.232Z</time>
</trkpt>
<trkpt lat="-27.3864029" lon="152.9848815">
<ele>70.910</ele>
<time>2015-12-29T20:29:02.207Z</time>
</trkpt>
<trkpt lat="-27.3867954" lon="152.9848975">
<ele>69.724</ele>
<time>2015-12-29T20:29:04.422Z</time>
</trkpt>
<trkpt lat="-27.3872910" lon="152.9849267">
<ele>68.216</ele>
<time>2015-12-29T20:29:07.313Z</time>
</trkpt>
<trkpt lat="-27.3877907" lon="152.9849726">
<ele>66.501</ele>
<time>2015-12-29T20:29:10.359Z</time>
</trkpt>
<trkpt lat="-27.3882584" lon="152.9850444">
<ele>64.670</ele>
<time>2015-12-29T20:29:13.328Z</time>
</trkpt>
<trkpt lat="-27.3887156" lon="152.9851018">
<ele>63.359</ele>
<time>2015-12-29T20:29:16.315Z</time>
</trkpt>
<trkpt lat="-27.3890113" lon="152.9851479">
<ele>62.948</ele>
<time>2015-12-29T20:29:18.294Z</time>
</trkpt>
<trkpt lat="-27.3893096" lon="152.9851765">
<ele>63.581</ele>
<time>2015-12-29T20:29:20.276Z</time>
</trkpt>
<trkpt lat="-27.3896247" lon="152.9852002">
<ele>65.143</ele>
<time>2015-12-29T20:29:22.302Z</time>
</trkpt>
<trkpt lat="-27.3899321" lon="152.9852321">
<ele>66.920</ele>
<time>2015-12-29T20:29:24.233Z</time>
</trkpt>
<trkpt lat="-27.3904142" lon="152.9852627">
<ele>68.529</ele>
<time>2015-12-29T20:29:27.257Z</time>
</trkpt>
<trkpt lat="-27.3907352" lon="152.9852816">
<ele>70.015</ele>
<time>2015-12-29T20:29:29.287Z</time>
</trkpt>
<trkpt lat="-27.3912048" lon="152.9852319">
<ele>71.052</ele>
<time>2015-12-29T20:29:32.290Z</time>
</trkpt>
<trkpt lat="-27.3914896" lon="152.9851648">
<ele>71.665</ele>
<time>2015-12-29T20:29:34.177Z</time>
</trkpt>
<trkpt lat="-27.3917839" lon="152.9851138">
<ele>72.283</ele>
<time>2015-12-29T20:29:36.092Z</time>
</trkpt>
<trkpt lat="-27.3920631" lon="152.9850702">
<ele>72.543</ele>
<time>2015-12-29T20:29:37.868Z</time>
</trkpt>
<trkpt lat="-27.3925431" lon="152.9850820">
<ele>71.432</ele>
<time>2015-12-29T20:29:40.849Z</time>
</trkpt>
<trkpt lat="-27.3928543" lon="152.9851815">
<ele>68.376</ele>
<time>2015-12-29T20:29:42.865Z</time>
</trkpt>
<trkpt lat="-27.3931641" lon="152.9852958">
<ele>64.042</ele>
<time>2015-12-29T20:29:44.912Z</time>
</trkpt>
<trkpt lat="-27.3934811" lon="152.9854357">
<ele>60.148</ele>
<time>2015-12-29T20:29:47.048Z</time>
</trkpt>
<trkpt lat="-27.3939421" lon="152.9856246">
<ele>57.971</ele>
<time>2015-12-29T20:29:50.143Z</time>
</trkpt>
<trkpt lat="-27.3942292" lon="152.9857417">
<ele>58.274</ele>
<time>2015-12-29T20:29:52.110Z</time>
</trkpt>
<trkpt lat="-27.3946370" lon="152.9859107">
<ele>60.843</ele>
<time>2015-12-29T20:29:54.951Z</time>
</trkpt>
<trkpt lat="-27.3949120" lon="152.9860210">
<ele>63.756</ele>
<time>2015-12-29T20:29:56.882Z</time>
</trkpt>
<trkpt lat="-27.3952000" lon="152.9861391">
<ele>64.871</ele>
<time>2015-12-29T20:29:58.908Z</time>
</trkpt>
<trkpt lat="-27.3956094" lon="152.9863527">
<ele>63.494</ele>
<time>2015-12-29T20:30:01.887Z</time>
</trkpt>
<trkpt lat="-27.3959007" lon="152.9864819">
<ele>60.024</ele>
<time>2015-12-29T20:30:03.949Z</time>
</trkpt>
<trkpt lat="-27.3963338" lon="152.9866721">
<ele>55.774</ele>
<time>2015-12-29T20:30:07.006Z</time>
</trkpt>
<trkpt lat="-27.3966134" lon="152.9867950">
<ele>52.392</ele>
<time>2015-12-29T20:30:08.976Z</time>
</trkpt>
<trkpt lat="-27.3969134" lon="152.9869297">
<ele>51.481</ele>
<time>2015-12-29T20:30:11.128Z</time>
</trkpt>
<trkpt lat="-27.3973172" lon="152.9870986">
<ele>53.417</ele>
<time>2015-12-29T20:30:14.148Z</time>
</trkpt>
<trkpt lat="-27.3976191" lon="152.9870983">
<ele>56.998</ele>
<time>2015-12-29T20:30:16.407Z</time>
</trkpt>
<trkpt lat="-27.3979119" lon="152.9869429">
<ele>60.515</ele>
<time>2015-12-29T20:30:18.853Z</time>
</trkpt>
<trkpt lat="-27.3981576" lon="152.9867537">
<ele>63.055</ele>
<time>2015-12-29T20:30:20.934Z</time>
</trkpt>
<trkpt lat="-27.3985396" lon="152.9864725">
<ele>64.526</ele>
<time>2015-12-29T20:30:24.069Z</time>
</trkpt>
<trkpt lat="-27.3989221" lon="152.9863056">
<ele>64.911</ele>
<time>2015-12-29T20:30:26.984Z</time>
</trkpt>
<trkpt lat="-27.3992318" lon="152.9863073">
<ele>63.341</ele>
<time>2015-12-29T20:30:29.141Z</time>
</trkpt>
<trkpt lat="-27.3995166" lon="152.9863488">
<ele>59.497</ele>
<time>2015-12-29T20:30:31.036Z</time>
</trkpt>
<trkpt lat="-27.3999922" lon="152.9864562">
<ele>54.567</ele>
<time>2015-12-29T20:30:34.131Z</time>
</trkpt>
<trkpt lat="-27.4002985" lon="152.9865287">
<ele>49.812</ele>
<time>2015-12-29T20:30:36.102Z</time>
</trkpt>
<trkpt lat="-27.4006076" lon="152.9866111">
<ele>45.797</ele>
<time>2015-12-29T20:30:38.131Z</time>
</trkpt>
<trkpt lat="-27.4010365" lon="152.9867575">
<ele>43.114</ele>
<time>2015-12-29T20:30:41.045Z</time>
</trkpt>
<trkpt lat="-27.4014404" lon="152.9869618">
<ele>41.420</ele>
<time>2015-12-29T20:30:43.994Z</time>
</trkpt>
<trkpt lat="-27.4017377" lon="152.9870111">
<ele>39.508</ele>
<time>2015-12-29T20:30:45.988Z</time>
</trkpt>
<trkpt lat="-27.4022323" lon="152.9870688">
<ele>37.112</ele>
<time>2015-12-29T20:30:49.217Z</time>
</trkpt>
<trkpt lat="-27.4026679" lon="152.9871900">
<ele>35.097</ele>
<time>2015-12-29T20:30:52.150Z</time>
</trkpt>
<trkpt lat="-27.4029126" lon="152.9873708">
<ele>33.856</ele>
<time>2015-12-29T20:30:54.085Z</time>
</trkpt>
<trkpt lat="-27.4032663" lon="152.9876943">
<ele>32.991</ele>
<time>2015-12-29T20:30:57.078Z</time>
</trkpt>
<trkpt lat="-27.4035027" lon="152.9879094">
<ele>32.268</ele>
<time>2015-12-29T20:30:59.043Z</time>
</trkpt>
<trkpt lat="-27.4037418" lon="152.9881251">
<ele>31.720</ele>
<time>2015-12-29T20:31:01.000Z</time>
</trkpt>
<trkpt lat="-27.4041064" lon="152.9884286">
<ele>31.166</ele>
<time>2015-12-29T20:31:03.908Z</time>
</trkpt>
<trkpt lat="-27.4044738" lon="152.9887481">
<ele>30.468</ele>
<time>2015-12-29T20:31:06.944Z</time>
</trkpt>
<trkpt lat="-27.4046662" lon="152.9890105">
<ele>29.766</ele>
<time>2015-12-29T20:31:08.947Z</time>
</trkpt>
<trkpt lat="-27.4048265" lon="152.9893019">
<ele>29.307</ele>
<time>2015-12-29T20:31:10.953Z</time>
</trkpt>
<trkpt lat="-27.4050760" lon="152.9897285">
<ele>29.197</ele>
<time>2015-12-29T20:31:13.945Z</time>
</trkpt>
<trkpt lat="-27.4053595" lon="152.9901263">
<ele>29.303</ele>
<time>2015-12-29T20:31:17.008Z</time>
</trkpt>
<trkpt lat="-27.4056427" lon="152.9904830">
<ele>29.501</ele>
<time>2015-12-29T20:31:20.009Z</time>
</trkpt>
<trkpt lat="-27.4058332" lon="152.9906903">
<ele>29.737</ele>
<time>2015-12-29T20:31:22.047Z</time>
</trkpt>
<trkpt lat="-27.4061452" lon="152.9908580">
<ele>29.847</ele>
<time>2015-12-29T20:31:24.841Z</time>
</trkpt>
<trkpt lat="-27.4063898" lon="152.9909048">
<ele>29.734</ele>
<time>2015-12-29T20:31:26.798Z</time>
</trkpt>
<trkpt lat="-27.4066838" lon="152.9909326">
<ele>29.576</ele>
<time>2015-12-29T20:31:29.064Z</time>
</trkpt>
<trkpt lat="-27.4070422" lon="152.9909908">
<ele>29.542</ele>
<time>2015-12-29T20:31:32.124Z</time>
</trkpt>
<trkpt lat="-27.4071529" lon="152.9910977">
<ele>29.236</ele>
<time>2015-12-29T20:31:33.637Z</time>
</trkpt>
<trkpt lat="-27.4071084" lon="152.9914494">
<ele>28.323</ele>
<time>2015-12-29T20:31:36.964Z</time>
</trkpt>
<trkpt lat="-27.4070144" lon="152.9917389">
<ele>27.300</ele>
<time>2015-12-29T20:31:39.152Z</time>
</trkpt>
<trkpt lat="-27.4068859" lon="152.9922329">
<ele>26.918</ele>
<time>2015-12-29T20:31:42.302Z</time>
</trkpt>
<trkpt lat="-27.4069126" lon="152.9927335">
<ele>27.376</ele>
<time>2015-12-29T20:31:45.163Z</time>
</trkpt>
<trkpt lat="-27.4069615" lon="152.9930722">
<ele>28.495</ele>
<time>2015-12-29T20:31:47.105Z</time>
</trkpt>
<trkpt lat="-27.4070387" lon="152.9935820">
<ele>29.625</ele>
<time>2015-12-29T20:31:50.054Z</time>
</trkpt>
<trkpt lat="-27.4071196" lon="152.9940971">
<ele>30.107</ele>
<time>2015-12-29T20:31:53.061Z</time>
</trkpt>
<trkpt lat="-27.4071666" lon="152.9944303">
<ele>29.958</ele>
<time>2015-12-29T20:31:55.026Z</time>
</trkpt>
<trkpt lat="-27.4072147" lon="152.9947576">
<ele>29.634</ele>
<time>2015-12-29T20:31:56.964Z</time>
</trkpt>
<trkpt lat="-27.4072699" lon="152.9951086">
<ele>29.438</ele>
<time>2015-12-29T20:31:59.033Z</time>
</trkpt>
<trkpt lat="-27.4073472" lon="152.9956121">
<ele>29.473</ele>
<time>2015-12-29T20:32:01.985Z</time>
</trkpt>
<trkpt lat="-27.4074135" lon="152.9961238">
<ele>29.771</ele>
<time>2015-12-29T20:32:04.944Z</time>
</trkpt>
<trkpt lat="-27.4074162" lon="152.9964816">
<ele>30.544</ele>
<time>2015-12-29T20:32:06.962Z</time>
</trkpt>
<trkpt lat="-27.4073861" lon="152.9968327">
<ele>31.755</ele>
<time>2015-12-29T20:32:08.956Z</time>
</trkpt>
<trkpt lat="-27.4073142" lon="152.9973440">
<ele>33.051</ele>
<time>2015-12-29T20:32:11.976Z</time>
</trkpt>
<trkpt lat="-27.4072538" lon="152.9977962">
<ele>34.579</ele>
<time>2015-12-29T20:32:14.900Z</time>
</trkpt>
<trkpt lat="-27.4072137" lon="152.9980329">
<ele>36.649</ele>
<time>2015-12-29T20:32:16.794Z</time>
</trkpt>
<trkpt lat="-27.4071823" lon="152.9982667">
<ele>38.704</ele>
<time>2015-12-29T20:32:19.000Z</time>
</trkpt>
<trkpt lat="-27.4071823" lon="152.9982667">
<ele>39.772</ele>
<time>2015-12-29T20:32:23.000Z</time>
</trkpt>
<trkpt lat="-27.4071823" lon="152.9982667">
<ele>39.713</ele>
<time>2015-12-29T20:32:24.676Z</time>
</trkpt>
<trkpt lat="-27.4071827" lon="152.9985146">
<ele>39.343</ele>
<time>2015-12-29T20:32:29.297Z</time>
</trkpt>
<trkpt lat="-27.4072742" lon="152.9987525">
<ele>39.597</ele>
<time>2015-12-29T20:32:31.506Z</time>
</trkpt>
<trkpt lat="-27.4074092" lon="152.9990012">
<ele>40.982</ele>
<time>2015-12-29T20:32:33.454Z</time>
</trkpt>
<trkpt lat="-27.4075427" lon="152.9994637">
<ele>43.512</ele>
<time>2015-12-29T20:32:36.407Z</time>
</trkpt>
<trkpt lat="-27.4077013" lon="152.9997790">
<ele>46.737</ele>
<time>2015-12-29T20:32:38.479Z</time>
</trkpt>
<trkpt lat="-27.4079792" lon="153.0002213">
<ele>49.887</ele>
<time>2015-12-29T20:32:41.610Z</time>
</trkpt>
<trkpt lat="-27.4080808" lon="153.0005190">
<ele>52.139</ele>
<time>2015-12-29T20:32:43.506Z</time>
</trkpt>
<trkpt lat="-27.4081501" lon="153.0008570">
<ele>53.097</ele>
<time>2015-12-29T20:32:45.539Z</time>
</trkpt>
<trkpt lat="-27.4081662" lon="153.0011509">
<ele>53.091</ele>
<time>2015-12-29T20:32:47.237Z</time>
</trkpt>
<trkpt lat="-27.4082460" lon="153.0016824">
<ele>52.540</ele>
<time>2015-12-29T20:32:50.296Z</time>
</trkpt>
<trkpt lat="-27.4083243" lon="153.0021905">
<ele>51.142</ele>
<time>2015-12-29T20:32:53.181Z</time>
</trkpt>
<trkpt lat="-27.4083988" lon="153.0027065">
<ele>48.956</ele>
<time>2015-12-29T20:32:56.092Z</time>
</trkpt>
<trkpt lat="-27.4084805" lon="153.0032355">
<ele>46.603</ele>
<time>2015-12-29T20:32:59.094Z</time>
</trkpt>
<trkpt lat="-27.4085311" lon="153.0035833">
<ele>44.232</ele>
<time>2015-12-29T20:33:01.051Z</time>
</trkpt>
<trkpt lat="-27.4085734" lon="153.0039364">
<ele>41.943</ele>
<time>2015-12-29T20:33:03.021Z</time>
</trkpt>
<trkpt lat="-27.4086796" lon="153.0044704">
<ele>40.222</ele>
<time>2015-12-29T20:33:06.051Z</time>
</trkpt>
<trkpt lat="-27.4087540" lon="153.0049896">
<ele>39.175</ele>
<time>2015-12-29T20:33:08.994Z</time>
</trkpt>
<trkpt lat="-27.4087983" lon="153.0052984">
<ele>38.510</ele>
<time>2015-12-29T20:33:10.780Z</time>
</trkpt>
<trkpt lat="-27.4088475" lon="153.0056645">
<ele>37.559</ele>
<time>2015-12-29T20:33:12.941Z</time>
</trkpt>
<trkpt lat="-27.4089265" lon="153.0061796">
<ele>35.855</ele>
<time>2015-12-29T20:33:16.163Z</time>
</trkpt>
<trkpt lat="-27.4089723" lon="153.0064549">
<ele>33.505</ele>
<time>2015-12-29T20:33:18.252Z</time>
</trkpt>
<trkpt lat="-27.4090062" lon="153.0066645">
<ele>30.760</ele>
<time>2015-12-29T20:33:20.084Z</time>
</trkpt>
<trkpt lat="-27.4090374" lon="153.0068837">
<ele>27.830</ele>
<time>2015-12-29T20:33:23.040Z</time>
</trkpt>
<trkpt lat="-27.4090442" lon="153.0069861">
<ele>25.084</ele>
<time>2015-12-29T20:33:25.000Z</time>
</trkpt>
<trkpt lat="-27.4090442" lon="153.0069861">
<ele>23.021</ele>
<time>2015-12-29T20:33:29.000Z</time>
</trkpt>
<trkpt lat="-27.4090442" lon="153.0069861">
<ele>22.099</ele>
<time>2015-12-29T20:34:05.006Z</time>
</trkpt>
<trkpt lat="-27.4091283" lon="153.0071470">
<ele>22.255</ele>
<time>2015-12-29T20:34:11.333Z</time>
</trkpt>
<trkpt lat="-27.4091476" lon="153.0074334">
<ele>22.847</ele>
<time>2015-12-29T20:34:14.527Z</time>
</trkpt>
<trkpt lat="-27.4091775" lon="153.0076832">
<ele>23.595</ele>
<time>2015-12-29T20:34:16.526Z</time>
</trkpt>
<trkpt lat="-27.4092103" lon="153.0080783">
<ele>24.755</ele>
<time>2015-12-29T20:34:19.545Z</time>
</trkpt>
<trkpt lat="-27.4092701" lon="153.0084611">
<ele>26.116</ele>
<time>2015-12-29T20:34:22.471Z</time>
</trkpt>
<trkpt lat="-27.4092989" lon="153.0087164">
<ele>26.819</ele>
<time>2015-12-29T20:34:24.338Z</time>
</trkpt>
<trkpt lat="-27.4093492" lon="153.0090118">
<ele>26.569</ele>
<time>2015-12-29T20:34:26.433Z</time>
</trkpt>
<trkpt lat="-27.4094061" lon="153.0094423">
<ele>25.991</ele>
<time>2015-12-29T20:34:29.481Z</time>
</trkpt>
<trkpt lat="-27.4094313" lon="153.0097016">
<ele>25.667</ele>
<time>2015-12-29T20:34:31.425Z</time>
</trkpt>
<trkpt lat="-27.4094710" lon="153.0099604">
<ele>25.641</ele>
<time>2015-12-29T20:34:33.393Z</time>
</trkpt>
<trkpt lat="-27.4095210" lon="153.0103124">
<ele>25.694</ele>
<time>2015-12-29T20:34:35.976Z</time>
</trkpt>
<trkpt lat="-27.4095747" lon="153.0106498">
<ele>25.725</ele>
<time>2015-12-29T20:34:38.255Z</time>
</trkpt>
<trkpt lat="-27.4096159" lon="153.0109568">
<ele>25.870</ele>
<time>2015-12-29T20:34:40.262Z</time>
</trkpt>
<trkpt lat="-27.4096487" lon="153.0112529">
<ele>26.133</ele>
<time>2015-12-29T20:34:42.227Z</time>
</trkpt>
<trkpt lat="-27.4097044" lon="153.0115559">
<ele>26.292</ele>
<time>2015-12-29T20:34:44.259Z</time>
</trkpt>
<trkpt lat="-27.4097558" lon="153.0118472">
<ele>26.275</ele>
<time>2015-12-29T20:34:46.131Z</time>
</trkpt>
<trkpt lat="-27.4097858" lon="153.0121742">
<ele>26.404</ele>
<time>2015-12-29T20:34:48.077Z</time>
</trkpt>
<trkpt lat="-27.4098660" lon="153.0127037">
<ele>27.054</ele>
<time>2015-12-29T20:34:51.121Z</time>
</trkpt>
<trkpt lat="-27.4098962" lon="153.0130450">
<ele>28.155</ele>
<time>2015-12-29T20:34:53.038Z</time>
</trkpt>
<trkpt lat="-27.4099718" lon="153.0135676">
<ele>29.440</ele>
<time>2015-12-29T20:34:55.973Z</time>
</trkpt>
<trkpt lat="-27.4100651" lon="153.0141159">
<ele>30.841</ele>
<time>2015-12-29T20:34:58.944Z</time>
</trkpt>
<trkpt lat="-27.4101187" lon="153.0146557">
<ele>32.138</ele>
<time>2015-12-29T20:35:01.744Z</time>
</trkpt>
<trkpt lat="-27.4101638" lon="153.0152089">
<ele>32.939</ele>
<time>2015-12-29T20:35:04.663Z</time>
</trkpt>
<trkpt lat="-27.4101866" lon="153.0155623">
<ele>32.761</ele>
<time>2015-12-29T20:35:06.609Z</time>
</trkpt>
<trkpt lat="-27.4102779" lon="153.0161173">
<ele>31.624</ele>
<time>2015-12-29T20:35:09.745Z</time>
</trkpt>
<trkpt lat="-27.4103267" lon="153.0164771">
<ele>30.384</ele>
<time>2015-12-29T20:35:11.765Z</time>
</trkpt>
<trkpt lat="-27.4103644" lon="153.0168120">
<ele>29.830</ele>
<time>2015-12-29T20:35:13.645Z</time>
</trkpt>
<trkpt lat="-27.4104430" lon="153.0173433">
<ele>30.110</ele>
<time>2015-12-29T20:35:16.663Z</time>
</trkpt>
<trkpt lat="-27.4105203" lon="153.0176953">
<ele>30.728</ele>
<time>2015-12-29T20:35:18.671Z</time>
</trkpt>
<trkpt lat="-27.4105913" lon="153.0180566">
<ele>30.804</ele>
<time>2015-12-29T20:35:20.656Z</time>
</trkpt>
<trkpt lat="-27.4106711" lon="153.0184285">
<ele>30.235</ele>
<time>2015-12-29T20:35:22.651Z</time>
</trkpt>
<trkpt lat="-27.4107570" lon="153.0188194">
<ele>29.782</ele>
<time>2015-12-29T20:35:24.721Z</time>
</trkpt>
<trkpt lat="-27.4108106" lon="153.0192422">
<ele>29.985</ele>
<time>2015-12-29T20:35:26.901Z</time>
</trkpt>
<trkpt lat="-27.4108700" lon="153.0197817">
<ele>30.675</ele>
<time>2015-12-29T20:35:29.679Z</time>
</trkpt>
<trkpt lat="-27.4109346" lon="153.0201448">
<ele>31.096</ele>
<time>2015-12-29T20:35:31.576Z</time>
</trkpt>
<trkpt lat="-27.4110074" lon="153.0207052">
<ele>30.825</ele>
<time>2015-12-29T20:35:34.508Z</time>
</trkpt>
<trkpt lat="-27.4110468" lon="153.0210347">
<ele>29.850</ele>
<time>2015-12-29T20:35:36.291Z</time>
</trkpt>
<trkpt lat="-27.4111267" lon="153.0215412">
<ele>28.423</ele>
<time>2015-12-29T20:35:39.127Z</time>
</trkpt>
<trkpt lat="-27.4111719" lon="153.0218627">
<ele>27.684</ele>
<time>2015-12-29T20:35:40.936Z</time>
</trkpt>
<trkpt lat="-27.4111847" lon="153.0222071">
<ele>28.376</ele>
<time>2015-12-29T20:35:42.831Z</time>
</trkpt>
<trkpt lat="-27.4112466" lon="153.0227394">
<ele>29.705</ele>
<time>2015-12-29T20:35:45.773Z</time>
</trkpt>
<trkpt lat="-27.4112904" lon="153.0230907">
<ele>30.808</ele>
<time>2015-12-29T20:35:47.718Z</time>
</trkpt>
<trkpt lat="-27.4113184" lon="153.0234307">
<ele>31.648</ele>
<time>2015-12-29T20:35:49.592Z</time>
</trkpt>
<trkpt lat="-27.4113547" lon="153.0237729">
<ele>32.434</ele>
<time>2015-12-29T20:35:51.510Z</time>
</trkpt>
<trkpt lat="-27.4113999" lon="153.0241051">
<ele>33.151</ele>
<time>2015-12-29T20:35:53.436Z</time>
</trkpt>
<trkpt lat="-27.4114281" lon="153.0244190">
<ele>33.615</ele>
<time>2015-12-29T20:35:55.324Z</time>
</trkpt>
<trkpt lat="-27.4114818" lon="153.0248978">
<ele>34.131</ele>
<time>2015-12-29T20:35:58.282Z</time>
</trkpt>
<trkpt lat="-27.4115454" lon="153.0253958">
<ele>35.227</ele>
<time>2015-12-29T20:36:01.300Z</time>
</trkpt>
<trkpt lat="-27.4115996" lon="153.0257342">
<ele>36.815</ele>
<time>2015-12-29T20:36:03.305Z</time>
</trkpt>
<trkpt lat="-27.4116419" lon="153.0260577">
<ele>38.346</ele>
<time>2015-12-29T20:36:05.212Z</time>
</trkpt>
<trkpt lat="-27.4116879" lon="153.0264006">
<ele>39.436</ele>
<time>2015-12-29T20:36:07.363Z</time>
</trkpt>
<trkpt lat="-27.4117280" lon="153.0268202">
<ele>39.973</ele>
<time>2015-12-29T20:36:10.205Z</time>
</trkpt>
<trkpt lat="-27.4117884" lon="153.0272554">
<ele>40.126</ele>
<time>2015-12-29T20:36:13.341Z</time>
</trkpt>
<trkpt lat="-27.4118099" lon="153.0275531">
<ele>40.470</ele>
<time>2015-12-29T20:36:15.394Z</time>
</trkpt>
<trkpt lat="-27.4118440" lon="153.0278730">
<ele>41.273</ele>
<time>2015-12-29T20:36:17.445Z</time>
</trkpt>
<trkpt lat="-27.4119170" lon="153.0283455">
<ele>41.837</ele>
<time>2015-12-29T20:36:20.424Z</time>
</trkpt>
<trkpt lat="-27.4119605" lon="153.0286747">
<ele>41.576</ele>
<time>2015-12-29T20:36:22.461Z</time>
</trkpt>
<trkpt lat="-27.4120380" lon="153.0292081">
<ele>40.728</ele>
<time>2015-12-29T20:36:25.586Z</time>
</trkpt>
<trkpt lat="-27.4120880" lon="153.0295592">
<ele>39.559</ele>
<time>2015-12-29T20:36:27.577Z</time>
</trkpt>
<trkpt lat="-27.4121357" lon="153.0298972">
<ele>38.133</ele>
<time>2015-12-29T20:36:29.475Z</time>
</trkpt>
<trkpt lat="-27.4122110" lon="153.0304247">
<ele>36.527</ele>
<time>2015-12-29T20:36:32.469Z</time>
</trkpt>
<trkpt lat="-27.4122488" lon="153.0309583">
<ele>34.422</ele>
<time>2015-12-29T20:36:35.435Z</time>
</trkpt>
<trkpt lat="-27.4122736" lon="153.0314661">
<ele>31.511</ele>
<time>2015-12-29T20:36:38.226Z</time>
</trkpt>
<trkpt lat="-27.4123112" lon="153.0319454">
<ele>28.031</ele>
<time>2015-12-29T20:36:40.925Z</time>
</trkpt>
<trkpt lat="-27.4123388" lon="153.0322352">
<ele>24.317</ele>
<time>2015-12-29T20:36:42.620Z</time>
</trkpt>
<trkpt lat="-27.4123871" lon="153.0326857">
<ele>20.862</ele>
<time>2015-12-29T20:36:45.401Z</time>
</trkpt>
<trkpt lat="-27.4125400" lon="153.0333224">
<ele>17.244</ele>
<time>2015-12-29T20:36:49.832Z</time>
</trkpt>
<trkpt lat="-27.4125400" lon="153.0333224">
<ele>17.244</ele>
<time>2015-12-29T20:36:49.832Z</time>
</trkpt>
<trkpt lat="-27.4438737" lon="153.0322657">
<ele>38.007</ele>
<time>2015-12-29T20:40:22.331Z</time>
</trkpt>
<trkpt lat="-27.4443698" lon="153.0324295">
<ele>37.989</ele>
<time>2015-12-29T20:40:25.516Z</time>
</trkpt>
<trkpt lat="-27.4448044" lon="153.0326635">
<ele>38.377</ele>
<time>2015-12-29T20:40:28.407Z</time>
</trkpt>
<trkpt lat="-27.4450641" lon="153.0327758">
<ele>39.404</ele>
<time>2015-12-29T20:40:30.023Z</time>
</trkpt>
<trkpt lat="-27.4454609" lon="153.0328037">
<ele>39.997</ele>
<time>2015-12-29T20:40:32.334Z</time>
</trkpt>
<trkpt lat="-27.4458659" lon="153.0326638">
<ele>38.935</ele>
<time>2015-12-29T20:40:34.796Z</time>
</trkpt>
<trkpt lat="-27.4460661" lon="153.0324956">
<ele>36.480</ele>
<time>2015-12-29T20:40:36.247Z</time>
</trkpt>
<trkpt lat="-27.4462720" lon="153.0322549">
<ele>33.657</ele>
<time>2015-12-29T20:40:37.971Z</time>
</trkpt>
<trkpt lat="-27.4465941" lon="153.0318764">
<ele>31.245</ele>
<time>2015-12-29T20:40:40.675Z</time>
</trkpt>
<trkpt lat="-27.4469863" lon="153.0315688">
<ele>29.557</ele>
<time>2015-12-29T20:40:43.453Z</time>
</trkpt>
<trkpt lat="-27.4474125" lon="153.0313442">
<ele>28.241</ele>
<time>2015-12-29T20:40:46.187Z</time>
</trkpt>
<trkpt lat="-27.4477263" lon="153.0312279">
<ele>26.731</ele>
<time>2015-12-29T20:40:48.107Z</time>
</trkpt>
<trkpt lat="-27.4481872" lon="153.0310659">
<ele>25.094</ele>
<time>2015-12-29T20:40:50.912Z</time>
</trkpt>
<trkpt lat="-27.4481872" lon="153.0310659">
<ele>25.094</ele>
<time>2015-12-29T20:40:50.912Z</time>
</trkpt>
<trkpt lat="-27.4514792" lon="153.0265631">
<ele>30.171</ele>
<time>2015-12-29T20:41:20.660Z</time>
</trkpt>
<trkpt lat="-27.4516238" lon="153.0261721">
<ele>30.157</ele>
<time>2015-12-29T20:41:22.814Z</time>
</trkpt>
<trkpt lat="-27.4518696" lon="153.0256970">
<ele>30.173</ele>
<time>2015-12-29T20:41:25.593Z</time>
</trkpt>
<trkpt lat="-27.4520618" lon="153.0253867">
<ele>30.286</ele>
<time>2015-12-29T20:41:27.478Z</time>
</trkpt>
<trkpt lat="-27.4522786" lon="153.0251014">
<ele>30.786</ele>
<time>2015-12-29T20:41:29.344Z</time>
</trkpt>
<trkpt lat="-27.4526481" lon="153.0247131">
<ele>31.763</ele>
<time>2015-12-29T20:41:32.188Z</time>
</trkpt>
<trkpt lat="-27.4530554" lon="153.0243829">
<ele>32.797</ele>
<time>2015-12-29T20:41:35.070Z</time>
</trkpt>
<trkpt lat="-27.4535032" lon="153.0241129">
<ele>33.449</ele>
<time>2015-12-29T20:41:37.987Z</time>
</trkpt>
<trkpt lat="-27.4538191" lon="153.0239662">
<ele>33.710</ele>
<time>2015-12-29T20:41:39.904Z</time>
</trkpt>
<trkpt lat="-27.4541479" lon="153.0238498">
<ele>33.770</ele>
<time>2015-12-29T20:41:41.804Z</time>
</trkpt>
<trkpt lat="-27.4546536" lon="153.0236714">
<ele>33.929</ele>
<time>2015-12-29T20:41:44.724Z</time>
</trkpt>
<trkpt lat="-27.4549676" lon="153.0235028">
<ele>34.335</ele>
<time>2015-12-29T20:41:46.643Z</time>
</trkpt>
<trkpt lat="-27.4555785" lon="153.0230975">
<ele>34.814</ele>
<time>2015-12-29T20:41:50.571Z</time>
</trkpt>
<trkpt lat="-27.4558200" lon="153.0228829">
<ele>35.277</ele>
<time>2015-12-29T20:41:52.280Z</time>
</trkpt>
<trkpt lat="-27.4560830" lon="153.0225980">
<ele>35.938</ele>
<time>2015-12-29T20:41:54.308Z</time>
</trkpt>
<trkpt lat="-27.4562981" lon="153.0223326">
<ele>36.720</ele>
<time>2015-12-29T20:41:56.087Z</time>
</trkpt>
<trkpt lat="-27.4565147" lon="153.0220045">
<ele>37.108</ele>
<time>2015-12-29T20:41:58.100Z</time>
</trkpt>
<trkpt lat="-27.4566979" lon="153.0216689">
<ele>36.901</ele>
<time>2015-12-29T20:42:00.027Z</time>
</trkpt>
<trkpt lat="-27.4569281" lon="153.0211144">
<ele>36.389</ele>
<time>2015-12-29T20:42:02.933Z</time>
</trkpt>
<trkpt lat="-27.4570885" lon="153.0205503">
<ele>35.979</ele>
<time>2015-12-29T20:42:05.606Z</time>
</trkpt>
<trkpt lat="-27.4571565" lon="153.0199665">
<ele>35.920</ele>
<time>2015-12-29T20:42:08.260Z</time>
</trkpt>
<trkpt lat="-27.4571772" lon="153.0193674">
<ele>36.171</ele>
<time>2015-12-29T20:42:10.962Z</time>
</trkpt>
<trkpt lat="-27.4571779" lon="153.0187978">
<ele>36.638</ele>
<time>2015-12-29T20:42:13.529Z</time>
</trkpt>
<trkpt lat="-27.4571640" lon="153.0184141">
<ele>37.265</ele>
<time>2015-12-29T20:42:15.260Z</time>
</trkpt>
<trkpt lat="-27.4571334" lon="153.0177731">
<ele>37.534</ele>
<time>2015-12-29T20:42:18.153Z</time>
</trkpt>
<trkpt lat="-27.4571155" lon="153.0171292">
<ele>36.832</ele>
<time>2015-12-29T20:42:21.057Z</time>
</trkpt>
<trkpt lat="-27.4571155" lon="153.0171292">
<ele>36.832</ele>
<time>2015-12-29T20:42:21.057Z</time>
</trkpt>
<trkpt lat="-27.4792106" lon="152.9764956">
<ele>53.329</ele>
<time>2015-12-29T20:45:55.479Z</time>
</trkpt>
<trkpt lat="-27.4795052" lon="152.9758544">
<ele>53.305</ele>
<time>2015-12-29T20:45:58.557Z</time>
</trkpt>
<trkpt lat="-27.4797535" lon="152.9752698">
<ele>53.648</ele>
<time>2015-12-29T20:46:01.154Z</time>
</trkpt>
<trkpt lat="-27.4799391" lon="152.9748865">
<ele>54.787</ele>
<time>2015-12-29T20:46:02.852Z</time>
</trkpt>
<trkpt lat="-27.4802329" lon="152.9743050">
<ele>56.632</ele>
<time>2015-12-29T20:46:05.408Z</time>
</trkpt>
<trkpt lat="-27.4804167" lon="152.9739080">
<ele>58.580</ele>
<time>2015-12-29T20:46:07.130Z</time>
</trkpt>
<trkpt lat="-27.4806171" lon="152.9734956">
<ele>60.353</ele>
<time>2015-12-29T20:46:08.955Z</time>
</trkpt>
<trkpt lat="-27.4809228" lon="152.9728228">
<ele>62.000</ele>
<time>2015-12-29T20:46:11.906Z</time>
</trkpt>
<trkpt lat="-27.4812623" lon="152.9721425">
<ele>63.328</ele>
<time>2015-12-29T20:46:14.914Z</time>
</trkpt>
<trkpt lat="-27.4815909" lon="152.9714694">
<ele>64.052</ele>
<time>2015-12-29T20:46:17.851Z</time>
</trkpt>
<trkpt lat="-27.4818072" lon="152.9710451">
<ele>64.311</ele>
<time>2015-12-29T20:46:19.735Z</time>
</trkpt>
<trkpt lat="-27.4820231" lon="152.9706065">
<ele>64.364</ele>
<time>2015-12-29T20:46:21.666Z</time>
</trkpt>
<trkpt lat="-27.4822441" lon="152.9701571">
<ele>64.519</ele>
<time>2015-12-29T20:46:23.635Z</time>
</trkpt>
<trkpt lat="-27.4825945" lon="152.9694832">
<ele>64.938</ele>
<time>2015-12-29T20:46:26.635Z</time>
</trkpt>
<trkpt lat="-27.4828683" lon="152.9690551">
<ele>65.769</ele>
<time>2015-12-29T20:46:28.662Z</time>
</trkpt>
<trkpt lat="-27.4831692" lon="152.9686749">
<ele>67.245</ele>
<time>2015-12-29T20:46:30.623Z</time>
</trkpt>
<trkpt lat="-27.4836711" lon="152.9681405">
<ele>69.024</ele>
<time>2015-12-29T20:46:33.667Z</time>
</trkpt>
<trkpt lat="-27.4840157" lon="152.9678126">
<ele>70.255</ele>
<time>2015-12-29T20:46:35.684Z</time>
</trkpt>
<trkpt lat="-27.4845810" lon="152.9673823">
<ele>70.676</ele>
<time>2015-12-29T20:46:38.720Z</time>
</trkpt>
<trkpt lat="-27.4851859" lon="152.9670026">
<ele>71.088</ele>
<time>2015-12-29T20:46:41.780Z</time>
</trkpt>
<trkpt lat="-27.4855831" lon="152.9668099">
<ele>72.408</ele>
<time>2015-12-29T20:46:43.683Z</time>
</trkpt>
<trkpt lat="-27.4860020" lon="152.9666571">
<ele>74.307</ele>
<time>2015-12-29T20:46:45.621Z</time>
</trkpt>
<trkpt lat="-27.4864346" lon="152.9665382">
<ele>75.700</ele>
<time>2015-12-29T20:46:47.600Z</time>
</trkpt>
<trkpt lat="-27.4870960" lon="152.9664277">
<ele>76.260</ele>
<time>2015-12-29T20:46:50.588Z</time>
</trkpt>
<trkpt lat="-27.4875401" lon="152.9664049">
<ele>76.350</ele>
<time>2015-12-29T20:46:52.548Z</time>
</trkpt>
<trkpt lat="-27.4882149" lon="152.9664376">
<ele>76.293</ele>
<time>2015-12-29T20:46:55.465Z</time>
</trkpt>
<trkpt lat="-27.4886587" lon="152.9664939">
<ele>76.071</ele>
<time>2015-12-29T20:46:57.394Z</time>
</trkpt>
<trkpt lat="-27.4893157" lon="152.9666446">
<ele>75.448</ele>
<time>2015-12-29T20:47:00.317Z</time>
</trkpt>
<trkpt lat="-27.4897288" lon="152.9667239">
<ele>74.321</ele>
<time>2015-12-29T20:47:02.146Z</time>
</trkpt>
<trkpt lat="-27.4901798" lon="152.9668025">
<ele>72.970</ele>
<time>2015-12-29T20:47:04.122Z</time>
</trkpt>
<trkpt lat="-27.4908694" lon="152.9668412">
<ele>71.540</ele>
<time>2015-12-29T20:47:07.083Z</time>
</trkpt>
<trkpt lat="-27.4913092" lon="152.9667937">
<ele>69.953</ele>
<time>2015-12-29T20:47:08.973Z</time>
</trkpt>
<trkpt lat="-27.4917576" lon="152.9667288">
<ele>68.229</ele>
<time>2015-12-29T20:47:10.912Z</time>
</trkpt>
<trkpt lat="-27.4924407" lon="152.9665635">
<ele>66.424</ele>
<time>2015-12-29T20:47:13.926Z</time>
</trkpt>
<trkpt lat="-27.4930800" lon="152.9662750">
<ele>64.376</ele>
<time>2015-12-29T20:47:16.884Z</time>
</trkpt>
<trkpt lat="-27.4934890" lon="152.9660267">
<ele>61.708</ele>
<time>2015-12-29T20:47:18.871Z</time>
</trkpt>
<trkpt lat="-27.4940633" lon="152.9655960">
<ele>58.664</ele>
<time>2015-12-29T20:47:21.843Z</time>
</trkpt>
<trkpt lat="-27.4944491" lon="152.9653035">
<ele>56.061</ele>
<time>2015-12-29T20:47:23.889Z</time>
</trkpt>
<trkpt lat="-27.4950269" lon="152.9648944">
<ele>54.132</ele>
<time>2015-12-29T20:47:26.892Z</time>
</trkpt>
<trkpt lat="-27.4954184" lon="152.9646188">
<ele>52.718</ele>
<time>2015-12-29T20:47:28.903Z</time>
</trkpt>
<trkpt lat="-27.4958336" lon="152.9643835">
<ele>51.519</ele>
<time>2015-12-29T20:47:30.928Z</time>
</trkpt>
<trkpt lat="-27.4962467" lon="152.9641852">
<ele>49.800</ele>
<time>2015-12-29T20:47:32.889Z</time>
</trkpt>
<trkpt lat="-27.4966796" lon="152.9640588">
<ele>47.196</ele>
<time>2015-12-29T20:47:34.830Z</time>
</trkpt>
<trkpt lat="-27.4973378" lon="152.9638469">
<ele>44.304</ele>
<time>2015-12-29T20:47:37.779Z</time>
</trkpt>
<trkpt lat="-27.4979545" lon="152.9635993">
<ele>41.845</ele>
<time>2015-12-29T20:47:40.615Z</time>
</trkpt>
<trkpt lat="-27.4986083" lon="152.9633828">
<ele>39.564</ele>
<time>2015-12-29T20:47:43.586Z</time>
</trkpt>
<trkpt lat="-27.4990538" lon="152.9632461">
<ele>37.250</ele>
<time>2015-12-29T20:47:45.604Z</time>
</trkpt>
<trkpt lat="-27.4997480" lon="152.9630704">
<ele>35.563</ele>
<time>2015-12-29T20:47:48.711Z</time>
</trkpt>
<trkpt lat="-27.5003900" lon="152.9628527">
<ele>34.445</ele>
<time>2015-12-29T20:47:51.690Z</time>
</trkpt>
<trkpt lat="-27.5010522" lon="152.9626997">
<ele>33.282</ele>
<time>2015-12-29T20:47:54.758Z</time>
</trkpt>
<trkpt lat="-27.5017390" lon="152.9627088">
<ele>32.164</ele>
<time>2015-12-29T20:47:57.816Z</time>
</trkpt>
<trkpt lat="-27.5021904" lon="152.9627903">
<ele>31.385</ele>
<time>2015-12-29T20:47:59.818Z</time>
</trkpt>
<trkpt lat="-27.5027957" lon="152.9630035">
<ele>28.850</ele>
<time>2015-12-29T20:48:02.615Z</time>
</trkpt>
<trkpt lat="-27.5031952" lon="152.9631768">
<ele>23.195</ele>
<time>2015-12-29T20:48:04.487Z</time>
</trkpt>
<trkpt lat="-27.5038421" lon="152.9633698">
<ele>17.461</ele>
<time>2015-12-29T20:48:07.388Z</time>
</trkpt>
<trkpt lat="-27.5042838" lon="152.9634229">
<ele>15.306</ele>
<time>2015-12-29T20:48:09.306Z</time>
</trkpt>
<trkpt lat="-27.5047199" lon="152.9634030">
<ele>16.413</ele>
<time>2015-12-29T20:48:11.204Z</time>
</trkpt>
<trkpt lat="-27.5051547" lon="152.9633367">
<ele>18.123</ele>
<time>2015-12-29T20:48:13.121Z</time>
</trkpt>
<trkpt lat="-27.5056261" lon="152.9632433">
<ele>18.165</ele>
<time>2015-12-29T20:48:15.244Z</time>
</trkpt>
<trkpt lat="-27.5062529" lon="152.9629766">
<ele>16.392</ele>
<time>2015-12-29T20:48:18.210Z</time>
</trkpt>
<trkpt lat="-27.5066896" lon="152.9627672">
<ele>13.704</ele>
<time>2015-12-29T20:48:20.289Z</time>
</trkpt>
<trkpt lat="-27.5072436" lon="152.9623847">
<ele>10.881</ele>
<time>2015-12-29T20:48:23.109Z</time>
</trkpt>
<trkpt lat="-27.5076004" lon="152.9620921">
<ele>8.373</ele>
<time>2015-12-29T20:48:25.031Z</time>
</trkpt>
<trkpt lat="-27.5080565" lon="152.9615420">
<ele>6.613</ele>
<time>2015-12-29T20:48:27.968Z</time>
</trkpt>
<trkpt lat="-27.5084425" lon="152.9609335">
<ele>5.948</ele>
<time>2015-12-29T20:48:30.888Z</time>
</trkpt>
<trkpt lat="-27.5088800" lon="152.9602922">
<ele>6.420</ele>
<time>2015-12-29T20:48:34.023Z</time>
</trkpt>
<trkpt lat="-27.5092927" lon="152.9597341">
<ele>8.057</ele>
<time>2015-12-29T20:48:36.828Z</time>
</trkpt>
<trkpt lat="-27.5096306" lon="152.9593952">
<ele>10.565</ele>
<time>2015-12-29T20:48:38.784Z</time>
</trkpt>
<trkpt lat="-27.5101832" lon="152.9589496">
<ele>12.956</ele>
<time>2015-12-29T20:48:41.691Z</time>
</trkpt>
<trkpt lat="-27.5105702" lon="152.9586991">
<ele>14.962</ele>
<time>2015-12-29T20:48:43.600Z</time>
</trkpt>
<trkpt lat="-27.5109673" lon="152.9584735">
<ele>17.287</ele>
<time>2015-12-29T20:48:45.510Z</time>
</trkpt>
<trkpt lat="-27.5115750" lon="152.9581252">
<ele>20.389</ele>
<time>2015-12-29T20:48:48.452Z</time>
</trkpt>
<trkpt lat="-27.5122098" lon="152.9578354">
<ele>23.935</ele>
<time>2015-12-29T20:48:51.462Z</time>
</trkpt>
<trkpt lat="-27.5126070" lon="152.9576127">
<ele>26.865</ele>
<time>2015-12-29T20:48:53.479Z</time>
</trkpt>
<trkpt lat="-27.5130539" lon="152.9574072">
<ele>28.296</ele>
<time>2015-12-29T20:48:55.763Z</time>
</trkpt>
<trkpt lat="-27.5136648" lon="152.9570974">
<ele>28.505</ele>
<time>2015-12-29T20:48:59.024Z</time>
</trkpt>
<trkpt lat="-27.5143003" lon="152.9568136">
<ele>27.330</ele>
<time>2015-12-29T20:49:02.378Z</time>
</trkpt>
<trkpt lat="-27.5146887" lon="152.9566472">
<ele>24.155</ele>
<time>2015-12-29T20:49:04.431Z</time>
</trkpt>
<trkpt lat="-27.5150515" lon="152.9564405">
<ele>19.595</ele>
<time>2015-12-29T20:49:06.459Z</time>
</trkpt>
<trkpt lat="-27.5155954" lon="152.9561553">
<ele>15.380</ele>
<time>2015-12-29T20:49:09.476Z</time>
</trkpt>
<trkpt lat="-27.5161615" lon="152.9558731">
<ele>11.907</ele>
<time>2015-12-29T20:49:12.564Z</time>
</trkpt>
<trkpt lat="-27.5164820" lon="152.9556270">
<ele>8.770</ele>
<time>2015-12-29T20:49:14.468Z</time>
</trkpt>
<trkpt lat="-27.5168186" lon="152.9553992">
<ele>6.494</ele>
<time>2015-12-29T20:49:16.387Z</time>
</trkpt>
<trkpt lat="-27.5172682" lon="152.9549738">
<ele>5.462</ele>
<time>2015-12-29T20:49:19.244Z</time>
</trkpt>
<trkpt lat="-27.5176759" lon="152.9544823">
<ele>5.006</ele>
<time>2015-12-29T20:49:22.132Z</time>
</trkpt>
<trkpt lat="-27.5180847" lon="152.9539784">
<ele>4.992</ele>
<time>2015-12-29T20:49:25.049Z</time>
</trkpt>
<trkpt lat="-27.5183264" lon="152.9536203">
<ele>5.507</ele>
<time>2015-12-29T20:49:26.961Z</time>
</trkpt>
<trkpt lat="-27.5185687" lon="152.9532380">
<ele>6.557</ele>
<time>2015-12-29T20:49:28.954Z</time>
</trkpt>
<trkpt lat="-27.5188801" lon="152.9526534">
<ele>8.195</ele>
<time>2015-12-29T20:49:31.834Z</time>
</trkpt>
<trkpt lat="-27.5191487" lon="152.9520380">
<ele>10.466</ele>
<time>2015-12-29T20:49:34.721Z</time>
</trkpt>
<trkpt lat="-27.5193743" lon="152.9514021">
<ele>13.530</ele>
<time>2015-12-29T20:49:37.603Z</time>
</trkpt>
<trkpt lat="-27.5195976" lon="152.9507494">
<ele>16.863</ele>
<time>2015-12-29T20:49:40.575Z</time>
</trkpt>
<trkpt lat="-27.5198194" lon="152.9500921">
<ele>19.100</ele>
<time>2015-12-29T20:49:43.617Z</time>
</trkpt>
<trkpt lat="-27.5200944" lon="152.9494538">
<ele>19.742</ele>
<time>2015-12-29T20:49:46.712Z</time>
</trkpt>
<trkpt lat="-27.5204585" lon="152.9489154">
<ele>19.186</ele>
<time>2015-12-29T20:49:49.600Z</time>
</trkpt>
<trkpt lat="-27.5209320" lon="152.9485028">
<ele>17.806</ele>
<time>2015-12-29T20:49:52.389Z</time>
</trkpt>
<trkpt lat="-27.5214810" lon="152.9482695">
<ele>16.251</ele>
<time>2015-12-29T20:49:55.078Z</time>
</trkpt>
<trkpt lat="-27.5221030" lon="152.9481312">
<ele>15.471</ele>
<time>2015-12-29T20:49:58.005Z</time>
</trkpt>
<trkpt lat="-27.5226897" lon="152.9480167">
<ele>16.311</ele>
<time>2015-12-29T20:50:00.880Z</time>
</trkpt>
<trkpt lat="-27.5231261" lon="152.9479371">
<ele>18.687</ele>
<time>2015-12-29T20:50:03.110Z</time>
</trkpt>
<trkpt lat="-27.5237774" lon="152.9478146">
<ele>21.363</ele>
<time>2015-12-29T20:50:06.421Z</time>
</trkpt>
<trkpt lat="-27.5243001" lon="152.9476674">
<ele>23.689</ele>
<time>2015-12-29T20:50:09.010Z</time>
</trkpt>
<trkpt lat="-27.5246775" lon="152.9475798">
<ele>25.841</ele>
<time>2015-12-29T20:50:10.859Z</time>
</trkpt>
<trkpt lat="-27.5250653" lon="152.9474917">
<ele>27.438</ele>
<time>2015-12-29T20:50:12.775Z</time>
</trkpt>
<trkpt lat="-27.5256815" lon="152.9473842">
<ele>27.470</ele>
<time>2015-12-29T20:50:15.868Z</time>
</trkpt>
<trkpt lat="-27.5262929" lon="152.9472866">
<ele>25.269</ele>
<time>2015-12-29T20:50:18.901Z</time>
</trkpt>
<trkpt lat="-27.5268702" lon="152.9471849">
<ele>21.305</ele>
<time>2015-12-29T20:50:21.741Z</time>
</trkpt>
<trkpt lat="-27.5272543" lon="152.9471188">
<ele>16.723</ele>
<time>2015-12-29T20:50:23.629Z</time>
</trkpt>
<trkpt lat="-27.5278844" lon="152.9470537">
<ele>12.632</ele>
<time>2015-12-29T20:50:26.704Z</time>
</trkpt>
<trkpt lat="-27.5282948" lon="152.9469824">
<ele>10.088</ele>
<time>2015-12-29T20:50:28.712Z</time>
</trkpt>
<trkpt lat="-27.5288974" lon="152.9468739">
<ele>9.263</ele>
<time>2015-12-29T20:50:31.560Z</time>
</trkpt>
<trkpt lat="-27.5294534" lon="152.9467572">
<ele>9.230</ele>
<time>2015-12-29T20:50:34.018Z</time>
</trkpt>
<trkpt lat="-27.5300660" lon="152.9466441">
<ele>9.048</ele>
<time>2015-12-29T20:50:36.481Z</time>
</trkpt>
<trkpt lat="-27.5304932" lon="152.9465765">
<ele>8.513</ele>
<time>2015-12-29T20:50:38.155Z</time>
</trkpt>
<trkpt lat="-27.5312435" lon="152.9465075">
<ele>8.057</ele>
<time>2015-12-29T20:50:41.057Z</time>
</trkpt>
<trkpt lat="-27.5317691" lon="152.9464641">
<ele>8.480</ele>
<time>2015-12-29T20:50:43.073Z</time>
</trkpt>
<trkpt lat="-27.5322865" lon="152.9464321">
<ele>10.070</ele>
<time>2015-12-29T20:50:45.054Z</time>
</trkpt>
<trkpt lat="-27.5330370" lon="152.9464601">
<ele>11.893</ele>
<time>2015-12-29T20:50:47.963Z</time>
</trkpt>
<trkpt lat="-27.5338017" lon="152.9465340">
<ele>13.181</ele>
<time>2015-12-29T20:50:50.978Z</time>
</trkpt>
<trkpt lat="-27.5342948" lon="152.9466108">
<ele>14.082</ele>
<time>2015-12-29T20:50:52.941Z</time>
</trkpt>
<trkpt lat="-27.5350524" lon="152.9467427">
<ele>14.083</ele>
<time>2015-12-29T20:50:55.955Z</time>
</trkpt>
<trkpt lat="-27.5358029" lon="152.9468402">
<ele>12.510</ele>
<time>2015-12-29T20:50:58.879Z</time>
</trkpt>
<trkpt lat="-27.5362965" lon="152.9468643">
<ele>9.950</ele>
<time>2015-12-29T20:51:00.794Z</time>
</trkpt>
<trkpt lat="-27.5368058" lon="152.9468307">
<ele>7.479</ele>
<time>2015-12-29T20:51:02.814Z</time>
</trkpt>
<trkpt lat="-27.5375837" lon="152.9467276">
<ele>5.716</ele>
<time>2015-12-29T20:51:05.962Z</time>
</trkpt>
<trkpt lat="-27.5380597" lon="152.9466151">
<ele>4.694</ele>
<time>2015-12-29T20:51:07.926Z</time>
</trkpt>
<trkpt lat="-27.5386868" lon="152.9463438">
<ele>4.068</ele>
<time>2015-12-29T20:51:10.621Z</time>
</trkpt>
<trkpt lat="-27.5391516" lon="152.9461540">
<ele>3.668</ele>
<time>2015-12-29T20:51:12.589Z</time>
</trkpt>
<trkpt lat="-27.5398147" lon="152.9457769">
<ele>3.483</ele>
<time>2015-12-29T20:51:15.510Z</time>
</trkpt>
<trkpt lat="-27.5404351" lon="152.9453298">
<ele>3.380</ele>
<time>2015-12-29T20:51:18.419Z</time>
</trkpt>
<trkpt lat="-27.5410799" lon="152.9448482">
<ele>3.202</ele>
<time>2015-12-29T20:51:21.516Z</time>
</trkpt>
<trkpt lat="-27.5414746" lon="152.9445526">
<ele>2.992</ele>
<time>2015-12-29T20:51:23.415Z</time>
</trkpt>
<trkpt lat="-27.5420865" lon="152.9440763">
<ele>2.844</ele>
<time>2015-12-29T20:51:26.380Z</time>
</trkpt>
<trkpt lat="-27.5424644" lon="152.9437687">
<ele>2.761</ele>
<time>2015-12-29T20:51:28.230Z</time>
</trkpt>
<trkpt lat="-27.5430981" lon="152.9433320">
<ele>2.801</ele>
<time>2015-12-29T20:51:31.176Z</time>
</trkpt>
<trkpt lat="-27.5437631" lon="152.9429295">
<ele>3.671</ele>
<time>2015-12-29T20:51:34.167Z</time>
</trkpt>
<trkpt lat="-27.5442111" lon="152.9426966">
<ele>6.498</ele>
<time>2015-12-29T20:51:36.109Z</time>
</trkpt>
<trkpt lat="-27.5446777" lon="152.9424789">
<ele>10.716</ele>
<time>2015-12-29T20:51:38.090Z</time>
</trkpt>
<trkpt lat="-27.5453841" lon="152.9421930">
<ele>14.507</ele>
<time>2015-12-29T20:51:41.018Z</time>
</trkpt>
<trkpt lat="-27.5461084" lon="152.9419549">
<ele>17.169</ele>
<time>2015-12-29T20:51:43.980Z</time>
</trkpt>
<trkpt lat="-27.5466109" lon="152.9418355">
<ele>18.701</ele>
<time>2015-12-29T20:51:46.021Z</time>
</trkpt>
<trkpt lat="-27.5473487" lon="152.9416694">
<ele>19.291</ele>
<time>2015-12-29T20:51:49.032Z</time>
</trkpt>
<trkpt lat="-27.5480723" lon="152.9415633">
<ele>19.583</ele>
<time>2015-12-29T20:51:51.957Z</time>
</trkpt>
<trkpt lat="-27.5485693" lon="152.9415134">
<ele>19.956</ele>
<time>2015-12-29T20:51:53.956Z</time>
</trkpt>
<trkpt lat="-27.5490648" lon="152.9414896">
<ele>20.337</ele>
<time>2015-12-29T20:51:55.944Z</time>
</trkpt>
<trkpt lat="-27.5498212" lon="152.9414750">
<ele>20.536</ele>
<time>2015-12-29T20:51:58.940Z</time>
</trkpt>
<trkpt lat="-27.5505501" lon="152.9413614">
<ele>20.475</ele>
<time>2015-12-29T20:52:01.814Z</time>
</trkpt>
<trkpt lat="-27.5510552" lon="152.9412750">
<ele>20.117</ele>
<time>2015-12-29T20:52:03.801Z</time>
</trkpt>
<trkpt lat="-27.5518231" lon="152.9411253">
<ele>19.044</ele>
<time>2015-12-29T20:52:06.836Z</time>
</trkpt>
<trkpt lat="-27.5525515" lon="152.9409543">
<ele>16.965</ele>
<time>2015-12-29T20:52:09.726Z</time>
</trkpt>
<trkpt lat="-27.5530510" lon="152.9408687">
<ele>14.581</ele>
<time>2015-12-29T20:52:11.678Z</time>
</trkpt>
<trkpt lat="-27.5538222" lon="152.9407585">
<ele>12.959</ele>
<time>2015-12-29T20:52:14.682Z</time>
</trkpt>
<trkpt lat="-27.5543142" lon="152.9406551">
<ele>12.497</ele>
<time>2015-12-29T20:52:16.628Z</time>
</trkpt>
<trkpt lat="-27.5550548" lon="152.9405054">
<ele>12.992</ele>
<time>2015-12-29T20:52:19.562Z</time>
</trkpt>
<trkpt lat="-27.5555440" lon="152.9404185">
<ele>14.528</ele>
<time>2015-12-29T20:52:21.494Z</time>
</trkpt>
<trkpt lat="-27.5562948" lon="152.9402588">
<ele>17.090</ele>
<time>2015-12-29T20:52:24.490Z</time>
</trkpt>
<trkpt lat="-27.5567851" lon="152.9401469">
<ele>19.859</ele>
<time>2015-12-29T20:52:26.472Z</time>
</trkpt>
<trkpt lat="-27.5575302" lon="152.9400250">
<ele>22.765</ele>
<time>2015-12-29T20:52:29.476Z</time>
</trkpt>
<trkpt lat="-27.5582754" lon="152.9399310">
<ele>26.044</ele>
<time>2015-12-29T20:52:32.480Z</time>
</trkpt>
<trkpt lat="-27.5590194" lon="152.9399441">
<ele>28.335</ele>
<time>2015-12-29T20:52:35.516Z</time>
</trkpt>
<trkpt lat="-27.5597644" lon="152.9400431">
<ele>28.685</ele>
<time>2015-12-29T20:52:38.644Z</time>
</trkpt>
<trkpt lat="-27.5602207" lon="152.9401596">
<ele>28.004</ele>
<time>2015-12-29T20:52:40.579Z</time>
</trkpt>
<trkpt lat="-27.5608910" lon="152.9404169">
<ele>27.344</ele>
<time>2015-12-29T20:52:43.445Z</time>
</trkpt>
<trkpt lat="-27.5615386" lon="152.9407232">
<ele>26.831</ele>
<time>2015-12-29T20:52:46.245Z</time>
</trkpt>
<trkpt lat="-27.5621964" lon="152.9410543">
<ele>25.819</ele>
<time>2015-12-29T20:52:49.135Z</time>
</trkpt>
<trkpt lat="-27.5626681" lon="152.9412775">
<ele>23.600</ele>
<time>2015-12-29T20:52:51.205Z</time>
</trkpt>
<trkpt lat="-27.5631162" lon="152.9414927">
<ele>20.226</ele>
<time>2015-12-29T20:52:53.163Z</time>
</trkpt>
<trkpt lat="-27.5637954" lon="152.9417905">
<ele>16.456</ele>
<time>2015-12-29T20:52:56.034Z</time>
</trkpt>
<trkpt lat="-27.5642654" lon="152.9420030">
<ele>12.995</ele>
<time>2015-12-29T20:52:58.018Z</time>
</trkpt>
<trkpt lat="-27.5647553" lon="152.9422549">
<ele>10.307</ele>
<time>2015-12-29T20:53:00.126Z</time>
</trkpt>
<trkpt lat="-27.5652101" lon="152.9424855">
<ele>8.584</ele>
<time>2015-12-29T20:53:02.074Z</time>
</trkpt>
<trkpt lat="-27.5659054" lon="152.9428244">
<ele>7.651</ele>
<time>2015-12-29T20:53:05.011Z</time>
</trkpt>
<trkpt lat="-27.5666139" lon="152.9431551">
<ele>7.432</ele>
<time>2015-12-29T20:53:07.951Z</time>
</trkpt>
<trkpt lat="-27.5670942" lon="152.9433693">
<ele>7.863</ele>
<time>2015-12-29T20:53:09.955Z</time>
</trkpt>
<trkpt lat="-27.5675854" lon="152.9435483">
<ele>8.565</ele>
<time>2015-12-29T20:53:11.977Z</time>
</trkpt>
<trkpt lat="-27.5680613" lon="152.9437025">
<ele>9.168</ele>
<time>2015-12-29T20:53:13.927Z</time>
</trkpt>
<trkpt lat="-27.5687875" lon="152.9438735">
<ele>9.862</ele>
<time>2015-12-29T20:53:16.824Z</time>
</trkpt>
<trkpt lat="-27.5695382" lon="152.9440188">
<ele>11.649</ele>
<time>2015-12-29T20:53:19.796Z</time>
</trkpt>
<trkpt lat="-27.5703059" lon="152.9441427">
<ele>14.676</ele>
<time>2015-12-29T20:53:22.832Z</time>
</trkpt>
<trkpt lat="-27.5710230" lon="152.9442712">
<ele>18.144</ele>
<time>2015-12-29T20:53:25.663Z</time>
</trkpt>
<trkpt lat="-27.5717736" lon="152.9444001">
<ele>21.441</ele>
<time>2015-12-29T20:53:28.657Z</time>
</trkpt>
<trkpt lat="-27.5722772" lon="152.9444630">
<ele>24.019</ele>
<time>2015-12-29T20:53:30.661Z</time>
</trkpt>
<trkpt lat="-27.5730140" lon="152.9445883">
<ele>25.493</ele>
<time>2015-12-29T20:53:33.542Z</time>
</trkpt>
<trkpt lat="-27.5735204" lon="152.9446589">
<ele>25.733</ele>
<time>2015-12-29T20:53:35.494Z</time>
</trkpt>
<trkpt lat="-27.5742753" lon="152.9447572">
<ele>24.805</ele>
<time>2015-12-29T20:53:38.489Z</time>
</trkpt>
<trkpt lat="-27.5747687" lon="152.9448209">
<ele>23.653</ele>
<time>2015-12-29T20:53:40.557Z</time>
</trkpt>
<trkpt lat="-27.5754935" lon="152.9449359">
<ele>23.033</ele>
<time>2015-12-29T20:53:43.731Z</time>
</trkpt>
<trkpt lat="-27.5759365" lon="152.9449999">
<ele>22.247</ele>
<time>2015-12-29T20:53:45.675Z</time>
</trkpt>
<trkpt lat="-27.5763861" lon="152.9450463">
<ele>20.415</ele>
<time>2015-12-29T20:53:47.620Z</time>
</trkpt>
<trkpt lat="-27.5770873" lon="152.9450455">
<ele>18.065</ele>
<time>2015-12-29T20:53:50.617Z</time>
</trkpt>
<trkpt lat="-27.5777716" lon="152.9449382">
<ele>16.197</ele>
<time>2015-12-29T20:53:53.572Z</time>
</trkpt>
<trkpt lat="-27.5784624" lon="152.9447430">
<ele>14.779</ele>
<time>2015-12-29T20:53:56.650Z</time>
</trkpt>
<trkpt lat="-27.5787691" lon="152.9443760">
<ele>13.382</ele>
<time>2015-12-29T20:53:58.566Z</time>
</trkpt>
<trkpt lat="-27.5793026" lon="152.9438266">
<ele>12.013</ele>
<time>2015-12-29T20:54:01.662Z</time>
</trkpt>
<trkpt lat="-27.5797023" lon="152.9432006">
<ele>10.830</ele>
<time>2015-12-29T20:54:04.629Z</time>
</trkpt>
<trkpt lat="-27.5799701" lon="152.9425156">
<ele>9.634</ele>
<time>2015-12-29T20:54:07.550Z</time>
</trkpt>
<trkpt lat="-27.5800953" lon="152.9420285">
<ele>8.345</ele>
<time>2015-12-29T20:54:09.525Z</time>
</trkpt>
<trkpt lat="-27.5801706" lon="152.9412759">
<ele>7.093</ele>
<time>2015-12-29T20:54:12.453Z</time>
</trkpt>
<trkpt lat="-27.5801341" lon="152.9407624">
<ele>5.968</ele>
<time>2015-12-29T20:54:14.428Z</time>
</trkpt>
<trkpt lat="-27.5800622" lon="152.9402598">
<ele>5.218</ele>
<time>2015-12-29T20:54:16.372Z</time>
</trkpt>
<trkpt lat="-27.5799789" lon="152.9394974">
<ele>5.311</ele>
<time>2015-12-29T20:54:19.257Z</time>
</trkpt>
<trkpt lat="-27.5800094" lon="152.9387164">
<ele>6.688</ele>
<time>2015-12-29T20:54:22.090Z</time>
</trkpt>
<trkpt lat="-27.5801829" lon="152.9379185">
<ele>9.167</ele>
<time>2015-12-29T20:54:24.969Z</time>
</trkpt>
<trkpt lat="-27.5804888" lon="152.9371326">
<ele>12.152</ele>
<time>2015-12-29T20:54:27.935Z</time>
</trkpt>
<trkpt lat="-27.5808727" lon="152.9363831">
<ele>14.996</ele>
<time>2015-12-29T20:54:30.961Z</time>
</trkpt>
<trkpt lat="-27.5811297" lon="152.9358878">
<ele>17.507</ele>
<time>2015-12-29T20:54:32.984Z</time>
</trkpt>
<trkpt lat="-27.5815306" lon="152.9351748">
<ele>19.816</ele>
<time>2015-12-29T20:54:35.956Z</time>
</trkpt>
<trkpt lat="-27.5819587" lon="152.9344751">
<ele>21.687</ele>
<time>2015-12-29T20:54:38.922Z</time>
</trkpt>
<trkpt lat="-27.5822530" lon="152.9340220">
<ele>22.706</ele>
<time>2015-12-29T20:54:40.867Z</time>
</trkpt>
<trkpt lat="-27.5825297" lon="152.9335505">
<ele>23.038</ele>
<time>2015-12-29T20:54:42.825Z</time>
</trkpt>
<trkpt lat="-27.5829566" lon="152.9328925">
<ele>22.930</ele>
<time>2015-12-29T20:54:45.641Z</time>
</trkpt>
<trkpt lat="-27.5832573" lon="152.9324236">
<ele>22.257</ele>
<time>2015-12-29T20:54:47.624Z</time>
</trkpt>
<trkpt lat="-27.5837055" lon="152.9317320">
<ele>20.842</ele>
<time>2015-12-29T20:54:50.523Z</time>
</trkpt>
<trkpt lat="-27.5841860" lon="152.9310484">
<ele>19.101</ele>
<time>2015-12-29T20:54:53.492Z</time>
</trkpt>
<trkpt lat="-27.5845211" lon="152.9306028">
<ele>17.721</ele>
<time>2015-12-29T20:54:55.495Z</time>
</trkpt>
<trkpt lat="-27.5848519" lon="152.9301680">
<ele>16.992</ele>
<time>2015-12-29T20:54:57.461Z</time>
</trkpt>
<trkpt lat="-27.5854100" lon="152.9295593">
<ele>16.762</ele>
<time>2015-12-29T20:55:00.471Z</time>
</trkpt>
<trkpt lat="-27.5857723" lon="152.9291853">
<ele>16.488</ele>
<time>2015-12-29T20:55:02.371Z</time>
</trkpt>
<trkpt lat="-27.5863620" lon="152.9286652">
<ele>15.539</ele>
<time>2015-12-29T20:55:05.240Z</time>
</trkpt>
<trkpt lat="-27.5869633" lon="152.9281622">
<ele>13.533</ele>
<time>2015-12-29T20:55:08.086Z</time>
</trkpt>
<trkpt lat="-27.5876175" lon="152.9276916">
<ele>10.945</ele>
<time>2015-12-29T20:55:11.062Z</time>
</trkpt>
<trkpt lat="-27.5880592" lon="152.9273854">
<ele>8.975</ele>
<time>2015-12-29T20:55:13.087Z</time>
</trkpt>
<trkpt lat="-27.5887048" lon="152.9269559">
<ele>8.203</ele>
<time>2015-12-29T20:55:16.077Z</time>
</trkpt>
<trkpt lat="-27.5893346" lon="152.9264942">
<ele>8.191</ele>
<time>2015-12-29T20:55:19.047Z</time>
</trkpt>
<trkpt lat="-27.5899921" lon="152.9260660">
<ele>8.695</ele>
<time>2015-12-29T20:55:22.012Z</time>
</trkpt>
<trkpt lat="-27.5904319" lon="152.9257655">
<ele>9.620</ele>
<time>2015-12-29T20:55:24.010Z</time>
</trkpt>
<trkpt lat="-27.5910999" lon="152.9253353">
<ele>10.541</ele>
<time>2015-12-29T20:55:26.984Z</time>
</trkpt>
<trkpt lat="-27.5915384" lon="152.9250303">
<ele>11.455</ele>
<time>2015-12-29T20:55:28.975Z</time>
</trkpt>
<trkpt lat="-27.5921901" lon="152.9245852">
<ele>12.570</ele>
<time>2015-12-29T20:55:31.918Z</time>
</trkpt>
<trkpt lat="-27.5928500" lon="152.9241497">
<ele>13.568</ele>
<time>2015-12-29T20:55:34.955Z</time>
</trkpt>
<trkpt lat="-27.5932683" lon="152.9238487">
<ele>14.148</ele>
<time>2015-12-29T20:55:36.987Z</time>
</trkpt>
<trkpt lat="-27.5938669" lon="152.9234547">
<ele>14.748</ele>
<time>2015-12-29T20:55:39.767Z</time>
</trkpt>
<trkpt lat="-27.5943093" lon="152.9231904">
<ele>16.098</ele>
<time>2015-12-29T20:55:41.645Z</time>
</trkpt>
<trkpt lat="-27.5947728" lon="152.9229268">
<ele>18.056</ele>
<time>2015-12-29T20:55:43.526Z</time>
</trkpt>
<trkpt lat="-27.5955281" lon="152.9225337">
<ele>19.787</ele>
<time>2015-12-29T20:55:46.531Z</time>
</trkpt>
<trkpt lat="-27.5960428" lon="152.9223142">
<ele>20.928</ele>
<time>2015-12-29T20:55:48.569Z</time>
</trkpt>
<trkpt lat="-27.5967639" lon="152.9219757">
<ele>21.165</ele>
<time>2015-12-29T20:55:51.545Z</time>
</trkpt>
<trkpt lat="-27.5974628" lon="152.9216327">
<ele>20.094</ele>
<time>2015-12-29T20:55:54.486Z</time>
</trkpt>
<trkpt lat="-27.5981573" lon="152.9213395">
<ele>18.163</ele>
<time>2015-12-29T20:55:57.353Z</time>
</trkpt>
<trkpt lat="-27.5986482" lon="152.9211581">
<ele>16.175</ele>
<time>2015-12-29T20:55:59.348Z</time>
</trkpt>
<trkpt lat="-27.5991374" lon="152.9210003">
<ele>14.569</ele>
<time>2015-12-29T20:56:01.310Z</time>
</trkpt>
<trkpt lat="-27.5998646" lon="152.9207803">
<ele>13.634</ele>
<time>2015-12-29T20:56:04.235Z</time>
</trkpt>
<trkpt lat="-27.6003471" lon="152.9206274">
<ele>13.428</ele>
<time>2015-12-29T20:56:06.207Z</time>
</trkpt>
<trkpt lat="-27.6008393" lon="152.9204833">
<ele>13.858</ele>
<time>2015-12-29T20:56:08.209Z</time>
</trkpt>
<trkpt lat="-27.6015913" lon="152.9202262">
<ele>14.749</ele>
<time>2015-12-29T20:56:11.332Z</time>
</trkpt>
<trkpt lat="-27.6022546" lon="152.9199174">
<ele>15.604</ele>
<time>2015-12-29T20:56:14.262Z</time>
</trkpt>
<trkpt lat="-27.6028905" lon="152.9196119">
<ele>16.163</ele>
<time>2015-12-29T20:56:17.228Z</time>
</trkpt>
<trkpt lat="-27.6034750" lon="152.9192840">
<ele>16.564</ele>
<time>2015-12-29T20:56:20.251Z</time>
</trkpt>
<trkpt lat="-27.6039661" lon="152.9189059">
<ele>16.845</ele>
<time>2015-12-29T20:56:23.183Z</time>
</trkpt>
<trkpt lat="-27.6042716" lon="152.9186366">
<ele>17.004</ele>
<time>2015-12-29T20:56:25.197Z</time>
</trkpt>
<trkpt lat="-27.6047127" lon="152.9182851">
<ele>17.065</ele>
<time>2015-12-29T20:56:28.127Z</time>
</trkpt>
<trkpt lat="-27.6051039" lon="152.9178953">
<ele>16.735</ele>
<time>2015-12-29T20:56:31.094Z</time>
</trkpt>
<trkpt lat="-27.6053569" lon="152.9176366">
<ele>15.687</ele>
<time>2015-12-29T20:56:33.114Z</time>
</trkpt>
<trkpt lat="-27.6056674" lon="152.9171988">
<ele>14.301</ele>
<time>2015-12-29T20:56:36.137Z</time>
</trkpt>
<trkpt lat="-27.6059127" lon="152.9167416">
<ele>13.119</ele>
<time>2015-12-29T20:56:39.097Z</time>
</trkpt>
<trkpt lat="-27.6060646" lon="152.9164245">
<ele>12.070</ele>
<time>2015-12-29T20:56:41.081Z</time>
</trkpt>
<trkpt lat="-27.6061975" lon="152.9160998">
<ele>10.886</ele>
<time>2015-12-29T20:56:43.059Z</time>
</trkpt>
<trkpt lat="-27.6063289" lon="152.9157945">
<ele>9.688</ele>
<time>2015-12-29T20:56:45.005Z</time>
</trkpt>
<trkpt lat="-27.6065080" lon="152.9153597">
<ele>8.552</ele>
<time>2015-12-29T20:56:47.785Z</time>
</trkpt>
<trkpt lat="-27.6066438" lon="152.9150610">
<ele>7.269</ele>
<time>2015-12-29T20:56:49.735Z</time>
</trkpt>
<trkpt lat="-27.6068473" lon="152.9145957">
<ele>5.736</ele>
<time>2015-12-29T20:56:52.709Z</time>
</trkpt>
<trkpt lat="-27.6069920" lon="152.9142543">
<ele>4.196</ele>
<time>2015-12-29T20:56:54.809Z</time>
</trkpt>
<trkpt lat="-27.6071937" lon="152.9137609">
<ele>2.825</ele>
<time>2015-12-29T20:56:57.837Z</time>
</trkpt>
<trkpt lat="-27.6074159" lon="152.9133215">
<ele>1.550</ele>
<time>2015-12-29T20:57:00.717Z</time>
</trkpt>
<trkpt lat="-27.6075861" lon="152.9130430">
<ele>0.160</ele>
<time>2015-12-29T20:57:02.627Z</time>
</trkpt>
<trkpt lat="-27.6078832" lon="152.9125836">
<ele>0.000</ele>
<time>2015-12-29T20:57:05.741Z</time>
</trkpt>
<trkpt lat="-27.6080764" lon="152.9122337">
<ele>0.000</ele>
<time>2015-12-29T20:57:07.855Z</time>
</trkpt>
<trkpt lat="-27.6083058" lon="152.9116934">
<ele>0.000</ele>
<time>2015-12-29T20:57:10.839Z</time>
</trkpt>
<trkpt lat="-27.6085138" lon="152.9111753">
<ele>0.000</ele>
<time>2015-12-29T20:57:13.639Z</time>
</trkpt>
<trkpt lat="-27.6087051" lon="152.9106384">
<ele>0.646</ele>
<time>2015-12-29T20:57:16.498Z</time>
</trkpt>
<trkpt lat="-27.6088334" lon="152.9102504">
<ele>3.716</ele>
<time>2015-12-29T20:57:18.525Z</time>
</trkpt>
<trkpt lat="-27.6089558" lon="152.9098657">
<ele>5.962</ele>
<time>2015-12-29T20:57:20.509Z</time>
</trkpt>
<trkpt lat="-27.6091094" lon="152.9092785">
<ele>6.932</ele>
<time>2015-12-29T20:57:23.475Z</time>
</trkpt>
<trkpt lat="-27.6092496" lon="152.9086849">
<ele>6.661</ele>
<time>2015-12-29T20:57:26.432Z</time>
</trkpt>
<trkpt lat="-27.6093514" lon="152.9080807">
<ele>5.317</ele>
<time>2015-12-29T20:57:29.366Z</time>
</trkpt>
<trkpt lat="-27.6094291" lon="152.9074631">
<ele>3.165</ele>
<time>2015-12-29T20:57:32.356Z</time>
</trkpt>
<trkpt lat="-27.6094613" lon="152.9068700">
<ele>0.657</ele>
<time>2015-12-29T20:57:35.248Z</time>
</trkpt>
<trkpt lat="-27.6094985" lon="152.9064865">
<ele>0.000</ele>
<time>2015-12-29T20:57:37.146Z</time>
</trkpt>
<trkpt lat="-27.6095259" lon="152.9061012">
<ele>0.000</ele>
<time>2015-12-29T20:57:39.057Z</time>
</trkpt>
<trkpt lat="-27.6095587" lon="152.9057153">
<ele>0.000</ele>
<time>2015-12-29T20:57:41.014Z</time>
</trkpt>
<trkpt lat="-27.6096087" lon="152.9053488">
<ele>0.000</ele>
<time>2015-12-29T20:57:42.992Z</time>
</trkpt>
<trkpt lat="-27.6097125" lon="152.9048462">
<ele>0.000</ele>
<time>2015-12-29T20:57:45.924Z</time>
</trkpt>
<trkpt lat="-27.6097414" lon="152.9043688">
<ele>0.000</ele>
<time>2015-12-29T20:57:48.857Z</time>
</trkpt>
<trkpt lat="-27.6097243" lon="152.9040809">
<ele>0.000</ele>
<time>2015-12-29T20:57:50.881Z</time>
</trkpt>
<trkpt lat="-27.6096671" lon="152.9037479">
<ele>0.000</ele>
<time>2015-12-29T20:57:53.806Z</time>
</trkpt>
<trkpt lat="-27.6096400" lon="152.9035618">
<ele>0.000</ele>
<time>2015-12-29T20:57:56.000Z</time>
</trkpt>
<trkpt lat="-27.6096400" lon="152.9035618">
<ele>0.000</ele>
<time>2015-12-29T20:58:00.000Z</time>
</trkpt>
<trkpt lat="-27.6096400" lon="152.9035618">
<ele>0.000</ele>
<time>2015-12-29T20:58:06.508Z</time>
</trkpt>
<trkpt lat="-27.6095851" lon="152.9033659">
<ele>0.000</ele>
<time>2015-12-29T20:58:11.223Z</time>
</trkpt>
<trkpt lat="-27.6095518" lon="152.9031786">
<ele>0.000</ele>
<time>2015-12-29T20:58:13.360Z</time>
</trkpt>
<trkpt lat="-27.6095481" lon="152.9029268">
<ele>0.000</ele>
<time>2015-12-29T20:58:16.088Z</time>
</trkpt>
<trkpt lat="-27.6095450" lon="152.9027719">
<ele>0.000</ele>
<time>2015-12-29T20:58:18.195Z</time>
</trkpt>
<trkpt lat="-27.6096148" lon="152.9026671">
<ele>0.000</ele>
<time>2015-12-29T20:58:20.446Z</time>
</trkpt>
<trkpt lat="-27.6096963" lon="152.9026219">
<ele>0.000</ele>
<time>2015-12-29T20:58:23.000Z</time>
</trkpt>
<trkpt lat="-27.6096963" lon="152.9026219">
<ele>0.000</ele>
<time>2015-12-29T20:58:29.000Z</time>
</trkpt>
<trkpt lat="-27.6096963" lon="152.9026219">
<ele>0.000</ele>
<time>2015-12-29T21:10:06.772Z</time>
</trkpt>
<trkpt lat="-27.6097410" lon="152.9023584">
<ele>0.000</ele>
<time>2015-12-29T21:10:17.964Z</time>
</trkpt>
<trkpt lat="-27.6096890" lon="152.9022628">
<ele>0.000</ele>
<time>2015-12-29T21:10:20.244Z</time>
</trkpt>
<trkpt lat="-27.6095263" lon="152.9021910">
<ele>0.000</ele>
<time>2015-12-29T21:10:23.278Z</time>
</trkpt>
<trkpt lat="-27.6095170" lon="152.9020136">
<ele>0.000</ele>
<time>2015-12-29T21:10:25.264Z</time>
</trkpt>
<trkpt lat="-27.6094925" lon="152.9017112">
<ele>0.000</ele>
<time>2015-12-29T21:10:27.677Z</time>
</trkpt>
<trkpt lat="-27.6094615" lon="152.9014177">
<ele>0.000</ele>
<time>2015-12-29T21:10:29.680Z</time>
</trkpt>
<trkpt lat="-27.6093910" lon="152.9009186">
<ele>0.000</ele>
<time>2015-12-29T21:10:32.765Z</time>
</trkpt>
<trkpt lat="-27.6093246" lon="152.9004975">
<ele>0.000</ele>
<time>2015-12-29T21:10:35.179Z</time>
</trkpt>
<trkpt lat="-27.6091826" lon="152.8999059">
<ele>2.635</ele>
<time>2015-12-29T21:10:38.694Z</time>
</trkpt>
<trkpt lat="-27.6091204" lon="152.8996345">
<ele>4.725</ele>
<time>2015-12-29T21:10:40.413Z</time>
</trkpt>
<trkpt lat="-27.6090328" lon="152.8993533">
<ele>5.314</ele>
<time>2015-12-29T21:10:42.300Z</time>
</trkpt>
<trkpt lat="-27.6089367" lon="152.8990752">
<ele>4.467</ele>
<time>2015-12-29T21:10:44.209Z</time>
</trkpt>
<trkpt lat="-27.6087994" lon="152.8986587">
<ele>3.036</ele>
<time>2015-12-29T21:10:46.988Z</time>
</trkpt>
<trkpt lat="-27.6086035" lon="152.8982179">
<ele>2.010</ele>
<time>2015-12-29T21:10:50.038Z</time>
</trkpt>
<trkpt lat="-27.6083811" lon="152.8978325">
<ele>1.832</ele>
<time>2015-12-29T21:10:53.034Z</time>
</trkpt>
<trkpt lat="-27.6081879" lon="152.8975050">
<ele>2.331</ele>
<time>2015-12-29T21:10:55.878Z</time>
</trkpt>
<trkpt lat="-27.6079951" lon="152.8972039">
<ele>2.644</ele>
<time>2015-12-29T21:10:58.908Z</time>
</trkpt>
<trkpt lat="-27.6078898" lon="152.8970346">
<ele>1.938</ele>
<time>2015-12-29T21:11:01.258Z</time>
</trkpt>
<trkpt lat="-27.6078373" lon="152.8968940">
<ele>0.408</ele>
<time>2015-12-29T21:11:03.904Z</time>
</trkpt>
<trkpt lat="-27.6079024" lon="152.8967954">
<ele>0.000</ele>
<time>2015-12-29T21:11:06.874Z</time>
</trkpt>
<trkpt lat="-27.6079975" lon="152.8967159">
<ele>0.000</ele>
<time>2015-12-29T21:11:11.349Z</time>
</trkpt>
<trkpt lat="-27.6080890" lon="152.8966526">
<ele>0.000</ele>
<time>2015-12-29T21:11:15.329Z</time>
</trkpt>
<trkpt lat="-27.6081355" lon="152.8965615">
<ele>0.000</ele>
<time>2015-12-29T21:11:19.000Z</time>
</trkpt>
<trkpt lat="-27.6081355" lon="152.8965615">
<ele>0.000</ele>
<time>2015-12-29T21:11:25.000Z</time>
</trkpt>
<trkpt lat="-27.6081355" lon="152.8965615">
<ele>0.000</ele>
<time>2015-12-29T22:44:14.995Z</time>
</trkpt>
<trkpt lat="-27.6082573" lon="152.8963476">
<ele>0.000</ele>
<time>2015-12-29T22:44:21.925Z</time>
</trkpt>
<trkpt lat="-27.6083599" lon="152.8962999">
<ele>0.288</ele>
<time>2015-12-29T22:44:24.091Z</time>
</trkpt>
<trkpt lat="-27.6083599" lon="152.8962999">
<ele>2.691</ele>
<time>2015-12-29T22:44:28.066Z</time>
</trkpt>
<trkpt lat="-27.6083599" lon="152.8962999">
<ele>4.284</ele>
<time>2015-12-29T22:44:52.639Z</time>
</trkpt>
<trkpt lat="-27.6082976" lon="152.8960734">
<ele>4.206</ele>
<time>2015-12-29T22:45:06.592Z</time>
</trkpt>
<trkpt lat="-27.6082730" lon="152.8959729">
<ele>3.599</ele>
<time>2015-12-29T22:45:08.985Z</time>
</trkpt>
<trkpt lat="-27.6083970" lon="152.8958630">
<ele>3.618</ele>
<time>2015-12-29T22:45:11.373Z</time>
</trkpt>
<trkpt lat="-27.6084990" lon="152.8956984">
<ele>4.329</ele>
<time>2015-12-29T22:45:13.444Z</time>
</trkpt>
<trkpt lat="-27.6087391" lon="152.8955748">
<ele>5.540</ele>
<time>2015-12-29T22:45:16.849Z</time>
</trkpt>
<trkpt lat="-27.6088577" lon="152.8955613">
<ele>7.209</ele>
<time>2015-12-29T22:45:18.688Z</time>
</trkpt>
<trkpt lat="-27.6089804" lon="152.8956489">
<ele>8.939</ele>
<time>2015-12-29T22:45:20.616Z</time>
</trkpt>
<trkpt lat="-27.6090899" lon="152.8960013">
<ele>10.113</ele>
<time>2015-12-29T22:45:24.334Z</time>
</trkpt>
<trkpt lat="-27.6091245" lon="152.8962299">
<ele>10.553</ele>
<time>2015-12-29T22:45:26.359Z</time>
</trkpt>
<trkpt lat="-27.6091472" lon="152.8964282">
<ele>10.414</ele>
<time>2015-12-29T22:45:28.121Z</time>
</trkpt>
<trkpt lat="-27.6091742" lon="152.8967214">
<ele>9.697</ele>
<time>2015-12-29T22:45:30.770Z</time>
</trkpt>
<trkpt lat="-27.6092245" lon="152.8970213">
<ele>8.636</ele>
<time>2015-12-29T22:45:33.527Z</time>
</trkpt>
<trkpt lat="-27.6092511" lon="152.8972100">
<ele>7.765</ele>
<time>2015-12-29T22:45:35.215Z</time>
</trkpt>
<trkpt lat="-27.6092921" lon="152.8975221">
<ele>7.324</ele>
<time>2015-12-29T22:45:37.992Z</time>
</trkpt>
<trkpt lat="-27.6093348" lon="152.8977221">
<ele>7.167</ele>
<time>2015-12-29T22:45:39.838Z</time>
</trkpt>
<trkpt lat="-27.6093577" lon="152.8979114">
<ele>7.109</ele>
<time>2015-12-29T22:45:41.641Z</time>
</trkpt>
<trkpt lat="-27.6093985" lon="152.8982003">
<ele>7.041</ele>
<time>2015-12-29T22:45:44.836Z</time>
</trkpt>
<trkpt lat="-27.6094291" lon="152.8983265">
<ele>6.808</ele>
<time>2015-12-29T22:45:46.659Z</time>
</trkpt>
<trkpt lat="-27.6094569" lon="152.8984666">
<ele>6.265</ele>
<time>2015-12-29T22:45:49.080Z</time>
</trkpt>
<trkpt lat="-27.6094420" lon="152.8985920">
<ele>5.480</ele>
<time>2015-12-29T22:45:52.131Z</time>
</trkpt>
<trkpt lat="-27.6094420" lon="152.8985920">
<ele>4.759</ele>
<time>2015-12-29T22:45:56.128Z</time>
</trkpt>
<trkpt lat="-27.6094420" lon="152.8985920">
<ele>4.403</ele>
<time>2015-12-29T22:45:57.202Z</time>
</trkpt>
<trkpt lat="-27.6094822" lon="152.8988119">
<ele>4.437</ele>
<time>2015-12-29T22:46:08.461Z</time>
</trkpt>
<trkpt lat="-27.6094917" lon="152.8989195">
<ele>4.531</ele>
<time>2015-12-29T22:46:13.099Z</time>
</trkpt>
<trkpt lat="-27.6094917" lon="152.8989195">
<ele>4.436</ele>
<time>2015-12-29T22:46:14.089Z</time>
</trkpt>
<trkpt lat="-27.6094917" lon="152.8989195">
<ele>4.293</ele>
<time>2015-12-29T22:46:17.187Z</time>
</trkpt>
<trkpt lat="-27.6095404" lon="152.8991009">
<ele>4.299</ele>
<time>2015-12-29T22:46:23.868Z</time>
</trkpt>
<trkpt lat="-27.6095940" lon="152.8992715">
<ele>4.485</ele>
<time>2015-12-29T22:46:26.777Z</time>
</trkpt>
<trkpt lat="-27.6097584" lon="152.8993550">
<ele>4.952</ele>
<time>2015-12-29T22:46:29.424Z</time>
</trkpt>
<trkpt lat="-27.6099487" lon="152.8991528">
<ele>5.904</ele>
<time>2015-12-29T22:46:32.655Z</time>
</trkpt>
<trkpt lat="-27.6101143" lon="152.8990595">
<ele>7.312</ele>
<time>2015-12-29T22:46:34.738Z</time>
</trkpt>
<trkpt lat="-27.6102763" lon="152.8989900">
<ele>8.740</ele>
<time>2015-12-29T22:46:36.496Z</time>
</trkpt>
<trkpt lat="-27.6105381" lon="152.8987113">
<ele>9.688</ele>
<time>2015-12-29T22:46:39.867Z</time>
</trkpt>
<trkpt lat="-27.6107113" lon="152.8985457">
<ele>10.337</ele>
<time>2015-12-29T22:46:41.940Z</time>
</trkpt>
<trkpt lat="-27.6109357" lon="152.8983130">
<ele>11.098</ele>
<time>2015-12-29T22:46:44.732Z</time>
</trkpt>
<trkpt lat="-27.6110972" lon="152.8981563">
<ele>11.875</ele>
<time>2015-12-29T22:46:46.606Z</time>
</trkpt>
<trkpt lat="-27.6113721" lon="152.8978930">
<ele>12.687</ele>
<time>2015-12-29T22:46:49.709Z</time>
</trkpt>
<trkpt lat="-27.6116511" lon="152.8976252">
<ele>13.885</ele>
<time>2015-12-29T22:46:52.853Z</time>
</trkpt>
<trkpt lat="-27.6118128" lon="152.8974544">
<ele>15.508</ele>
<time>2015-12-29T22:46:54.757Z</time>
</trkpt>
<trkpt lat="-27.6120758" lon="152.8971841">
<ele>17.471</ele>
<time>2015-12-29T22:46:57.833Z</time>
</trkpt>
<trkpt lat="-27.6123276" lon="152.8969246">
<ele>19.798</ele>
<time>2015-12-29T22:47:00.867Z</time>
</trkpt>
<trkpt lat="-27.6124996" lon="152.8967628">
<ele>22.368</ele>
<time>2015-12-29T22:47:02.935Z</time>
</trkpt>
<trkpt lat="-27.6126685" lon="152.8966087">
<ele>24.785</ele>
<time>2015-12-29T22:47:04.999Z</time>
</trkpt>
<trkpt lat="-27.6128213" lon="152.8964573">
<ele>26.695</ele>
<time>2015-12-29T22:47:06.914Z</time>
</trkpt>
<trkpt lat="-27.6130642" lon="152.8962181">
<ele>28.049</ele>
<time>2015-12-29T22:47:09.798Z</time>
</trkpt>
<trkpt lat="-27.6132078" lon="152.8960848">
<ele>29.234</ele>
<time>2015-12-29T22:47:11.281Z</time>
</trkpt>
<trkpt lat="-27.6135545" lon="152.8957158">
<ele>30.733</ele>
<time>2015-12-29T22:47:14.907Z</time>
</trkpt>
<trkpt lat="-27.6138514" lon="152.8954208">
<ele>32.901</ele>
<time>2015-12-29T22:47:17.880Z</time>
</trkpt>
<trkpt lat="-27.6140358" lon="152.8952337">
<ele>35.791</ele>
<time>2015-12-29T22:47:19.800Z</time>
</trkpt>
<trkpt lat="-27.6143044" lon="152.8949406">
<ele>38.883</ele>
<time>2015-12-29T22:47:22.749Z</time>
</trkpt>
<trkpt lat="-27.6145854" lon="152.8946568">
<ele>41.555</ele>
<time>2015-12-29T22:47:25.895Z</time>
</trkpt>
<trkpt lat="-27.6147357" lon="152.8944798">
<ele>43.793</ele>
<time>2015-12-29T22:47:27.930Z</time>
</trkpt>
<trkpt lat="-27.6148923" lon="152.8943318">
<ele>45.561</ele>
<time>2015-12-29T22:47:29.832Z</time>
</trkpt>
<trkpt lat="-27.6151645" lon="152.8941072">
<ele>46.661</ele>
<time>2015-12-29T22:47:32.777Z</time>
</trkpt>
<trkpt lat="-27.6153895" lon="152.8939774">
<ele>47.516</ele>
<time>2015-12-29T22:47:34.770Z</time>
</trkpt>
<trkpt lat="-27.6156259" lon="152.8938653">
<ele>48.859</ele>
<time>2015-12-29T22:47:36.693Z</time>
</trkpt>
<trkpt lat="-27.6158771" lon="152.8937597">
<ele>50.751</ele>
<time>2015-12-29T22:47:38.702Z</time>
</trkpt>
<trkpt lat="-27.6162442" lon="152.8936058">
<ele>52.631</ele>
<time>2015-12-29T22:47:41.678Z</time>
</trkpt>
<trkpt lat="-27.6165001" lon="152.8934873">
<ele>53.905</ele>
<time>2015-12-29T22:47:43.762Z</time>
</trkpt>
<trkpt lat="-27.6167572" lon="152.8933854">
<ele>54.352</ele>
<time>2015-12-29T22:47:45.812Z</time>
</trkpt>
<trkpt lat="-27.6171020" lon="152.8932108">
<ele>54.239</ele>
<time>2015-12-29T22:47:48.719Z</time>
</trkpt>
<trkpt lat="-27.6174329" lon="152.8930372">
<ele>53.989</ele>
<time>2015-12-29T22:47:51.581Z</time>
</trkpt>
<trkpt lat="-27.6177947" lon="152.8928745">
<ele>54.262</ele>
<time>2015-12-29T22:47:54.636Z</time>
</trkpt>
<trkpt lat="-27.6181568" lon="152.8927126">
<ele>55.314</ele>
<time>2015-12-29T22:47:57.781Z</time>
</trkpt>
<trkpt lat="-27.6184342" lon="152.8924695">
<ele>56.232</ele>
<time>2015-12-29T22:48:00.713Z</time>
</trkpt>
<trkpt lat="-27.6185728" lon="152.8922568">
<ele>56.065</ele>
<time>2015-12-29T22:48:02.584Z</time>
</trkpt>
<trkpt lat="-27.6186746" lon="152.8919803">
<ele>55.135</ele>
<time>2015-12-29T22:48:04.641Z</time>
</trkpt>
<trkpt lat="-27.6187938" lon="152.8915390">
<ele>54.073</ele>
<time>2015-12-29T22:48:07.833Z</time>
</trkpt>
<trkpt lat="-27.6188637" lon="152.8912586">
<ele>52.938</ele>
<time>2015-12-29T22:48:09.831Z</time>
</trkpt>
<trkpt lat="-27.6189588" lon="152.8908373">
<ele>51.805</ele>
<time>2015-12-29T22:48:12.714Z</time>
</trkpt>
<trkpt lat="-27.6190417" lon="152.8905510">
<ele>51.324</ele>
<time>2015-12-29T22:48:14.664Z</time>
</trkpt>
<trkpt lat="-27.6191596" lon="152.8900822">
<ele>51.771</ele>
<time>2015-12-29T22:48:17.890Z</time>
</trkpt>
<trkpt lat="-27.6192027" lon="152.8899520">
<ele>52.538</ele>
<time>2015-12-29T22:48:18.816Z</time>
</trkpt>
<trkpt lat="-27.6195150" lon="152.8894625">
<ele>53.011</ele>
<time>2015-12-29T22:48:22.710Z</time>
</trkpt>
<trkpt lat="-27.6197209" lon="152.8892364">
<ele>53.340</ele>
<time>2015-12-29T22:48:24.657Z</time>
</trkpt>
<trkpt lat="-27.6199677" lon="152.8890730">
<ele>54.021</ele>
<time>2015-12-29T22:48:26.506Z</time>
</trkpt>
<trkpt lat="-27.6204287" lon="152.8888238">
<ele>55.023</ele>
<time>2015-12-29T22:48:29.785Z</time>
</trkpt>
<trkpt lat="-27.6208301" lon="152.8886114">
<ele>55.640</ele>
<time>2015-12-29T22:48:32.759Z</time>
</trkpt>
<trkpt lat="-27.6212181" lon="152.8884082">
<ele>55.350</ele>
<time>2015-12-29T22:48:35.813Z</time>
</trkpt>
<trkpt lat="-27.6214657" lon="152.8882845">
<ele>54.195</ele>
<time>2015-12-29T22:48:37.779Z</time>
</trkpt>
<trkpt lat="-27.6218781" lon="152.8881252">
<ele>52.736</ele>
<time>2015-12-29T22:48:40.913Z</time>
</trkpt>
<trkpt lat="-27.6222490" lon="152.8880159">
<ele>51.556</ele>
<time>2015-12-29T22:48:43.629Z</time>
</trkpt>
<trkpt lat="-27.6225393" lon="152.8879911">
<ele>50.800</ele>
<time>2015-12-29T22:48:45.617Z</time>
</trkpt>
<trkpt lat="-27.6229625" lon="152.8879048">
<ele>50.405</ele>
<time>2015-12-29T22:48:48.543Z</time>
</trkpt>
<trkpt lat="-27.6234002" lon="152.8878309">
<ele>50.458</ele>
<time>2015-12-29T22:48:51.672Z</time>
</trkpt>
<trkpt lat="-27.6236476" lon="152.8877884">
<ele>50.875</ele>
<time>2015-12-29T22:48:53.594Z</time>
</trkpt>
<trkpt lat="-27.6240039" lon="152.8877302">
<ele>50.916</ele>
<time>2015-12-29T22:48:56.470Z</time>
</trkpt>
<trkpt lat="-27.6243462" lon="152.8876193">
<ele>49.964</ele>
<time>2015-12-29T22:48:59.381Z</time>
</trkpt>
<trkpt lat="-27.6245550" lon="152.8874795">
<ele>48.491</ele>
<time>2015-12-29T22:49:01.336Z</time>
</trkpt>
<trkpt lat="-27.6246650" lon="152.8873961">
<ele>47.329</ele>
<time>2015-12-29T22:49:02.396Z</time>
</trkpt>
<trkpt lat="-27.6251177" lon="152.8871141">
<ele>46.771</ele>
<time>2015-12-29T22:49:06.418Z</time>
</trkpt>
<trkpt lat="-27.6255115" lon="152.8869322">
<ele>46.652</ele>
<time>2015-12-29T22:49:09.564Z</time>
</trkpt>
<trkpt lat="-27.6257587" lon="152.8868147">
<ele>46.640</ele>
<time>2015-12-29T22:49:11.526Z</time>
</trkpt>
<trkpt lat="-27.6261180" lon="152.8866546">
<ele>46.277</ele>
<time>2015-12-29T22:49:14.344Z</time>
</trkpt>
<trkpt lat="-27.6265241" lon="152.8865023">
<ele>45.302</ele>
<time>2015-12-29T22:49:17.365Z</time>
</trkpt>
<trkpt lat="-27.6269756" lon="152.8863344">
<ele>44.169</ele>
<time>2015-12-29T22:49:20.572Z</time>
</trkpt>
<trkpt lat="-27.6272657" lon="152.8861759">
<ele>43.362</ele>
<time>2015-12-29T22:49:22.721Z</time>
</trkpt>
<trkpt lat="-27.6276490" lon="152.8857783">
<ele>42.875</ele>
<time>2015-12-29T22:49:26.208Z</time>
</trkpt>
<trkpt lat="-27.6278656" lon="152.8854480">
<ele>42.671</ele>
<time>2015-12-29T22:49:28.622Z</time>
</trkpt>
<trkpt lat="-27.6280427" lon="152.8849813">
<ele>42.748</ele>
<time>2015-12-29T22:49:31.595Z</time>
</trkpt>
<trkpt lat="-27.6282265" lon="152.8845089">
<ele>43.259</ele>
<time>2015-12-29T22:49:34.601Z</time>
</trkpt>
<trkpt lat="-27.6284352" lon="152.8840489">
<ele>44.583</ele>
<time>2015-12-29T22:49:37.605Z</time>
</trkpt>
<trkpt lat="-27.6285741" lon="152.8837466">
<ele>46.807</ele>
<time>2015-12-29T22:49:39.554Z</time>
</trkpt>
<trkpt lat="-27.6287836" lon="152.8832648">
<ele>49.385</ele>
<time>2015-12-29T22:49:42.543Z</time>
</trkpt>
<trkpt lat="-27.6289343" lon="152.8829277">
<ele>51.770</ele>
<time>2015-12-29T22:49:44.552Z</time>
</trkpt>
<trkpt lat="-27.6290900" lon="152.8825772">
<ele>54.145</ele>
<time>2015-12-29T22:49:46.624Z</time>
</trkpt>
<trkpt lat="-27.6293135" lon="152.8820853">
<ele>56.597</ele>
<time>2015-12-29T22:49:49.555Z</time>
</trkpt>
<trkpt lat="-27.6294601" lon="152.8817414">
<ele>58.770</ele>
<time>2015-12-29T22:49:51.545Z</time>
</trkpt>
<trkpt lat="-27.6296772" lon="152.8812165">
<ele>60.537</ele>
<time>2015-12-29T22:49:54.506Z</time>
</trkpt>
<trkpt lat="-27.6298358" lon="152.8808509">
<ele>62.239</ele>
<time>2015-12-29T22:49:56.587Z</time>
</trkpt>
<trkpt lat="-27.6300525" lon="152.8804235">
<ele>63.992</ele>
<time>2015-12-29T22:49:59.133Z</time>
</trkpt>
<trkpt lat="-27.6302221" lon="152.8800396">
<ele>65.423</ele>
<time>2015-12-29T22:50:01.351Z</time>
</trkpt>
<trkpt lat="-27.6304998" lon="152.8795408">
<ele>66.213</ele>
<time>2015-12-29T22:50:04.370Z</time>
</trkpt>
<trkpt lat="-27.6306617" lon="152.8791861">
<ele>66.360</ele>
<time>2015-12-29T22:50:06.391Z</time>
</trkpt>
<trkpt lat="-27.6308084" lon="152.8788366">
<ele>65.926</ele>
<time>2015-12-29T22:50:08.385Z</time>
</trkpt>
<trkpt lat="-27.6309537" lon="152.8784904">
<ele>65.220</ele>
<time>2015-12-29T22:50:10.378Z</time>
</trkpt>
<trkpt lat="-27.6312752" lon="152.8778032">
<ele>64.167</ele>
<time>2015-12-29T22:50:14.438Z</time>
</trkpt>
<trkpt lat="-27.6314958" lon="152.8772823">
<ele>61.953</ele>
<time>2015-12-29T22:50:17.394Z</time>
</trkpt>
<trkpt lat="-27.6316413" lon="152.8769394">
<ele>58.442</ele>
<time>2015-12-29T22:50:19.334Z</time>
</trkpt>
<trkpt lat="-27.6317942" lon="152.8765985">
<ele>54.932</ele>
<time>2015-12-29T22:50:21.328Z</time>
</trkpt>
<trkpt lat="-27.6320089" lon="152.8760813">
<ele>52.663</ele>
<time>2015-12-29T22:50:24.442Z</time>
</trkpt>
<trkpt lat="-27.6322075" lon="152.8756345">
<ele>51.712</ele>
<time>2015-12-29T22:50:27.400Z</time>
</trkpt>
<trkpt lat="-27.6323262" lon="152.8753557">
<ele>51.556</ele>
<time>2015-12-29T22:50:29.509Z</time>
</trkpt>
<trkpt lat="-27.6325113" lon="152.8750429">
<ele>51.506</ele>
<time>2015-12-29T22:50:32.391Z</time>
</trkpt>
<trkpt lat="-27.6326328" lon="152.8747399">
<ele>50.587</ele>
<time>2015-12-29T22:50:35.312Z</time>
</trkpt>
<trkpt lat="-27.6327256" lon="152.8745479">
<ele>48.215</ele>
<time>2015-12-29T22:50:37.436Z</time>
</trkpt>
<trkpt lat="-27.6328483" lon="152.8744161">
<ele>45.116</ele>
<time>2015-12-29T22:50:39.342Z</time>
</trkpt>
<trkpt lat="-27.6330952" lon="152.8742540">
<ele>42.574</ele>
<time>2015-12-29T22:50:42.426Z</time>
</trkpt>
<trkpt lat="-27.6332626" lon="152.8740483">
<ele>41.098</ele>
<time>2015-12-29T22:50:44.656Z</time>
</trkpt>
<trkpt lat="-27.6336246" lon="152.8739224">
<ele>40.473</ele>
<time>2015-12-29T22:50:47.679Z</time>
</trkpt>
<trkpt lat="-27.6340379" lon="152.8738959">
<ele>40.678</ele>
<time>2015-12-29T22:50:50.669Z</time>
</trkpt>
<trkpt lat="-27.6343325" lon="152.8738495">
<ele>41.674</ele>
<time>2015-12-29T22:50:52.737Z</time>
</trkpt>
<trkpt lat="-27.6347582" lon="152.8737701">
<ele>42.884</ele>
<time>2015-12-29T22:50:55.756Z</time>
</trkpt>
<trkpt lat="-27.6351762" lon="152.8736730">
<ele>43.767</ele>
<time>2015-12-29T22:50:58.769Z</time>
</trkpt>
<trkpt lat="-27.6354588" lon="152.8736090">
<ele>44.208</ele>
<time>2015-12-29T22:51:00.811Z</time>
</trkpt>
<trkpt lat="-27.6358839" lon="152.8735176">
<ele>44.453</ele>
<time>2015-12-29T22:51:03.960Z</time>
</trkpt>
<trkpt lat="-27.6361145" lon="152.8734654">
<ele>44.979</ele>
<time>2015-12-29T22:51:05.919Z</time>
</trkpt>
<trkpt lat="-27.6364423" lon="152.8734105">
<ele>45.996</ele>
<time>2015-12-29T22:51:08.872Z</time>
</trkpt>
<trkpt lat="-27.6366628" lon="152.8733696">
<ele>47.242</ele>
<time>2015-12-29T22:51:10.963Z</time>
</trkpt>
<trkpt lat="-27.6368663" lon="152.8733470">
<ele>48.391</ele>
<time>2015-12-29T22:51:12.797Z</time>
</trkpt>
<trkpt lat="-27.6371498" lon="152.8732772">
<ele>49.575</ele>
<time>2015-12-29T22:51:15.345Z</time>
</trkpt>
<trkpt lat="-27.6374379" lon="152.8732227">
<ele>51.069</ele>
<time>2015-12-29T22:51:17.849Z</time>
</trkpt>
<trkpt lat="-27.6376702" lon="152.8731848">
<ele>52.547</ele>
<time>2015-12-29T22:51:19.878Z</time>
</trkpt>
<trkpt lat="-27.6378931" lon="152.8731475">
<ele>53.438</ele>
<time>2015-12-29T22:51:21.890Z</time>
</trkpt>
<trkpt lat="-27.6380013" lon="152.8731351">
<ele>53.619</ele>
<time>2015-12-29T22:51:22.861Z</time>
</trkpt>
<trkpt lat="-27.6384640" lon="152.8730650">
<ele>53.206</ele>
<time>2015-12-29T22:51:27.032Z</time>
</trkpt>
<trkpt lat="-27.6387842" lon="152.8730173">
<ele>52.391</ele>
<time>2015-12-29T22:51:29.896Z</time>
</trkpt>
<trkpt lat="-27.6391261" lon="152.8729879">
<ele>51.410</ele>
<time>2015-12-29T22:51:32.656Z</time>
</trkpt>
<trkpt lat="-27.6395349" lon="152.8729165">
<ele>50.456</ele>
<time>2015-12-29T22:51:35.631Z</time>
</trkpt>
<trkpt lat="-27.6398225" lon="152.8728663">
<ele>49.911</ele>
<time>2015-12-29T22:51:37.623Z</time>
</trkpt>
<trkpt lat="-27.6402580" lon="152.8727903">
<ele>49.986</ele>
<time>2015-12-29T22:51:40.650Z</time>
</trkpt>
<trkpt lat="-27.6404028" lon="152.8727662">
<ele>50.159</ele>
<time>2015-12-29T22:51:41.660Z</time>
</trkpt>
<trkpt lat="-27.6409814" lon="152.8726706">
<ele>49.938</ele>
<time>2015-12-29T22:51:45.845Z</time>
</trkpt>
<trkpt lat="-27.6413413" lon="152.8726133">
<ele>49.484</ele>
<time>2015-12-29T22:51:48.765Z</time>
</trkpt>
<trkpt lat="-27.6415662" lon="152.8725773">
<ele>49.160</ele>
<time>2015-12-29T22:51:50.660Z</time>
</trkpt>
<trkpt lat="-27.6419389" lon="152.8725088">
<ele>49.105</ele>
<time>2015-12-29T22:51:53.763Z</time>
</trkpt>
<trkpt lat="-27.6421688" lon="152.8724572">
<ele>49.509</ele>
<time>2015-12-29T22:51:55.738Z</time>
</trkpt>
<trkpt lat="-27.6425026" lon="152.8724159">
<ele>50.340</ele>
<time>2015-12-29T22:51:58.670Z</time>
</trkpt>
<trkpt lat="-27.6427201" lon="152.8723710">
<ele>51.110</ele>
<time>2015-12-29T22:52:00.642Z</time>
</trkpt>
<trkpt lat="-27.6429439" lon="152.8723336">
<ele>51.558</ele>
<time>2015-12-29T22:52:02.625Z</time>
</trkpt>
<trkpt lat="-27.6431716" lon="152.8723013">
<ele>52.016</ele>
<time>2015-12-29T22:52:04.700Z</time>
</trkpt>
<trkpt lat="-27.6433878" lon="152.8722676">
<ele>52.658</ele>
<time>2015-12-29T22:52:06.764Z</time>
</trkpt>
<trkpt lat="-27.6437016" lon="152.8722103">
<ele>53.102</ele>
<time>2015-12-29T22:52:09.800Z</time>
</trkpt>
<trkpt lat="-27.6440103" lon="152.8721542">
<ele>53.072</ele>
<time>2015-12-29T22:52:12.626Z</time>
</trkpt>
<trkpt lat="-27.6442581" lon="152.8721159">
<ele>53.160</ele>
<time>2015-12-29T22:52:14.712Z</time>
</trkpt>
<trkpt lat="-27.6446308" lon="152.8720629">
<ele>54.252</ele>
<time>2015-12-29T22:52:17.797Z</time>
</trkpt>
<trkpt lat="-27.6449761" lon="152.8719776">
<ele>56.121</ele>
<time>2015-12-29T22:52:20.787Z</time>
</trkpt>
<trkpt lat="-27.6452044" lon="152.8719354">
<ele>57.850</ele>
<time>2015-12-29T22:52:22.979Z</time>
</trkpt>
<trkpt lat="-27.6454375" lon="152.8718900">
<ele>59.169</ele>
<time>2015-12-29T22:52:26.035Z</time>
</trkpt>
<trkpt lat="-27.6455488" lon="152.8718736">
<ele>60.160</ele>
<time>2015-12-29T22:52:27.988Z</time>
</trkpt>
<trkpt lat="-27.6456393" lon="152.8718553">
<ele>60.756</ele>
<time>2015-12-29T22:52:29.879Z</time>
</trkpt>
<trkpt lat="-27.6457882" lon="152.8718477">
<ele>61.062</ele>
<time>2015-12-29T22:52:33.585Z</time>
</trkpt>
<trkpt lat="-27.6458922" lon="152.8718141">
<ele>61.267</ele>
<time>2015-12-29T22:52:37.112Z</time>
</trkpt>
<trkpt lat="-27.6459850" lon="152.8718040">
<ele>61.560</ele>
<time>2015-12-29T22:52:40.870Z</time>
</trkpt>
<trkpt lat="-27.6460786" lon="152.8717824">
<ele>61.976</ele>
<time>2015-12-29T22:52:45.999Z</time>
</trkpt>
<trkpt lat="-27.6460786" lon="152.8717824">
<ele>62.322</ele>
<time>2015-12-29T22:52:49.999Z</time>
</trkpt>
<trkpt lat="-27.6460786" lon="152.8717824">
<ele>62.439</ele>
<time>2015-12-29T22:53:21.521Z</time>
</trkpt>
<trkpt lat="-27.6462425" lon="152.8717874">
<ele>62.388</ele>
<time>2015-12-29T22:53:29.028Z</time>
</trkpt>
<trkpt lat="-27.6463338" lon="152.8717659">
<ele>62.737</ele>
<time>2015-12-29T22:53:31.027Z</time>
</trkpt>
<trkpt lat="-27.6464566" lon="152.8717736">
<ele>63.851</ele>
<time>2015-12-29T22:53:33.431Z</time>
</trkpt>
<trkpt lat="-27.6465495" lon="152.8718904">
<ele>65.150</ele>
<time>2015-12-29T22:53:35.455Z</time>
</trkpt>
<trkpt lat="-27.6465963" lon="152.8720867">
<ele>66.008</ele>
<time>2015-12-29T22:53:37.335Z</time>
</trkpt>
<trkpt lat="-27.6466590" lon="152.8723710">
<ele>66.432</ele>
<time>2015-12-29T22:53:39.447Z</time>
</trkpt>
<trkpt lat="-27.6467385" lon="152.8728147">
<ele>66.454</ele>
<time>2015-12-29T22:53:42.362Z</time>
</trkpt>
<trkpt lat="-27.6468036" lon="152.8731207">
<ele>66.092</ele>
<time>2015-12-29T22:53:44.249Z</time>
</trkpt>
<trkpt lat="-27.6468579" lon="152.8734395">
<ele>65.475</ele>
<time>2015-12-29T22:53:46.189Z</time>
</trkpt>
<trkpt lat="-27.6469299" lon="152.8739022">
<ele>64.541</ele>
<time>2015-12-29T22:53:49.014Z</time>
</trkpt>
<trkpt lat="-27.6469753" lon="152.8742198">
<ele>63.286</ele>
<time>2015-12-29T22:53:50.961Z</time>
</trkpt>
<trkpt lat="-27.6470407" lon="152.8746906">
<ele>62.151</ele>
<time>2015-12-29T22:53:53.855Z</time>
</trkpt>
<trkpt lat="-27.6471086" lon="152.8751606">
<ele>61.174</ele>
<time>2015-12-29T22:53:56.726Z</time>
</trkpt>
<trkpt lat="-27.6471569" lon="152.8755021">
<ele>60.099</ele>
<time>2015-12-29T22:53:58.729Z</time>
</trkpt>
<trkpt lat="-27.6472068" lon="152.8758315">
<ele>59.526</ele>
<time>2015-12-29T22:54:00.647Z</time>
</trkpt>
<trkpt lat="-27.6472666" lon="152.8763033">
<ele>60.089</ele>
<time>2015-12-29T22:54:03.463Z</time>
</trkpt>
<trkpt lat="-27.6472864" lon="152.8767970">
<ele>61.367</ele>
<time>2015-12-29T22:54:06.482Z</time>
</trkpt>
<trkpt lat="-27.6472432" lon="152.8772462">
<ele>62.678</ele>
<time>2015-12-29T22:54:09.366Z</time>
</trkpt>
<trkpt lat="-27.6471831" lon="152.8776269">
<ele>63.823</ele>
<time>2015-12-29T22:54:12.092Z</time>
</trkpt>
<trkpt lat="-27.6471563" lon="152.8778510">
<ele>64.720</ele>
<time>2015-12-29T22:54:13.898Z</time>
</trkpt>
<trkpt lat="-27.6471300" lon="152.8781509">
<ele>65.209</ele>
<time>2015-12-29T22:54:16.629Z</time>
</trkpt>
<trkpt lat="-27.6471258" lon="152.8783109">
<ele>65.374</ele>
<time>2015-12-29T22:54:18.261Z</time>
</trkpt>
<trkpt lat="-27.6471283" lon="152.8784684">
<ele>65.350</ele>
<time>2015-12-29T22:54:19.990Z</time>
</trkpt>
<trkpt lat="-27.6471654" lon="152.8787937">
<ele>64.950</ele>
<time>2015-12-29T22:54:23.316Z</time>
</trkpt>
<trkpt lat="-27.6472062" lon="152.8790368">
<ele>64.183</ele>
<time>2015-12-29T22:54:25.439Z</time>
</trkpt>
<trkpt lat="-27.6472743" lon="152.8793925">
<ele>63.376</ele>
<time>2015-12-29T22:54:28.324Z</time>
</trkpt>
<trkpt lat="-27.6473467" lon="152.8797898">
<ele>62.643</ele>
<time>2015-12-29T22:54:31.405Z</time>
</trkpt>
<trkpt lat="-27.6474091" lon="152.8800697">
<ele>61.549</ele>
<time>2015-12-29T22:54:33.467Z</time>
</trkpt>
<trkpt lat="-27.6475109" lon="152.8804848">
<ele>59.498</ele>
<time>2015-12-29T22:54:36.428Z</time>
</trkpt>
<trkpt lat="-27.6475805" lon="152.8809381">
<ele>56.402</ele>
<time>2015-12-29T22:54:39.432Z</time>
</trkpt>
<trkpt lat="-27.6475615" lon="152.8814594">
<ele>52.923</ele>
<time>2015-12-29T22:54:42.524Z</time>
</trkpt>
<trkpt lat="-27.6475050" lon="152.8818074">
<ele>49.594</ele>
<time>2015-12-29T22:54:44.484Z</time>
</trkpt>
<trkpt lat="-27.6474206" lon="152.8821634">
<ele>46.499</ele>
<time>2015-12-29T22:54:46.475Z</time>
</trkpt>
<trkpt lat="-27.6473086" lon="152.8826787">
<ele>43.885</ele>
<time>2015-12-29T22:54:49.388Z</time>
</trkpt>
<trkpt lat="-27.6472733" lon="152.8829583">
<ele>41.954</ele>
<time>2015-12-29T22:54:51.055Z</time>
</trkpt>
<trkpt lat="-27.6472642" lon="152.8832425">
<ele>39.814</ele>
<time>2015-12-29T22:54:53.069Z</time>
</trkpt>
<trkpt lat="-27.6472780" lon="152.8833759">
<ele>36.688</ele>
<time>2015-12-29T22:54:54.167Z</time>
</trkpt>
<trkpt lat="-27.6472970" lon="152.8835113">
<ele>33.474</ele>
<time>2015-12-29T22:54:55.420Z</time>
</trkpt>
<trkpt lat="-27.6472981" lon="152.8836341">
<ele>31.389</ele>
<time>2015-12-29T22:54:56.891Z</time>
</trkpt>
<trkpt lat="-27.6472823" lon="152.8837721">
<ele>30.452</ele>
<time>2015-12-29T22:54:59.148Z</time>
</trkpt>
<trkpt lat="-27.6472463" lon="152.8840950">
<ele>30.260</ele>
<time>2015-12-29T22:55:07.285Z</time>
</trkpt>
<trkpt lat="-27.6473722" lon="152.8843141">
<ele>30.540</ele>
<time>2015-12-29T22:55:11.999Z</time>
</trkpt>
<trkpt lat="-27.6474888" lon="152.8845741">
<ele>31.108</ele>
<time>2015-12-29T22:55:14.940Z</time>
</trkpt>
<trkpt lat="-27.6476198" lon="152.8848816">
<ele>32.104</ele>
<time>2015-12-29T22:55:17.443Z</time>
</trkpt>
<trkpt lat="-27.6477795" lon="152.8851944">
<ele>33.444</ele>
<time>2015-12-29T22:55:19.621Z</time>
</trkpt>
<trkpt lat="-27.6479449" lon="152.8854873">
<ele>34.491</ele>
<time>2015-12-29T22:55:21.537Z</time>
</trkpt>
<trkpt lat="-27.6481176" lon="152.8857962">
<ele>34.865</ele>
<time>2015-12-29T22:55:23.484Z</time>
</trkpt>
<trkpt lat="-27.6482969" lon="152.8861041">
<ele>34.665</ele>
<time>2015-12-29T22:55:25.450Z</time>
</trkpt>
<trkpt lat="-27.6486189" lon="152.8866048">
<ele>34.072</ele>
<time>2015-12-29T22:55:28.695Z</time>
</trkpt>
<trkpt lat="-27.6489547" lon="152.8870804">
<ele>32.153</ele>
<time>2015-12-29T22:55:31.795Z</time>
</trkpt>
<trkpt lat="-27.6492210" lon="152.8873897">
<ele>28.467</ele>
<time>2015-12-29T22:55:33.937Z</time>
</trkpt>
<trkpt lat="-27.6496362" lon="152.8877950">
<ele>25.366</ele>
<time>2015-12-29T22:55:36.916Z</time>
</trkpt>
<trkpt lat="-27.6499593" lon="152.8880235">
<ele>25.317</ele>
<time>2015-12-29T22:55:38.965Z</time>
</trkpt>
<trkpt lat="-27.6504516" lon="152.8882865">
<ele>27.593</ele>
<time>2015-12-29T22:55:41.834Z</time>
</trkpt>
<trkpt lat="-27.6509486" lon="152.8885473">
<ele>29.908</ele>
<time>2015-12-29T22:55:44.780Z</time>
</trkpt>
<trkpt lat="-27.6512426" lon="152.8886579">
<ele>30.288</ele>
<time>2015-12-29T22:55:46.528Z</time>
</trkpt>
<trkpt lat="-27.6513803" lon="152.8887109">
<ele>28.652</ele>
<time>2015-12-29T22:55:47.408Z</time>
</trkpt>
<trkpt lat="-27.6518183" lon="152.8888599">
<ele>26.683</ele>
<time>2015-12-29T22:55:50.381Z</time>
</trkpt>
<trkpt lat="-27.6520428" lon="152.8890308">
<ele>25.066</ele>
<time>2015-12-29T22:55:52.527Z</time>
</trkpt>
<trkpt lat="-27.6521976" lon="152.8890276">
<ele>23.225</ele>
<time>2015-12-29T22:55:53.957Z</time>
</trkpt>
<trkpt lat="-27.6523865" lon="152.8890707">
<ele>21.642</ele>
<time>2015-12-29T22:55:55.891Z</time>
</trkpt>
<trkpt lat="-27.6527265" lon="152.8892160">
<ele>21.125</ele>
<time>2015-12-29T22:56:00.047Z</time>
</trkpt>
<trkpt lat="-27.6530564" lon="152.8893852">
<ele>21.564</ele>
<time>2015-12-29T22:56:03.796Z</time>
</trkpt>
<trkpt lat="-27.6536035" lon="152.8896298">
<ele>22.506</ele>
<time>2015-12-29T22:56:09.720Z</time>
</trkpt>
<trkpt lat="-27.6537820" lon="152.8897131">
<ele>23.555</ele>
<time>2015-12-29T22:56:11.133Z</time>
</trkpt>
<trkpt lat="-27.6545286" lon="152.8899887">
<ele>24.500</ele>
<time>2015-12-29T22:56:15.557Z</time>
</trkpt>
<trkpt lat="-27.6549274" lon="152.8900560">
<ele>25.324</ele>
<time>2015-12-29T22:56:17.681Z</time>
</trkpt>
<trkpt lat="-27.6554778" lon="152.8900533">
<ele>27.254</ele>
<time>2015-12-29T22:56:20.680Z</time>
</trkpt>
<trkpt lat="-27.6560325" lon="152.8899518">
<ele>31.264</ele>
<time>2015-12-29T22:56:24.217Z</time>
</trkpt>
<trkpt lat="-27.6564761" lon="152.8898769">
<ele>35.602</ele>
<time>2015-12-29T22:56:27.927Z</time>
</trkpt>
<trkpt lat="-27.6567912" lon="152.8898230">
<ele>37.984</ele>
<time>2015-12-29T22:56:30.994Z</time>
</trkpt>
<trkpt lat="-27.6569963" lon="152.8898378">
<ele>38.333</ele>
<time>2015-12-29T22:56:32.826Z</time>
</trkpt>
<trkpt lat="-27.6571839" lon="152.8897817">
<ele>37.675</ele>
<time>2015-12-29T22:56:34.261Z</time>
</trkpt>
<trkpt lat="-27.6575411" lon="152.8896777">
<ele>36.970</ele>
<time>2015-12-29T22:56:36.666Z</time>
</trkpt>
<trkpt lat="-27.6577248" lon="152.8896506">
<ele>37.395</ele>
<time>2015-12-29T22:56:37.780Z</time>
</trkpt>
<trkpt lat="-27.6584380" lon="152.8895445">
<ele>39.629</ele>
<time>2015-12-29T22:56:41.925Z</time>
</trkpt>
<trkpt lat="-27.6588725" lon="152.8894592">
<ele>42.774</ele>
<time>2015-12-29T22:56:44.558Z</time>
</trkpt>
<trkpt lat="-27.6593716" lon="152.8893502">
<ele>45.386</ele>
<time>2015-12-29T22:56:47.687Z</time>
</trkpt>
<trkpt lat="-27.6596854" lon="152.8892849">
<ele>47.114</ele>
<time>2015-12-29T22:56:49.651Z</time>
</trkpt>
<trkpt lat="-27.6601397" lon="152.8892210">
<ele>48.234</ele>
<time>2015-12-29T22:56:52.404Z</time>
</trkpt>
<trkpt lat="-27.6606196" lon="152.8891963">
<ele>48.991</ele>
<time>2015-12-29T22:56:55.167Z</time>
</trkpt>
<trkpt lat="-27.6609929" lon="152.8892237">
<ele>50.231</ele>
<time>2015-12-29T22:56:57.258Z</time>
</trkpt>
<trkpt lat="-27.6613225" lon="152.8893243">
<ele>52.536</ele>
<time>2015-12-29T22:56:59.120Z</time>
</trkpt>
<trkpt lat="-27.6616604" lon="152.8894823">
<ele>54.802</ele>
<time>2015-12-29T22:57:01.102Z</time>
</trkpt>
<trkpt lat="-27.6621352" lon="152.8897690">
<ele>56.217</ele>
<time>2015-12-29T22:57:04.184Z</time>
</trkpt>
<trkpt lat="-27.6624303" lon="152.8899359">
<ele>57.440</ele>
<time>2015-12-29T22:57:06.166Z</time>
</trkpt>
<trkpt lat="-27.6628296" lon="152.8901997">
<ele>58.715</ele>
<time>2015-12-29T22:57:09.219Z</time>
</trkpt>
<trkpt lat="-27.6630838" lon="152.8903489">
<ele>59.555</ele>
<time>2015-12-29T22:57:11.313Z</time>
</trkpt>
<trkpt lat="-27.6633336" lon="152.8904914">
<ele>59.769</ele>
<time>2015-12-29T22:57:13.684Z</time>
</trkpt>
<trkpt lat="-27.6635427" lon="152.8906057">
<ele>59.661</ele>
<time>2015-12-29T22:57:15.869Z</time>
</trkpt>
<trkpt lat="-27.6638085" lon="152.8907539">
<ele>59.438</ele>
<time>2015-12-29T22:57:19.048Z</time>
</trkpt>
<trkpt lat="-27.6639757" lon="152.8908514">
<ele>59.077</ele>
<time>2015-12-29T22:57:21.083Z</time>
</trkpt>
<trkpt lat="-27.6641294" lon="152.8909473">
<ele>58.626</ele>
<time>2015-12-29T22:57:22.887Z</time>
</trkpt>
<trkpt lat="-27.6642703" lon="152.8910851">
<ele>58.270</ele>
<time>2015-12-29T22:57:24.702Z</time>
</trkpt>
<trkpt lat="-27.6645210" lon="152.8912304">
<ele>58.240</ele>
<time>2015-12-29T22:57:26.918Z</time>
</trkpt>
<trkpt lat="-27.6647701" lon="152.8912941">
<ele>58.709</ele>
<time>2015-12-29T22:57:28.621Z</time>
</trkpt>
<trkpt lat="-27.6652205" lon="152.8915406">
<ele>59.869</ele>
<time>2015-12-29T22:57:31.414Z</time>
</trkpt>
<trkpt lat="-27.6655540" lon="152.8917316">
<ele>61.991</ele>
<time>2015-12-29T22:57:33.420Z</time>
</trkpt>
<trkpt lat="-27.6660214" lon="152.8920120">
<ele>64.572</ele>
<time>2015-12-29T22:57:36.363Z</time>
</trkpt>
<trkpt lat="-27.6663244" lon="152.8921783">
<ele>66.300</ele>
<time>2015-12-29T22:57:38.334Z</time>
</trkpt>
<trkpt lat="-27.6666055" lon="152.8923547">
<ele>66.493</ele>
<time>2015-12-29T22:57:40.281Z</time>
</trkpt>
<trkpt lat="-27.6670262" lon="152.8925903">
<ele>65.630</ele>
<time>2015-12-29T22:57:43.125Z</time>
</trkpt>
<trkpt lat="-27.6674521" lon="152.8928629">
<ele>64.612</ele>
<time>2015-12-29T22:57:46.035Z</time>
</trkpt>
<trkpt lat="-27.6677452" lon="152.8930466">
<ele>64.167</ele>
<time>2015-12-29T22:57:48.004Z</time>
</trkpt>
<trkpt lat="-27.6680345" lon="152.8932523">
<ele>64.575</ele>
<time>2015-12-29T22:57:50.046Z</time>
</trkpt>
<trkpt lat="-27.6682901" lon="152.8934517">
<ele>65.719</ele>
<time>2015-12-29T22:57:51.914Z</time>
</trkpt>
<trkpt lat="-27.6685470" lon="152.8936773">
<ele>67.158</ele>
<time>2015-12-29T22:57:53.867Z</time>
</trkpt>
<trkpt lat="-27.6689210" lon="152.8940327">
<ele>68.350</ele>
<time>2015-12-29T22:57:56.780Z</time>
</trkpt>
<trkpt lat="-27.6692672" lon="152.8944094">
<ele>69.379</ele>
<time>2015-12-29T22:57:59.650Z</time>
</trkpt>
<trkpt lat="-27.6695931" lon="152.8947972">
<ele>70.634</ele>
<time>2015-12-29T22:58:02.582Z</time>
</trkpt>
<trkpt lat="-27.6697889" lon="152.8950427">
<ele>71.735</ele>
<time>2015-12-29T22:58:04.527Z</time>
</trkpt>
<trkpt lat="-27.6700530" lon="152.8954147">
<ele>72.114</ele>
<time>2015-12-29T22:58:07.417Z</time>
</trkpt>
<trkpt lat="-27.6703105" lon="152.8957709">
<ele>71.656</ele>
<time>2015-12-29T22:58:10.291Z</time>
</trkpt>
<trkpt lat="-27.6704724" lon="152.8960082">
<ele>70.295</ele>
<time>2015-12-29T22:58:12.290Z</time>
</trkpt>
<trkpt lat="-27.6706906" lon="152.8963306">
<ele>68.298</ele>
<time>2015-12-29T22:58:15.261Z</time>
</trkpt>
<trkpt lat="-27.6708106" lon="152.8965006">
<ele>65.901</ele>
<time>2015-12-29T22:58:17.169Z</time>
</trkpt>
<trkpt lat="-27.6709094" lon="152.8966597">
<ele>62.938</ele>
<time>2015-12-29T22:58:19.133Z</time>
</trkpt>
<trkpt lat="-27.6710053" lon="152.8967917">
<ele>59.682</ele>
<time>2015-12-29T22:58:21.198Z</time>
</trkpt>
<trkpt lat="-27.6711137" lon="152.8969297">
<ele>56.811</ele>
<time>2015-12-29T22:58:23.804Z</time>
</trkpt>
<trkpt lat="-27.6711868" lon="152.8970052">
<ele>54.471</ele>
<time>2015-12-29T22:58:26.026Z</time>
</trkpt>
<trkpt lat="-27.6712662" lon="152.8970759">
<ele>52.621</ele>
<time>2015-12-29T22:58:28.999Z</time>
</trkpt>
<trkpt lat="-27.6712662" lon="152.8970759">
<ele>51.494</ele>
<time>2015-12-29T22:58:35.999Z</time>
</trkpt>
<trkpt lat="-27.6712662" lon="152.8970759">
<ele>51.136</ele>
<time>2015-12-29T22:58:59.350Z</time>
</trkpt>
<trkpt lat="-27.6714119" lon="152.8971987">
<ele>51.348</ele>
<time>2015-12-29T22:59:04.475Z</time>
</trkpt>
<trkpt lat="-27.6715294" lon="152.8973014">
<ele>52.150</ele>
<time>2015-12-29T22:59:06.459Z</time>
</trkpt>
<trkpt lat="-27.6717338" lon="152.8974389">
<ele>53.472</ele>
<time>2015-12-29T22:59:09.228Z</time>
</trkpt>
<trkpt lat="-27.6719100" lon="152.8975466">
<ele>54.830</ele>
<time>2015-12-29T22:59:11.243Z</time>
</trkpt>
<trkpt lat="-27.6720872" lon="152.8976641">
<ele>55.740</ele>
<time>2015-12-29T22:59:13.214Z</time>
</trkpt>
<trkpt lat="-27.6723489" lon="152.8978357">
<ele>56.103</ele>
<time>2015-12-29T22:59:16.074Z</time>
</trkpt>
<trkpt lat="-27.6725416" lon="152.8979413">
<ele>56.122</ele>
<time>2015-12-29T22:59:17.986Z</time>
</trkpt>
<trkpt lat="-27.6728879" lon="152.8980902">
<ele>55.841</ele>
<time>2015-12-29T22:59:21.116Z</time>
</trkpt>
<trkpt lat="-27.6732420" lon="152.8982441">
<ele>54.960</ele>
<time>2015-12-29T22:59:24.219Z</time>
</trkpt>
<trkpt lat="-27.6734677" lon="152.8983445">
<ele>53.225</ele>
<time>2015-12-29T22:59:26.163Z</time>
</trkpt>
<trkpt lat="-27.6738149" lon="152.8985611">
<ele>51.005</ele>
<time>2015-12-29T22:59:29.255Z</time>
</trkpt>
<trkpt lat="-27.6740278" lon="152.8987393">
<ele>48.800</ele>
<time>2015-12-29T22:59:31.278Z</time>
</trkpt>
<trkpt lat="-27.6742908" lon="152.8990552">
<ele>46.898</ele>
<time>2015-12-29T22:59:34.244Z</time>
</trkpt>
<trkpt lat="-27.6744489" lon="152.8992633">
<ele>45.463</ele>
<time>2015-12-29T22:59:36.108Z</time>
</trkpt>
<trkpt lat="-27.6745928" lon="152.8995240">
<ele>44.549</ele>
<time>2015-12-29T22:59:38.097Z</time>
</trkpt>
<trkpt lat="-27.6747121" lon="152.8998066">
<ele>44.074</ele>
<time>2015-12-29T22:59:39.981Z</time>
</trkpt>
<trkpt lat="-27.6748045" lon="152.9001435">
<ele>44.020</ele>
<time>2015-12-29T22:59:41.911Z</time>
</trkpt>
<trkpt lat="-27.6748952" lon="152.9007430">
<ele>44.230</ele>
<time>2015-12-29T22:59:44.953Z</time>
</trkpt>
<trkpt lat="-27.6749566" lon="152.9011995">
<ele>44.907</ele>
<time>2015-12-29T22:59:47.111Z</time>
</trkpt>
<trkpt lat="-27.6749559" lon="152.9018150">
<ele>46.160</ele>
<time>2015-12-29T22:59:50.024Z</time>
</trkpt>
<trkpt lat="-27.6748831" lon="152.9024222">
<ele>47.342</ele>
<time>2015-12-29T22:59:53.068Z</time>
</trkpt>
<trkpt lat="-27.6748635" lon="152.9027789">
<ele>47.585</ele>
<time>2015-12-29T22:59:54.968Z</time>
</trkpt>
<trkpt lat="-27.6748412" lon="152.9032666">
<ele>46.717</ele>
<time>2015-12-29T22:59:57.663Z</time>
</trkpt>
<trkpt lat="-27.6748106" lon="152.9036192">
<ele>45.145</ele>
<time>2015-12-29T22:59:59.610Z</time>
</trkpt>
<trkpt lat="-27.6747386" lon="152.9042101">
<ele>43.600</ele>
<time>2015-12-29T23:00:02.741Z</time>
</trkpt>
<trkpt lat="-27.6746430" lon="152.9047826">
<ele>42.724</ele>
<time>2015-12-29T23:00:05.760Z</time>
</trkpt>
<trkpt lat="-27.6745866" lon="152.9051389">
<ele>42.641</ele>
<time>2015-12-29T23:00:07.751Z</time>
</trkpt>
<trkpt lat="-27.6745117" lon="152.9054644">
<ele>42.806</ele>
<time>2015-12-29T23:00:09.696Z</time>
</trkpt>
<trkpt lat="-27.6743135" lon="152.9061987">
<ele>42.775</ele>
<time>2015-12-29T23:00:13.888Z</time>
</trkpt>
<trkpt lat="-27.6741450" lon="152.9068028">
<ele>42.737</ele>
<time>2015-12-29T23:00:16.980Z</time>
</trkpt>
<trkpt lat="-27.6740143" lon="152.9071944">
<ele>43.090</ele>
<time>2015-12-29T23:00:18.961Z</time>
</trkpt>
<trkpt lat="-27.6738013" lon="152.9077945">
<ele>43.794</ele>
<time>2015-12-29T23:00:21.991Z</time>
</trkpt>
<trkpt lat="-27.6736434" lon="152.9081925">
<ele>44.934</ele>
<time>2015-12-29T23:00:24.023Z</time>
</trkpt>
<trkpt lat="-27.6734861" lon="152.9085719">
<ele>46.654</ele>
<time>2015-12-29T23:00:25.960Z</time>
</trkpt>
<trkpt lat="-27.6731972" lon="152.9091336">
<ele>48.423</ele>
<time>2015-12-29T23:00:28.913Z</time>
</trkpt>
<trkpt lat="-27.6729966" lon="152.9095130">
<ele>49.791</ele>
<time>2015-12-29T23:00:30.893Z</time>
</trkpt>
<trkpt lat="-27.6726842" lon="152.9100693">
<ele>50.883</ele>
<time>2015-12-29T23:00:33.893Z</time>
</trkpt>
<trkpt lat="-27.6724734" lon="152.9104185">
<ele>51.716</ele>
<time>2015-12-29T23:00:35.843Z</time>
</trkpt>
<trkpt lat="-27.6721243" lon="152.9109460">
<ele>52.149</ele>
<time>2015-12-29T23:00:38.856Z</time>
</trkpt>
<trkpt lat="-27.6718929" lon="152.9112764">
<ele>52.250</ele>
<time>2015-12-29T23:00:40.796Z</time>
</trkpt>
<trkpt lat="-27.6715134" lon="152.9117447">
<ele>52.389</ele>
<time>2015-12-29T23:00:43.781Z</time>
</trkpt>
<trkpt lat="-27.6712704" lon="152.9120407">
<ele>52.770</ele>
<time>2015-12-29T23:00:45.755Z</time>
</trkpt>
<trkpt lat="-27.6710306" lon="152.9123107">
<ele>53.108</ele>
<time>2015-12-29T23:00:47.748Z</time>
</trkpt>
<trkpt lat="-27.6706900" lon="152.9126585">
<ele>52.761</ele>
<time>2015-12-29T23:00:50.680Z</time>
</trkpt>
<trkpt lat="-27.6704786" lon="152.9128486">
<ele>51.351</ele>
<time>2015-12-29T23:00:52.582Z</time>
</trkpt>
<trkpt lat="-27.6702636" lon="152.9130460">
<ele>49.506</ele>
<time>2015-12-29T23:00:54.607Z</time>
</trkpt>
<trkpt lat="-27.6700501" lon="152.9132325">
<ele>48.202</ele>
<time>2015-12-29T23:00:56.598Z</time>
</trkpt>
<trkpt lat="-27.6698226" lon="152.9134128">
<ele>47.688</ele>
<time>2015-12-29T23:00:58.669Z</time>
</trkpt>
<trkpt lat="-27.6694517" lon="152.9135994">
<ele>47.670</ele>
<time>2015-12-29T23:01:01.744Z</time>
</trkpt>
<trkpt lat="-27.6690833" lon="152.9137119">
<ele>47.630</ele>
<time>2015-12-29T23:01:04.756Z</time>
</trkpt>
<trkpt lat="-27.6688541" lon="152.9137358">
<ele>47.025</ele>
<time>2015-12-29T23:01:06.753Z</time>
</trkpt>
<trkpt lat="-27.6685788" lon="152.9137347">
<ele>45.606</ele>
<time>2015-12-29T23:01:09.481Z</time>
</trkpt>
<trkpt lat="-27.6684629" lon="152.9137294">
<ele>43.401</ele>
<time>2015-12-29T23:01:10.940Z</time>
</trkpt>
<trkpt lat="-27.6683360" lon="152.9137289">
<ele>40.757</ele>
<time>2015-12-29T23:01:13.318Z</time>
</trkpt>
<trkpt lat="-27.6682418" lon="152.9136970">
<ele>38.364</ele>
<time>2015-12-29T23:01:16.345Z</time>
</trkpt>
<trkpt lat="-27.6681240" lon="152.9136923">
<ele>36.634</ele>
<time>2015-12-29T23:01:20.767Z</time>
</trkpt>
<trkpt lat="-27.6679915" lon="152.9136530">
<ele>35.445</ele>
<time>2015-12-29T23:01:26.358Z</time>
</trkpt>
<trkpt lat="-27.6678617" lon="152.9136006">
<ele>34.690</ele>
<time>2015-12-29T23:01:29.500Z</time>
</trkpt>
<trkpt lat="-27.6677064" lon="152.9137371">
<ele>34.406</ele>
<time>2015-12-29T23:01:32.936Z</time>
</trkpt>
<trkpt lat="-27.6677218" lon="152.9138980">
<ele>34.506</ele>
<time>2015-12-29T23:01:35.314Z</time>
</trkpt>
<trkpt lat="-27.6677583" lon="152.9142536">
<ele>34.906</ele>
<time>2015-12-29T23:01:39.250Z</time>
</trkpt>
<trkpt lat="-27.6678217" lon="152.9146772">
<ele>35.893</ele>
<time>2015-12-29T23:01:42.317Z</time>
</trkpt>
<trkpt lat="-27.6679696" lon="152.9151010">
<ele>37.592</ele>
<time>2015-12-29T23:01:45.315Z</time>
</trkpt>
<trkpt lat="-27.6680665" lon="152.9153462">
<ele>39.315</ele>
<time>2015-12-29T23:01:47.236Z</time>
</trkpt>
<trkpt lat="-27.6681394" lon="152.9156764">
<ele>40.289</ele>
<time>2015-12-29T23:01:49.892Z</time>
</trkpt>
<trkpt lat="-27.6681355" lon="152.9160115">
<ele>40.497</ele>
<time>2015-12-29T23:01:52.870Z</time>
</trkpt>
<trkpt lat="-27.6681164" lon="152.9162150">
<ele>40.358</ele>
<time>2015-12-29T23:01:54.942Z</time>
</trkpt>
<trkpt lat="-27.6680773" lon="152.9163699">
<ele>40.082</ele>
<time>2015-12-29T23:01:56.693Z</time>
</trkpt>
<trkpt lat="-27.6679955" lon="152.9165987">
<ele>39.627</ele>
<time>2015-12-29T23:01:59.554Z</time>
</trkpt>
<trkpt lat="-27.6679073" lon="152.9167569">
<ele>39.106</ele>
<time>2015-12-29T23:02:01.651Z</time>
</trkpt>
<trkpt lat="-27.6678831" lon="152.9169280">
<ele>38.785</ele>
<time>2015-12-29T23:02:03.688Z</time>
</trkpt>
<trkpt lat="-27.6679970" lon="152.9170814">
<ele>38.774</ele>
<time>2015-12-29T23:02:06.393Z</time>
</trkpt>
<trkpt lat="-27.6681353" lon="152.9170704">
<ele>38.962</ele>
<time>2015-12-29T23:02:08.916Z</time>
</trkpt>
<trkpt lat="-27.6682134" lon="152.9169619">
<ele>39.235</ele>
<time>2015-12-29T23:02:10.831Z</time>
</trkpt>
<trkpt lat="-27.6683064" lon="152.9167307">
<ele>39.530</ele>
<time>2015-12-29T23:02:13.455Z</time>
</trkpt>
<trkpt lat="-27.6684664" lon="152.9164084">
<ele>39.760</ele>
<time>2015-12-29T23:02:16.650Z</time>
</trkpt>
<trkpt lat="-27.6685672" lon="152.9161793">
<ele>40.110</ele>
<time>2015-12-29T23:02:18.630Z</time>
</trkpt>
<trkpt lat="-27.6686016" lon="152.9160402">
<ele>41.039</ele>
<time>2015-12-29T23:02:19.703Z</time>
</trkpt>
<trkpt lat="-27.6686969" lon="152.9154363">
<ele>42.515</ele>
<time>2015-12-29T23:02:23.716Z</time>
</trkpt>
<trkpt lat="-27.6687972" lon="152.9151166">
<ele>44.557</ele>
<time>2015-12-29T23:02:25.755Z</time>
</trkpt>
<trkpt lat="-27.6689330" lon="152.9148281">
<ele>47.219</ele>
<time>2015-12-29T23:02:27.745Z</time>
</trkpt>
<trkpt lat="-27.6690884" lon="152.9145629">
<ele>49.637</ele>
<time>2015-12-29T23:02:29.723Z</time>
</trkpt>
<trkpt lat="-27.6693646" lon="152.9142039">
<ele>51.061</ele>
<time>2015-12-29T23:02:32.581Z</time>
</trkpt>
<trkpt lat="-27.6695998" lon="152.9139615">
<ele>52.005</ele>
<time>2015-12-29T23:02:34.428Z</time>
</trkpt>
<trkpt lat="-27.6698910" lon="152.9136515">
<ele>52.959</ele>
<time>2015-12-29T23:02:36.394Z</time>
</trkpt>
<trkpt lat="-27.6703955" lon="152.9131181">
<ele>54.260</ele>
<time>2015-12-29T23:02:39.603Z</time>
</trkpt>
<trkpt lat="-27.6707251" lon="152.9127875">
<ele>56.512</ele>
<time>2015-12-29T23:02:41.663Z</time>
</trkpt>
<trkpt lat="-27.6712545" lon="152.9121782">
<ele>59.329</ele>
<time>2015-12-29T23:02:45.734Z</time>
</trkpt>
<trkpt lat="-27.6716023" lon="152.9117449">
<ele>60.194</ele>
<time>2015-12-29T23:02:48.704Z</time>
</trkpt>
<trkpt lat="-27.6718206" lon="152.9114598">
<ele>57.499</ele>
<time>2015-12-29T23:02:50.624Z</time>
</trkpt>
<trkpt lat="-27.6720400" lon="152.9111356">
<ele>53.212</ele>
<time>2015-12-29T23:02:52.648Z</time>
</trkpt>
<trkpt lat="-27.6723776" lon="152.9106243">
<ele>50.201</ele>
<time>2015-12-29T23:02:55.787Z</time>
</trkpt>
<trkpt lat="-27.6726740" lon="152.9101508">
<ele>49.261</ele>
<time>2015-12-29T23:02:58.672Z</time>
</trkpt>
<trkpt lat="-27.6728610" lon="152.9098122">
<ele>49.716</ele>
<time>2015-12-29T23:03:00.719Z</time>
</trkpt>
<trkpt lat="-27.6730446" lon="152.9095165">
<ele>50.044</ele>
<time>2015-12-29T23:03:02.604Z</time>
</trkpt>
<trkpt lat="-27.6732227" lon="152.9091857">
<ele>49.128</ele>
<time>2015-12-29T23:03:04.717Z</time>
</trkpt>
<trkpt lat="-27.6734480" lon="152.9087271">
<ele>47.295</ele>
<time>2015-12-29T23:03:07.707Z</time>
</trkpt>
<trkpt lat="-27.6735877" lon="152.9084223">
<ele>45.394</ele>
<time>2015-12-29T23:03:09.706Z</time>
</trkpt>
<trkpt lat="-27.6737380" lon="152.9080886">
<ele>43.966</ele>
<time>2015-12-29T23:03:11.883Z</time>
</trkpt>
<trkpt lat="-27.6739748" lon="152.9076309">
<ele>43.110</ele>
<time>2015-12-29T23:03:14.942Z</time>
</trkpt>
<trkpt lat="-27.6743328" lon="152.9071872">
<ele>42.432</ele>
<time>2015-12-29T23:03:18.502Z</time>
</trkpt>
<trkpt lat="-27.6746650" lon="152.9068744">
<ele>41.629</ele>
<time>2015-12-29T23:03:21.611Z</time>
</trkpt>
<trkpt lat="-27.6750349" lon="152.9067578">
<ele>40.357</ele>
<time>2015-12-29T23:03:24.564Z</time>
</trkpt>
<trkpt lat="-27.6752892" lon="152.9067441">
<ele>38.141</ele>
<time>2015-12-29T23:03:26.694Z</time>
</trkpt>
<trkpt lat="-27.6756068" lon="152.9066440">
<ele>35.335</ele>
<time>2015-12-29T23:03:29.995Z</time>
</trkpt>
<trkpt lat="-27.6758277" lon="152.9065557">
<ele>32.717</ele>
<time>2015-12-29T23:03:33.280Z</time>
</trkpt>
<trkpt lat="-27.6759540" lon="152.9065714">
<ele>30.438</ele>
<time>2015-12-29T23:03:35.039Z</time>
</trkpt>
<trkpt lat="-27.6762104" lon="152.9066713">
<ele>28.621</ele>
<time>2015-12-29T23:03:37.652Z</time>
</trkpt>
<trkpt lat="-27.6765796" lon="152.9070475">
<ele>28.179</ele>
<time>2015-12-29T23:03:41.141Z</time>
</trkpt>
<trkpt lat="-27.6769346" lon="152.9074072">
<ele>30.042</ele>
<time>2015-12-29T23:03:44.430Z</time>
</trkpt>
<trkpt lat="-27.6771463" lon="152.9076001">
<ele>33.351</ele>
<time>2015-12-29T23:03:46.490Z</time>
</trkpt>
<trkpt lat="-27.6773563" lon="152.9077807">
<ele>35.746</ele>
<time>2015-12-29T23:03:48.501Z</time>
</trkpt>
<trkpt lat="-27.6776580" lon="152.9080388">
<ele>36.174</ele>
<time>2015-12-29T23:03:51.451Z</time>
</trkpt>
<trkpt lat="-27.6779609" lon="152.9082979">
<ele>35.799</ele>
<time>2015-12-29T23:03:54.536Z</time>
</trkpt>
<trkpt lat="-27.6782439" lon="152.9085283">
<ele>36.034</ele>
<time>2015-12-29T23:03:57.610Z</time>
</trkpt>
<trkpt lat="-27.6785032" lon="152.9087388">
<ele>37.184</ele>
<time>2015-12-29T23:04:00.589Z</time>
</trkpt>
<trkpt lat="-27.6786589" lon="152.9088837">
<ele>38.624</ele>
<time>2015-12-29T23:04:02.423Z</time>
</trkpt>
<trkpt lat="-27.6788379" lon="152.9090570">
<ele>39.855</ele>
<time>2015-12-29T23:04:04.643Z</time>
</trkpt>
<trkpt lat="-27.6790089" lon="152.9092162">
<ele>41.315</ele>
<time>2015-12-29T23:04:07.194Z</time>
</trkpt>
<trkpt lat="-27.6791521" lon="152.9093406">
<ele>43.312</ele>
<time>2015-12-29T23:04:09.912Z</time>
</trkpt>
<trkpt lat="-27.6792893" lon="152.9094920">
<ele>45.173</ele>
<time>2015-12-29T23:04:14.370Z</time>
</trkpt>
<trkpt lat="-27.6793627" lon="152.9095524">
<ele>46.267</ele>
<time>2015-12-29T23:04:16.095Z</time>
</trkpt>
<trkpt lat="-27.6794413" lon="152.9096141">
<ele>46.596</ele>
<time>2015-12-29T23:04:17.277Z</time>
</trkpt>
<trkpt lat="-27.6795371" lon="152.9097005">
<ele>46.441</ele>
<time>2015-12-29T23:04:18.792Z</time>
</trkpt>
<trkpt lat="-27.6797593" lon="152.9098819">
<ele>46.448</ele>
<time>2015-12-29T23:04:21.455Z</time>
</trkpt>
<trkpt lat="-27.6799372" lon="152.9100345">
<ele>47.540</ele>
<time>2015-12-29T23:04:23.264Z</time>
</trkpt>
<trkpt lat="-27.6802617" lon="152.9102964">
<ele>49.883</ele>
<time>2015-12-29T23:04:26.291Z</time>
</trkpt>
<trkpt lat="-27.6804674" lon="152.9104780">
<ele>53.076</ele>
<time>2015-12-29T23:04:28.235Z</time>
</trkpt>
<trkpt lat="-27.6806744" lon="152.9106712">
<ele>56.614</ele>
<time>2015-12-29T23:04:30.228Z</time>
</trkpt>
<trkpt lat="-27.6808711" lon="152.9108643">
<ele>59.710</ele>
<time>2015-12-29T23:04:32.187Z</time>
</trkpt>
<trkpt lat="-27.6810645" lon="152.9110620">
<ele>61.827</ele>
<time>2015-12-29T23:04:34.156Z</time>
</trkpt>
<trkpt lat="-27.6813804" lon="152.9113446">
<ele>63.046</ele>
<time>2015-12-29T23:04:37.188Z</time>
</trkpt>
<trkpt lat="-27.6815889" lon="152.9115310">
<ele>63.450</ele>
<time>2015-12-29T23:04:39.149Z</time>
</trkpt>
<trkpt lat="-27.6819089" lon="152.9118248">
<ele>63.331</ele>
<time>2015-12-29T23:04:42.152Z</time>
</trkpt>
<trkpt lat="-27.6822338" lon="152.9121247">
<ele>63.311</ele>
<time>2015-12-29T23:04:45.233Z</time>
</trkpt>
<trkpt lat="-27.6823366" lon="152.9122237">
<ele>63.770</ele>
<time>2015-12-29T23:04:46.226Z</time>
</trkpt>
<trkpt lat="-27.6827788" lon="152.9125971">
<ele>64.464</ele>
<time>2015-12-29T23:04:50.199Z</time>
</trkpt>
<trkpt lat="-27.6830183" lon="152.9127932">
<ele>65.209</ele>
<time>2015-12-29T23:04:52.313Z</time>
</trkpt>
<trkpt lat="-27.6832419" lon="152.9129623">
<ele>66.252</ele>
<time>2015-12-29T23:04:54.251Z</time>
</trkpt>
<trkpt lat="-27.6834761" lon="152.9131415">
<ele>67.518</ele>
<time>2015-12-29T23:04:56.243Z</time>
</trkpt>
<trkpt lat="-27.6837329" lon="152.9133046">
<ele>68.486</ele>
<time>2015-12-29T23:04:58.257Z</time>
</trkpt>
<trkpt lat="-27.6841185" lon="152.9135679">
<ele>68.983</ele>
<time>2015-12-29T23:05:01.324Z</time>
</trkpt>
<trkpt lat="-27.6844797" lon="152.9138214">
<ele>69.260</ele>
<time>2015-12-29T23:05:04.230Z</time>
</trkpt>
<trkpt lat="-27.6847327" lon="152.9139915">
<ele>68.988</ele>
<time>2015-12-29T23:05:06.237Z</time>
</trkpt>
<trkpt lat="-27.6850953" lon="152.9142700">
<ele>67.472</ele>
<time>2015-12-29T23:05:09.262Z</time>
</trkpt>
<trkpt lat="-27.6852122" lon="152.9143733">
<ele>64.946</ele>
<time>2015-12-29T23:05:10.278Z</time>
</trkpt>
<trkpt lat="-27.6855978" lon="152.9148690">
<ele>62.378</ele>
<time>2015-12-29T23:05:14.083Z</time>
</trkpt>
<trkpt lat="-27.6857579" lon="152.9153737">
<ele>59.698</ele>
<time>2015-12-29T23:05:16.922Z</time>
</trkpt>
<trkpt lat="-27.6858407" lon="152.9157580">
<ele>55.847</ele>
<time>2015-12-29T23:05:18.901Z</time>
</trkpt>
<trkpt lat="-27.6859722" lon="152.9163376">
<ele>51.077</ele>
<time>2015-12-29T23:05:21.879Z</time>
</trkpt>
<trkpt lat="-27.6860205" lon="152.9169376">
<ele>47.248</ele>
<time>2015-12-29T23:05:25.038Z</time>
</trkpt>
<trkpt lat="-27.6859898" lon="152.9174492">
<ele>45.598</ele>
<time>2015-12-29T23:05:28.148Z</time>
</trkpt>
<trkpt lat="-27.6859507" lon="152.9177226">
<ele>45.779</ele>
<time>2015-12-29T23:05:30.156Z</time>
</trkpt>
<trkpt lat="-27.6858773" lon="152.9181258">
<ele>46.693</ele>
<time>2015-12-29T23:05:33.296Z</time>
</trkpt>
<trkpt lat="-27.6858285" lon="152.9183653">
<ele>47.444</ele>
<time>2015-12-29T23:05:35.375Z</time>
</trkpt>
<trkpt lat="-27.6857305" lon="152.9186880">
<ele>47.682</ele>
<time>2015-12-29T23:05:38.918Z</time>
</trkpt>
<trkpt lat="-27.6856679" lon="152.9189145">
<ele>47.324</ele>
<time>2015-12-29T23:05:42.698Z</time>
</trkpt>
<trkpt lat="-27.6855881" lon="152.9190746">
<ele>46.491</ele>
<time>2015-12-29T23:05:46.829Z</time>
</trkpt>
<trkpt lat="-27.6855536" lon="152.9191910">
<ele>45.602</ele>
<time>2015-12-29T23:05:49.361Z</time>
</trkpt>
<trkpt lat="-27.6855191" lon="152.9192991">
<ele>45.062</ele>
<time>2015-12-29T23:05:51.295Z</time>
</trkpt>
<trkpt lat="-27.6854579" lon="152.9194824">
<ele>44.920</ele>
<time>2015-12-29T23:05:53.622Z</time>
</trkpt>
<trkpt lat="-27.6853996" lon="152.9196549">
<ele>45.187</ele>
<time>2015-12-29T23:05:55.493Z</time>
</trkpt>
<trkpt lat="-27.6853514" lon="152.9197979">
<ele>45.870</ele>
<time>2015-12-29T23:05:56.926Z</time>
</trkpt>
<trkpt lat="-27.6852653" lon="152.9200530">
<ele>46.646</ele>
<time>2015-12-29T23:05:59.307Z</time>
</trkpt>
<trkpt lat="-27.6851829" lon="152.9202780">
<ele>47.277</ele>
<time>2015-12-29T23:06:01.342Z</time>
</trkpt>
<trkpt lat="-27.6850729" lon="152.9207766">
<ele>48.003</ele>
<time>2015-12-29T23:06:05.318Z</time>
</trkpt>
<trkpt lat="-27.6850554" lon="152.9211822">
<ele>48.909</ele>
<time>2015-12-29T23:06:08.307Z</time>
</trkpt>
<trkpt lat="-27.6850964" lon="152.9214688">
<ele>49.714</ele>
<time>2015-12-29T23:06:10.358Z</time>
</trkpt>
<trkpt lat="-27.6852240" lon="152.9218678">
<ele>50.207</ele>
<time>2015-12-29T23:06:13.300Z</time>
</trkpt>
<trkpt lat="-27.6854523" lon="152.9222582">
<ele>50.568</ele>
<time>2015-12-29T23:06:16.365Z</time>
</trkpt>
<trkpt lat="-27.6857299" lon="152.9226215">
<ele>51.091</ele>
<time>2015-12-29T23:06:19.252Z</time>
</trkpt>
<trkpt lat="-27.6860379" lon="152.9230233">
<ele>51.716</ele>
<time>2015-12-29T23:06:22.277Z</time>
</trkpt>
<trkpt lat="-27.6863037" lon="152.9234741">
<ele>52.017</ele>
<time>2015-12-29T23:06:25.202Z</time>
</trkpt>
<trkpt lat="-27.6864175" lon="152.9238336">
<ele>51.476</ele>
<time>2015-12-29T23:06:27.168Z</time>
</trkpt>
<trkpt lat="-27.6864538" lon="152.9244120">
<ele>50.069</ele>
<time>2015-12-29T23:06:30.122Z</time>
</trkpt>
<trkpt lat="-27.6863695" lon="152.9249879">
<ele>48.609</ele>
<time>2015-12-29T23:06:33.157Z</time>
</trkpt>
<trkpt lat="-27.6862009" lon="152.9254995">
<ele>47.938</ele>
<time>2015-12-29T23:06:36.163Z</time>
</trkpt>
<trkpt lat="-27.6859431" lon="152.9259134">
<ele>48.421</ele>
<time>2015-12-29T23:06:39.098Z</time>
</trkpt>
<trkpt lat="-27.6857578" lon="152.9261667">
<ele>50.433</ele>
<time>2015-12-29T23:06:41.132Z</time>
</trkpt>
<trkpt lat="-27.6855075" lon="152.9265394">
<ele>53.944</ele>
<time>2015-12-29T23:06:44.091Z</time>
</trkpt>
<trkpt lat="-27.6853842" lon="152.9268155">
<ele>58.071</ele>
<time>2015-12-29T23:06:45.990Z</time>
</trkpt>
<trkpt lat="-27.6852832" lon="152.9271503">
<ele>61.757</ele>
<time>2015-12-29T23:06:48.062Z</time>
</trkpt>
<trkpt lat="-27.6852474" lon="152.9276566">
<ele>64.698</ele>
<time>2015-12-29T23:06:50.956Z</time>
</trkpt>
<trkpt lat="-27.6852862" lon="152.9280146">
<ele>67.461</ele>
<time>2015-12-29T23:06:52.813Z</time>
</trkpt>
<trkpt lat="-27.6853669" lon="152.9285943">
<ele>70.572</ele>
<time>2015-12-29T23:06:55.709Z</time>
</trkpt>
<trkpt lat="-27.6854211" lon="152.9290190">
<ele>73.882</ele>
<time>2015-12-29T23:06:57.763Z</time>
</trkpt>
<trkpt lat="-27.6855144" lon="152.9294211">
<ele>76.803</ele>
<time>2015-12-29T23:06:59.677Z</time>
</trkpt>
<trkpt lat="-27.6857719" lon="152.9300380">
<ele>78.786</ele>
<time>2015-12-29T23:07:02.689Z</time>
</trkpt>
<trkpt lat="-27.6859645" lon="152.9304674">
<ele>79.928</ele>
<time>2015-12-29T23:07:04.706Z</time>
</trkpt>
<trkpt lat="-27.6861561" lon="152.9308898">
<ele>80.688</ele>
<time>2015-12-29T23:07:06.693Z</time>
</trkpt>
<trkpt lat="-27.6863346" lon="152.9313135">
<ele>80.870</ele>
<time>2015-12-29T23:07:08.693Z</time>
</trkpt>
<trkpt lat="-27.6865890" lon="152.9319287">
<ele>80.037</ele>
<time>2015-12-29T23:07:11.608Z</time>
</trkpt>
<trkpt lat="-27.6867638" lon="152.9323577">
<ele>78.064</ele>
<time>2015-12-29T23:07:13.641Z</time>
</trkpt>
<trkpt lat="-27.6869243" lon="152.9330024">
<ele>75.394</ele>
<time>2015-12-29T23:07:16.507Z</time>
</trkpt>
<trkpt lat="-27.6870021" lon="152.9334611">
<ele>72.106</ele>
<time>2015-12-29T23:07:18.470Z</time>
</trkpt>
<trkpt lat="-27.6871086" lon="152.9341776">
<ele>67.922</ele>
<time>2015-12-29T23:07:21.512Z</time>
</trkpt>
<trkpt lat="-27.6872231" lon="152.9348763">
<ele>63.722</ele>
<time>2015-12-29T23:07:24.524Z</time>
</trkpt>
<trkpt lat="-27.6872861" lon="152.9353207">
<ele>60.704</ele>
<time>2015-12-29T23:07:26.485Z</time>
</trkpt>
<trkpt lat="-27.6873383" lon="152.9357622">
<ele>58.640</ele>
<time>2015-12-29T23:07:28.482Z</time>
</trkpt>
<trkpt lat="-27.6873699" lon="152.9359786">
<ele>57.099</ele>
<time>2015-12-29T23:07:29.472Z</time>
</trkpt>
<trkpt lat="-27.6875006" lon="152.9369126">
<ele>56.216</ele>
<time>2015-12-29T23:07:33.527Z</time>
</trkpt>
<trkpt lat="-27.6875706" lon="152.9373870">
<ele>55.981</ele>
<time>2015-12-29T23:07:35.524Z</time>
</trkpt>
<trkpt lat="-27.6876756" lon="152.9380811">
<ele>55.916</ele>
<time>2015-12-29T23:07:38.461Z</time>
</trkpt>
<trkpt lat="-27.6877889" lon="152.9387913">
<ele>55.494</ele>
<time>2015-12-29T23:07:41.477Z</time>
</trkpt>
<trkpt lat="-27.6879000" lon="152.9395126">
<ele>54.707</ele>
<time>2015-12-29T23:07:44.539Z</time>
</trkpt>
<trkpt lat="-27.6879759" lon="152.9399531">
<ele>54.092</ele>
<time>2015-12-29T23:07:46.445Z</time>
</trkpt>
<trkpt lat="-27.6880514" lon="152.9403962">
<ele>54.261</ele>
<time>2015-12-29T23:07:48.421Z</time>
</trkpt>
<trkpt lat="-27.6880812" lon="152.9406271">
<ele>55.239</ele>
<time>2015-12-29T23:07:49.453Z</time>
</trkpt>
<trkpt lat="-27.6882314" lon="152.9415607">
<ele>56.478</ele>
<time>2015-12-29T23:07:53.516Z</time>
</trkpt>
<trkpt lat="-27.6882905" lon="152.9420205">
<ele>57.823</ele>
<time>2015-12-29T23:07:55.406Z</time>
</trkpt>
<trkpt lat="-27.6884171" lon="152.9427735">
<ele>60.032</ele>
<time>2015-12-29T23:07:58.480Z</time>
</trkpt>
<trkpt lat="-27.6885240" lon="152.9434964">
<ele>62.991</ele>
<time>2015-12-29T23:08:01.424Z</time>
</trkpt>
<trkpt lat="-27.6885999" lon="152.9439823">
<ele>65.096</ele>
<time>2015-12-29T23:08:03.449Z</time>
</trkpt>
<trkpt lat="-27.6887076" lon="152.9446949">
<ele>65.348</ele>
<time>2015-12-29T23:08:06.424Z</time>
</trkpt>
<trkpt lat="-27.6887794" lon="152.9451702">
<ele>63.405</ele>
<time>2015-12-29T23:08:08.407Z</time>
</trkpt>
<trkpt lat="-27.6888143" lon="152.9454093">
<ele>59.380</ele>
<time>2015-12-29T23:08:09.405Z</time>
</trkpt>
<trkpt lat="-27.6889592" lon="152.9464190">
<ele>55.098</ele>
<time>2015-12-29T23:08:13.471Z</time>
</trkpt>
<trkpt lat="-27.6890363" lon="152.9469032">
<ele>51.882</ele>
<time>2015-12-29T23:08:15.425Z</time>
</trkpt>
<trkpt lat="-27.6891111" lon="152.9473827">
<ele>49.241</ele>
<time>2015-12-29T23:08:17.359Z</time>
</trkpt>
<trkpt lat="-27.6892326" lon="152.9481807">
<ele>47.212</ele>
<time>2015-12-29T23:08:20.628Z</time>
</trkpt>
<trkpt lat="-27.6893250" lon="152.9488292">
<ele>47.002</ele>
<time>2015-12-29T23:08:23.451Z</time>
</trkpt>
<trkpt lat="-27.6894251" lon="152.9494598">
<ele>48.760</ele>
<time>2015-12-29T23:08:26.386Z</time>
</trkpt>
<trkpt lat="-27.6894851" lon="152.9498638">
<ele>50.462</ele>
<time>2015-12-29T23:08:28.303Z</time>
</trkpt>
<trkpt lat="-27.6895777" lon="152.9505080">
<ele>50.384</ele>
<time>2015-12-29T23:08:31.368Z</time>
</trkpt>
<trkpt lat="-27.6896140" lon="152.9507315">
<ele>49.221</ele>
<time>2015-12-29T23:08:32.435Z</time>
</trkpt>
<trkpt lat="-27.6897377" lon="152.9516110">
<ele>48.249</ele>
<time>2015-12-29T23:08:36.430Z</time>
</trkpt>
<trkpt lat="-27.6897941" lon="152.9520604">
<ele>47.849</ele>
<time>2015-12-29T23:08:38.377Z</time>
</trkpt>
<trkpt lat="-27.6898583" lon="152.9525215">
<ele>47.709</ele>
<time>2015-12-29T23:08:40.320Z</time>
</trkpt>
<trkpt lat="-27.6899330" lon="152.9530249">
<ele>47.212</ele>
<time>2015-12-29T23:08:42.360Z</time>
</trkpt>
<trkpt lat="-27.6900433" lon="152.9537586">
<ele>46.087</ele>
<time>2015-12-29T23:08:45.285Z</time>
</trkpt>
<trkpt lat="-27.6901367" lon="152.9542668">
<ele>44.517</ele>
<time>2015-12-29T23:08:47.372Z</time>
</trkpt>
<trkpt lat="-27.6902443" lon="152.9549376">
<ele>42.594</ele>
<time>2015-12-29T23:08:50.219Z</time>
</trkpt>
<trkpt lat="-27.6903466" lon="152.9555765">
<ele>40.448</ele>
<time>2015-12-29T23:08:53.027Z</time>
</trkpt>
<trkpt lat="-27.6904160" lon="152.9560292">
<ele>38.651</ele>
<time>2015-12-29T23:08:55.010Z</time>
</trkpt>
<trkpt lat="-27.6905303" lon="152.9567338">
<ele>38.057</ele>
<time>2015-12-29T23:08:58.063Z</time>
</trkpt>
<trkpt lat="-27.6906078" lon="152.9572153">
<ele>39.250</ele>
<time>2015-12-29T23:09:00.115Z</time>
</trkpt>
<trkpt lat="-27.6906758" lon="152.9576748">
<ele>41.864</ele>
<time>2015-12-29T23:09:02.080Z</time>
</trkpt>
<trkpt lat="-27.6907785" lon="152.9583617">
<ele>44.601</ele>
<time>2015-12-29T23:09:05.086Z</time>
</trkpt>
<trkpt lat="-27.6908820" lon="152.9590080">
<ele>46.297</ele>
<time>2015-12-29T23:09:08.008Z</time>
</trkpt>
<trkpt lat="-27.6909224" lon="152.9594347">
<ele>46.396</ele>
<time>2015-12-29T23:09:09.951Z</time>
</trkpt>
<trkpt lat="-27.6909028" lon="152.9598939">
<ele>44.970</ele>
<time>2015-12-29T23:09:12.041Z</time>
</trkpt>
<trkpt lat="-27.6907518" lon="152.9607790">
<ele>42.819</ele>
<time>2015-12-29T23:09:16.036Z</time>
</trkpt>
<trkpt lat="-27.6906564" lon="152.9614392">
<ele>40.947</ele>
<time>2015-12-29T23:09:19.018Z</time>
</trkpt>
<trkpt lat="-27.6906974" lon="152.9618718">
<ele>39.156</ele>
<time>2015-12-29T23:09:20.928Z</time>
</trkpt>
<trkpt lat="-27.6908683" lon="152.9626386">
<ele>37.039</ele>
<time>2015-12-29T23:09:24.159Z</time>
</trkpt>
<trkpt lat="-27.6909852" lon="152.9631539">
<ele>35.590</ele>
<time>2015-12-29T23:09:26.221Z</time>
</trkpt>
<trkpt lat="-27.6910990" lon="152.9636476">
<ele>35.640</ele>
<time>2015-12-29T23:09:28.263Z</time>
</trkpt>
<trkpt lat="-27.6912649" lon="152.9643218">
<ele>36.103</ele>
<time>2015-12-29T23:09:31.194Z</time>
</trkpt>
<trkpt lat="-27.6913084" lon="152.9645417">
<ele>35.665</ele>
<time>2015-12-29T23:09:32.183Z</time>
</trkpt>
<trkpt lat="-27.6915066" lon="152.9654113">
<ele>34.234</ele>
<time>2015-12-29T23:09:36.213Z</time>
</trkpt>
<trkpt lat="-27.6916501" lon="152.9660718">
<ele>32.342</ele>
<time>2015-12-29T23:09:39.293Z</time>
</trkpt>
<trkpt lat="-27.6918319" lon="152.9666434">
<ele>30.447</ele>
<time>2015-12-29T23:09:42.089Z</time>
</trkpt>
<trkpt lat="-27.6921685" lon="152.9671701">
<ele>29.023</ele>
<time>2015-12-29T23:09:45.043Z</time>
</trkpt>
<trkpt lat="-27.6924521" lon="152.9674916">
<ele>28.359</ele>
<time>2015-12-29T23:09:47.054Z</time>
</trkpt>
<trkpt lat="-27.6927274" lon="152.9678055">
<ele>28.271</ele>
<time>2015-12-29T23:09:49.043Z</time>
</trkpt>
<trkpt lat="-27.6931227" lon="152.9682655">
<ele>28.320</ele>
<time>2015-12-29T23:09:52.024Z</time>
</trkpt>
<trkpt lat="-27.6935007" lon="152.9687115">
<ele>28.146</ele>
<time>2015-12-29T23:09:55.000Z</time>
</trkpt>
<trkpt lat="-27.6938450" lon="152.9691710">
<ele>27.687</ele>
<time>2015-12-29T23:09:57.951Z</time>
</trkpt>
<trkpt lat="-27.6941467" lon="152.9696616">
<ele>27.108</ele>
<time>2015-12-29T23:10:00.916Z</time>
</trkpt>
<trkpt lat="-27.6944585" lon="152.9701379">
<ele>26.678</ele>
<time>2015-12-29T23:10:03.890Z</time>
</trkpt>
<trkpt lat="-27.6947157" lon="152.9704070">
<ele>26.685</ele>
<time>2015-12-29T23:10:05.882Z</time>
</trkpt>
<trkpt lat="-27.6950017" lon="152.9706532">
<ele>27.337</ele>
<time>2015-12-29T23:10:07.903Z</time>
</trkpt>
<trkpt lat="-27.6953481" lon="152.9708420">
<ele>28.411</ele>
<time>2015-12-29T23:10:09.995Z</time>
</trkpt>
<trkpt lat="-27.6957224" lon="152.9709734">
<ele>29.347</ele>
<time>2015-12-29T23:10:11.987Z</time>
</trkpt>
<trkpt lat="-27.6961680" lon="152.9711271">
<ele>30.122</ele>
<time>2015-12-29T23:10:14.171Z</time>
</trkpt>
<trkpt lat="-27.6966041" lon="152.9712788">
<ele>31.558</ele>
<time>2015-12-29T23:10:16.256Z</time>
</trkpt>
<trkpt lat="-27.6969978" lon="152.9714160">
<ele>33.729</ele>
<time>2015-12-29T23:10:18.208Z</time>
</trkpt>
<trkpt lat="-27.6975708" lon="152.9716270">
<ele>35.181</ele>
<time>2015-12-29T23:10:21.211Z</time>
</trkpt>
<trkpt lat="-27.6979088" lon="152.9717595">
<ele>34.607</ele>
<time>2015-12-29T23:10:23.147Z</time>
</trkpt>
<trkpt lat="-27.6984191" lon="152.9719319">
<ele>32.339</ele>
<time>2015-12-29T23:10:26.118Z</time>
</trkpt>
<trkpt lat="-27.6989585" lon="152.9721178">
<ele>29.655</ele>
<time>2015-12-29T23:10:29.271Z</time>
</trkpt>
<trkpt lat="-27.6992767" lon="152.9722527">
<ele>27.668</ele>
<time>2015-12-29T23:10:31.158Z</time>
</trkpt>
<trkpt lat="-27.6998119" lon="152.9723665">
<ele>26.836</ele>
<time>2015-12-29T23:10:34.145Z</time>
</trkpt>
<trkpt lat="-27.7001907" lon="152.9723918">
<ele>26.939</ele>
<time>2015-12-29T23:10:36.175Z</time>
</trkpt>
<trkpt lat="-27.7007538" lon="152.9723992">
<ele>27.415</ele>
<time>2015-12-29T23:10:39.190Z</time>
</trkpt>
<trkpt lat="-27.7013005" lon="152.9723643">
<ele>27.845</ele>
<time>2015-12-29T23:10:42.202Z</time>
</trkpt>
<trkpt lat="-27.7018180" lon="152.9722942">
<ele>27.973</ele>
<time>2015-12-29T23:10:45.259Z</time>
</trkpt>
<trkpt lat="-27.7022852" lon="152.9722324">
<ele>27.427</ele>
<time>2015-12-29T23:10:48.316Z</time>
</trkpt>
<trkpt lat="-27.7025357" lon="152.9721772">
<ele>25.925</ele>
<time>2015-12-29T23:10:50.207Z</time>
</trkpt>
<trkpt lat="-27.7027788" lon="152.9721262">
<ele>23.930</ele>
<time>2015-12-29T23:10:52.126Z</time>
</trkpt>
<trkpt lat="-27.7031577" lon="152.9719749">
<ele>22.404</ele>
<time>2015-12-29T23:10:55.181Z</time>
</trkpt>
<trkpt lat="-27.7034037" lon="152.9718225">
<ele>21.882</ele>
<time>2015-12-29T23:10:57.258Z</time>
</trkpt>
<trkpt lat="-27.7037445" lon="152.9715508">
<ele>22.147</ele>
<time>2015-12-29T23:11:00.591Z</time>
</trkpt>
<trkpt lat="-27.7040280" lon="152.9714052">
<ele>22.505</ele>
<time>2015-12-29T23:11:03.461Z</time>
</trkpt>
<trkpt lat="-27.7042101" lon="152.9713139">
<ele>22.331</ele>
<time>2015-12-29T23:11:05.764Z</time>
</trkpt>
<trkpt lat="-27.7044026" lon="152.9713524">
<ele>21.527</ele>
<time>2015-12-29T23:11:08.465Z</time>
</trkpt>
<trkpt lat="-27.7045047" lon="152.9714161">
<ele>20.468</ele>
<time>2015-12-29T23:11:10.207Z</time>
</trkpt>
<trkpt lat="-27.7046875" lon="152.9715777">
<ele>19.664</ele>
<time>2015-12-29T23:11:13.470Z</time>
</trkpt>
<trkpt lat="-27.7048779" lon="152.9717431">
<ele>19.388</ele>
<time>2015-12-29T23:11:16.430Z</time>
</trkpt>
<trkpt lat="-27.7050334" lon="152.9720712">
<ele>19.586</ele>
<time>2015-12-29T23:11:19.880Z</time>
</trkpt>
<trkpt lat="-27.7051315" lon="152.9722703">
<ele>19.970</ele>
<time>2015-12-29T23:11:21.782Z</time>
</trkpt>
<trkpt lat="-27.7052669" lon="152.9725767">
<ele>20.289</ele>
<time>2015-12-29T23:11:24.525Z</time>
</trkpt>
<trkpt lat="-27.7053861" lon="152.9729644">
<ele>20.577</ele>
<time>2015-12-29T23:11:27.547Z</time>
</trkpt>
<trkpt lat="-27.7055020" lon="152.9733819">
<ele>21.128</ele>
<time>2015-12-29T23:11:30.514Z</time>
</trkpt>
<trkpt lat="-27.7055643" lon="152.9736658">
<ele>22.176</ele>
<time>2015-12-29T23:11:32.405Z</time>
</trkpt>
<trkpt lat="-27.7056432" lon="152.9741332">
<ele>23.835</ele>
<time>2015-12-29T23:11:35.447Z</time>
</trkpt>
<trkpt lat="-27.7057026" lon="152.9744337">
<ele>25.761</ele>
<time>2015-12-29T23:11:37.419Z</time>
</trkpt>
<trkpt lat="-27.7058199" lon="152.9748742">
<ele>27.277</ele>
<time>2015-12-29T23:11:40.391Z</time>
</trkpt>
<trkpt lat="-27.7059887" lon="152.9753016">
<ele>28.367</ele>
<time>2015-12-29T23:11:43.362Z</time>
</trkpt>
<trkpt lat="-27.7063027" lon="152.9756669">
<ele>29.391</ele>
<time>2015-12-29T23:11:46.395Z</time>
</trkpt>
<trkpt lat="-27.7067118" lon="152.9759132">
<ele>30.549</ele>
<time>2015-12-29T23:11:49.365Z</time>
</trkpt>
<trkpt lat="-27.7071345" lon="152.9761421">
<ele>32.311</ele>
<time>2015-12-29T23:11:52.412Z</time>
</trkpt>
<trkpt lat="-27.7075095" lon="152.9763750">
<ele>34.497</ele>
<time>2015-12-29T23:11:55.319Z</time>
</trkpt>
<trkpt lat="-27.7078966" lon="152.9766195">
<ele>36.202</ele>
<time>2015-12-29T23:11:58.422Z</time>
</trkpt>
<trkpt lat="-27.7081585" lon="152.9767430">
<ele>37.213</ele>
<time>2015-12-29T23:12:00.478Z</time>
</trkpt>
<trkpt lat="-27.7085031" lon="152.9769586">
<ele>37.901</ele>
<time>2015-12-29T23:12:03.424Z</time>
</trkpt>
<trkpt lat="-27.7087307" lon="152.9770987">
<ele>38.463</ele>
<time>2015-12-29T23:12:05.402Z</time>
</trkpt>
<trkpt lat="-27.7090791" lon="152.9773069">
<ele>38.997</ele>
<time>2015-12-29T23:12:08.489Z</time>
</trkpt>
<trkpt lat="-27.7094026" lon="152.9775089">
<ele>39.495</ele>
<time>2015-12-29T23:12:11.628Z</time>
</trkpt>
<trkpt lat="-27.7095896" lon="152.9776105">
<ele>39.765</ele>
<time>2015-12-29T23:12:13.661Z</time>
</trkpt>
<trkpt lat="-27.7097241" lon="152.9777176">
<ele>39.707</ele>
<time>2015-12-29T23:12:15.392Z</time>
</trkpt>
<trkpt lat="-27.7099779" lon="152.9778603">
<ele>39.518</ele>
<time>2015-12-29T23:12:18.166Z</time>
</trkpt>
<trkpt lat="-27.7103875" lon="152.9778203">
<ele>39.381</ele>
<time>2015-12-29T23:12:21.423Z</time>
</trkpt>
<trkpt lat="-27.7106890" lon="152.9777720">
<ele>39.792</ele>
<time>2015-12-29T23:12:23.474Z</time>
</trkpt>
<trkpt lat="-27.7109848" lon="152.9777207">
<ele>41.046</ele>
<time>2015-12-29T23:12:25.468Z</time>
</trkpt>
<trkpt lat="-27.7112872" lon="152.9776408">
<ele>42.422</ele>
<time>2015-12-29T23:12:27.550Z</time>
</trkpt>
<trkpt lat="-27.7117192" lon="152.9775712">
<ele>43.132</ele>
<time>2015-12-29T23:12:30.457Z</time>
</trkpt>
<trkpt lat="-27.7121774" lon="152.9774981">
<ele>43.249</ele>
<time>2015-12-29T23:12:33.502Z</time>
</trkpt>
<trkpt lat="-27.7124377" lon="152.9775012">
<ele>43.322</ele>
<time>2015-12-29T23:12:35.234Z</time>
</trkpt>
<trkpt lat="-27.7128689" lon="152.9776534">
<ele>43.714</ele>
<time>2015-12-29T23:12:38.238Z</time>
</trkpt>
<trkpt lat="-27.7131376" lon="152.9778205">
<ele>44.230</ele>
<time>2015-12-29T23:12:40.198Z</time>
</trkpt>
<trkpt lat="-27.7136004" lon="152.9780856">
<ele>44.602</ele>
<time>2015-12-29T23:12:43.392Z</time>
</trkpt>
<trkpt lat="-27.7139052" lon="152.9782579">
<ele>44.816</ele>
<time>2015-12-29T23:12:45.405Z</time>
</trkpt>
<trkpt lat="-27.7143975" lon="152.9785340">
<ele>44.848</ele>
<time>2015-12-29T23:12:48.662Z</time>
</trkpt>
<trkpt lat="-27.7147657" lon="152.9787964">
<ele>44.631</ele>
<time>2015-12-29T23:12:51.311Z</time>
</trkpt>
<trkpt lat="-27.7151905" lon="152.9790419">
<ele>44.062</ele>
<time>2015-12-29T23:12:54.251Z</time>
</trkpt>
<trkpt lat="-27.7154781" lon="152.9792292">
<ele>43.263</ele>
<time>2015-12-29T23:12:56.279Z</time>
</trkpt>
<trkpt lat="-27.7159116" lon="152.9794826">
<ele>42.500</ele>
<time>2015-12-29T23:12:59.280Z</time>
</trkpt>
<trkpt lat="-27.7163300" lon="152.9797271">
<ele>41.647</ele>
<time>2015-12-29T23:13:02.216Z</time>
</trkpt>
<trkpt lat="-27.7167704" lon="152.9799852">
<ele>40.561</ele>
<time>2015-12-29T23:13:05.230Z</time>
</trkpt>
<trkpt lat="-27.7172274" lon="152.9802825">
<ele>39.629</ele>
<time>2015-12-29T23:13:08.265Z</time>
</trkpt>
<trkpt lat="-27.7175225" lon="152.9804698">
<ele>39.190</ele>
<time>2015-12-29T23:13:10.280Z</time>
</trkpt>
<trkpt lat="-27.7179283" lon="152.9807207">
<ele>39.131</ele>
<time>2015-12-29T23:13:13.238Z</time>
</trkpt>
<trkpt lat="-27.7181369" lon="152.9809302">
<ele>38.998</ele>
<time>2015-12-29T23:13:15.196Z</time>
</trkpt>
<trkpt lat="-27.7183056" lon="152.9813505">
<ele>38.177</ele>
<time>2015-12-29T23:13:18.094Z</time>
</trkpt>
<trkpt lat="-27.7183859" lon="152.9818341">
<ele>36.763</ele>
<time>2015-12-29T23:13:21.125Z</time>
</trkpt>
<trkpt lat="-27.7184596" lon="152.9823152">
<ele>35.970</ele>
<time>2015-12-29T23:13:24.172Z</time>
</trkpt>
<trkpt lat="-27.7185047" lon="152.9825983">
<ele>36.528</ele>
<time>2015-12-29T23:13:26.128Z</time>
</trkpt>
<trkpt lat="-27.7185341" lon="152.9828570">
<ele>37.670</ele>
<time>2015-12-29T23:13:28.008Z</time>
</trkpt>
<trkpt lat="-27.7185980" lon="152.9832615">
<ele>38.439</ele>
<time>2015-12-29T23:13:30.990Z</time>
</trkpt>
<trkpt lat="-27.7186622" lon="152.9836509">
<ele>38.797</ele>
<time>2015-12-29T23:13:33.766Z</time>
</trkpt>
<trkpt lat="-27.7187242" lon="152.9839768">
<ele>39.387</ele>
<time>2015-12-29T23:13:35.931Z</time>
</trkpt>
<trkpt lat="-27.7188188" lon="152.9844533">
<ele>40.634</ele>
<time>2015-12-29T23:13:38.891Z</time>
</trkpt>
<trkpt lat="-27.7189056" lon="152.9849834">
<ele>42.347</ele>
<time>2015-12-29T23:13:41.973Z</time>
</trkpt>
<trkpt lat="-27.7189883" lon="152.9854799">
<ele>44.492</ele>
<time>2015-12-29T23:13:44.900Z</time>
</trkpt>
<trkpt lat="-27.7190467" lon="152.9859383">
<ele>46.972</ele>
<time>2015-12-29T23:13:47.753Z</time>
</trkpt>
<trkpt lat="-27.7190384" lon="152.9864232">
<ele>49.108</ele>
<time>2015-12-29T23:13:50.784Z</time>
</trkpt>
<trkpt lat="-27.7189760" lon="152.9867833">
<ele>50.258</ele>
<time>2015-12-29T23:13:52.985Z</time>
</trkpt>
<trkpt lat="-27.7189306" lon="152.9871250">
<ele>50.358</ele>
<time>2015-12-29T23:13:55.053Z</time>
</trkpt>
<trkpt lat="-27.7188983" lon="152.9874239">
<ele>49.892</ele>
<time>2015-12-29T23:13:56.962Z</time>
</trkpt>
<trkpt lat="-27.7188275" lon="152.9878300">
<ele>49.536</ele>
<time>2015-12-29T23:13:59.783Z</time>
</trkpt>
<trkpt lat="-27.7187788" lon="152.9880946">
<ele>49.530</ele>
<time>2015-12-29T23:14:01.977Z</time>
</trkpt>
<trkpt lat="-27.7187261" lon="152.9882951">
<ele>49.581</ele>
<time>2015-12-29T23:14:03.937Z</time>
</trkpt>
<trkpt lat="-27.7186505" lon="152.9884382">
<ele>48.922</ele>
<time>2015-12-29T23:14:06.301Z</time>
</trkpt>
<trkpt lat="-27.7185846" lon="152.9885964">
<ele>47.174</ele>
<time>2015-12-29T23:14:09.105Z</time>
</trkpt>
<trkpt lat="-27.7185711" lon="152.9888274">
<ele>45.156</ele>
<time>2015-12-29T23:14:12.657Z</time>
</trkpt>
<trkpt lat="-27.7186668" lon="152.9889302">
<ele>44.062</ele>
<time>2015-12-29T23:14:14.804Z</time>
</trkpt>
<trkpt lat="-27.7187989" lon="152.9888980">
<ele>44.160</ele>
<time>2015-12-29T23:14:17.057Z</time>
</trkpt>
<trkpt lat="-27.7189067" lon="152.9886375">
<ele>44.836</ele>
<time>2015-12-29T23:14:20.604Z</time>
</trkpt>
<trkpt lat="-27.7189750" lon="152.9882897">
<ele>45.493</ele>
<time>2015-12-29T23:14:23.883Z</time>
</trkpt>
<trkpt lat="-27.7190937" lon="152.9880642">
<ele>46.098</ele>
<time>2015-12-29T23:14:25.875Z</time>
</trkpt>
<trkpt lat="-27.7194180" lon="152.9877997">
<ele>46.766</ele>
<time>2015-12-29T23:14:28.943Z</time>
</trkpt>
<trkpt lat="-27.7198104" lon="152.9875586">
<ele>47.436</ele>
<time>2015-12-29T23:14:32.119Z</time>
</trkpt>
<trkpt lat="-27.7201426" lon="152.9873622">
<ele>47.966</ele>
<time>2015-12-29T23:14:34.976Z</time>
</trkpt>
<trkpt lat="-27.7204355" lon="152.9871729">
<ele>47.224</ele>
<time>2015-12-29T23:14:37.792Z</time>
</trkpt>
<trkpt lat="-27.7206677" lon="152.9870251">
<ele>44.616</ele>
<time>2015-12-29T23:14:39.904Z</time>
</trkpt>
<trkpt lat="-27.7209225" lon="152.9868776">
<ele>42.174</ele>
<time>2015-12-29T23:14:41.966Z</time>
</trkpt>
<trkpt lat="-27.7213275" lon="152.9866495">
<ele>41.967</ele>
<time>2015-12-29T23:14:45.006Z</time>
</trkpt>
<trkpt lat="-27.7217640" lon="152.9864124">
<ele>43.574</ele>
<time>2015-12-29T23:14:48.040Z</time>
</trkpt>
<trkpt lat="-27.7222161" lon="152.9861706">
<ele>45.768</ele>
<time>2015-12-29T23:14:51.063Z</time>
</trkpt>
<trkpt lat="-27.7225097" lon="152.9860094">
<ele>47.609</ele>
<time>2015-12-29T23:14:53.045Z</time>
</trkpt>
<trkpt lat="-27.7227906" lon="152.9858584">
<ele>48.474</ele>
<time>2015-12-29T23:14:54.969Z</time>
</trkpt>
<trkpt lat="-27.7230750" lon="152.9857112">
<ele>48.387</ele>
<time>2015-12-29T23:14:56.948Z</time>
</trkpt>
<trkpt lat="-27.7234925" lon="152.9855088">
<ele>48.106</ele>
<time>2015-12-29T23:14:59.866Z</time>
</trkpt>
<trkpt lat="-27.7239191" lon="152.9852858">
<ele>48.353</ele>
<time>2015-12-29T23:15:02.883Z</time>
</trkpt>
<trkpt lat="-27.7242158" lon="152.9851345">
<ele>49.234</ele>
<time>2015-12-29T23:15:04.912Z</time>
</trkpt>
<trkpt lat="-27.7246732" lon="152.9849040">
<ele>50.439</ele>
<time>2015-12-29T23:15:07.971Z</time>
</trkpt>
<trkpt lat="-27.7251395" lon="152.9847307">
<ele>51.684</ele>
<time>2015-12-29T23:15:10.948Z</time>
</trkpt>
<trkpt lat="-27.7254563" lon="152.9846464">
<ele>52.964</ele>
<time>2015-12-29T23:15:12.950Z</time>
</trkpt>
<trkpt lat="-27.7257885" lon="152.9845615">
<ele>54.181</ele>
<time>2015-12-29T23:15:15.035Z</time>
</trkpt>
<trkpt lat="-27.7262942" lon="152.9844730">
<ele>54.925</ele>
<time>2015-12-29T23:15:18.144Z</time>
</trkpt>
<trkpt lat="-27.7267694" lon="152.9843711">
<ele>55.015</ele>
<time>2015-12-29T23:15:21.160Z</time>
</trkpt>
<trkpt lat="-27.7269223" lon="152.9843428">
<ele>54.651</ele>
<time>2015-12-29T23:15:22.159Z</time>
</trkpt>
<trkpt lat="-27.7275161" lon="152.9841887">
<ele>54.128</ele>
<time>2015-12-29T23:15:26.175Z</time>
</trkpt>
<trkpt lat="-27.7279410" lon="152.9840968">
<ele>54.010</ele>
<time>2015-12-29T23:15:29.033Z</time>
</trkpt>
<trkpt lat="-27.7282529" lon="152.9840514">
<ele>54.567</ele>
<time>2015-12-29T23:15:31.032Z</time>
</trkpt>
<trkpt lat="-27.7287870" lon="152.9839783">
<ele>55.246</ele>
<time>2015-12-29T23:15:34.252Z</time>
</trkpt>
<trkpt lat="-27.7291513" lon="152.9839654">
<ele>55.519</ele>
<time>2015-12-29T23:15:36.346Z</time>
</trkpt>
<trkpt lat="-27.7296544" lon="152.9840102">
<ele>55.526</ele>
<time>2015-12-29T23:15:39.281Z</time>
</trkpt>
<trkpt lat="-27.7299867" lon="152.9840757">
<ele>55.523</ele>
<time>2015-12-29T23:15:41.267Z</time>
</trkpt>
<trkpt lat="-27.7305134" lon="152.9841612">
<ele>55.506</ele>
<time>2015-12-29T23:15:44.340Z</time>
</trkpt>
<trkpt lat="-27.7310187" lon="152.9842586">
<ele>55.402</ele>
<time>2015-12-29T23:15:47.170Z</time>
</trkpt>
<trkpt lat="-27.7313978" lon="152.9843420">
<ele>55.387</ele>
<time>2015-12-29T23:15:49.226Z</time>
</trkpt>
<trkpt lat="-27.7317506" lon="152.9844096">
<ele>55.695</ele>
<time>2015-12-29T23:15:51.151Z</time>
</trkpt>
<trkpt lat="-27.7320972" lon="152.9845168">
<ele>56.200</ele>
<time>2015-12-29T23:15:53.138Z</time>
</trkpt>
<trkpt lat="-27.7325996" lon="152.9846538">
<ele>56.580</ele>
<time>2015-12-29T23:15:56.078Z</time>
</trkpt>
<trkpt lat="-27.7329213" lon="152.9847302">
<ele>56.788</ele>
<time>2015-12-29T23:15:58.040Z</time>
</trkpt>
<trkpt lat="-27.7332527" lon="152.9847814">
<ele>56.960</ele>
<time>2015-12-29T23:16:00.081Z</time>
</trkpt>
<trkpt lat="-27.7337234" lon="152.9848464">
<ele>56.784</ele>
<time>2015-12-29T23:16:02.956Z</time>
</trkpt>
<trkpt lat="-27.7340680" lon="152.9848460">
<ele>55.867</ele>
<time>2015-12-29T23:16:04.938Z</time>
</trkpt>
<trkpt lat="-27.7346231" lon="152.9848475">
<ele>54.783</ele>
<time>2015-12-29T23:16:08.051Z</time>
</trkpt>
<trkpt lat="-27.7349794" lon="152.9847934">
<ele>54.300</ele>
<time>2015-12-29T23:16:10.124Z</time>
</trkpt>
<trkpt lat="-27.7353095" lon="152.9847776">
<ele>54.295</ele>
<time>2015-12-29T23:16:12.160Z</time>
</trkpt>
<trkpt lat="-27.7357383" lon="152.9847772">
<ele>54.374</ele>
<time>2015-12-29T23:16:14.913Z</time>
</trkpt>
<trkpt lat="-27.7362198" lon="152.9847597">
<ele>54.436</ele>
<time>2015-12-29T23:16:18.078Z</time>
</trkpt>
<trkpt lat="-27.7365098" lon="152.9847589">
<ele>54.467</ele>
<time>2015-12-29T23:16:20.074Z</time>
</trkpt>
<trkpt lat="-27.7368921" lon="152.9847341">
<ele>54.482</ele>
<time>2015-12-29T23:16:22.838Z</time>
</trkpt>
<trkpt lat="-27.7371549" lon="152.9846997">
<ele>54.269</ele>
<time>2015-12-29T23:16:24.798Z</time>
</trkpt>
<trkpt lat="-27.7374586" lon="152.9846658">
<ele>53.702</ele>
<time>2015-12-29T23:16:27.034Z</time>
</trkpt>
<trkpt lat="-27.7376908" lon="152.9846573">
<ele>53.123</ele>
<time>2015-12-29T23:16:28.760Z</time>
</trkpt>
<trkpt lat="-27.7379600" lon="152.9846558">
<ele>52.858</ele>
<time>2015-12-29T23:16:30.865Z</time>
</trkpt>
<trkpt lat="-27.7382062" lon="152.9846462">
<ele>52.774</ele>
<time>2015-12-29T23:16:33.058Z</time>
</trkpt>
<trkpt lat="-27.7384571" lon="152.9846428">
<ele>52.394</ele>
<time>2015-12-29T23:16:35.680Z</time>
</trkpt>
<trkpt lat="-27.7385899" lon="152.9846341">
<ele>51.291</ele>
<time>2015-12-29T23:16:37.358Z</time>
</trkpt>
<trkpt lat="-27.7388447" lon="152.9846033">
<ele>49.825</ele>
<time>2015-12-29T23:16:40.522Z</time>
</trkpt>
<trkpt lat="-27.7390504" lon="152.9845970">
<ele>49.023</ele>
<time>2015-12-29T23:16:42.643Z</time>
</trkpt>
<trkpt lat="-27.7391670" lon="152.9845901">
<ele>49.392</ele>
<time>2015-12-29T23:16:43.734Z</time>
</trkpt>
<trkpt lat="-27.7396867" lon="152.9845388">
<ele>50.510</ele>
<time>2015-12-29T23:16:47.789Z</time>
</trkpt>
<trkpt lat="-27.7399894" lon="152.9845241">
<ele>51.726</ele>
<time>2015-12-29T23:16:49.792Z</time>
</trkpt>
<trkpt lat="-27.7403021" lon="152.9845220">
<ele>52.541</ele>
<time>2015-12-29T23:16:51.811Z</time>
</trkpt>
<trkpt lat="-27.7406164" lon="152.9845464">
<ele>52.697</ele>
<time>2015-12-29T23:16:53.842Z</time>
</trkpt>
<trkpt lat="-27.7410940" lon="152.9846020">
<ele>52.342</ele>
<time>2015-12-29T23:16:56.904Z</time>
</trkpt>
<trkpt lat="-27.7413929" lon="152.9847043">
<ele>51.470</ele>
<time>2015-12-29T23:16:58.881Z</time>
</trkpt>
<trkpt lat="-27.7415543" lon="152.9847565">
<ele>50.156</ele>
<time>2015-12-29T23:16:59.953Z</time>
</trkpt>
<trkpt lat="-27.7422265" lon="152.9849478">
<ele>49.053</ele>
<time>2015-12-29T23:17:04.222Z</time>
</trkpt>
<trkpt lat="-27.7425495" lon="152.9850421">
<ele>48.420</ele>
<time>2015-12-29T23:17:06.229Z</time>
</trkpt>
<trkpt lat="-27.7428476" lon="152.9851357">
<ele>47.796</ele>
<time>2015-12-29T23:17:08.116Z</time>
</trkpt>
<trkpt lat="-27.7431616" lon="152.9852317">
<ele>46.947</ele>
<time>2015-12-29T23:17:10.084Z</time>
</trkpt>
<trkpt lat="-27.7436485" lon="152.9853620">
<ele>46.009</ele>
<time>2015-12-29T23:17:13.039Z</time>
</trkpt>
<trkpt lat="-27.7440034" lon="152.9854369">
<ele>45.089</ele>
<time>2015-12-29T23:17:15.104Z</time>
</trkpt>
<trkpt lat="-27.7445373" lon="152.9855153">
<ele>44.190</ele>
<time>2015-12-29T23:17:18.165Z</time>
</trkpt>
<trkpt lat="-27.7450566" lon="152.9855765">
<ele>43.347</ele>
<time>2015-12-29T23:17:21.158Z</time>
</trkpt>
<trkpt lat="-27.7454125" lon="152.9856141">
<ele>42.255</ele>
<time>2015-12-29T23:17:23.233Z</time>
</trkpt>
<trkpt lat="-27.7458997" lon="152.9856845">
<ele>40.524</ele>
<time>2015-12-29T23:17:26.091Z</time>
</trkpt>
<trkpt lat="-27.7462506" lon="152.9857145">
<ele>38.292</ele>
<time>2015-12-29T23:17:28.092Z</time>
</trkpt>
<trkpt lat="-27.7467759" lon="152.9857900">
<ele>36.049</ele>
<time>2015-12-29T23:17:30.988Z</time>
</trkpt>
<trkpt lat="-27.7473872" lon="152.9858671">
<ele>34.115</ele>
<time>2015-12-29T23:17:34.170Z</time>
</trkpt>
<trkpt lat="-27.7479703" lon="152.9859376">
<ele>32.387</ele>
<time>2015-12-29T23:17:37.123Z</time>
</trkpt>
<trkpt lat="-27.7483643" lon="152.9859887">
<ele>30.502</ele>
<time>2015-12-29T23:17:39.110Z</time>
</trkpt>
<trkpt lat="-27.7487552" lon="152.9860581">
<ele>28.344</ele>
<time>2015-12-29T23:17:41.080Z</time>
</trkpt>
<trkpt lat="-27.7491610" lon="152.9861292">
<ele>26.303</ele>
<time>2015-12-29T23:17:43.101Z</time>
</trkpt>
<trkpt lat="-27.7495692" lon="152.9862066">
<ele>25.273</ele>
<time>2015-12-29T23:17:45.138Z</time>
</trkpt>
<trkpt lat="-27.7499732" lon="152.9862884">
<ele>25.536</ele>
<time>2015-12-29T23:17:47.193Z</time>
</trkpt>
<trkpt lat="-27.7505392" lon="152.9864351">
<ele>25.932</ele>
<time>2015-12-29T23:17:50.177Z</time>
</trkpt>
<trkpt lat="-27.7509302" lon="152.9865280">
<ele>25.280</ele>
<time>2015-12-29T23:17:52.231Z</time>
</trkpt>
<trkpt lat="-27.7514920" lon="152.9866734">
<ele>23.724</ele>
<time>2015-12-29T23:17:55.179Z</time>
</trkpt>
<trkpt lat="-27.7520714" lon="152.9868199">
<ele>22.110</ele>
<time>2015-12-29T23:17:58.202Z</time>
</trkpt>
<trkpt lat="-27.7526648" lon="152.9869662">
<ele>21.012</ele>
<time>2015-12-29T23:18:01.282Z</time>
</trkpt>
<trkpt lat="-27.7530329" lon="152.9870756">
<ele>20.871</ele>
<time>2015-12-29T23:18:03.217Z</time>
</trkpt>
<trkpt lat="-27.7535861" lon="152.9872580">
<ele>21.810</ele>
<time>2015-12-29T23:18:06.163Z</time>
</trkpt>
<trkpt lat="-27.7539621" lon="152.9874059">
<ele>23.283</ele>
<time>2015-12-29T23:18:08.201Z</time>
</trkpt>
<trkpt lat="-27.7545420" lon="152.9876155">
<ele>24.535</ele>
<time>2015-12-29T23:18:11.313Z</time>
</trkpt>
<trkpt lat="-27.7549297" lon="152.9877440">
<ele>25.203</ele>
<time>2015-12-29T23:18:13.370Z</time>
</trkpt>
<trkpt lat="-27.7553149" lon="152.9878282">
<ele>25.192</ele>
<time>2015-12-29T23:18:15.359Z</time>
</trkpt>
<trkpt lat="-27.7558588" lon="152.9877923">
<ele>24.697</ele>
<time>2015-12-29T23:18:18.088Z</time>
</trkpt>
<trkpt lat="-27.7562916" lon="152.9877315">
<ele>23.827</ele>
<time>2015-12-29T23:18:20.176Z</time>
</trkpt>
<trkpt lat="-27.7569556" lon="152.9876622">
<ele>22.511</ele>
<time>2015-12-29T23:18:23.287Z</time>
</trkpt>
<trkpt lat="-27.7576126" lon="152.9875940">
<ele>20.504</ele>
<time>2015-12-29T23:18:26.413Z</time>
</trkpt>
<trkpt lat="-27.7578325" lon="152.9875650">
<ele>17.966</ele>
<time>2015-12-29T23:18:27.490Z</time>
</trkpt>
<trkpt lat="-27.7586605" lon="152.9874542">
<ele>15.806</ele>
<time>2015-12-29T23:18:31.526Z</time>
</trkpt>
<trkpt lat="-27.7590777" lon="152.9873588">
<ele>14.766</ele>
<time>2015-12-29T23:18:33.580Z</time>
</trkpt>
<trkpt lat="-27.7596436" lon="152.9871404">
<ele>14.586</ele>
<time>2015-12-29T23:18:36.504Z</time>
</trkpt>
<trkpt lat="-27.7600260" lon="152.9869740">
<ele>14.941</ele>
<time>2015-12-29T23:18:38.577Z</time>
</trkpt>
<trkpt lat="-27.7603691" lon="152.9868818">
<ele>15.617</ele>
<time>2015-12-29T23:18:40.468Z</time>
</trkpt>
<trkpt lat="-27.7608775" lon="152.9866856">
<ele>16.116</ele>
<time>2015-12-29T23:18:43.426Z</time>
</trkpt>
<trkpt lat="-27.7612173" lon="152.9865249">
<ele>16.043</ele>
<time>2015-12-29T23:18:45.455Z</time>
</trkpt>
<trkpt lat="-27.7617410" lon="152.9863267">
<ele>15.690</ele>
<time>2015-12-29T23:18:48.444Z</time>
</trkpt>
<trkpt lat="-27.7622640" lon="152.9861334">
<ele>15.722</ele>
<time>2015-12-29T23:18:51.328Z</time>
</trkpt>
<trkpt lat="-27.7628271" lon="152.9859084">
<ele>16.485</ele>
<time>2015-12-29T23:18:54.382Z</time>
</trkpt>
<trkpt lat="-27.7631928" lon="152.9857903">
<ele>17.804</ele>
<time>2015-12-29T23:18:56.346Z</time>
</trkpt>
<trkpt lat="-27.7635528" lon="152.9856245">
<ele>19.171</ele>
<time>2015-12-29T23:18:58.389Z</time>
</trkpt>
<trkpt lat="-27.7640812" lon="152.9854323">
<ele>20.058</ele>
<time>2015-12-29T23:19:01.320Z</time>
</trkpt>
<trkpt lat="-27.7644419" lon="152.9852754">
<ele>20.502</ele>
<time>2015-12-29T23:19:03.315Z</time>
</trkpt>
<trkpt lat="-27.7650144" lon="152.9850400">
<ele>21.296</ele>
<time>2015-12-29T23:19:06.398Z</time>
</trkpt>
<trkpt lat="-27.7653842" lon="152.9848683">
<ele>23.096</ele>
<time>2015-12-29T23:19:08.421Z</time>
</trkpt>
<trkpt lat="-27.7659373" lon="152.9846553">
<ele>25.390</ele>
<time>2015-12-29T23:19:11.408Z</time>
</trkpt>
<trkpt lat="-27.7663004" lon="152.9845129">
<ele>27.137</ele>
<time>2015-12-29T23:19:13.418Z</time>
</trkpt>
<trkpt lat="-27.7664828" lon="152.9844413">
<ele>27.928</ele>
<time>2015-12-29T23:19:14.435Z</time>
</trkpt>
<trkpt lat="-27.7672206" lon="152.9840953">
<ele>27.970</ele>
<time>2015-12-29T23:19:18.497Z</time>
</trkpt>
<trkpt lat="-27.7675799" lon="152.9839212">
<ele>27.226</ele>
<time>2015-12-29T23:19:20.429Z</time>
</trkpt>
<trkpt lat="-27.7681432" lon="152.9836560">
<ele>25.539</ele>
<time>2015-12-29T23:19:23.442Z</time>
</trkpt>
<trkpt lat="-27.7685279" lon="152.9834718">
<ele>23.516</ele>
<time>2015-12-29T23:19:25.485Z</time>
</trkpt>
<trkpt lat="-27.7689034" lon="152.9832902">
<ele>22.043</ele>
<time>2015-12-29T23:19:27.465Z</time>
</trkpt>
<trkpt lat="-27.7692823" lon="152.9830888">
<ele>21.415</ele>
<time>2015-12-29T23:19:29.508Z</time>
</trkpt>
<trkpt lat="-27.7696512" lon="152.9829105">
<ele>21.369</ele>
<time>2015-12-29T23:19:31.511Z</time>
</trkpt>
<trkpt lat="-27.7701824" lon="152.9826306">
<ele>21.450</ele>
<time>2015-12-29T23:19:34.522Z</time>
</trkpt>
<trkpt lat="-27.7705118" lon="152.9824684">
<ele>21.519</ele>
<time>2015-12-29T23:19:36.399Z</time>
</trkpt>
<trkpt lat="-27.7710751" lon="152.9821754">
<ele>21.897</ele>
<time>2015-12-29T23:19:39.513Z</time>
</trkpt>
<trkpt lat="-27.7714488" lon="152.9819807">
<ele>23.838</ele>
<time>2015-12-29T23:19:41.540Z</time>
</trkpt>
<trkpt lat="-27.7719948" lon="152.9817125">
<ele>27.857</ele>
<time>2015-12-29T23:19:44.490Z</time>
</trkpt>
<trkpt lat="-27.7725598" lon="152.9814447">
<ele>31.982</ele>
<time>2015-12-29T23:19:47.561Z</time>
</trkpt>
<trkpt lat="-27.7729236" lon="152.9812569">
<ele>34.467</ele>
<time>2015-12-29T23:19:49.657Z</time>
</trkpt>
<trkpt lat="-27.7734167" lon="152.9810134">
<ele>35.519</ele>
<time>2015-12-29T23:19:52.545Z</time>
</trkpt>
<trkpt lat="-27.7737496" lon="152.9808583">
<ele>35.804</ele>
<time>2015-12-29T23:19:54.496Z</time>
</trkpt>
<trkpt lat="-27.7741125" lon="152.9807636">
<ele>35.864</ele>
<time>2015-12-29T23:19:56.517Z</time>
</trkpt>
<trkpt lat="-27.7744923" lon="152.9806449">
<ele>35.907</ele>
<time>2015-12-29T23:19:58.649Z</time>
</trkpt>
<trkpt lat="-27.7752639" lon="152.9805331">
<ele>35.751</ele>
<time>2015-12-29T23:20:02.589Z</time>
</trkpt>
<trkpt lat="-27.7758829" lon="152.9805240">
<ele>34.843</ele>
<time>2015-12-29T23:20:05.556Z</time>
</trkpt>
<trkpt lat="-27.7765076" lon="152.9806060">
<ele>33.120</ele>
<time>2015-12-29T23:20:08.573Z</time>
</trkpt>
<trkpt lat="-27.7769063" lon="152.9807094">
<ele>31.075</ele>
<time>2015-12-29T23:20:10.605Z</time>
</trkpt>
<trkpt lat="-27.7774753" lon="152.9808808">
<ele>28.844</ele>
<time>2015-12-29T23:20:13.572Z</time>
</trkpt>
<trkpt lat="-27.7780627" lon="152.9809764">
<ele>26.270</ele>
<time>2015-12-29T23:20:16.585Z</time>
</trkpt>
<trkpt lat="-27.7784536" lon="152.9809935">
<ele>23.084</ele>
<time>2015-12-29T23:20:18.566Z</time>
</trkpt>
<trkpt lat="-27.7790481" lon="152.9809749">
<ele>19.568</ele>
<time>2015-12-29T23:20:21.553Z</time>
</trkpt>
<trkpt lat="-27.7794326" lon="152.9808993">
<ele>16.996</ele>
<time>2015-12-29T23:20:23.505Z</time>
</trkpt>
<trkpt lat="-27.7798350" lon="152.9808096">
<ele>16.038</ele>
<time>2015-12-29T23:20:25.580Z</time>
</trkpt>
<trkpt lat="-27.7802012" lon="152.9806941">
<ele>16.120</ele>
<time>2015-12-29T23:20:27.545Z</time>
</trkpt>
<trkpt lat="-27.7807894" lon="152.9805484">
<ele>16.551</ele>
<time>2015-12-29T23:20:30.686Z</time>
</trkpt>
<trkpt lat="-27.7811682" lon="152.9804828">
<ele>17.113</ele>
<time>2015-12-29T23:20:32.692Z</time>
</trkpt>
<trkpt lat="-27.7817377" lon="152.9804555">
<ele>17.754</ele>
<time>2015-12-29T23:20:35.702Z</time>
</trkpt>
<trkpt lat="-27.7819264" lon="152.9804527">
<ele>18.288</ele>
<time>2015-12-29T23:20:36.696Z</time>
</trkpt>
<trkpt lat="-27.7826897" lon="152.9804718">
<ele>18.534</ele>
<time>2015-12-29T23:20:40.593Z</time>
</trkpt>
<trkpt lat="-27.7831233" lon="152.9804803">
<ele>18.551</ele>
<time>2015-12-29T23:20:42.659Z</time>
</trkpt>
<trkpt lat="-27.7838140" lon="152.9805217">
<ele>18.829</ele>
<time>2015-12-29T23:20:45.889Z</time>
</trkpt>
<trkpt lat="-27.7842301" lon="152.9805835">
<ele>19.643</ele>
<time>2015-12-29T23:20:47.870Z</time>
</trkpt>
<trkpt lat="-27.7846117" lon="152.9806102">
<ele>20.595</ele>
<time>2015-12-29T23:20:49.726Z</time>
</trkpt>
<trkpt lat="-27.7852220" lon="152.9806511">
<ele>21.449</ele>
<time>2015-12-29T23:20:52.740Z</time>
</trkpt>
<trkpt lat="-27.7856301" lon="152.9806937">
<ele>22.923</ele>
<time>2015-12-29T23:20:54.847Z</time>
</trkpt>
<trkpt lat="-27.7858482" lon="152.9807221">
<ele>25.248</ele>
<time>2015-12-29T23:20:56.001Z</time>
</trkpt>
<trkpt lat="-27.7865761" lon="152.9807922">
<ele>27.375</ele>
<time>2015-12-29T23:20:59.891Z</time>
</trkpt>
<trkpt lat="-27.7871028" lon="152.9808314">
<ele>28.490</ele>
<time>2015-12-29T23:21:02.711Z</time>
</trkpt>
<trkpt lat="-27.7874712" lon="152.9808881">
<ele>28.976</ele>
<time>2015-12-29T23:21:04.655Z</time>
</trkpt>
<trkpt lat="-27.7880573" lon="152.9809549">
<ele>29.563</ele>
<time>2015-12-29T23:21:07.705Z</time>
</trkpt>
<trkpt lat="-27.7886154" lon="152.9810223">
<ele>30.763</ele>
<time>2015-12-29T23:21:10.633Z</time>
</trkpt>
<trkpt lat="-27.7891819" lon="152.9810814">
<ele>32.373</ele>
<time>2015-12-29T23:21:13.706Z</time>
</trkpt>
<trkpt lat="-27.7895091" lon="152.9811197">
<ele>33.884</ele>
<time>2015-12-29T23:21:15.581Z</time>
</trkpt>
<trkpt lat="-27.7898463" lon="152.9811661">
<ele>34.796</ele>
<time>2015-12-29T23:21:17.524Z</time>
</trkpt>
<trkpt lat="-27.7903647" lon="152.9812428">
<ele>35.099</ele>
<time>2015-12-29T23:21:20.508Z</time>
</trkpt>
<trkpt lat="-27.7908913" lon="152.9813073">
<ele>34.944</ele>
<time>2015-12-29T23:21:23.589Z</time>
</trkpt>
<trkpt lat="-27.7912112" lon="152.9813575">
<ele>34.111</ele>
<time>2015-12-29T23:21:25.669Z</time>
</trkpt>
<trkpt lat="-27.7916077" lon="152.9814245">
<ele>32.600</ele>
<time>2015-12-29T23:21:28.436Z</time>
</trkpt>
<trkpt lat="-27.7919962" lon="152.9814751">
<ele>30.652</ele>
<time>2015-12-29T23:21:31.264Z</time>
</trkpt>
<trkpt lat="-27.7924232" lon="152.9815373">
<ele>28.161</ele>
<time>2015-12-29T23:21:34.367Z</time>
</trkpt>
<trkpt lat="-27.7927861" lon="152.9815861">
<ele>25.293</ele>
<time>2015-12-29T23:21:36.989Z</time>
</trkpt>
<trkpt lat="-27.7930968" lon="152.9816348">
<ele>22.660</ele>
<time>2015-12-29T23:21:39.238Z</time>
</trkpt>
<trkpt lat="-27.7936724" lon="152.9817085">
<ele>20.698</ele>
<time>2015-12-29T23:21:43.280Z</time>
</trkpt>
<trkpt lat="-27.7939836" lon="152.9817514">
<ele>19.455</ele>
<time>2015-12-29T23:21:45.394Z</time>
</trkpt>
<trkpt lat="-27.7944373" lon="152.9818035">
<ele>18.771</ele>
<time>2015-12-29T23:21:48.464Z</time>
</trkpt>
<trkpt lat="-27.7947060" lon="152.9818452">
<ele>18.361</ele>
<time>2015-12-29T23:21:50.328Z</time>
</trkpt>
<trkpt lat="-27.7949960" lon="152.9818876">
<ele>17.945</ele>
<time>2015-12-29T23:21:52.341Z</time>
</trkpt>
<trkpt lat="-27.7954183" lon="152.9820130">
<ele>17.404</ele>
<time>2015-12-29T23:21:55.310Z</time>
</trkpt>
<trkpt lat="-27.7958282" lon="152.9821642">
<ele>16.723</ele>
<time>2015-12-29T23:21:58.238Z</time>
</trkpt>
<trkpt lat="-27.7959749" lon="152.9822068">
<ele>16.123</ele>
<time>2015-12-29T23:21:59.282Z</time>
</trkpt>
<trkpt lat="-27.7965404" lon="152.9824521">
<ele>15.838</ele>
<time>2015-12-29T23:22:03.440Z</time>
</trkpt>
<trkpt lat="-27.7968044" lon="152.9826052">
<ele>15.789</ele>
<time>2015-12-29T23:22:05.416Z</time>
</trkpt>
<trkpt lat="-27.7972252" lon="152.9827983">
<ele>15.892</ele>
<time>2015-12-29T23:22:08.464Z</time>
</trkpt>
<trkpt lat="-27.7976163" lon="152.9829913">
<ele>16.100</ele>
<time>2015-12-29T23:22:11.365Z</time>
</trkpt>
<trkpt lat="-27.7978907" lon="152.9831331">
<ele>16.272</ele>
<time>2015-12-29T23:22:13.405Z</time>
</trkpt>
<trkpt lat="-27.7981528" lon="152.9832752">
<ele>16.308</ele>
<time>2015-12-29T23:22:15.340Z</time>
</trkpt>
<trkpt lat="-27.7984300" lon="152.9834066">
<ele>16.294</ele>
<time>2015-12-29T23:22:17.293Z</time>
</trkpt>
<trkpt lat="-27.7988800" lon="152.9836090">
<ele>16.480</ele>
<time>2015-12-29T23:22:20.347Z</time>
</trkpt>
<trkpt lat="-27.7992062" lon="152.9837334">
<ele>16.967</ele>
<time>2015-12-29T23:22:22.360Z</time>
</trkpt>
<trkpt lat="-27.7997434" lon="152.9838673">
<ele>17.504</ele>
<time>2015-12-29T23:22:25.433Z</time>
</trkpt>
<trkpt lat="-27.8000965" lon="152.9839478">
<ele>17.933</ele>
<time>2015-12-29T23:22:27.431Z</time>
</trkpt>
<trkpt lat="-27.8006108" lon="152.9840472">
<ele>18.321</ele>
<time>2015-12-29T23:22:30.372Z</time>
</trkpt>
<trkpt lat="-27.8009594" lon="152.9841052">
<ele>18.459</ele>
<time>2015-12-29T23:22:32.377Z</time>
</trkpt>
<trkpt lat="-27.8014836" lon="152.9841757">
<ele>18.079</ele>
<time>2015-12-29T23:22:35.379Z</time>
</trkpt>
<trkpt lat="-27.8018340" lon="152.9841322">
<ele>17.411</ele>
<time>2015-12-29T23:22:37.381Z</time>
</trkpt>
<trkpt lat="-27.8023446" lon="152.9839341">
<ele>16.739</ele>
<time>2015-12-29T23:22:40.447Z</time>
</trkpt>
<trkpt lat="-27.8028046" lon="152.9836048">
<ele>15.648</ele>
<time>2015-12-29T23:22:43.571Z</time>
</trkpt>
<trkpt lat="-27.8032839" lon="152.9833010">
<ele>13.991</ele>
<time>2015-12-29T23:22:46.779Z</time>
</trkpt>
<trkpt lat="-27.8037456" lon="152.9830495">
<ele>12.551</ele>
<time>2015-12-29T23:22:49.774Z</time>
</trkpt>
<trkpt lat="-27.8042271" lon="152.9828146">
<ele>11.865</ele>
<time>2015-12-29T23:22:52.792Z</time>
</trkpt>
<trkpt lat="-27.8045507" lon="152.9826766">
<ele>11.592</ele>
<time>2015-12-29T23:22:54.762Z</time>
</trkpt>
<trkpt lat="-27.8048830" lon="152.9825445">
<ele>11.352</ele>
<time>2015-12-29T23:22:56.756Z</time>
</trkpt>
<trkpt lat="-27.8055900" lon="152.9823467">
<ele>11.208</ele>
<time>2015-12-29T23:23:00.848Z</time>
</trkpt>
<trkpt lat="-27.8060931" lon="152.9822325">
<ele>11.641</ele>
<time>2015-12-29T23:23:03.818Z</time>
</trkpt>
<trkpt lat="-27.8064055" lon="152.9821258">
<ele>12.680</ele>
<time>2015-12-29T23:23:05.801Z</time>
</trkpt>
<trkpt lat="-27.8067114" lon="152.9820212">
<ele>13.655</ele>
<time>2015-12-29T23:23:07.743Z</time>
</trkpt>
<trkpt lat="-27.8070237" lon="152.9818887">
<ele>14.125</ele>
<time>2015-12-29T23:23:09.682Z</time>
</trkpt>
<trkpt lat="-27.8075373" lon="152.9817257">
<ele>14.360</ele>
<time>2015-12-29T23:23:12.668Z</time>
</trkpt>
<trkpt lat="-27.8079049" lon="152.9816038">
<ele>15.186</ele>
<time>2015-12-29T23:23:14.666Z</time>
</trkpt>
<trkpt lat="-27.8084195" lon="152.9812594">
<ele>17.236</ele>
<time>2015-12-29T23:23:17.685Z</time>
</trkpt>
<trkpt lat="-27.8087471" lon="152.9809840">
<ele>20.066</ele>
<time>2015-12-29T23:23:19.641Z</time>
</trkpt>
<trkpt lat="-27.8090545" lon="152.9806463">
<ele>22.551</ele>
<time>2015-12-29T23:23:21.654Z</time>
</trkpt>
<trkpt lat="-27.8095200" lon="152.9801317">
<ele>23.960</ele>
<time>2015-12-29T23:23:24.777Z</time>
</trkpt>
<trkpt lat="-27.8097913" lon="152.9798239">
<ele>24.148</ele>
<time>2015-12-29T23:23:26.775Z</time>
</trkpt>
<trkpt lat="-27.8101786" lon="152.9793866">
<ele>23.495</ele>
<time>2015-12-29T23:23:29.738Z</time>
</trkpt>
<trkpt lat="-27.8104282" lon="152.9791215">
<ele>22.285</ele>
<time>2015-12-29T23:23:31.699Z</time>
</trkpt>
<trkpt lat="-27.8108003" lon="152.9787093">
<ele>20.584</ele>
<time>2015-12-29T23:23:34.784Z</time>
</trkpt>
<trkpt lat="-27.8111546" lon="152.9783204">
<ele>18.871</ele>
<time>2015-12-29T23:23:38.068Z</time>
</trkpt>
<trkpt lat="-27.8114582" lon="152.9779972">
<ele>17.773</ele>
<time>2015-12-29T23:23:41.668Z</time>
</trkpt>
<trkpt lat="-27.8115931" lon="152.9778446">
<ele>17.023</ele>
<time>2015-12-29T23:23:43.864Z</time>
</trkpt>
<trkpt lat="-27.8117368" lon="152.9777369">
<ele>15.908</ele>
<time>2015-12-29T23:23:46.235Z</time>
</trkpt>
<trkpt lat="-27.8118607" lon="152.9777175">
<ele>14.424</ele>
<time>2015-12-29T23:23:47.818Z</time>
</trkpt>
<trkpt lat="-27.8119851" lon="152.9778346">
<ele>13.247</ele>
<time>2015-12-29T23:23:49.468Z</time>
</trkpt>
<trkpt lat="-27.8121460" lon="152.9780409">
<ele>12.740</ele>
<time>2015-12-29T23:23:51.465Z</time>
</trkpt>
<trkpt lat="-27.8124353" lon="152.9783780">
<ele>13.082</ele>
<time>2015-12-29T23:23:54.500Z</time>
</trkpt>
<trkpt lat="-27.8127130" lon="152.9787554">
<ele>14.704</ele>
<time>2015-12-29T23:23:57.531Z</time>
</trkpt>
<trkpt lat="-27.8128474" lon="152.9790290">
<ele>17.353</ele>
<time>2015-12-29T23:23:59.392Z</time>
</trkpt>
<trkpt lat="-27.8129587" lon="152.9793505">
<ele>19.821</ele>
<time>2015-12-29T23:24:01.382Z</time>
</trkpt>
<trkpt lat="-27.8130394" lon="152.9798610">
<ele>21.217</ele>
<time>2015-12-29T23:24:04.353Z</time>
</trkpt>
<trkpt lat="-27.8130849" lon="152.9802000">
<ele>21.455</ele>
<time>2015-12-29T23:24:06.259Z</time>
</trkpt>
<trkpt lat="-27.8131763" lon="152.9807495">
<ele>20.891</ele>
<time>2015-12-29T23:24:09.285Z</time>
</trkpt>
<trkpt lat="-27.8132189" lon="152.9811320">
<ele>20.110</ele>
<time>2015-12-29T23:24:11.355Z</time>
</trkpt>
<trkpt lat="-27.8133163" lon="152.9816766">
<ele>19.590</ele>
<time>2015-12-29T23:24:14.398Z</time>
</trkpt>
<trkpt lat="-27.8133760" lon="152.9820280">
<ele>19.446</ele>
<time>2015-12-29T23:24:16.407Z</time>
</trkpt>
<trkpt lat="-27.8134592" lon="152.9825461">
<ele>19.803</ele>
<time>2015-12-29T23:24:19.377Z</time>
</trkpt>
<trkpt lat="-27.8135312" lon="152.9830756">
<ele>20.668</ele>
<time>2015-12-29T23:24:22.347Z</time>
</trkpt>
<trkpt lat="-27.8135764" lon="152.9834485">
<ele>21.786</ele>
<time>2015-12-29T23:24:24.417Z</time>
</trkpt>
<trkpt lat="-27.8136026" lon="152.9836334">
<ele>23.160</ele>
<time>2015-12-29T23:24:25.407Z</time>
</trkpt>
<trkpt lat="-27.8137118" lon="152.9843868">
<ele>24.789</ele>
<time>2015-12-29T23:24:29.293Z</time>
</trkpt>
<trkpt lat="-27.8137650" lon="152.9847854">
<ele>26.161</ele>
<time>2015-12-29T23:24:31.247Z</time>
</trkpt>
<trkpt lat="-27.8138625" lon="152.9853913">
<ele>26.886</ele>
<time>2015-12-29T23:24:34.160Z</time>
</trkpt>
<trkpt lat="-27.8139156" lon="152.9858094">
<ele>26.841</ele>
<time>2015-12-29T23:24:36.083Z</time>
</trkpt>
<trkpt lat="-27.8139803" lon="152.9864667">
<ele>26.118</ele>
<time>2015-12-29T23:24:39.040Z</time>
</trkpt>
<trkpt lat="-27.8140275" lon="152.9869173">
<ele>25.241</ele>
<time>2015-12-29T23:24:41.034Z</time>
</trkpt>
<trkpt lat="-27.8141311" lon="152.9875857">
<ele>24.699</ele>
<time>2015-12-29T23:24:44.041Z</time>
</trkpt>
<trkpt lat="-27.8141987" lon="152.9880253">
<ele>24.599</ele>
<time>2015-12-29T23:24:46.037Z</time>
</trkpt>
<trkpt lat="-27.8143178" lon="152.9886811">
<ele>24.875</ele>
<time>2015-12-29T23:24:49.005Z</time>
</trkpt>
<trkpt lat="-27.8143865" lon="152.9891278">
<ele>25.283</ele>
<time>2015-12-29T23:24:50.983Z</time>
</trkpt>
<trkpt lat="-27.8144921" lon="152.9898219">
<ele>25.561</ele>
<time>2015-12-29T23:24:54.065Z</time>
</trkpt>
<trkpt lat="-27.8146171" lon="152.9904790">
<ele>25.658</ele>
<time>2015-12-29T23:24:57.025Z</time>
</trkpt>
<trkpt lat="-27.8147144" lon="152.9909129">
<ele>25.629</ele>
<time>2015-12-29T23:24:59.012Z</time>
</trkpt>
<trkpt lat="-27.8148142" lon="152.9913561">
<ele>25.557</ele>
<time>2015-12-29T23:25:01.061Z</time>
</trkpt>
<trkpt lat="-27.8149470" lon="152.9920023">
<ele>25.824</ele>
<time>2015-12-29T23:25:04.077Z</time>
</trkpt>
<trkpt lat="-27.8150520" lon="152.9926212">
<ele>26.671</ele>
<time>2015-12-29T23:25:06.977Z</time>
</trkpt>
<trkpt lat="-27.8151144" lon="152.9932480">
<ele>27.682</ele>
<time>2015-12-29T23:25:09.880Z</time>
</trkpt>
<trkpt lat="-27.8152069" lon="152.9936757">
<ele>28.303</ele>
<time>2015-12-29T23:25:11.907Z</time>
</trkpt>
<trkpt lat="-27.8152550" lon="152.9943304">
<ele>28.574</ele>
<time>2015-12-29T23:25:14.946Z</time>
</trkpt>
<trkpt lat="-27.8153299" lon="152.9949644">
<ele>28.697</ele>
<time>2015-12-29T23:25:17.933Z</time>
</trkpt>
<trkpt lat="-27.8153839" lon="152.9953818">
<ele>28.659</ele>
<time>2015-12-29T23:25:19.917Z</time>
</trkpt>
<trkpt lat="-27.8155003" lon="152.9960075">
<ele>28.425</ele>
<time>2015-12-29T23:25:22.914Z</time>
</trkpt>
<trkpt lat="-27.8156036" lon="152.9964244">
<ele>28.131</ele>
<time>2015-12-29T23:25:24.938Z</time>
</trkpt>
<trkpt lat="-27.8157503" lon="152.9968143">
<ele>27.981</ele>
<time>2015-12-29T23:25:26.955Z</time>
</trkpt>
<trkpt lat="-27.8160194" lon="152.9973663">
<ele>28.204</ele>
<time>2015-12-29T23:25:30.028Z</time>
</trkpt>
<trkpt lat="-27.8163321" lon="152.9978504">
<ele>28.693</ele>
<time>2015-12-29T23:25:33.031Z</time>
</trkpt>
<trkpt lat="-27.8167087" lon="152.9982659">
<ele>28.809</ele>
<time>2015-12-29T23:25:36.064Z</time>
</trkpt>
<trkpt lat="-27.8169361" lon="152.9985476">
<ele>28.128</ele>
<time>2015-12-29T23:25:38.030Z</time>
</trkpt>
<trkpt lat="-27.8171705" lon="152.9988340">
<ele>27.017</ele>
<time>2015-12-29T23:25:39.986Z</time>
</trkpt>
<trkpt lat="-27.8175460" lon="152.9992645">
<ele>25.906</ele>
<time>2015-12-29T23:25:42.943Z</time>
</trkpt>
<trkpt lat="-27.8179392" lon="152.9997125">
<ele>24.760</ele>
<time>2015-12-29T23:25:45.967Z</time>
</trkpt>
<trkpt lat="-27.8181937" lon="153.0000194">
<ele>23.398</ele>
<time>2015-12-29T23:25:47.961Z</time>
</trkpt>
<trkpt lat="-27.8184496" lon="153.0003265">
<ele>21.861</ele>
<time>2015-12-29T23:25:49.936Z</time>
</trkpt>
<trkpt lat="-27.8186981" lon="153.0006505">
<ele>20.561</ele>
<time>2015-12-29T23:25:51.945Z</time>
</trkpt>
<trkpt lat="-27.8190297" lon="153.0011644">
<ele>19.777</ele>
<time>2015-12-29T23:25:54.955Z</time>
</trkpt>
<trkpt lat="-27.8193222" lon="153.0016984">
<ele>19.398</ele>
<time>2015-12-29T23:25:57.952Z</time>
</trkpt>
<trkpt lat="-27.8196088" lon="153.0022326">
<ele>18.813</ele>
<time>2015-12-29T23:26:00.951Z</time>
</trkpt>
<trkpt lat="-27.8197947" lon="153.0025793">
<ele>17.491</ele>
<time>2015-12-29T23:26:02.925Z</time>
</trkpt>
<trkpt lat="-27.8200713" lon="153.0031086">
<ele>15.916</ele>
<time>2015-12-29T23:26:05.919Z</time>
</trkpt>
<trkpt lat="-27.8203553" lon="153.0036327">
<ele>14.419</ele>
<time>2015-12-29T23:26:08.919Z</time>
</trkpt>
<trkpt lat="-27.8205431" lon="153.0039626">
<ele>12.790</ele>
<time>2015-12-29T23:26:10.806Z</time>
</trkpt>
<trkpt lat="-27.8207433" lon="153.0043232">
<ele>11.657</ele>
<time>2015-12-29T23:26:12.799Z</time>
</trkpt>
<trkpt lat="-27.8209323" lon="153.0046869">
<ele>11.983</ele>
<time>2015-12-29T23:26:14.726Z</time>
</trkpt>
<trkpt lat="-27.8212446" lon="153.0052540">
<ele>13.612</ele>
<time>2015-12-29T23:26:17.753Z</time>
</trkpt>
<trkpt lat="-27.8215571" lon="153.0058155">
<ele>15.426</ele>
<time>2015-12-29T23:26:20.782Z</time>
</trkpt>
<trkpt lat="-27.8218492" lon="153.0063827">
<ele>16.479</ele>
<time>2015-12-29T23:26:23.869Z</time>
</trkpt>
<trkpt lat="-27.8221152" lon="153.0068986">
<ele>16.772</ele>
<time>2015-12-29T23:26:26.737Z</time>
</trkpt>
<trkpt lat="-27.8223063" lon="153.0072494">
<ele>16.725</ele>
<time>2015-12-29T23:26:28.693Z</time>
</trkpt>
<trkpt lat="-27.8226140" lon="153.0077978">
<ele>16.873</ele>
<time>2015-12-29T23:26:31.758Z</time>
</trkpt>
<trkpt lat="-27.8228232" lon="153.0081316">
<ele>17.460</ele>
<time>2015-12-29T23:26:33.663Z</time>
</trkpt>
<trkpt lat="-27.8232074" lon="153.0086316">
<ele>18.099</ele>
<time>2015-12-29T23:26:36.723Z</time>
</trkpt>
<trkpt lat="-27.8234616" lon="153.0089409">
<ele>18.227</ele>
<time>2015-12-29T23:26:38.675Z</time>
</trkpt>
<trkpt lat="-27.8237159" lon="153.0092507">
<ele>17.786</ele>
<time>2015-12-29T23:26:40.640Z</time>
</trkpt>
<trkpt lat="-27.8241140" lon="153.0097037">
<ele>17.077</ele>
<time>2015-12-29T23:26:43.621Z</time>
</trkpt>
<trkpt lat="-27.8243791" lon="153.0099980">
<ele>16.420</ele>
<time>2015-12-29T23:26:45.560Z</time>
</trkpt>
<trkpt lat="-27.8248035" lon="153.0104468">
<ele>15.766</ele>
<time>2015-12-29T23:26:48.546Z</time>
</trkpt>
<trkpt lat="-27.8252295" lon="153.0109107">
<ele>14.936</ele>
<time>2015-12-29T23:26:51.561Z</time>
</trkpt>
<trkpt lat="-27.8256435" lon="153.0113727">
<ele>13.784</ele>
<time>2015-12-29T23:26:54.590Z</time>
</trkpt>
<trkpt lat="-27.8260479" lon="153.0118173">
<ele>12.423</ele>
<time>2015-12-29T23:26:57.613Z</time>
</trkpt>
<trkpt lat="-27.8263003" lon="153.0121047">
<ele>11.272</ele>
<time>2015-12-29T23:26:59.518Z</time>
</trkpt>
<trkpt lat="-27.8265732" lon="153.0124116">
<ele>10.645</ele>
<time>2015-12-29T23:27:01.525Z</time>
</trkpt>
<trkpt lat="-27.8268426" lon="153.0127112">
<ele>10.479</ele>
<time>2015-12-29T23:27:03.530Z</time>
</trkpt>
<trkpt lat="-27.8272242" lon="153.0131519">
<ele>10.603</ele>
<time>2015-12-29T23:27:06.509Z</time>
</trkpt>
<trkpt lat="-27.8274667" lon="153.0134412">
<ele>10.182</ele>
<time>2015-12-29T23:27:08.502Z</time>
</trkpt>
<trkpt lat="-27.8277115" lon="153.0137308">
<ele>8.438</ele>
<time>2015-12-29T23:27:10.514Z</time>
</trkpt>
<trkpt lat="-27.8280593" lon="153.0141695">
<ele>6.030</ele>
<time>2015-12-29T23:27:13.467Z</time>
</trkpt>
<trkpt lat="-27.8283095" lon="153.0144406">
<ele>4.251</ele>
<time>2015-12-29T23:27:15.407Z</time>
</trkpt>
<trkpt lat="-27.8287013" lon="153.0148698">
<ele>3.643</ele>
<time>2015-12-29T23:27:18.422Z</time>
</trkpt>
<trkpt lat="-27.8290955" lon="153.0153045">
<ele>3.959</ele>
<time>2015-12-29T23:27:21.447Z</time>
</trkpt>
<trkpt lat="-27.8293453" lon="153.0155999">
<ele>4.144</ele>
<time>2015-12-29T23:27:23.459Z</time>
</trkpt>
<trkpt lat="-27.8295778" lon="153.0159012">
<ele>3.508</ele>
<time>2015-12-29T23:27:25.455Z</time>
</trkpt>
<trkpt lat="-27.8297912" lon="153.0164330">
<ele>2.606</ele>
<time>2015-12-29T23:27:28.359Z</time>
</trkpt>
<trkpt lat="-27.8298571" lon="153.0168406">
<ele>2.148</ele>
<time>2015-12-29T23:27:30.362Z</time>
</trkpt>
<trkpt lat="-27.8299298" lon="153.0172532">
<ele>2.487</ele>
<time>2015-12-29T23:27:32.377Z</time>
</trkpt>
<trkpt lat="-27.8299846" lon="153.0176597">
<ele>3.664</ele>
<time>2015-12-29T23:27:34.400Z</time>
</trkpt>
<trkpt lat="-27.8300452" lon="153.0180636">
<ele>4.992</ele>
<time>2015-12-29T23:27:36.440Z</time>
</trkpt>
<trkpt lat="-27.8301689" lon="153.0188602">
<ele>5.792</ele>
<time>2015-12-29T23:27:40.435Z</time>
</trkpt>
<trkpt lat="-27.8302420" lon="153.0194509">
<ele>6.073</ele>
<time>2015-12-29T23:27:43.375Z</time>
</trkpt>
<trkpt lat="-27.8303016" lon="153.0200712">
<ele>6.168</ele>
<time>2015-12-29T23:27:46.543Z</time>
</trkpt>
<trkpt lat="-27.8302839" lon="153.0204293">
<ele>6.142</ele>
<time>2015-12-29T23:27:48.442Z</time>
</trkpt>
<trkpt lat="-27.8302864" lon="153.0209688">
<ele>5.857</ele>
<time>2015-12-29T23:27:51.313Z</time>
</trkpt>
<trkpt lat="-27.8304051" lon="153.0215229">
<ele>4.976</ele>
<time>2015-12-29T23:27:54.329Z</time>
</trkpt>
<trkpt lat="-27.8305364" lon="153.0218634">
<ele>3.466</ele>
<time>2015-12-29T23:27:56.355Z</time>
</trkpt>
<trkpt lat="-27.8306519" lon="153.0221748">
<ele>2.080</ele>
<time>2015-12-29T23:27:58.464Z</time>
</trkpt>
<trkpt lat="-27.8307264" lon="153.0224469">
<ele>1.360</ele>
<time>2015-12-29T23:28:00.347Z</time>
</trkpt>
<trkpt lat="-27.8307853" lon="153.0228881">
<ele>0.706</ele>
<time>2015-12-29T23:28:04.136Z</time>
</trkpt>
<trkpt lat="-27.8308159" lon="153.0232145">
<ele>0.000</ele>
<time>2015-12-29T23:28:07.123Z</time>
</trkpt>
<trkpt lat="-27.8308616" lon="153.0235532">
<ele>0.000</ele>
<time>2015-12-29T23:28:10.248Z</time>
</trkpt>
<trkpt lat="-27.8308939" lon="153.0237583">
<ele>0.000</ele>
<time>2015-12-29T23:28:12.308Z</time>
</trkpt>
<trkpt lat="-27.8309452" lon="153.0240279">
<ele>0.000</ele>
<time>2015-12-29T23:28:15.321Z</time>
</trkpt>
<trkpt lat="-27.8309301" lon="153.0241820">
<ele>0.000</ele>
<time>2015-12-29T23:28:17.285Z</time>
</trkpt>
<trkpt lat="-27.8308825" lon="153.0244102">
<ele>0.000</ele>
<time>2015-12-29T23:28:20.467Z</time>
</trkpt>
<trkpt lat="-27.8309558" lon="153.0245262">
<ele>0.000</ele>
<time>2015-12-29T23:28:22.555Z</time>
</trkpt>
<trkpt lat="-27.8310362" lon="153.0247049">
<ele>0.000</ele>
<time>2015-12-29T23:28:25.639Z</time>
</trkpt>
<trkpt lat="-27.8310565" lon="153.0248269">
<ele>0.000</ele>
<time>2015-12-29T23:28:27.662Z</time>
</trkpt>
<trkpt lat="-27.8310866" lon="153.0250007">
<ele>0.000</ele>
<time>2015-12-29T23:28:30.452Z</time>
</trkpt>
<trkpt lat="-27.8310984" lon="153.0251437">
<ele>0.021</ele>
<time>2015-12-29T23:28:32.496Z</time>
</trkpt>
<trkpt lat="-27.8311104" lon="153.0252824">
<ele>0.417</ele>
<time>2015-12-29T23:28:34.481Z</time>
</trkpt>
<trkpt lat="-27.8311291" lon="153.0254795">
<ele>0.887</ele>
<time>2015-12-29T23:28:37.436Z</time>
</trkpt>
<trkpt lat="-27.8311507" lon="153.0255973">
<ele>1.276</ele>
<time>2015-12-29T23:28:39.242Z</time>
</trkpt>
<trkpt lat="-27.8311902" lon="153.0258039">
<ele>1.481</ele>
<time>2015-12-29T23:28:42.280Z</time>
</trkpt>
<trkpt lat="-27.8312083" lon="153.0259457">
<ele>1.674</ele>
<time>2015-12-29T23:28:44.362Z</time>
</trkpt>
<trkpt lat="-27.8312308" lon="153.0261266">
<ele>2.081</ele>
<time>2015-12-29T23:28:47.325Z</time>
</trkpt>
<trkpt lat="-27.8312539" lon="153.0262686">
<ele>2.608</ele>
<time>2015-12-29T23:28:50.092Z</time>
</trkpt>
<trkpt lat="-27.8312824" lon="153.0263894">
<ele>3.104</ele>
<time>2015-12-29T23:28:52.880Z</time>
</trkpt>
<trkpt lat="-27.8312776" lon="153.0265092">
<ele>3.581</ele>
<time>2015-12-29T23:28:56.000Z</time>
</trkpt>
<trkpt lat="-27.8312776" lon="153.0265092">
<ele>3.974</ele>
<time>2015-12-29T23:28:59.000Z</time>
</trkpt>
<trkpt lat="-27.8312776" lon="153.0265092">
<ele>4.156</ele>
<time>2015-12-29T23:30:06.014Z</time>
</trkpt>
<trkpt lat="-27.8313359" lon="153.0266795">
<ele>4.134</ele>
<time>2015-12-29T23:30:13.099Z</time>
</trkpt>
<trkpt lat="-27.8313605" lon="153.0268203">
<ele>4.489</ele>
<time>2015-12-29T23:30:15.742Z</time>
</trkpt>
<trkpt lat="-27.8313776" lon="153.0269553">
<ele>5.615</ele>
<time>2015-12-29T23:30:18.000Z</time>
</trkpt>
<trkpt lat="-27.8313776" lon="153.0269553">
<ele>6.845</ele>
<time>2015-12-29T23:30:23.054Z</time>
</trkpt>
<trkpt lat="-27.8313776" lon="153.0269553">
<ele>7.396</ele>
<time>2015-12-29T23:30:25.455Z</time>
</trkpt>
<trkpt lat="-27.8314071" lon="153.0272452">
<ele>7.327</ele>
<time>2015-12-29T23:30:31.710Z</time>
</trkpt>
<trkpt lat="-27.8314321" lon="153.0274184">
<ele>7.809</ele>
<time>2015-12-29T23:30:33.553Z</time>
</trkpt>
<trkpt lat="-27.8314880" lon="153.0277060">
<ele>9.955</ele>
<time>2015-12-29T23:30:36.589Z</time>
</trkpt>
<trkpt lat="-27.8315261" lon="153.0278665">
<ele>12.854</ele>
<time>2015-12-29T23:30:38.703Z</time>
</trkpt>
<trkpt lat="-27.8315531" lon="153.0279671">
<ele>14.801</ele>
<time>2015-12-29T23:30:40.659Z</time>
</trkpt>
<trkpt lat="-27.8315528" lon="153.0280701">
<ele>15.344</ele>
<time>2015-12-29T23:30:43.180Z</time>
</trkpt>
<trkpt lat="-27.8315907" lon="153.0281739">
<ele>14.996</ele>
<time>2015-12-29T23:30:46.862Z</time>
</trkpt>
<trkpt lat="-27.8316103" lon="153.0283038">
<ele>14.533</ele>
<time>2015-12-29T23:30:51.045Z</time>
</trkpt>
<trkpt lat="-27.8316103" lon="153.0283038">
<ele>14.403</ele>
<time>2015-12-29T23:30:56.045Z</time>
</trkpt>
<trkpt lat="-27.8316103" lon="153.0283038">
<ele>14.482</ele>
<time>2015-12-29T23:31:11.931Z</time>
</trkpt>
<trkpt lat="-27.8317969" lon="153.0282889">
<ele>14.542</ele>
<time>2015-12-29T23:31:16.085Z</time>
</trkpt>
<trkpt lat="-27.8319991" lon="153.0281804">
<ele>17.248</ele>
<time>2015-12-29T23:31:18.289Z</time>
</trkpt>
<trkpt lat="-27.8322662" lon="153.0280799">
<ele>24.503</ele>
<time>2015-12-29T23:31:20.563Z</time>
</trkpt>
<trkpt lat="-27.8323990" lon="153.0280218">
<ele>32.320</ele>
<time>2015-12-29T23:31:21.645Z</time>
</trkpt>
<trkpt lat="-27.8329222" lon="153.0277751">
<ele>36.302</ele>
<time>2015-12-29T23:31:25.687Z</time>
</trkpt>
<trkpt lat="-27.8331687" lon="153.0276875">
<ele>36.058</ele>
<time>2015-12-29T23:31:27.649Z</time>
</trkpt>
<trkpt lat="-27.8334989" lon="153.0275425">
<ele>33.001</ele>
<time>2015-12-29T23:31:30.636Z</time>
</trkpt>
<trkpt lat="-27.8337567" lon="153.0274454">
<ele>29.742</ele>
<time>2015-12-29T23:31:33.701Z</time>
</trkpt>
<trkpt lat="-27.8338550" lon="153.0273794">
<ele>27.885</ele>
<time>2015-12-29T23:31:35.450Z</time>
</trkpt>
<trkpt lat="-27.8339459" lon="153.0273099">
<ele>26.850</ele>
<time>2015-12-29T23:31:38.070Z</time>
</trkpt>
<trkpt lat="-27.8339459" lon="153.0273099">
<ele>25.901</ele>
<time>2015-12-29T23:31:45.075Z</time>
</trkpt>
<trkpt lat="-27.8339459" lon="153.0273099">
<ele>25.261</ele>
<time>2015-12-29T23:32:10.543Z</time>
</trkpt>
<trkpt lat="-27.8341337" lon="153.0270758">
<ele>25.279</ele>
<time>2015-12-29T23:32:18.477Z</time>
</trkpt>
<trkpt lat="-27.8343334" lon="153.0270066">
<ele>24.909</ele>
<time>2015-12-29T23:32:21.811Z</time>
</trkpt>
<trkpt lat="-27.8344565" lon="153.0270481">
<ele>22.755</ele>
<time>2015-12-29T23:32:23.853Z</time>
</trkpt>
<trkpt lat="-27.8346057" lon="153.0271803">
<ele>19.258</ele>
<time>2015-12-29T23:32:26.595Z</time>
</trkpt>
<trkpt lat="-27.8348182" lon="153.0272285">
<ele>16.215</ele>
<time>2015-12-29T23:32:29.157Z</time>
</trkpt>
<trkpt lat="-27.8350127" lon="153.0271647">
<ele>14.606</ele>
<time>2015-12-29T23:32:31.175Z</time>
</trkpt>
<trkpt lat="-27.8351281" lon="153.0271146">
<ele>14.171</ele>
<time>2015-12-29T23:32:32.418Z</time>
</trkpt>
<trkpt lat="-27.8354998" lon="153.0269507">
<ele>14.245</ele>
<time>2015-12-29T23:32:36.499Z</time>
</trkpt>
<trkpt lat="-27.8356912" lon="153.0268369">
<ele>14.196</ele>
<time>2015-12-29T23:32:38.619Z</time>
</trkpt>
<trkpt lat="-27.8358757" lon="153.0267527">
<ele>13.569</ele>
<time>2015-12-29T23:32:40.452Z</time>
</trkpt>
<trkpt lat="-27.8360737" lon="153.0266562">
<ele>12.542</ele>
<time>2015-12-29T23:32:42.352Z</time>
</trkpt>
<trkpt lat="-27.8363983" lon="153.0265132">
<ele>11.779</ele>
<time>2015-12-29T23:32:45.319Z</time>
</trkpt>
<trkpt lat="-27.8366194" lon="153.0264256">
<ele>11.586</ele>
<time>2015-12-29T23:32:47.202Z</time>
</trkpt>
<trkpt lat="-27.8369755" lon="153.0262785">
<ele>11.855</ele>
<time>2015-12-29T23:32:50.141Z</time>
</trkpt>
<trkpt lat="-27.8372224" lon="153.0261614">
<ele>12.558</ele>
<time>2015-12-29T23:32:52.105Z</time>
</trkpt>
<trkpt lat="-27.8376025" lon="153.0259482">
<ele>13.521</ele>
<time>2015-12-29T23:32:55.114Z</time>
</trkpt>
<trkpt lat="-27.8378506" lon="153.0257978">
<ele>14.321</ele>
<time>2015-12-29T23:32:57.103Z</time>
</trkpt>
<trkpt lat="-27.8382361" lon="153.0255730">
<ele>14.802</ele>
<time>2015-12-29T23:33:00.151Z</time>
</trkpt>
<trkpt lat="-27.8384887" lon="153.0254185">
<ele>15.233</ele>
<time>2015-12-29T23:33:02.121Z</time>
</trkpt>
<trkpt lat="-27.8388733" lon="153.0251980">
<ele>15.959</ele>
<time>2015-12-29T23:33:05.051Z</time>
</trkpt>
<trkpt lat="-27.8392629" lon="153.0249579">
<ele>17.286</ele>
<time>2015-12-29T23:33:08.045Z</time>
</trkpt>
<trkpt lat="-27.8395213" lon="153.0248044">
<ele>19.109</ele>
<time>2015-12-29T23:33:09.985Z</time>
</trkpt>
<trkpt lat="-27.8397925" lon="153.0246288">
<ele>20.765</ele>
<time>2015-12-29T23:33:12.009Z</time>
</trkpt>
<trkpt lat="-27.8400645" lon="153.0244508">
<ele>21.707</ele>
<time>2015-12-29T23:33:13.983Z</time>
</trkpt>
<trkpt lat="-27.8404856" lon="153.0242059">
<ele>22.165</ele>
<time>2015-12-29T23:33:16.940Z</time>
</trkpt>
<trkpt lat="-27.8407737" lon="153.0240382">
<ele>22.570</ele>
<time>2015-12-29T23:33:18.999Z</time>
</trkpt>
<trkpt lat="-27.8411836" lon="153.0238638">
<ele>22.972</ele>
<time>2015-12-29T23:33:21.816Z</time>
</trkpt>
<trkpt lat="-27.8414425" lon="153.0236859">
<ele>23.257</ele>
<time>2015-12-29T23:33:23.753Z</time>
</trkpt>
<trkpt lat="-27.8417310" lon="153.0235312">
<ele>23.382</ele>
<time>2015-12-29T23:33:25.769Z</time>
</trkpt>
<trkpt lat="-27.8421349" lon="153.0232137">
<ele>23.346</ele>
<time>2015-12-29T23:33:28.898Z</time>
</trkpt>
<trkpt lat="-27.8424143" lon="153.0230595">
<ele>23.074</ele>
<time>2015-12-29T23:33:30.954Z</time>
</trkpt>
<trkpt lat="-27.8426723" lon="153.0229036">
<ele>22.230</ele>
<time>2015-12-29T23:33:33.118Z</time>
</trkpt>
<trkpt lat="-27.8430135" lon="153.0226819">
<ele>20.675</ele>
<time>2015-12-29T23:33:36.619Z</time>
</trkpt>
<trkpt lat="-27.8431674" lon="153.0225768">
<ele>18.412</ele>
<time>2015-12-29T23:33:38.796Z</time>
</trkpt>
<trkpt lat="-27.8433491" lon="153.0224660">
<ele>15.492</ele>
<time>2015-12-29T23:33:43.031Z</time>
</trkpt>
<trkpt lat="-27.8434425" lon="153.0224348">
<ele>12.416</ele>
<time>2015-12-29T23:33:45.675Z</time>
</trkpt>
<trkpt lat="-27.8435162" lon="153.0223639">
<ele>9.906</ele>
<time>2015-12-29T23:33:48.252Z</time>
</trkpt>
<trkpt lat="-27.8436270" lon="153.0222951">
<ele>8.372</ele>
<time>2015-12-29T23:33:50.582Z</time>
</trkpt>
<trkpt lat="-27.8437157" lon="153.0222145">
<ele>7.946</ele>
<time>2015-12-29T23:33:52.214Z</time>
</trkpt>
<trkpt lat="-27.8439015" lon="153.0220629">
<ele>8.319</ele>
<time>2015-12-29T23:33:54.786Z</time>
</trkpt>
<trkpt lat="-27.8441791" lon="153.0218558">
<ele>9.117</ele>
<time>2015-12-29T23:33:57.822Z</time>
</trkpt>
<trkpt lat="-27.8443891" lon="153.0217071">
<ele>10.395</ele>
<time>2015-12-29T23:33:59.770Z</time>
</trkpt>
<trkpt lat="-27.8446270" lon="153.0215410">
<ele>12.059</ele>
<time>2015-12-29T23:34:01.805Z</time>
</trkpt>
<trkpt lat="-27.8449883" lon="153.0212818">
<ele>13.430</ele>
<time>2015-12-29T23:34:04.821Z</time>
</trkpt>
<trkpt lat="-27.8451342" lon="153.0211871">
<ele>14.074</ele>
<time>2015-12-29T23:34:05.962Z</time>
</trkpt>
<trkpt lat="-27.8456665" lon="153.0208611">
<ele>14.171</ele>
<time>2015-12-29T23:34:09.880Z</time>
</trkpt>
<trkpt lat="-27.8460759" lon="153.0205473">
<ele>14.104</ele>
<time>2015-12-29T23:34:12.902Z</time>
</trkpt>
<trkpt lat="-27.8464958" lon="153.0202649">
<ele>14.229</ele>
<time>2015-12-29T23:34:15.777Z</time>
</trkpt>
<trkpt lat="-27.8467763" lon="153.0200340">
<ele>14.738</ele>
<time>2015-12-29T23:34:17.765Z</time>
</trkpt>
<trkpt lat="-27.8472423" lon="153.0196761">
<ele>15.478</ele>
<time>2015-12-29T23:34:20.966Z</time>
</trkpt>
<trkpt lat="-27.8475213" lon="153.0194610">
<ele>16.228</ele>
<time>2015-12-29T23:34:22.858Z</time>
</trkpt>
<trkpt lat="-27.8478074" lon="153.0191797">
<ele>17.083</ele>
<time>2015-12-29T23:34:24.939Z</time>
</trkpt>
<trkpt lat="-27.8482283" lon="153.0187469">
<ele>18.346</ele>
<time>2015-12-29T23:34:28.030Z</time>
</trkpt>
<trkpt lat="-27.8486268" lon="153.0183379">
<ele>19.957</ele>
<time>2015-12-29T23:34:30.932Z</time>
</trkpt>
<trkpt lat="-27.8488833" lon="153.0180443">
<ele>21.391</ele>
<time>2015-12-29T23:34:32.886Z</time>
</trkpt>
<trkpt lat="-27.8492515" lon="153.0175748">
<ele>22.447</ele>
<time>2015-12-29T23:34:35.844Z</time>
</trkpt>
<trkpt lat="-27.8494980" lon="153.0172636">
<ele>23.257</ele>
<time>2015-12-29T23:34:37.747Z</time>
</trkpt>
<trkpt lat="-27.8498966" lon="153.0167791">
<ele>23.784</ele>
<time>2015-12-29T23:34:40.691Z</time>
</trkpt>
<trkpt lat="-27.8503201" lon="153.0162840">
<ele>24.340</ele>
<time>2015-12-29T23:34:43.706Z</time>
</trkpt>
<trkpt lat="-27.8505879" lon="153.0159530">
<ele>25.392</ele>
<time>2015-12-29T23:34:45.687Z</time>
</trkpt>
<trkpt lat="-27.8508360" lon="153.0156369">
<ele>26.786</ele>
<time>2015-12-29T23:34:47.573Z</time>
</trkpt>
<trkpt lat="-27.8512135" lon="153.0151587">
<ele>27.993</ele>
<time>2015-12-29T23:34:50.465Z</time>
</trkpt>
<trkpt lat="-27.8514367" lon="153.0148164">
<ele>29.185</ele>
<time>2015-12-29T23:34:52.429Z</time>
</trkpt>
<trkpt lat="-27.8516602" lon="153.0144710">
<ele>30.966</ele>
<time>2015-12-29T23:34:54.331Z</time>
</trkpt>
<trkpt lat="-27.8520535" lon="153.0138565">
<ele>32.985</ele>
<time>2015-12-29T23:34:57.482Z</time>
</trkpt>
<trkpt lat="-27.8523327" lon="153.0134487">
<ele>35.225</ele>
<time>2015-12-29T23:34:59.483Z</time>
</trkpt>
<trkpt lat="-27.8527741" lon="153.0128392">
<ele>38.915</ele>
<time>2015-12-29T23:35:02.432Z</time>
</trkpt>
<trkpt lat="-27.8530541" lon="153.0124163">
<ele>44.236</ele>
<time>2015-12-29T23:35:04.417Z</time>
</trkpt>
<trkpt lat="-27.8533186" lon="153.0120063">
<ele>49.843</ele>
<time>2015-12-29T23:35:06.358Z</time>
</trkpt>
<trkpt lat="-27.8535902" lon="153.0115877">
<ele>54.197</ele>
<time>2015-12-29T23:35:08.324Z</time>
</trkpt>
<trkpt lat="-27.8540287" lon="153.0109181">
<ele>56.149</ele>
<time>2015-12-29T23:35:11.452Z</time>
</trkpt>
<trkpt lat="-27.8543060" lon="153.0105134">
<ele>55.755</ele>
<time>2015-12-29T23:35:13.395Z</time>
</trkpt>
<trkpt lat="-27.8545840" lon="153.0101073">
<ele>53.919</ele>
<time>2015-12-29T23:35:15.353Z</time>
</trkpt>
<trkpt lat="-27.8550116" lon="153.0094836">
<ele>51.483</ele>
<time>2015-12-29T23:35:18.335Z</time>
</trkpt>
<trkpt lat="-27.8553236" lon="153.0090678">
<ele>48.470</ele>
<time>2015-12-29T23:35:20.308Z</time>
</trkpt>
<trkpt lat="-27.8556410" lon="153.0086021">
<ele>45.051</ele>
<time>2015-12-29T23:35:22.374Z</time>
</trkpt>
<trkpt lat="-27.8559479" lon="153.0081549">
<ele>42.384</ele>
<time>2015-12-29T23:35:24.357Z</time>
</trkpt>
<trkpt lat="-27.8562591" lon="153.0077132">
<ele>40.527</ele>
<time>2015-12-29T23:35:26.336Z</time>
</trkpt>
<trkpt lat="-27.8567136" lon="153.0070402">
<ele>38.484</ele>
<time>2015-12-29T23:35:29.298Z</time>
</trkpt>
<trkpt lat="-27.8570288" lon="153.0065798">
<ele>36.609</ele>
<time>2015-12-29T23:35:31.343Z</time>
</trkpt>
<trkpt lat="-27.8573347" lon="153.0061322">
<ele>35.493</ele>
<time>2015-12-29T23:35:33.365Z</time>
</trkpt>
<trkpt lat="-27.8577787" lon="153.0054852">
<ele>34.884</ele>
<time>2015-12-29T23:35:36.341Z</time>
</trkpt>
<trkpt lat="-27.8580604" lon="153.0050576">
<ele>34.458</ele>
<time>2015-12-29T23:35:38.306Z</time>
</trkpt>
<trkpt lat="-27.8583489" lon="153.0046282">
<ele>33.920</ele>
<time>2015-12-29T23:35:40.309Z</time>
</trkpt>
<trkpt lat="-27.8587870" lon="153.0039988">
<ele>33.398</ele>
<time>2015-12-29T23:35:43.314Z</time>
</trkpt>
<trkpt lat="-27.8590993" lon="153.0036422">
<ele>33.550</ele>
<time>2015-12-29T23:35:45.222Z</time>
</trkpt>
<trkpt lat="-27.8596021" lon="153.0031114">
<ele>34.444</ele>
<time>2015-12-29T23:35:48.178Z</time>
</trkpt>
<trkpt lat="-27.8601785" lon="153.0025737">
<ele>35.245</ele>
<time>2015-12-29T23:35:51.388Z</time>
</trkpt>
<trkpt lat="-27.8603627" lon="153.0024094">
<ele>35.448</ele>
<time>2015-12-29T23:35:52.405Z</time>
</trkpt>
<trkpt lat="-27.8610995" lon="153.0018053">
<ele>35.417</ele>
<time>2015-12-29T23:35:56.416Z</time>
</trkpt>
<trkpt lat="-27.8614606" lon="153.0015141">
<ele>35.565</ele>
<time>2015-12-29T23:35:58.413Z</time>
</trkpt>
<trkpt lat="-27.8618152" lon="153.0012493">
<ele>35.703</ele>
<time>2015-12-29T23:36:00.352Z</time>
</trkpt>
<trkpt lat="-27.8623621" lon="153.0008247">
<ele>35.560</ele>
<time>2015-12-29T23:36:03.378Z</time>
</trkpt>
<trkpt lat="-27.8629455" lon="153.0004637">
<ele>35.299</ele>
<time>2015-12-29T23:36:06.396Z</time>
</trkpt>
<trkpt lat="-27.8635451" lon="153.0001718">
<ele>35.180</ele>
<time>2015-12-29T23:36:09.349Z</time>
</trkpt>
<trkpt lat="-27.8641726" lon="152.9999206">
<ele>35.312</ele>
<time>2015-12-29T23:36:12.351Z</time>
</trkpt>
<trkpt lat="-27.8646149" lon="152.9997959">
<ele>35.742</ele>
<time>2015-12-29T23:36:14.398Z</time>
</trkpt>
<trkpt lat="-27.8650458" lon="152.9996937">
<ele>36.403</ele>
<time>2015-12-29T23:36:16.377Z</time>
</trkpt>
<trkpt lat="-27.8654760" lon="152.9996193">
<ele>37.226</ele>
<time>2015-12-29T23:36:18.335Z</time>
</trkpt>
<trkpt lat="-27.8661155" lon="152.9994756">
<ele>37.960</ele>
<time>2015-12-29T23:36:21.276Z</time>
</trkpt>
<trkpt lat="-27.8665591" lon="152.9993992">
<ele>38.247</ele>
<time>2015-12-29T23:36:23.271Z</time>
</trkpt>
<trkpt lat="-27.8672308" lon="152.9992493">
<ele>38.143</ele>
<time>2015-12-29T23:36:26.244Z</time>
</trkpt>
<trkpt lat="-27.8677039" lon="152.9991569">
<ele>38.558</ele>
<time>2015-12-29T23:36:28.315Z</time>
</trkpt>
<trkpt lat="-27.8683581" lon="152.9989634">
<ele>39.987</ele>
<time>2015-12-29T23:36:31.294Z</time>
</trkpt>
<trkpt lat="-27.8687893" lon="152.9988167">
<ele>42.547</ele>
<time>2015-12-29T23:36:33.315Z</time>
</trkpt>
<trkpt lat="-27.8692156" lon="152.9986426">
<ele>45.915</ele>
<time>2015-12-29T23:36:35.351Z</time>
</trkpt>
<trkpt lat="-27.8698233" lon="152.9983535">
<ele>48.705</ele>
<time>2015-12-29T23:36:38.305Z</time>
</trkpt>
<trkpt lat="-27.8702230" lon="152.9981226">
<ele>50.473</ele>
<time>2015-12-29T23:36:40.307Z</time>
</trkpt>
<trkpt lat="-27.8710075" lon="152.9975612">
<ele>52.577</ele>
<time>2015-12-29T23:36:44.319Z</time>
</trkpt>
<trkpt lat="-27.8713749" lon="152.9972444">
<ele>55.475</ele>
<time>2015-12-29T23:36:46.274Z</time>
</trkpt>
<trkpt lat="-27.8717246" lon="152.9968998">
<ele>58.692</ele>
<time>2015-12-29T23:36:48.220Z</time>
</trkpt>
<trkpt lat="-27.8722259" lon="152.9963281">
<ele>61.496</ele>
<time>2015-12-29T23:36:51.184Z</time>
</trkpt>
<trkpt lat="-27.8725444" lon="152.9959195">
<ele>63.480</ele>
<time>2015-12-29T23:36:53.141Z</time>
</trkpt>
<trkpt lat="-27.8728805" lon="152.9955071">
<ele>65.251</ele>
<time>2015-12-29T23:36:55.079Z</time>
</trkpt>
<trkpt lat="-27.8733980" lon="152.9948207">
<ele>68.442</ele>
<time>2015-12-29T23:36:58.094Z</time>
</trkpt>
<trkpt lat="-27.8739406" lon="152.9940691">
<ele>73.786</ele>
<time>2015-12-29T23:37:01.259Z</time>
</trkpt>
<trkpt lat="-27.8744821" lon="152.9933812">
<ele>79.534</ele>
<time>2015-12-29T23:37:04.256Z</time>
</trkpt>
<trkpt lat="-27.8749827" lon="152.9927565">
<ele>83.418</ele>
<time>2015-12-29T23:37:07.054Z</time>
</trkpt>
<trkpt lat="-27.8753586" lon="152.9923498">
<ele>85.110</ele>
<time>2015-12-29T23:37:09.051Z</time>
</trkpt>
<trkpt lat="-27.8757349" lon="152.9920027">
<ele>85.443</ele>
<time>2015-12-29T23:37:10.976Z</time>
</trkpt>
<trkpt lat="-27.8763073" lon="152.9914969">
<ele>85.431</ele>
<time>2015-12-29T23:37:13.984Z</time>
</trkpt>
<trkpt lat="-27.8768820" lon="152.9910725">
<ele>85.894</ele>
<time>2015-12-29T23:37:16.958Z</time>
</trkpt>
<trkpt lat="-27.8772367" lon="152.9908099">
<ele>86.958</ele>
<time>2015-12-29T23:37:18.823Z</time>
</trkpt>
<trkpt lat="-27.8776341" lon="152.9905003">
<ele>88.283</ele>
<time>2015-12-29T23:37:20.927Z</time>
</trkpt>
<trkpt lat="-27.8782200" lon="152.9900628">
<ele>89.948</ele>
<time>2015-12-29T23:37:23.983Z</time>
</trkpt>
<trkpt lat="-27.8787930" lon="152.9896291">
<ele>92.041</ele>
<time>2015-12-29T23:37:27.069Z</time>
</trkpt>
<trkpt lat="-27.8791150" lon="152.9893332">
<ele>93.900</ele>
<time>2015-12-29T23:37:29.023Z</time>
</trkpt>
<trkpt lat="-27.8795740" lon="152.9888745">
<ele>94.899</ele>
<time>2015-12-29T23:37:32.018Z</time>
</trkpt>
<trkpt lat="-27.8799776" lon="152.9884472">
<ele>94.311</ele>
<time>2015-12-29T23:37:34.831Z</time>
</trkpt>
<trkpt lat="-27.8802323" lon="152.9881147">
<ele>91.848</ele>
<time>2015-12-29T23:37:36.828Z</time>
</trkpt>
<trkpt lat="-27.8805034" lon="152.9877686">
<ele>88.869</ele>
<time>2015-12-29T23:37:38.887Z</time>
</trkpt>
<trkpt lat="-27.8809154" lon="152.9872590">
<ele>86.718</ele>
<time>2015-12-29T23:37:41.871Z</time>
</trkpt>
<trkpt lat="-27.8811985" lon="152.9869071">
<ele>85.039</ele>
<time>2015-12-29T23:37:43.886Z</time>
</trkpt>
<trkpt lat="-27.8816078" lon="152.9863869">
<ele>83.302</ele>
<time>2015-12-29T23:37:46.810Z</time>
</trkpt>
<trkpt lat="-27.8820262" lon="152.9858312">
<ele>81.069</ele>
<time>2015-12-29T23:37:49.817Z</time>
</trkpt>
<trkpt lat="-27.8823207" lon="152.9854678">
<ele>77.894</ele>
<time>2015-12-29T23:37:51.796Z</time>
</trkpt>
<trkpt lat="-27.8826075" lon="152.9850945">
<ele>74.413</ele>
<time>2015-12-29T23:37:53.762Z</time>
</trkpt>
<trkpt lat="-27.8829009" lon="152.9846994">
<ele>71.667</ele>
<time>2015-12-29T23:37:55.807Z</time>
</trkpt>
<trkpt lat="-27.8833430" lon="152.9841337">
<ele>69.543</ele>
<time>2015-12-29T23:37:58.779Z</time>
</trkpt>
<trkpt lat="-27.8836467" lon="152.9837487">
<ele>67.761</ele>
<time>2015-12-29T23:38:00.783Z</time>
</trkpt>
<trkpt lat="-27.8839473" lon="152.9833600">
<ele>66.658</ele>
<time>2015-12-29T23:38:02.780Z</time>
</trkpt>
<trkpt lat="-27.8843903" lon="152.9827617">
<ele>66.009</ele>
<time>2015-12-29T23:38:05.796Z</time>
</trkpt>
<trkpt lat="-27.8848013" lon="152.9821398">
<ele>64.884</ele>
<time>2015-12-29T23:38:08.792Z</time>
</trkpt>
<trkpt lat="-27.8850466" lon="152.9817085">
<ele>63.257</ele>
<time>2015-12-29T23:38:10.796Z</time>
</trkpt>
<trkpt lat="-27.8853818" lon="152.9810744">
<ele>62.013</ele>
<time>2015-12-29T23:38:13.757Z</time>
</trkpt>
<trkpt lat="-27.8855901" lon="152.9806504">
<ele>61.683</ele>
<time>2015-12-29T23:38:15.767Z</time>
</trkpt>
<trkpt lat="-27.8858765" lon="152.9800356">
<ele>62.192</ele>
<time>2015-12-29T23:38:18.699Z</time>
</trkpt>
<trkpt lat="-27.8860742" lon="152.9796281">
<ele>63.375</ele>
<time>2015-12-29T23:38:20.671Z</time>
</trkpt>
<trkpt lat="-27.8862779" lon="152.9792204">
<ele>65.273</ele>
<time>2015-12-29T23:38:22.643Z</time>
</trkpt>
<trkpt lat="-27.8865907" lon="152.9785851">
<ele>67.497</ele>
<time>2015-12-29T23:38:25.652Z</time>
</trkpt>
<trkpt lat="-27.8868037" lon="152.9781482">
<ele>69.042</ele>
<time>2015-12-29T23:38:27.672Z</time>
</trkpt>
<trkpt lat="-27.8869064" lon="152.9779197">
<ele>69.351</ele>
<time>2015-12-29T23:38:28.710Z</time>
</trkpt>
<trkpt lat="-27.8873413" lon="152.9770497">
<ele>68.976</ele>
<time>2015-12-29T23:38:32.814Z</time>
</trkpt>
<trkpt lat="-27.8875421" lon="152.9766650">
<ele>68.583</ele>
<time>2015-12-29T23:38:34.755Z</time>
</trkpt>
<trkpt lat="-27.8878429" lon="152.9761491">
<ele>68.039</ele>
<time>2015-12-29T23:38:37.612Z</time>
</trkpt>
<trkpt lat="-27.8880704" lon="152.9758259">
<ele>67.128</ele>
<time>2015-12-29T23:38:39.569Z</time>
</trkpt>
<trkpt lat="-27.8883431" lon="152.9754949">
<ele>66.072</ele>
<time>2015-12-29T23:38:41.650Z</time>
</trkpt>
<trkpt lat="-27.8888181" lon="152.9750439">
<ele>65.308</ele>
<time>2015-12-29T23:38:44.760Z</time>
</trkpt>
<trkpt lat="-27.8891403" lon="152.9747826">
<ele>65.398</ele>
<time>2015-12-29T23:38:46.732Z</time>
</trkpt>
<trkpt lat="-27.8896284" lon="152.9744213">
<ele>66.233</ele>
<time>2015-12-29T23:38:49.656Z</time>
</trkpt>
<trkpt lat="-27.8899544" lon="152.9741654">
<ele>66.503</ele>
<time>2015-12-29T23:38:51.642Z</time>
</trkpt>
<trkpt lat="-27.8903094" lon="152.9738804">
<ele>65.302</ele>
<time>2015-12-29T23:38:53.814Z</time>
</trkpt>
<trkpt lat="-27.8908487" lon="152.9735797">
<ele>63.405</ele>
<time>2015-12-29T23:38:56.805Z</time>
</trkpt>
<trkpt lat="-27.8912244" lon="152.9734578">
<ele>62.006</ele>
<time>2015-12-29T23:38:58.761Z</time>
</trkpt>
<trkpt lat="-27.8916227" lon="152.9734075">
<ele>61.014</ele>
<time>2015-12-29T23:39:00.800Z</time>
</trkpt>
<trkpt lat="-27.8923995" lon="152.9734706">
<ele>59.908</ele>
<time>2015-12-29T23:39:04.808Z</time>
</trkpt>
<trkpt lat="-27.8927867" lon="152.9735346">
<ele>58.546</ele>
<time>2015-12-29T23:39:06.822Z</time>
</trkpt>
<trkpt lat="-27.8931629" lon="152.9736168">
<ele>57.075</ele>
<time>2015-12-29T23:39:08.816Z</time>
</trkpt>
<trkpt lat="-27.8935503" lon="152.9736870">
<ele>55.594</ele>
<time>2015-12-29T23:39:10.876Z</time>
</trkpt>
<trkpt lat="-27.8941003" lon="152.9737613">
<ele>54.231</ele>
<time>2015-12-29T23:39:13.794Z</time>
</trkpt>
<trkpt lat="-27.8944863" lon="152.9738275">
<ele>53.233</ele>
<time>2015-12-29T23:39:15.826Z</time>
</trkpt>
<trkpt lat="-27.8948724" lon="152.9739097">
<ele>52.766</ele>
<time>2015-12-29T23:39:17.825Z</time>
</trkpt>
<trkpt lat="-27.8954918" lon="152.9740130">
<ele>52.647</ele>
<time>2015-12-29T23:39:20.922Z</time>
</trkpt>
<trkpt lat="-27.8959232" lon="152.9740942">
<ele>52.518</ele>
<time>2015-12-29T23:39:23.006Z</time>
</trkpt>
<trkpt lat="-27.8965604" lon="152.9742070">
<ele>51.982</ele>
<time>2015-12-29T23:39:25.982Z</time>
</trkpt>
<trkpt lat="-27.8969916" lon="152.9742853">
<ele>51.149</ele>
<time>2015-12-29T23:39:28.003Z</time>
</trkpt>
<trkpt lat="-27.8976081" lon="152.9744002">
<ele>50.503</ele>
<time>2015-12-29T23:39:30.970Z</time>
</trkpt>
<trkpt lat="-27.8982044" lon="152.9744942">
<ele>49.956</ele>
<time>2015-12-29T23:39:33.904Z</time>
</trkpt>
<trkpt lat="-27.8987528" lon="152.9745591">
<ele>49.193</ele>
<time>2015-12-29T23:39:36.631Z</time>
</trkpt>
<trkpt lat="-27.8993541" lon="152.9746515">
<ele>48.793</ele>
<time>2015-12-29T23:39:39.675Z</time>
</trkpt>
<trkpt lat="-27.8997989" lon="152.9747094">
<ele>49.622</ele>
<time>2015-12-29T23:39:41.951Z</time>
</trkpt>
<trkpt lat="-27.9002026" lon="152.9747797">
<ele>51.306</ele>
<time>2015-12-29T23:39:44.053Z</time>
</trkpt>
<trkpt lat="-27.9009375" lon="152.9749199">
<ele>52.922</ele>
<time>2015-12-29T23:39:47.984Z</time>
</trkpt>
<trkpt lat="-27.9012882" lon="152.9750004">
<ele>54.102</ele>
<time>2015-12-29T23:39:49.948Z</time>
</trkpt>
<trkpt lat="-27.9016107" lon="152.9750631">
<ele>54.455</ele>
<time>2015-12-29T23:39:51.831Z</time>
</trkpt>
<trkpt lat="-27.9019453" lon="152.9751346">
<ele>53.720</ele>
<time>2015-12-29T23:39:53.841Z</time>
</trkpt>
<trkpt lat="-27.9022908" lon="152.9751999">
<ele>52.593</ele>
<time>2015-12-29T23:39:55.860Z</time>
</trkpt>
<trkpt lat="-27.9028490" lon="152.9753404">
<ele>51.699</ele>
<time>2015-12-29T23:39:59.037Z</time>
</trkpt>
<trkpt lat="-27.9031767" lon="152.9754268">
<ele>50.757</ele>
<time>2015-12-29T23:40:00.864Z</time>
</trkpt>
<trkpt lat="-27.9037320" lon="152.9755941">
<ele>49.249</ele>
<time>2015-12-29T23:40:03.903Z</time>
</trkpt>
<trkpt lat="-27.9041098" lon="152.9756933">
<ele>47.301</ele>
<time>2015-12-29T23:40:05.875Z</time>
</trkpt>
<trkpt lat="-27.9044842" lon="152.9758101">
<ele>45.404</ele>
<time>2015-12-29T23:40:07.840Z</time>
</trkpt>
<trkpt lat="-27.9048680" lon="152.9759196">
<ele>43.645</ele>
<time>2015-12-29T23:40:09.854Z</time>
</trkpt>
<trkpt lat="-27.9052193" lon="152.9760198">
<ele>41.871</ele>
<time>2015-12-29T23:40:11.716Z</time>
</trkpt>
<trkpt lat="-27.9057692" lon="152.9762352">
<ele>40.312</ele>
<time>2015-12-29T23:40:14.758Z</time>
</trkpt>
<trkpt lat="-27.9061201" lon="152.9764092">
<ele>39.090</ele>
<time>2015-12-29T23:40:16.788Z</time>
</trkpt>
<trkpt lat="-27.9064415" lon="152.9766649">
<ele>38.035</ele>
<time>2015-12-29T23:40:18.836Z</time>
</trkpt>
<trkpt lat="-27.9068460" lon="152.9771414">
<ele>37.212</ele>
<time>2015-12-29T23:40:21.808Z</time>
</trkpt>
<trkpt lat="-27.9070698" lon="152.9775025">
<ele>36.808</ele>
<time>2015-12-29T23:40:23.749Z</time>
</trkpt>
<trkpt lat="-27.9072928" lon="152.9778930">
<ele>36.795</ele>
<time>2015-12-29T23:40:25.786Z</time>
</trkpt>
<trkpt lat="-27.9076041" lon="152.9784535">
<ele>37.058</ele>
<time>2015-12-29T23:40:28.747Z</time>
</trkpt>
<trkpt lat="-27.9078988" lon="152.9789787">
<ele>37.356</ele>
<time>2015-12-29T23:40:31.681Z</time>
</trkpt>
<trkpt lat="-27.9081794" lon="152.9794762">
<ele>37.538</ele>
<time>2015-12-29T23:40:34.642Z</time>
</trkpt>
<trkpt lat="-27.9082763" lon="152.9796374">
<ele>37.762</ele>
<time>2015-12-29T23:40:35.675Z</time>
</trkpt>
<trkpt lat="-27.9086508" lon="152.9802857">
<ele>38.209</ele>
<time>2015-12-29T23:40:39.802Z</time>
</trkpt>
<trkpt lat="-27.9088276" lon="152.9806091">
<ele>38.669</ele>
<time>2015-12-29T23:40:41.787Z</time>
</trkpt>
<trkpt lat="-27.9090005" lon="152.9809291">
<ele>38.794</ele>
<time>2015-12-29T23:40:43.738Z</time>
</trkpt>
<trkpt lat="-27.9092738" lon="152.9814235">
<ele>38.637</ele>
<time>2015-12-29T23:40:46.742Z</time>
</trkpt>
<trkpt lat="-27.9095543" lon="152.9819341">
<ele>38.859</ele>
<time>2015-12-29T23:40:49.753Z</time>
</trkpt>
<trkpt lat="-27.9097491" lon="152.9822945">
<ele>39.933</ele>
<time>2015-12-29T23:40:51.804Z</time>
</trkpt>
<trkpt lat="-27.9099530" lon="152.9826497">
<ele>41.311</ele>
<time>2015-12-29T23:40:53.841Z</time>
</trkpt>
<trkpt lat="-27.9102654" lon="152.9831579">
<ele>42.169</ele>
<time>2015-12-29T23:40:56.803Z</time>
</trkpt>
<trkpt lat="-27.9105043" lon="152.9834856">
<ele>42.514</ele>
<time>2015-12-29T23:40:58.773Z</time>
</trkpt>
<trkpt lat="-27.9108054" lon="152.9837996">
<ele>42.698</ele>
<time>2015-12-29T23:41:00.820Z</time>
</trkpt>
<trkpt lat="-27.9113249" lon="152.9841959">
<ele>42.867</ele>
<time>2015-12-29T23:41:03.766Z</time>
</trkpt>
<trkpt lat="-27.9119734" lon="152.9844971">
<ele>43.170</ele>
<time>2015-12-29T23:41:06.876Z</time>
</trkpt>
<trkpt lat="-27.9123968" lon="152.9845985">
<ele>43.684</ele>
<time>2015-12-29T23:41:08.809Z</time>
</trkpt>
<trkpt lat="-27.9128309" lon="152.9846408">
<ele>44.186</ele>
<time>2015-12-29T23:41:10.819Z</time>
</trkpt>
<trkpt lat="-27.9134329" lon="152.9845953">
<ele>44.495</ele>
<time>2015-12-29T23:41:13.675Z</time>
</trkpt>
<trkpt lat="-27.9140327" lon="152.9844611">
<ele>44.626</ele>
<time>2015-12-29T23:41:16.683Z</time>
</trkpt>
<trkpt lat="-27.9145883" lon="152.9843438">
<ele>44.063</ele>
<time>2015-12-29T23:41:19.560Z</time>
</trkpt>
<trkpt lat="-27.9151678" lon="152.9842098">
<ele>42.414</ele>
<time>2015-12-29T23:41:22.633Z</time>
</trkpt>
<trkpt lat="-27.9155260" lon="152.9841383">
<ele>40.499</ele>
<time>2015-12-29T23:41:24.554Z</time>
</trkpt>
<trkpt lat="-27.9160767" lon="152.9840399">
<ele>39.188</ele>
<time>2015-12-29T23:41:27.520Z</time>
</trkpt>
<trkpt lat="-27.9166309" lon="152.9839078">
<ele>38.286</ele>
<time>2015-12-29T23:41:30.512Z</time>
</trkpt>
<trkpt lat="-27.9169928" lon="152.9838279">
<ele>37.538</ele>
<time>2015-12-29T23:41:32.405Z</time>
</trkpt>
<trkpt lat="-27.9176460" lon="152.9836894">
<ele>37.033</ele>
<time>2015-12-29T23:41:35.576Z</time>
</trkpt>
<trkpt lat="-27.9180905" lon="152.9835960">
<ele>37.217</ele>
<time>2015-12-29T23:41:37.594Z</time>
</trkpt>
<trkpt lat="-27.9185470" lon="152.9835218">
<ele>38.313</ele>
<time>2015-12-29T23:41:39.646Z</time>
</trkpt>
<trkpt lat="-27.9191986" lon="152.9834106">
<ele>39.683</ele>
<time>2015-12-29T23:41:42.616Z</time>
</trkpt>
<trkpt lat="-27.9196328" lon="152.9833542">
<ele>40.562</ele>
<time>2015-12-29T23:41:44.600Z</time>
</trkpt>
<trkpt lat="-27.9202847" lon="152.9832364">
<ele>40.626</ele>
<time>2015-12-29T23:41:47.644Z</time>
</trkpt>
<trkpt lat="-27.9206958" lon="152.9831551">
<ele>39.965</ele>
<time>2015-12-29T23:41:49.640Z</time>
</trkpt>
<trkpt lat="-27.9213079" lon="152.9830285">
<ele>39.067</ele>
<time>2015-12-29T23:41:52.674Z</time>
</trkpt>
<trkpt lat="-27.9219098" lon="152.9829331">
<ele>38.303</ele>
<time>2015-12-29T23:41:55.649Z</time>
</trkpt>
<trkpt lat="-27.9225112" lon="152.9828203">
<ele>37.589</ele>
<time>2015-12-29T23:41:58.701Z</time>
</trkpt>
<trkpt lat="-27.9228780" lon="152.9827507">
<ele>36.765</ele>
<time>2015-12-29T23:42:00.630Z</time>
</trkpt>
<trkpt lat="-27.9232387" lon="152.9827001">
<ele>35.972</ele>
<time>2015-12-29T23:42:02.547Z</time>
</trkpt>
<trkpt lat="-27.9236161" lon="152.9826359">
<ele>35.517</ele>
<time>2015-12-29T23:42:04.544Z</time>
</trkpt>
<trkpt lat="-27.9242189" lon="152.9825226">
<ele>35.480</ele>
<time>2015-12-29T23:42:07.616Z</time>
</trkpt>
<trkpt lat="-27.9246238" lon="152.9824488">
<ele>35.946</ele>
<time>2015-12-29T23:42:09.608Z</time>
</trkpt>
<trkpt lat="-27.9250396" lon="152.9823684">
<ele>36.854</ele>
<time>2015-12-29T23:42:11.646Z</time>
</trkpt>
<trkpt lat="-27.9256442" lon="152.9822575">
<ele>37.744</ele>
<time>2015-12-29T23:42:14.622Z</time>
</trkpt>
<trkpt lat="-27.9260538" lon="152.9821854">
<ele>38.220</ele>
<time>2015-12-29T23:42:16.639Z</time>
</trkpt>
<trkpt lat="-27.9264682" lon="152.9821074">
<ele>38.487</ele>
<time>2015-12-29T23:42:18.666Z</time>
</trkpt>
<trkpt lat="-27.9268768" lon="152.9820518">
<ele>38.960</ele>
<time>2015-12-29T23:42:20.653Z</time>
</trkpt>
<trkpt lat="-27.9274737" lon="152.9819356">
<ele>39.608</ele>
<time>2015-12-29T23:42:23.600Z</time>
</trkpt>
<trkpt lat="-27.9278744" lon="152.9818679">
<ele>40.187</ele>
<time>2015-12-29T23:42:25.595Z</time>
</trkpt>
<trkpt lat="-27.9282624" lon="152.9817961">
<ele>40.639</ele>
<time>2015-12-29T23:42:27.553Z</time>
</trkpt>
<trkpt lat="-27.9288428" lon="152.9816889">
<ele>40.755</ele>
<time>2015-12-29T23:42:30.505Z</time>
</trkpt>
<trkpt lat="-27.9294410" lon="152.9815802">
<ele>40.414</ele>
<time>2015-12-29T23:42:33.536Z</time>
</trkpt>
<trkpt lat="-27.9300605" lon="152.9814849">
<ele>40.338</ele>
<time>2015-12-29T23:42:36.608Z</time>
</trkpt>
<trkpt lat="-27.9306705" lon="152.9813629">
<ele>41.104</ele>
<time>2015-12-29T23:42:39.612Z</time>
</trkpt>
<trkpt lat="-27.9310512" lon="152.9812746">
<ele>42.103</ele>
<time>2015-12-29T23:42:41.529Z</time>
</trkpt>
<trkpt lat="-27.9314478" lon="152.9812024">
<ele>42.474</ele>
<time>2015-12-29T23:42:43.548Z</time>
</trkpt>
<trkpt lat="-27.9320403" lon="152.9811580">
<ele>42.173</ele>
<time>2015-12-29T23:42:46.540Z</time>
</trkpt>
<trkpt lat="-27.9324446" lon="152.9811567">
<ele>41.680</ele>
<time>2015-12-29T23:42:48.574Z</time>
</trkpt>
<trkpt lat="-27.9330675" lon="152.9812259">
<ele>41.279</ele>
<time>2015-12-29T23:42:51.698Z</time>
</trkpt>
<trkpt lat="-27.9336619" lon="152.9813531">
<ele>40.947</ele>
<time>2015-12-29T23:42:54.712Z</time>
</trkpt>
<trkpt lat="-27.9340377" lon="152.9814404">
<ele>40.575</ele>
<time>2015-12-29T23:42:56.664Z</time>
</trkpt>
<trkpt lat="-27.9345953" lon="152.9815582">
<ele>40.072</ele>
<time>2015-12-29T23:42:59.636Z</time>
</trkpt>
<trkpt lat="-27.9349461" lon="152.9816407">
<ele>39.373</ele>
<time>2015-12-29T23:43:01.561Z</time>
</trkpt>
<trkpt lat="-27.9353160" lon="152.9817260">
<ele>38.544</ele>
<time>2015-12-29T23:43:03.596Z</time>
</trkpt>
<trkpt lat="-27.9357167" lon="152.9818353">
<ele>37.885</ele>
<time>2015-12-29T23:43:05.804Z</time>
</trkpt>
<trkpt lat="-27.9360941" lon="152.9819389">
<ele>37.860</ele>
<time>2015-12-29T23:43:07.873Z</time>
</trkpt>
<trkpt lat="-27.9366443" lon="152.9820663">
<ele>38.447</ele>
<time>2015-12-29T23:43:10.870Z</time>
</trkpt>
<trkpt lat="-27.9370233" lon="152.9821534">
<ele>39.106</ele>
<time>2015-12-29T23:43:12.947Z</time>
</trkpt>
<trkpt lat="-27.9375330" lon="152.9823124">
<ele>39.420</ele>
<time>2015-12-29T23:43:15.799Z</time>
</trkpt>
<trkpt lat="-27.9381092" lon="152.9824559">
<ele>39.746</ele>
<time>2015-12-29T23:43:18.930Z</time>
</trkpt>
<trkpt lat="-27.9385256" lon="152.9825394">
<ele>40.264</ele>
<time>2015-12-29T23:43:21.109Z</time>
</trkpt>
<trkpt lat="-27.9389159" lon="152.9826201">
<ele>40.521</ele>
<time>2015-12-29T23:43:23.105Z</time>
</trkpt>
<trkpt lat="-27.9395161" lon="152.9827412">
<ele>40.347</ele>
<time>2015-12-29T23:43:26.079Z</time>
</trkpt>
<trkpt lat="-27.9399392" lon="152.9828373">
<ele>40.078</ele>
<time>2015-12-29T23:43:28.076Z</time>
</trkpt>
<trkpt lat="-27.9405505" lon="152.9829723">
<ele>40.174</ele>
<time>2015-12-29T23:43:30.914Z</time>
</trkpt>
<trkpt lat="-27.9409819" lon="152.9830664">
<ele>40.999</ele>
<time>2015-12-29T23:43:32.930Z</time>
</trkpt>
<trkpt lat="-27.9416247" lon="152.9831812">
<ele>42.085</ele>
<time>2015-12-29T23:43:35.881Z</time>
</trkpt>
<trkpt lat="-27.9422497" lon="152.9833365">
<ele>42.711</ele>
<time>2015-12-29T23:43:38.785Z</time>
</trkpt>
<trkpt lat="-27.9428432" lon="152.9834595">
<ele>42.851</ele>
<time>2015-12-29T23:43:41.602Z</time>
</trkpt>
<trkpt lat="-27.9432495" lon="152.9835545">
<ele>42.808</ele>
<time>2015-12-29T23:43:43.569Z</time>
</trkpt>
<trkpt lat="-27.9438841" lon="152.9836882">
<ele>42.736</ele>
<time>2015-12-29T23:43:46.628Z</time>
</trkpt>
<trkpt lat="-27.9445256" lon="152.9838478">
<ele>42.968</ele>
<time>2015-12-29T23:43:49.696Z</time>
</trkpt>
<trkpt lat="-27.9451460" lon="152.9839850">
<ele>43.667</ele>
<time>2015-12-29T23:43:52.637Z</time>
</trkpt>
<trkpt lat="-27.9457818" lon="152.9841195">
<ele>44.487</ele>
<time>2015-12-29T23:43:55.681Z</time>
</trkpt>
<trkpt lat="-27.9464113" lon="152.9842610">
<ele>45.175</ele>
<time>2015-12-29T23:43:58.757Z</time>
</trkpt>
<trkpt lat="-27.9469739" lon="152.9843790">
<ele>45.737</ele>
<time>2015-12-29T23:44:01.631Z</time>
</trkpt>
<trkpt lat="-27.9473282" lon="152.9844667">
<ele>45.978</ele>
<time>2015-12-29T23:44:03.587Z</time>
</trkpt>
<trkpt lat="-27.9478224" lon="152.9845859">
<ele>45.772</ele>
<time>2015-12-29T23:44:06.437Z</time>
</trkpt>
<trkpt lat="-27.9483891" lon="152.9847048">
<ele>45.407</ele>
<time>2015-12-29T23:44:09.618Z</time>
</trkpt>
<trkpt lat="-27.9490049" lon="152.9848133">
<ele>45.351</ele>
<time>2015-12-29T23:44:12.798Z</time>
</trkpt>
<trkpt lat="-27.9494410" lon="152.9849033">
<ele>45.974</ele>
<time>2015-12-29T23:44:14.965Z</time>
</trkpt>
<trkpt lat="-27.9502708" lon="152.9850878">
<ele>47.126</ele>
<time>2015-12-29T23:44:18.996Z</time>
</trkpt>
<trkpt lat="-27.9508885" lon="152.9852276">
<ele>48.122</ele>
<time>2015-12-29T23:44:22.042Z</time>
</trkpt>
<trkpt lat="-27.9514752" lon="152.9853883">
<ele>48.517</ele>
<time>2015-12-29T23:44:25.071Z</time>
</trkpt>
<trkpt lat="-27.9520433" lon="152.9855572">
<ele>47.978</ele>
<time>2015-12-29T23:44:28.122Z</time>
</trkpt>
<trkpt lat="-27.9525761" lon="152.9857608">
<ele>46.202</ele>
<time>2015-12-29T23:44:31.129Z</time>
</trkpt>
<trkpt lat="-27.9529037" lon="152.9859222">
<ele>43.372</ele>
<time>2015-12-29T23:44:33.056Z</time>
</trkpt>
<trkpt lat="-27.9533811" lon="152.9861880">
<ele>40.243</ele>
<time>2015-12-29T23:44:35.888Z</time>
</trkpt>
<trkpt lat="-27.9538856" lon="152.9865317">
<ele>37.887</ele>
<time>2015-12-29T23:44:38.952Z</time>
</trkpt>
<trkpt lat="-27.9543444" lon="152.9869273">
<ele>36.838</ele>
<time>2015-12-29T23:44:41.920Z</time>
</trkpt>
<trkpt lat="-27.9546426" lon="152.9872091">
<ele>36.597</ele>
<time>2015-12-29T23:44:43.892Z</time>
</trkpt>
<trkpt lat="-27.9549248" lon="152.9875208">
<ele>36.541</ele>
<time>2015-12-29T23:44:45.865Z</time>
</trkpt>
<trkpt lat="-27.9552057" lon="152.9878515">
<ele>36.425</ele>
<time>2015-12-29T23:44:47.860Z</time>
</trkpt>
<trkpt lat="-27.9556466" lon="152.9883637">
<ele>36.846</ele>
<time>2015-12-29T23:44:50.914Z</time>
</trkpt>
<trkpt lat="-27.9559091" lon="152.9886941">
<ele>38.413</ele>
<time>2015-12-29T23:44:52.844Z</time>
</trkpt>
<trkpt lat="-27.9563140" lon="152.9891698">
<ele>40.494</ele>
<time>2015-12-29T23:44:55.853Z</time>
</trkpt>
<trkpt lat="-27.9565946" lon="152.9894692">
<ele>42.045</ele>
<time>2015-12-29T23:44:57.964Z</time>
</trkpt>
<trkpt lat="-27.9569614" lon="152.9899008">
<ele>42.811</ele>
<time>2015-12-29T23:45:00.961Z</time>
</trkpt>
<trkpt lat="-27.9572634" lon="152.9903074">
<ele>43.244</ele>
<time>2015-12-29T23:45:03.694Z</time>
</trkpt>
<trkpt lat="-27.9576174" lon="152.9907309">
<ele>43.887</ele>
<time>2015-12-29T23:45:06.711Z</time>
</trkpt>
<trkpt lat="-27.9578478" lon="152.9910179">
<ele>44.647</ele>
<time>2015-12-29T23:45:08.682Z</time>
</trkpt>
<trkpt lat="-27.9582048" lon="152.9914750">
<ele>45.139</ele>
<time>2015-12-29T23:45:11.679Z</time>
</trkpt>
<trkpt lat="-27.9586077" lon="152.9919404">
<ele>45.540</ele>
<time>2015-12-29T23:45:14.765Z</time>
</trkpt>
<trkpt lat="-27.9590042" lon="152.9923942">
<ele>46.133</ele>
<time>2015-12-29T23:45:17.777Z</time>
</trkpt>
<trkpt lat="-27.9592614" lon="152.9926830">
<ele>46.564</ele>
<time>2015-12-29T23:45:19.738Z</time>
</trkpt>
<trkpt lat="-27.9596496" lon="152.9931403">
<ele>46.377</ele>
<time>2015-12-29T23:45:22.772Z</time>
</trkpt>
<trkpt lat="-27.9599264" lon="152.9934213">
<ele>45.769</ele>
<time>2015-12-29T23:45:24.767Z</time>
</trkpt>
<trkpt lat="-27.9602021" lon="152.9936967">
<ele>45.156</ele>
<time>2015-12-29T23:45:26.733Z</time>
</trkpt>
<trkpt lat="-27.9606466" lon="152.9940862">
<ele>44.763</ele>
<time>2015-12-29T23:45:29.732Z</time>
</trkpt>
<trkpt lat="-27.9611136" lon="152.9944430">
<ele>44.609</ele>
<time>2015-12-29T23:45:32.712Z</time>
</trkpt>
<trkpt lat="-27.9614436" lon="152.9946818">
<ele>44.150</ele>
<time>2015-12-29T23:45:34.767Z</time>
</trkpt>
<trkpt lat="-27.9618259" lon="152.9949261">
<ele>42.650</ele>
<time>2015-12-29T23:45:37.052Z</time>
</trkpt>
<trkpt lat="-27.9625479" lon="152.9952563">
<ele>40.368</ele>
<time>2015-12-29T23:45:41.088Z</time>
</trkpt>
<trkpt lat="-27.9628960" lon="152.9953911">
<ele>38.274</ele>
<time>2015-12-29T23:45:43.035Z</time>
</trkpt>
<trkpt lat="-27.9633994" lon="152.9955402">
<ele>36.882</ele>
<time>2015-12-29T23:45:45.834Z</time>
</trkpt>
<trkpt lat="-27.9637702" lon="152.9956352">
<ele>35.985</ele>
<time>2015-12-29T23:45:47.907Z</time>
</trkpt>
<trkpt lat="-27.9643077" lon="152.9957348">
<ele>35.272</ele>
<time>2015-12-29T23:45:50.890Z</time>
</trkpt>
<trkpt lat="-27.9646710" lon="152.9957706">
<ele>35.010</ele>
<time>2015-12-29T23:45:52.906Z</time>
</trkpt>
<trkpt lat="-27.9650007" lon="152.9958044">
<ele>35.878</ele>
<time>2015-12-29T23:45:54.757Z</time>
</trkpt>
<trkpt lat="-27.9653556" lon="152.9958780">
<ele>37.886</ele>
<time>2015-12-29T23:45:56.829Z</time>
</trkpt>
<trkpt lat="-27.9658387" lon="152.9959592">
<ele>40.308</ele>
<time>2015-12-29T23:45:59.745Z</time>
</trkpt>
<trkpt lat="-27.9661494" lon="152.9960300">
<ele>42.354</ele>
<time>2015-12-29T23:46:01.763Z</time>
</trkpt>
<trkpt lat="-27.9665702" lon="152.9961228">
<ele>43.690</ele>
<time>2015-12-29T23:46:04.687Z</time>
</trkpt>
<trkpt lat="-27.9669435" lon="152.9961977">
<ele>44.409</ele>
<time>2015-12-29T23:46:07.533Z</time>
</trkpt>
<trkpt lat="-27.9673231" lon="152.9962576">
<ele>44.715</ele>
<time>2015-12-29T23:46:10.556Z</time>
</trkpt>
<trkpt lat="-27.9675907" lon="152.9962893">
<ele>44.845</ele>
<time>2015-12-29T23:46:12.648Z</time>
</trkpt>
<trkpt lat="-27.9678464" lon="152.9963337">
<ele>45.178</ele>
<time>2015-12-29T23:46:14.611Z</time>
</trkpt>
<trkpt lat="-27.9682733" lon="152.9964001">
<ele>45.739</ele>
<time>2015-12-29T23:46:17.788Z</time>
</trkpt>
<trkpt lat="-27.9687172" lon="152.9964587">
<ele>46.456</ele>
<time>2015-12-29T23:46:20.949Z</time>
</trkpt>
<trkpt lat="-27.9691481" lon="152.9965441">
<ele>47.587</ele>
<time>2015-12-29T23:46:23.959Z</time>
</trkpt>
<trkpt lat="-27.9695732" lon="152.9966220">
<ele>49.155</ele>
<time>2015-12-29T23:46:26.922Z</time>
</trkpt>
<trkpt lat="-27.9698622" lon="152.9966794">
<ele>50.592</ele>
<time>2015-12-29T23:46:28.963Z</time>
</trkpt>
<trkpt lat="-27.9702705" lon="152.9966846">
<ele>51.526</ele>
<time>2015-12-29T23:46:31.802Z</time>
</trkpt>
<trkpt lat="-27.9706701" lon="152.9966265">
<ele>52.077</ele>
<time>2015-12-29T23:46:34.595Z</time>
</trkpt>
<trkpt lat="-27.9710865" lon="152.9965405">
<ele>52.364</ele>
<time>2015-12-29T23:46:37.552Z</time>
</trkpt>
<trkpt lat="-27.9713724" lon="152.9964628">
<ele>52.306</ele>
<time>2015-12-29T23:46:39.660Z</time>
</trkpt>
<trkpt lat="-27.9715068" lon="152.9964250">
<ele>51.952</ele>
<time>2015-12-29T23:46:40.679Z</time>
</trkpt>
<trkpt lat="-27.9720048" lon="152.9962284">
<ele>51.394</ele>
<time>2015-12-29T23:46:44.584Z</time>
</trkpt>
<trkpt lat="-27.9722457" lon="152.9960798">
<ele>50.672</ele>
<time>2015-12-29T23:46:46.562Z</time>
</trkpt>
<trkpt lat="-27.9725958" lon="152.9957985">
<ele>49.974</ele>
<time>2015-12-29T23:46:49.585Z</time>
</trkpt>
<trkpt lat="-27.9728247" lon="152.9955897">
<ele>49.291</ele>
<time>2015-12-29T23:46:51.622Z</time>
</trkpt>
<trkpt lat="-27.9730521" lon="152.9953864">
<ele>48.225</ele>
<time>2015-12-29T23:46:53.620Z</time>
</trkpt>
<trkpt lat="-27.9732710" lon="152.9951693">
<ele>46.803</ele>
<time>2015-12-29T23:46:55.605Z</time>
</trkpt>
<trkpt lat="-27.9735408" lon="152.9949790">
<ele>45.355</ele>
<time>2015-12-29T23:46:57.773Z</time>
</trkpt>
<trkpt lat="-27.9737968" lon="152.9948520">
<ele>44.048</ele>
<time>2015-12-29T23:46:59.742Z</time>
</trkpt>
<trkpt lat="-27.9740315" lon="152.9947282">
<ele>42.929</ele>
<time>2015-12-29T23:47:01.692Z</time>
</trkpt>
<trkpt lat="-27.9743654" lon="152.9946207">
<ele>41.894</ele>
<time>2015-12-29T23:47:04.528Z</time>
</trkpt>
<trkpt lat="-27.9744509" lon="152.9945830">
<ele>40.942</ele>
<time>2015-12-29T23:47:05.355Z</time>
</trkpt>
<trkpt lat="-27.9748785" lon="152.9944744">
<ele>40.216</ele>
<time>2015-12-29T23:47:09.331Z</time>
</trkpt>
<trkpt lat="-27.9752165" lon="152.9943214">
<ele>39.706</ele>
<time>2015-12-29T23:47:12.349Z</time>
</trkpt>
<trkpt lat="-27.9755865" lon="152.9941793">
<ele>39.472</ele>
<time>2015-12-29T23:47:15.401Z</time>
</trkpt>
<trkpt lat="-27.9759983" lon="152.9940286">
<ele>39.539</ele>
<time>2015-12-29T23:47:18.617Z</time>
</trkpt>
<trkpt lat="-27.9762622" lon="152.9939389">
<ele>39.671</ele>
<time>2015-12-29T23:47:20.641Z</time>
</trkpt>
<trkpt lat="-27.9766225" lon="152.9938230">
<ele>39.533</ele>
<time>2015-12-29T23:47:23.545Z</time>
</trkpt>
<trkpt lat="-27.9768542" lon="152.9937615">
<ele>38.841</ele>
<time>2015-12-29T23:47:25.571Z</time>
</trkpt>
<trkpt lat="-27.9770542" lon="152.9936978">
<ele>37.745</ele>
<time>2015-12-29T23:47:27.477Z</time>
</trkpt>
<trkpt lat="-27.9773739" lon="152.9936214">
<ele>36.682</ele>
<time>2015-12-29T23:47:30.599Z</time>
</trkpt>
<trkpt lat="-27.9775820" lon="152.9935907">
<ele>35.891</ele>
<time>2015-12-29T23:47:32.537Z</time>
</trkpt>
<trkpt lat="-27.9778176" lon="152.9935890">
<ele>35.479</ele>
<time>2015-12-29T23:47:34.579Z</time>
</trkpt>
<trkpt lat="-27.9781714" lon="152.9936544">
<ele>35.470</ele>
<time>2015-12-29T23:47:37.549Z</time>
</trkpt>
<trkpt lat="-27.9784340" lon="152.9937158">
<ele>35.939</ele>
<time>2015-12-29T23:47:39.714Z</time>
</trkpt>
<trkpt lat="-27.9787999" lon="152.9938129">
<ele>36.843</ele>
<time>2015-12-29T23:47:42.764Z</time>
</trkpt>
<trkpt lat="-27.9790175" lon="152.9938974">
<ele>37.501</ele>
<time>2015-12-29T23:47:44.651Z</time>
</trkpt>
<trkpt lat="-27.9793545" lon="152.9940575">
<ele>37.383</ele>
<time>2015-12-29T23:47:47.672Z</time>
</trkpt>
<trkpt lat="-27.9795742" lon="152.9941707">
<ele>36.866</ele>
<time>2015-12-29T23:47:49.703Z</time>
</trkpt>
<trkpt lat="-27.9798925" lon="152.9943294">
<ele>36.474</ele>
<time>2015-12-29T23:47:52.593Z</time>
</trkpt>
<trkpt lat="-27.9801330" lon="152.9944414">
<ele>36.304</ele>
<time>2015-12-29T23:47:54.687Z</time>
</trkpt>
<trkpt lat="-27.9803680" lon="152.9945413">
<ele>36.248</ele>
<time>2015-12-29T23:47:56.723Z</time>
</trkpt>
<trkpt lat="-27.9807042" lon="152.9946529">
<ele>36.103</ele>
<time>2015-12-29T23:47:59.650Z</time>
</trkpt>
<trkpt lat="-27.9810467" lon="152.9947482">
<ele>35.651</ele>
<time>2015-12-29T23:48:02.627Z</time>
</trkpt>
<trkpt lat="-27.9814252" lon="152.9948415">
<ele>35.003</ele>
<time>2015-12-29T23:48:05.709Z</time>
</trkpt>
<trkpt lat="-27.9818384" lon="152.9949159">
<ele>34.508</ele>
<time>2015-12-29T23:48:08.842Z</time>
</trkpt>
<trkpt lat="-27.9822161" lon="152.9950131">
<ele>34.287</ele>
<time>2015-12-29T23:48:11.675Z</time>
</trkpt>
<trkpt lat="-27.9823553" lon="152.9950585">
<ele>34.233</ele>
<time>2015-12-29T23:48:12.732Z</time>
</trkpt>
<trkpt lat="-27.9829357" lon="152.9951909">
<ele>34.234</ele>
<time>2015-12-29T23:48:16.888Z</time>
</trkpt>
<trkpt lat="-27.9832390" lon="152.9952598">
<ele>34.237</ele>
<time>2015-12-29T23:48:18.953Z</time>
</trkpt>
<trkpt lat="-27.9835455" lon="152.9953114">
<ele>34.335</ele>
<time>2015-12-29T23:48:21.028Z</time>
</trkpt>
<trkpt lat="-27.9839634" lon="152.9953970">
<ele>34.592</ele>
<time>2015-12-29T23:48:23.928Z</time>
</trkpt>
<trkpt lat="-27.9842527" lon="152.9954393">
<ele>34.877</ele>
<time>2015-12-29T23:48:25.995Z</time>
</trkpt>
<trkpt lat="-27.9844845" lon="152.9954792">
<ele>35.062</ele>
<time>2015-12-29T23:48:27.777Z</time>
</trkpt>
<trkpt lat="-27.9848269" lon="152.9955232">
<ele>35.156</ele>
<time>2015-12-29T23:48:30.639Z</time>
</trkpt>
<trkpt lat="-27.9850287" lon="152.9955529">
<ele>35.152</ele>
<time>2015-12-29T23:48:32.491Z</time>
</trkpt>
<trkpt lat="-27.9851380" lon="152.9955674">
<ele>35.041</ele>
<time>2015-12-29T23:48:33.525Z</time>
</trkpt>
<trkpt lat="-27.9856078" lon="152.9956279">
<ele>34.826</ele>
<time>2015-12-29T23:48:37.755Z</time>
</trkpt>
<trkpt lat="-27.9859411" lon="152.9956667">
<ele>34.457</ele>
<time>2015-12-29T23:48:40.691Z</time>
</trkpt>
<trkpt lat="-27.9861704" lon="152.9957076">
<ele>34.091</ele>
<time>2015-12-29T23:48:42.845Z</time>
</trkpt>
<trkpt lat="-27.9863654" lon="152.9957180">
<ele>34.096</ele>
<time>2015-12-29T23:48:44.758Z</time>
</trkpt>
<trkpt lat="-27.9866337" lon="152.9957512">
<ele>34.474</ele>
<time>2015-12-29T23:48:47.618Z</time>
</trkpt>
<trkpt lat="-27.9868857" lon="152.9957801">
<ele>34.641</ele>
<time>2015-12-29T23:48:50.672Z</time>
</trkpt>
<trkpt lat="-27.9870286" lon="152.9957936">
<ele>34.107</ele>
<time>2015-12-29T23:48:52.609Z</time>
</trkpt>
<trkpt lat="-27.9871560" lon="152.9957984">
<ele>32.927</ele>
<time>2015-12-29T23:48:54.513Z</time>
</trkpt>
<trkpt lat="-27.9873319" lon="152.9958081">
<ele>31.558</ele>
<time>2015-12-29T23:48:57.648Z</time>
</trkpt>
<trkpt lat="-27.9874323" lon="152.9958154">
<ele>30.527</ele>
<time>2015-12-29T23:48:59.999Z</time>
</trkpt>
<trkpt lat="-27.9874323" lon="152.9958154">
<ele>30.073</ele>
<time>2015-12-29T23:49:04.999Z</time>
</trkpt>
<trkpt lat="-27.9874323" lon="152.9958154">
<ele>29.998</ele>
<time>2015-12-29T23:49:38.518Z</time>
</trkpt>
<trkpt lat="-27.9876623" lon="152.9958188">
<ele>30.024</ele>
<time>2015-12-29T23:49:52.565Z</time>
</trkpt>
<trkpt lat="-27.9878897" lon="152.9958711">
<ele>30.039</ele>
<time>2015-12-29T23:49:56.037Z</time>
</trkpt>
<trkpt lat="-27.9880685" lon="152.9958525">
<ele>30.077</ele>
<time>2015-12-29T23:49:58.403Z</time>
</trkpt>
<trkpt lat="-27.9882046" lon="152.9957865">
<ele>30.197</ele>
<time>2015-12-29T23:50:00.272Z</time>
</trkpt>
<trkpt lat="-27.9883412" lon="152.9956628">
<ele>30.444</ele>
<time>2015-12-29T23:50:02.350Z</time>
</trkpt>
<trkpt lat="-27.9885266" lon="152.9954667">
<ele>30.763</ele>
<time>2015-12-29T23:50:05.304Z</time>
</trkpt>
<trkpt lat="-27.9887009" lon="152.9952834">
<ele>30.974</ele>
<time>2015-12-29T23:50:07.893Z</time>
</trkpt>
<trkpt lat="-27.9889135" lon="152.9950560">
<ele>30.983</ele>
<time>2015-12-29T23:50:10.664Z</time>
</trkpt>
<trkpt lat="-27.9891463" lon="152.9947650">
<ele>30.979</ele>
<time>2015-12-29T23:50:13.615Z</time>
</trkpt>
<trkpt lat="-27.9893848" lon="152.9944741">
<ele>31.382</ele>
<time>2015-12-29T23:50:16.546Z</time>
</trkpt>
<trkpt lat="-27.9896161" lon="152.9942020">
<ele>32.288</ele>
<time>2015-12-29T23:50:19.386Z</time>
</trkpt>
<trkpt lat="-27.9897663" lon="152.9940262">
<ele>33.198</ele>
<time>2015-12-29T23:50:21.290Z</time>
</trkpt>
<trkpt lat="-27.9899228" lon="152.9938553">
<ele>33.669</ele>
<time>2015-12-29T23:50:23.296Z</time>
</trkpt>
<trkpt lat="-27.9900832" lon="152.9937153">
<ele>33.610</ele>
<time>2015-12-29T23:50:25.288Z</time>
</trkpt>
<trkpt lat="-27.9903110" lon="152.9935428">
<ele>32.977</ele>
<time>2015-12-29T23:50:28.118Z</time>
</trkpt>
<trkpt lat="-27.9904404" lon="152.9934323">
<ele>32.039</ele>
<time>2015-12-29T23:50:29.920Z</time>
</trkpt>
<trkpt lat="-27.9906430" lon="152.9932635">
<ele>31.311</ele>
<time>2015-12-29T23:50:32.919Z</time>
</trkpt>
<trkpt lat="-27.9907764" lon="152.9931818">
<ele>31.061</ele>
<time>2015-12-29T23:50:35.037Z</time>
</trkpt>
<trkpt lat="-27.9908937" lon="152.9931448">
<ele>31.276</ele>
<time>2015-12-29T23:50:37.056Z</time>
</trkpt>
<trkpt lat="-27.9910120" lon="152.9932324">
<ele>31.832</ele>
<time>2015-12-29T23:50:39.597Z</time>
</trkpt>
<trkpt lat="-27.9911009" lon="152.9934004">
<ele>32.450</ele>
<time>2015-12-29T23:50:42.542Z</time>
</trkpt>
<trkpt lat="-27.9911773" lon="152.9935514">
<ele>32.978</ele>
<time>2015-12-29T23:50:44.730Z</time>
</trkpt>
<trkpt lat="-27.9912789" lon="152.9937483">
<ele>33.616</ele>
<time>2015-12-29T23:50:47.499Z</time>
</trkpt>
<trkpt lat="-27.9913731" lon="152.9939692">
<ele>34.483</ele>
<time>2015-12-29T23:50:50.591Z</time>
</trkpt>
<trkpt lat="-27.9914600" lon="152.9941468">
<ele>35.368</ele>
<time>2015-12-29T23:50:53.383Z</time>
</trkpt>
<trkpt lat="-27.9915160" lon="152.9942691">
<ele>36.020</ele>
<time>2015-12-29T23:50:55.805Z</time>
</trkpt>
<trkpt lat="-27.9915808" lon="152.9943704">
<ele>36.345</ele>
<time>2015-12-29T23:50:59.198Z</time>
</trkpt>
<trkpt lat="-27.9916631" lon="152.9944115">
<ele>36.435</ele>
<time>2015-12-29T23:51:03.001Z</time>
</trkpt>
<trkpt lat="-27.9917488" lon="152.9943790">
<ele>36.561</ele>
<time>2015-12-29T23:51:07.289Z</time>
</trkpt>
<trkpt lat="-27.9918470" lon="152.9943168">
<ele>36.934</ele>
<time>2015-12-29T23:51:11.694Z</time>
</trkpt>
<trkpt lat="-27.9918978" lon="152.9941891">
<ele>37.469</ele>
<time>2015-12-29T23:51:16.996Z</time>
</trkpt>
<trkpt lat="-27.9918978" lon="152.9941891">
<ele>37.888</ele>
<time>2015-12-29T23:51:18.996Z</time>
</trkpt>
<trkpt lat="-27.9918978" lon="152.9941891">
<ele>38.041</ele>
<time>2015-12-30T00:31:01.205Z</time>
</trkpt>
<trkpt lat="-27.9917664" lon="152.9943355">
<ele>38.000</ele>
<time>2015-12-30T00:31:14.930Z</time>
</trkpt>
<trkpt lat="-27.9916703" lon="152.9943532">
<ele>38.310</ele>
<time>2015-12-30T00:31:21.000Z</time>
</trkpt>
<trkpt lat="-27.9916703" lon="152.9943532">
<ele>39.304</ele>
<time>2015-12-30T00:31:24.000Z</time>
</trkpt>
<trkpt lat="-27.9916703" lon="152.9943532">
<ele>40.158</ele>
<time>2015-12-30T00:31:31.183Z</time>
</trkpt>
<trkpt lat="-27.9915227" lon="152.9942351">
<ele>40.131</ele>
<time>2015-12-30T00:31:36.492Z</time>
</trkpt>
<trkpt lat="-27.9914626" lon="152.9941141">
<ele>39.834</ele>
<time>2015-12-30T00:31:38.299Z</time>
</trkpt>
<trkpt lat="-27.9913750" lon="152.9939266">
<ele>39.986</ele>
<time>2015-12-30T00:31:40.636Z</time>
</trkpt>
<trkpt lat="-27.9912521" lon="152.9936839">
<ele>40.632</ele>
<time>2015-12-30T00:31:43.720Z</time>
</trkpt>
<trkpt lat="-27.9911527" lon="152.9934974">
<ele>41.480</ele>
<time>2015-12-30T00:31:46.429Z</time>
</trkpt>
<trkpt lat="-27.9911099" lon="152.9933874">
<ele>42.035</ele>
<time>2015-12-30T00:31:48.226Z</time>
</trkpt>
<trkpt lat="-27.9910503" lon="152.9932335">
<ele>41.919</ele>
<time>2015-12-30T00:31:50.961Z</time>
</trkpt>
<trkpt lat="-27.9910905" lon="152.9930580">
<ele>41.368</ele>
<time>2015-12-30T00:31:54.133Z</time>
</trkpt>
<trkpt lat="-27.9911682" lon="152.9929733">
<ele>41.032</ele>
<time>2015-12-30T00:31:56.436Z</time>
</trkpt>
<trkpt lat="-27.9912633" lon="152.9929054">
<ele>41.296</ele>
<time>2015-12-30T00:31:58.956Z</time>
</trkpt>
<trkpt lat="-27.9913194" lon="152.9927687">
<ele>41.877</ele>
<time>2015-12-30T00:32:02.327Z</time>
</trkpt>
<trkpt lat="-27.9912786" lon="152.9926715">
<ele>42.312</ele>
<time>2015-12-30T00:32:05.000Z</time>
</trkpt>
<trkpt lat="-27.9912786" lon="152.9926715">
<ele>42.452</ele>
<time>2015-12-30T00:32:09.000Z</time>
</trkpt>
<trkpt lat="-27.9912786" lon="152.9926715">
<ele>42.402</ele>
<time>2015-12-30T00:32:26.068Z</time>
</trkpt>
<trkpt lat="-27.9911786" lon="152.9925065">
<ele>42.333</ele>
<time>2015-12-30T00:32:31.367Z</time>
</trkpt>
<trkpt lat="-27.9910984" lon="152.9923503">
<ele>42.343</ele>
<time>2015-12-30T00:32:33.202Z</time>
</trkpt>
<trkpt lat="-27.9910083" lon="152.9921043">
<ele>42.668</ele>
<time>2015-12-30T00:32:35.551Z</time>
</trkpt>
<trkpt lat="-27.9908411" lon="152.9915250">
<ele>43.576</ele>
<time>2015-12-30T00:32:39.861Z</time>
</trkpt>
<trkpt lat="-27.9907160" lon="152.9912232">
<ele>45.071</ele>
<time>2015-12-30T00:32:41.910Z</time>
</trkpt>
<trkpt lat="-27.9905896" lon="152.9909019">
<ele>46.708</ele>
<time>2015-12-30T00:32:43.963Z</time>
</trkpt>
<trkpt lat="-27.9904205" lon="152.9904432">
<ele>47.887</ele>
<time>2015-12-30T00:32:46.819Z</time>
</trkpt>
<trkpt lat="-27.9903145" lon="152.9901189">
<ele>48.473</ele>
<time>2015-12-30T00:32:48.741Z</time>
</trkpt>
<trkpt lat="-27.9902002" lon="152.9897696">
<ele>48.777</ele>
<time>2015-12-30T00:32:50.747Z</time>
</trkpt>
<trkpt lat="-27.9900802" lon="152.9894291">
<ele>49.058</ele>
<time>2015-12-30T00:32:52.721Z</time>
</trkpt>
<trkpt lat="-27.9899872" lon="152.9890608">
<ele>49.410</ele>
<time>2015-12-30T00:32:54.847Z</time>
</trkpt>
<trkpt lat="-27.9898969" lon="152.9885586">
<ele>49.431</ele>
<time>2015-12-30T00:32:57.739Z</time>
</trkpt>
<trkpt lat="-27.9898382" lon="152.9882190">
<ele>48.798</ele>
<time>2015-12-30T00:32:59.706Z</time>
</trkpt>
<trkpt lat="-27.9898113" lon="152.9878568">
<ele>47.687</ele>
<time>2015-12-30T00:33:01.729Z</time>
</trkpt>
<trkpt lat="-27.9897814" lon="152.9872762">
<ele>46.275</ele>
<time>2015-12-30T00:33:04.939Z</time>
</trkpt>
<trkpt lat="-27.9898144" lon="152.9867585">
<ele>44.712</ele>
<time>2015-12-30T00:33:07.782Z</time>
</trkpt>
<trkpt lat="-27.9898804" lon="152.9863952">
<ele>43.174</ele>
<time>2015-12-30T00:33:09.747Z</time>
</trkpt>
<trkpt lat="-27.9900428" lon="152.9858514">
<ele>41.814</ele>
<time>2015-12-30T00:33:12.742Z</time>
</trkpt>
<trkpt lat="-27.9901175" lon="152.9856636">
<ele>40.943</ele>
<time>2015-12-30T00:33:13.798Z</time>
</trkpt>
<trkpt lat="-27.9904525" lon="152.9849604">
<ele>40.618</ele>
<time>2015-12-30T00:33:17.759Z</time>
</trkpt>
<trkpt lat="-27.9907070" lon="152.9844312">
<ele>40.553</ele>
<time>2015-12-30T00:33:20.689Z</time>
</trkpt>
<trkpt lat="-27.9908826" lon="152.9840747">
<ele>40.365</ele>
<time>2015-12-30T00:33:22.675Z</time>
</trkpt>
<trkpt lat="-27.9911514" lon="152.9835326">
<ele>39.888</ele>
<time>2015-12-30T00:33:25.690Z</time>
</trkpt>
<trkpt lat="-27.9913211" lon="152.9831720">
<ele>39.450</ele>
<time>2015-12-30T00:33:27.644Z</time>
</trkpt>
<trkpt lat="-27.9915490" lon="152.9825808">
<ele>39.351</ele>
<time>2015-12-30T00:33:30.716Z</time>
</trkpt>
<trkpt lat="-27.9916616" lon="152.9821779">
<ele>39.446</ele>
<time>2015-12-30T00:33:32.707Z</time>
</trkpt>
<trkpt lat="-27.9917518" lon="152.9815370">
<ele>39.435</ele>
<time>2015-12-30T00:33:35.785Z</time>
</trkpt>
<trkpt lat="-27.9917886" lon="152.9811100">
<ele>39.145</ele>
<time>2015-12-30T00:33:37.837Z</time>
</trkpt>
<trkpt lat="-27.9918167" lon="152.9802530">
<ele>38.678</ele>
<time>2015-12-30T00:33:41.919Z</time>
</trkpt>
<trkpt lat="-27.9918330" lon="152.9796398">
<ele>38.092</ele>
<time>2015-12-30T00:33:44.823Z</time>
</trkpt>
<trkpt lat="-27.9918481" lon="152.9792305">
<ele>37.411</ele>
<time>2015-12-30T00:33:46.769Z</time>
</trkpt>
<trkpt lat="-27.9918580" lon="152.9785961">
<ele>36.904</ele>
<time>2015-12-30T00:33:49.777Z</time>
</trkpt>
<trkpt lat="-27.9918643" lon="152.9779575">
<ele>36.781</ele>
<time>2015-12-30T00:33:52.807Z</time>
</trkpt>
<trkpt lat="-27.9918613" lon="152.9773344">
<ele>36.938</ele>
<time>2015-12-30T00:33:55.814Z</time>
</trkpt>
<trkpt lat="-27.9917872" lon="152.9769427">
<ele>37.154</ele>
<time>2015-12-30T00:33:57.786Z</time>
</trkpt>
<trkpt lat="-27.9915604" lon="152.9763778">
<ele>37.098</ele>
<time>2015-12-30T00:34:00.893Z</time>
</trkpt>
<trkpt lat="-27.9912216" lon="152.9759347">
<ele>36.621</ele>
<time>2015-12-30T00:34:03.882Z</time>
</trkpt>
<trkpt lat="-27.9907891" lon="152.9756112">
<ele>35.585</ele>
<time>2015-12-30T00:34:06.871Z</time>
</trkpt>
<trkpt lat="-27.9904627" lon="152.9754503">
<ele>34.069</ele>
<time>2015-12-30T00:34:08.880Z</time>
</trkpt>
<trkpt lat="-27.9901408" lon="152.9752850">
<ele>32.701</ele>
<time>2015-12-30T00:34:10.861Z</time>
</trkpt>
<trkpt lat="-27.9898257" lon="152.9750993">
<ele>31.982</ele>
<time>2015-12-30T00:34:12.846Z</time>
</trkpt>
<trkpt lat="-27.9894144" lon="152.9747147">
<ele>31.781</ele>
<time>2015-12-30T00:34:15.824Z</time>
</trkpt>
<trkpt lat="-27.9891150" lon="152.9742238">
<ele>32.048</ele>
<time>2015-12-30T00:34:18.756Z</time>
</trkpt>
<trkpt lat="-27.9889729" lon="152.9738437">
<ele>32.734</ele>
<time>2015-12-30T00:34:20.762Z</time>
</trkpt>
<trkpt lat="-27.9889100" lon="152.9734277">
<ele>33.505</ele>
<time>2015-12-30T00:34:22.746Z</time>
</trkpt>
<trkpt lat="-27.9888488" lon="152.9727787">
<ele>34.208</ele>
<time>2015-12-30T00:34:25.757Z</time>
</trkpt>
<trkpt lat="-27.9887400" lon="152.9721503">
<ele>34.935</ele>
<time>2015-12-30T00:34:28.693Z</time>
</trkpt>
<trkpt lat="-27.9884983" lon="152.9715374">
<ele>35.516</ele>
<time>2015-12-30T00:34:31.768Z</time>
</trkpt>
<trkpt lat="-27.9882565" lon="152.9711813">
<ele>35.624</ele>
<time>2015-12-30T00:34:33.797Z</time>
</trkpt>
<trkpt lat="-27.9879699" lon="152.9708872">
<ele>35.260</ele>
<time>2015-12-30T00:34:35.749Z</time>
</trkpt>
<trkpt lat="-27.9876339" lon="152.9706466">
<ele>34.856</ele>
<time>2015-12-30T00:34:37.713Z</time>
</trkpt>
<trkpt lat="-27.9870734" lon="152.9703432">
<ele>34.930</ele>
<time>2015-12-30T00:34:40.756Z</time>
</trkpt>
<trkpt lat="-27.9866920" lon="152.9701261">
<ele>35.478</ele>
<time>2015-12-30T00:34:42.844Z</time>
</trkpt>
<trkpt lat="-27.9863232" lon="152.9699273">
<ele>35.921</ele>
<time>2015-12-30T00:34:44.847Z</time>
</trkpt>
<trkpt lat="-27.9857698" lon="152.9696274">
<ele>35.871</ele>
<time>2015-12-30T00:34:47.920Z</time>
</trkpt>
<trkpt lat="-27.9854212" lon="152.9694409">
<ele>35.571</ele>
<time>2015-12-30T00:34:49.950Z</time>
</trkpt>
<trkpt lat="-27.9849129" lon="152.9691773">
<ele>35.045</ele>
<time>2015-12-30T00:34:52.941Z</time>
</trkpt>
<trkpt lat="-27.9847461" lon="152.9690678">
<ele>34.161</ele>
<time>2015-12-30T00:34:53.955Z</time>
</trkpt>
<trkpt lat="-27.9840011" lon="152.9686598">
<ele>33.309</ele>
<time>2015-12-30T00:34:57.983Z</time>
</trkpt>
<trkpt lat="-27.9834037" lon="152.9683421">
<ele>33.113</ele>
<time>2015-12-30T00:35:01.006Z</time>
</trkpt>
<trkpt lat="-27.9828125" lon="152.9680236">
<ele>33.615</ele>
<time>2015-12-30T00:35:04.037Z</time>
</trkpt>
<trkpt lat="-27.9824496" lon="152.9678294">
<ele>33.953</ele>
<time>2015-12-30T00:35:06.013Z</time>
</trkpt>
<trkpt lat="-27.9819456" lon="152.9674933">
<ele>33.448</ele>
<time>2015-12-30T00:35:08.910Z</time>
</trkpt>
<trkpt lat="-27.9815144" lon="152.9670108">
<ele>32.629</ele>
<time>2015-12-30T00:35:11.848Z</time>
</trkpt>
<trkpt lat="-27.9812983" lon="152.9665885">
<ele>32.316</ele>
<time>2015-12-30T00:35:13.854Z</time>
</trkpt>
<trkpt lat="-27.9811133" lon="152.9658839">
<ele>32.985</ele>
<time>2015-12-30T00:35:16.805Z</time>
</trkpt>
<trkpt lat="-27.9810120" lon="152.9651273">
<ele>34.516</ele>
<time>2015-12-30T00:35:19.781Z</time>
</trkpt>
<trkpt lat="-27.9809366" lon="152.9646078">
<ele>36.306</ele>
<time>2015-12-30T00:35:21.806Z</time>
</trkpt>
<trkpt lat="-27.9808694" lon="152.9640955">
<ele>37.836</ele>
<time>2015-12-30T00:35:23.796Z</time>
</trkpt>
<trkpt lat="-27.9808179" lon="152.9635772">
<ele>38.777</ele>
<time>2015-12-30T00:35:25.797Z</time>
</trkpt>
<trkpt lat="-27.9807126" lon="152.9628275">
<ele>38.836</ele>
<time>2015-12-30T00:35:28.711Z</time>
</trkpt>
<trkpt lat="-27.9805947" lon="152.9620517">
<ele>38.141</ele>
<time>2015-12-30T00:35:31.724Z</time>
</trkpt>
<trkpt lat="-27.9804827" lon="152.9612913">
<ele>37.252</ele>
<time>2015-12-30T00:35:34.656Z</time>
</trkpt>
<trkpt lat="-27.9804013" lon="152.9607803">
<ele>36.546</ele>
<time>2015-12-30T00:35:36.612Z</time>
</trkpt>
<trkpt lat="-27.9802875" lon="152.9599886">
<ele>35.967</ele>
<time>2015-12-30T00:35:39.629Z</time>
</trkpt>
<trkpt lat="-27.9802131" lon="152.9594473">
<ele>35.770</ele>
<time>2015-12-30T00:35:41.683Z</time>
</trkpt>
<trkpt lat="-27.9801002" lon="152.9586456">
<ele>36.312</ele>
<time>2015-12-30T00:35:44.673Z</time>
</trkpt>
<trkpt lat="-27.9800415" lon="152.9580918">
<ele>37.395</ele>
<time>2015-12-30T00:35:46.691Z</time>
</trkpt>
<trkpt lat="-27.9799262" lon="152.9572687">
<ele>38.510</ele>
<time>2015-12-30T00:35:49.695Z</time>
</trkpt>
<trkpt lat="-27.9798396" lon="152.9567253">
<ele>39.416</ele>
<time>2015-12-30T00:35:51.668Z</time>
</trkpt>
<trkpt lat="-27.9797136" lon="152.9558980">
<ele>40.315</ele>
<time>2015-12-30T00:35:54.622Z</time>
</trkpt>
<trkpt lat="-27.9795849" lon="152.9550358">
<ele>41.301</ele>
<time>2015-12-30T00:35:57.605Z</time>
</trkpt>
<trkpt lat="-27.9794416" lon="152.9541545">
<ele>42.472</ele>
<time>2015-12-30T00:36:00.598Z</time>
</trkpt>
<trkpt lat="-27.9793672" lon="152.9535495">
<ele>44.076</ele>
<time>2015-12-30T00:36:02.635Z</time>
</trkpt>
<trkpt lat="-27.9792563" lon="152.9526604">
<ele>45.737</ele>
<time>2015-12-30T00:36:05.636Z</time>
</trkpt>
<trkpt lat="-27.9791195" lon="152.9517930">
<ele>46.653</ele>
<time>2015-12-30T00:36:08.626Z</time>
</trkpt>
<trkpt lat="-27.9789981" lon="152.9509512">
<ele>46.638</ele>
<time>2015-12-30T00:36:11.592Z</time>
</trkpt>
<trkpt lat="-27.9788908" lon="152.9501130">
<ele>45.900</ele>
<time>2015-12-30T00:36:14.572Z</time>
</trkpt>
<trkpt lat="-27.9787615" lon="152.9492846">
<ele>44.822</ele>
<time>2015-12-30T00:36:17.547Z</time>
</trkpt>
<trkpt lat="-27.9786922" lon="152.9487170">
<ele>43.840</ele>
<time>2015-12-30T00:36:19.586Z</time>
</trkpt>
<trkpt lat="-27.9785467" lon="152.9478834">
<ele>43.181</ele>
<time>2015-12-30T00:36:22.595Z</time>
</trkpt>
<trkpt lat="-27.9784827" lon="152.9473180">
<ele>42.935</ele>
<time>2015-12-30T00:36:24.588Z</time>
</trkpt>
<trkpt lat="-27.9784015" lon="152.9467488">
<ele>43.102</ele>
<time>2015-12-30T00:36:26.591Z</time>
</trkpt>
<trkpt lat="-27.9782848" lon="152.9458947">
<ele>43.457</ele>
<time>2015-12-30T00:36:29.586Z</time>
</trkpt>
<trkpt lat="-27.9781410" lon="152.9450663">
<ele>43.739</ele>
<time>2015-12-30T00:36:32.499Z</time>
</trkpt>
<trkpt lat="-27.9780603" lon="152.9444863">
<ele>44.238</ele>
<time>2015-12-30T00:36:34.502Z</time>
</trkpt>
<trkpt lat="-27.9779703" lon="152.9439007">
<ele>45.535</ele>
<time>2015-12-30T00:36:36.516Z</time>
</trkpt>
<trkpt lat="-27.9778310" lon="152.9430295">
<ele>47.436</ele>
<time>2015-12-30T00:36:39.523Z</time>
</trkpt>
<trkpt lat="-27.9777276" lon="152.9424693">
<ele>49.190</ele>
<time>2015-12-30T00:36:41.499Z</time>
</trkpt>
<trkpt lat="-27.9775970" lon="152.9416310">
<ele>50.445</ele>
<time>2015-12-30T00:36:44.486Z</time>
</trkpt>
<trkpt lat="-27.9775102" lon="152.9410588">
<ele>51.148</ele>
<time>2015-12-30T00:36:46.584Z</time>
</trkpt>
<trkpt lat="-27.9773909" lon="152.9402617">
<ele>51.751</ele>
<time>2015-12-30T00:36:49.531Z</time>
</trkpt>
<trkpt lat="-27.9773005" lon="152.9397352">
<ele>52.722</ele>
<time>2015-12-30T00:36:51.476Z</time>
</trkpt>
<trkpt lat="-27.9772093" lon="152.9391911">
<ele>54.119</ele>
<time>2015-12-30T00:36:53.492Z</time>
</trkpt>
<trkpt lat="-27.9771426" lon="152.9386674">
<ele>55.664</ele>
<time>2015-12-30T00:36:55.422Z</time>
</trkpt>
<trkpt lat="-27.9770214" lon="152.9378617">
<ele>56.833</ele>
<time>2015-12-30T00:36:58.381Z</time>
</trkpt>
<trkpt lat="-27.9769444" lon="152.9373081">
<ele>57.292</ele>
<time>2015-12-30T00:37:00.388Z</time>
</trkpt>
<trkpt lat="-27.9768176" lon="152.9364897">
<ele>57.466</ele>
<time>2015-12-30T00:37:03.367Z</time>
</trkpt>
<trkpt lat="-27.9766865" lon="152.9356703">
<ele>57.745</ele>
<time>2015-12-30T00:37:06.372Z</time>
</trkpt>
<trkpt lat="-27.9765603" lon="152.9348689">
<ele>58.055</ele>
<time>2015-12-30T00:37:09.356Z</time>
</trkpt>
<trkpt lat="-27.9765170" lon="152.9343683">
<ele>57.783</ele>
<time>2015-12-30T00:37:11.250Z</time>
</trkpt>
<trkpt lat="-27.9764593" lon="152.9338329">
<ele>56.401</ele>
<time>2015-12-30T00:37:13.266Z</time>
</trkpt>
<trkpt lat="-27.9763314" lon="152.9330245">
<ele>54.456</ele>
<time>2015-12-30T00:37:16.276Z</time>
</trkpt>
<trkpt lat="-27.9762365" lon="152.9324649">
<ele>53.297</ele>
<time>2015-12-30T00:37:18.335Z</time>
</trkpt>
<trkpt lat="-27.9761399" lon="152.9319192">
<ele>53.661</ele>
<time>2015-12-30T00:37:20.351Z</time>
</trkpt>
<trkpt lat="-27.9759468" lon="152.9311113">
<ele>55.011</ele>
<time>2015-12-30T00:37:23.400Z</time>
</trkpt>
<trkpt lat="-27.9758383" lon="152.9305844">
<ele>56.825</ele>
<time>2015-12-30T00:37:25.414Z</time>
</trkpt>
<trkpt lat="-27.9757298" lon="152.9300742">
<ele>59.141</ele>
<time>2015-12-30T00:37:27.422Z</time>
</trkpt>
<trkpt lat="-27.9755566" lon="152.9293314">
<ele>61.396</ele>
<time>2015-12-30T00:37:30.434Z</time>
</trkpt>
<trkpt lat="-27.9754329" lon="152.9286131">
<ele>63.406</ele>
<time>2015-12-30T00:37:33.379Z</time>
</trkpt>
<trkpt lat="-27.9752844" lon="152.9279057">
<ele>66.014</ele>
<time>2015-12-30T00:37:36.333Z</time>
</trkpt>
<trkpt lat="-27.9751722" lon="152.9274168">
<ele>69.230</ele>
<time>2015-12-30T00:37:38.367Z</time>
</trkpt>
<trkpt lat="-27.9750767" lon="152.9269176">
<ele>72.513</ele>
<time>2015-12-30T00:37:40.399Z</time>
</trkpt>
<trkpt lat="-27.9749406" lon="152.9261861">
<ele>75.546</ele>
<time>2015-12-30T00:37:43.358Z</time>
</trkpt>
<trkpt lat="-27.9748387" lon="152.9256963">
<ele>77.702</ele>
<time>2015-12-30T00:37:45.347Z</time>
</trkpt>
<trkpt lat="-27.9747209" lon="152.9252068">
<ele>78.617</ele>
<time>2015-12-30T00:37:47.342Z</time>
</trkpt>
<trkpt lat="-27.9745497" lon="152.9244592">
<ele>78.683</ele>
<time>2015-12-30T00:37:50.369Z</time>
</trkpt>
<trkpt lat="-27.9744467" lon="152.9239922">
<ele>78.446</ele>
<time>2015-12-30T00:37:52.251Z</time>
</trkpt>
<trkpt lat="-27.9743472" lon="152.9234755">
<ele>77.921</ele>
<time>2015-12-30T00:37:54.306Z</time>
</trkpt>
<trkpt lat="-27.9742443" lon="152.9229438">
<ele>76.969</ele>
<time>2015-12-30T00:37:56.410Z</time>
</trkpt>
<trkpt lat="-27.9740785" lon="152.9221695">
<ele>75.991</ele>
<time>2015-12-30T00:37:59.498Z</time>
</trkpt>
<trkpt lat="-27.9739373" lon="152.9217113">
<ele>75.405</ele>
<time>2015-12-30T00:38:01.409Z</time>
</trkpt>
<trkpt lat="-27.9736663" lon="152.9210329">
<ele>75.133</ele>
<time>2015-12-30T00:38:04.352Z</time>
</trkpt>
<trkpt lat="-27.9732911" lon="152.9204025">
<ele>74.909</ele>
<time>2015-12-30T00:38:07.349Z</time>
</trkpt>
<trkpt lat="-27.9728170" lon="152.9198457">
<ele>74.650</ele>
<time>2015-12-30T00:38:10.394Z</time>
</trkpt>
<trkpt lat="-27.9724801" lon="152.9195423">
<ele>74.514</ele>
<time>2015-12-30T00:38:12.331Z</time>
</trkpt>
<trkpt lat="-27.9719345" lon="152.9191697">
<ele>74.609</ele>
<time>2015-12-30T00:38:15.212Z</time>
</trkpt>
<trkpt lat="-27.9715261" lon="152.9189194">
<ele>74.868</ele>
<time>2015-12-30T00:38:17.292Z</time>
</trkpt>
<trkpt lat="-27.9711241" lon="152.9186865">
<ele>75.220</ele>
<time>2015-12-30T00:38:19.293Z</time>
</trkpt>
<trkpt lat="-27.9705485" lon="152.9182737">
<ele>75.603</ele>
<time>2015-12-30T00:38:22.285Z</time>
</trkpt>
<trkpt lat="-27.9700335" lon="152.9177501">
<ele>76.563</ele>
<time>2015-12-30T00:38:25.290Z</time>
</trkpt>
<trkpt lat="-27.9696479" lon="152.9170670">
<ele>79.266</ele>
<time>2015-12-30T00:38:28.351Z</time>
</trkpt>
<trkpt lat="-27.9693764" lon="152.9163378">
<ele>83.805</ele>
<time>2015-12-30T00:38:31.325Z</time>
</trkpt>
<trkpt lat="-27.9692411" lon="152.9158475">
<ele>88.399</ele>
<time>2015-12-30T00:38:33.271Z</time>
</trkpt>
<trkpt lat="-27.9691984" lon="152.9150519">
<ele>91.521</ele>
<time>2015-12-30T00:38:36.294Z</time>
</trkpt>
<trkpt lat="-27.9692109" lon="152.9145250">
<ele>93.283</ele>
<time>2015-12-30T00:38:38.287Z</time>
</trkpt>
<trkpt lat="-27.9692091" lon="152.9139971">
<ele>94.605</ele>
<time>2015-12-30T00:38:40.304Z</time>
</trkpt>
<trkpt lat="-27.9691282" lon="152.9132425">
<ele>96.005</ele>
<time>2015-12-30T00:38:43.236Z</time>
</trkpt>
<trkpt lat="-27.9689261" lon="152.9124877">
<ele>97.481</ele>
<time>2015-12-30T00:38:46.304Z</time>
</trkpt>
<trkpt lat="-27.9686389" lon="152.9118228">
<ele>98.760</ele>
<time>2015-12-30T00:38:49.221Z</time>
</trkpt>
<trkpt lat="-27.9684203" lon="152.9114057">
<ele>98.971</ele>
<time>2015-12-30T00:38:51.148Z</time>
</trkpt>
<trkpt lat="-27.9681335" lon="152.9109943">
<ele>97.267</ele>
<time>2015-12-30T00:38:53.198Z</time>
</trkpt>
<trkpt lat="-27.9676126" lon="152.9104552">
<ele>94.499</ele>
<time>2015-12-30T00:38:56.283Z</time>
</trkpt>
<trkpt lat="-27.9670230" lon="152.9100200">
<ele>91.497</ele>
<time>2015-12-30T00:38:59.355Z</time>
</trkpt>
<trkpt lat="-27.9664263" lon="152.9097206">
<ele>87.413</ele>
<time>2015-12-30T00:39:02.188Z</time>
</trkpt>
<trkpt lat="-27.9657107" lon="152.9095154">
<ele>81.933</ele>
<time>2015-12-30T00:39:05.301Z</time>
</trkpt>
<trkpt lat="-27.9650219" lon="152.9093277">
<ele>76.137</ele>
<time>2015-12-30T00:39:08.235Z</time>
</trkpt>
<trkpt lat="-27.9643474" lon="152.9090653">
<ele>71.117</ele>
<time>2015-12-30T00:39:11.231Z</time>
</trkpt>
<trkpt lat="-27.9639511" lon="152.9087768">
<ele>67.029</ele>
<time>2015-12-30T00:39:13.257Z</time>
</trkpt>
<trkpt lat="-27.9634264" lon="152.9082787">
<ele>63.273</ele>
<time>2015-12-30T00:39:16.195Z</time>
</trkpt>
<trkpt lat="-27.9629865" lon="152.9076284">
<ele>59.443</ele>
<time>2015-12-30T00:39:19.227Z</time>
</trkpt>
<trkpt lat="-27.9627751" lon="152.9071483">
<ele>56.078</ele>
<time>2015-12-30T00:39:21.188Z</time>
</trkpt>
<trkpt lat="-27.9625646" lon="152.9063948">
<ele>53.732</ele>
<time>2015-12-30T00:39:24.086Z</time>
</trkpt>
<trkpt lat="-27.9623955" lon="152.9055718">
<ele>52.367</ele>
<time>2015-12-30T00:39:27.179Z</time>
</trkpt>
<trkpt lat="-27.9622605" lon="152.9047770">
<ele>51.717</ele>
<time>2015-12-30T00:39:30.135Z</time>
</trkpt>
<trkpt lat="-27.9620844" lon="152.9039839">
<ele>51.798</ele>
<time>2015-12-30T00:39:33.129Z</time>
</trkpt>
<trkpt lat="-27.9618807" lon="152.9032138">
<ele>52.801</ele>
<time>2015-12-30T00:39:36.083Z</time>
</trkpt>
<trkpt lat="-27.9615790" lon="152.9024563">
<ele>54.673</ele>
<time>2015-12-30T00:39:39.151Z</time>
</trkpt>
<trkpt lat="-27.9613049" lon="152.9017239">
<ele>56.368</ele>
<time>2015-12-30T00:39:42.110Z</time>
</trkpt>
<trkpt lat="-27.9611624" lon="152.9012106">
<ele>57.136</ele>
<time>2015-12-30T00:39:44.132Z</time>
</trkpt>
<trkpt lat="-27.9610364" lon="152.9004147">
<ele>57.239</ele>
<time>2015-12-30T00:39:47.170Z</time>
</trkpt>
<trkpt lat="-27.9610348" lon="152.8998825">
<ele>57.193</ele>
<time>2015-12-30T00:39:49.121Z</time>
</trkpt>
<trkpt lat="-27.9611040" lon="152.8990595">
<ele>57.141</ele>
<time>2015-12-30T00:39:52.083Z</time>
</trkpt>
<trkpt lat="-27.9612280" lon="152.8985069">
<ele>56.776</ele>
<time>2015-12-30T00:39:54.117Z</time>
</trkpt>
<trkpt lat="-27.9613884" lon="152.8979990">
<ele>55.806</ele>
<time>2015-12-30T00:39:56.083Z</time>
</trkpt>
<trkpt lat="-27.9616514" lon="152.8972668">
<ele>54.621</ele>
<time>2015-12-30T00:39:59.025Z</time>
</trkpt>
<trkpt lat="-27.9618108" lon="152.8967968">
<ele>53.240</ele>
<time>2015-12-30T00:40:00.946Z</time>
</trkpt>
<trkpt lat="-27.9620527" lon="152.8960732">
<ele>51.293</ele>
<time>2015-12-30T00:40:03.932Z</time>
</trkpt>
<trkpt lat="-27.9623162" lon="152.8953550">
<ele>49.255</ele>
<time>2015-12-30T00:40:06.943Z</time>
</trkpt>
<trkpt lat="-27.9625737" lon="152.8946524">
<ele>48.196</ele>
<time>2015-12-30T00:40:09.925Z</time>
</trkpt>
<trkpt lat="-27.9626878" lon="152.8941650">
<ele>48.270</ele>
<time>2015-12-30T00:40:11.931Z</time>
</trkpt>
<trkpt lat="-27.9627480" lon="152.8936747">
<ele>48.759</ele>
<time>2015-12-30T00:40:13.895Z</time>
</trkpt>
<trkpt lat="-27.9627238" lon="152.8931587">
<ele>49.064</ele>
<time>2015-12-30T00:40:15.893Z</time>
</trkpt>
<trkpt lat="-27.9626580" lon="152.8926119">
<ele>49.235</ele>
<time>2015-12-30T00:40:17.923Z</time>
</trkpt>
<trkpt lat="-27.9625440" lon="152.8920392">
<ele>50.563</ele>
<time>2015-12-30T00:40:20.017Z</time>
</trkpt>
<trkpt lat="-27.9624314" lon="152.8912459">
<ele>54.040</ele>
<time>2015-12-30T00:40:22.915Z</time>
</trkpt>
<trkpt lat="-27.9623161" lon="152.8904775">
<ele>58.192</ele>
<time>2015-12-30T00:40:25.833Z</time>
</trkpt>
<trkpt lat="-27.9622344" lon="152.8899740">
<ele>61.526</ele>
<time>2015-12-30T00:40:27.817Z</time>
</trkpt>
<trkpt lat="-27.9621134" lon="152.8892382">
<ele>64.135</ele>
<time>2015-12-30T00:40:30.769Z</time>
</trkpt>
<trkpt lat="-27.9619271" lon="152.8884989">
<ele>65.799</ele>
<time>2015-12-30T00:40:33.795Z</time>
</trkpt>
<trkpt lat="-27.9617463" lon="152.8880066">
<ele>66.697</ele>
<time>2015-12-30T00:40:35.858Z</time>
</trkpt>
<trkpt lat="-27.9615494" lon="152.8875501">
<ele>67.731</ele>
<time>2015-12-30T00:40:37.791Z</time>
</trkpt>
<trkpt lat="-27.9611573" lon="152.8868557">
<ele>69.351</ele>
<time>2015-12-30T00:40:40.861Z</time>
</trkpt>
<trkpt lat="-27.9606917" lon="152.8862293">
<ele>71.700</ele>
<time>2015-12-30T00:40:43.881Z</time>
</trkpt>
<trkpt lat="-27.9602538" lon="152.8856635">
<ele>74.664</ele>
<time>2015-12-30T00:40:46.735Z</time>
</trkpt>
<trkpt lat="-27.9598017" lon="152.8851037">
<ele>77.600</ele>
<time>2015-12-30T00:40:49.737Z</time>
</trkpt>
<trkpt lat="-27.9593660" lon="152.8845540">
<ele>80.118</ele>
<time>2015-12-30T00:40:52.725Z</time>
</trkpt>
<trkpt lat="-27.9588726" lon="152.8840839">
<ele>82.637</ele>
<time>2015-12-30T00:40:55.679Z</time>
</trkpt>
<trkpt lat="-27.9584961" lon="152.8838654">
<ele>85.681</ele>
<time>2015-12-30T00:40:57.612Z</time>
</trkpt>
<trkpt lat="-27.9578460" lon="152.8836790">
<ele>89.040</ele>
<time>2015-12-30T00:41:00.650Z</time>
</trkpt>
<trkpt lat="-27.9573719" lon="152.8836556">
<ele>92.185</ele>
<time>2015-12-30T00:41:02.784Z</time>
</trkpt>
<trkpt lat="-27.9564893" lon="152.8837449">
<ele>94.525</ele>
<time>2015-12-30T00:41:06.787Z</time>
</trkpt>
<trkpt lat="-27.9558485" lon="152.8838439">
<ele>95.351</ele>
<time>2015-12-30T00:41:09.781Z</time>
</trkpt>
<trkpt lat="-27.9554351" lon="152.8838942">
<ele>94.309</ele>
<time>2015-12-30T00:41:11.766Z</time>
</trkpt>
<trkpt lat="-27.9550366" lon="152.8839381">
<ele>91.995</ele>
<time>2015-12-30T00:41:13.713Z</time>
</trkpt>
<trkpt lat="-27.9546496" lon="152.8839651">
<ele>89.511</ele>
<time>2015-12-30T00:41:15.611Z</time>
</trkpt>
<trkpt lat="-27.9540269" lon="152.8838993">
<ele>87.261</ele>
<time>2015-12-30T00:41:18.635Z</time>
</trkpt>
<trkpt lat="-27.9535936" lon="152.8838179">
<ele>84.825</ele>
<time>2015-12-30T00:41:20.710Z</time>
</trkpt>
<trkpt lat="-27.9531859" lon="152.8836860">
<ele>82.336</ele>
<time>2015-12-30T00:41:22.690Z</time>
</trkpt>
<trkpt lat="-27.9527840" lon="152.8835191">
<ele>80.572</ele>
<time>2015-12-30T00:41:24.670Z</time>
</trkpt>
<trkpt lat="-27.9523763" lon="152.8833263">
<ele>79.774</ele>
<time>2015-12-30T00:41:26.680Z</time>
</trkpt>
<trkpt lat="-27.9517909" lon="152.8829757">
<ele>79.198</ele>
<time>2015-12-30T00:41:29.632Z</time>
</trkpt>
<trkpt lat="-27.9512115" lon="152.8825453">
<ele>77.638</ele>
<time>2015-12-30T00:41:32.643Z</time>
</trkpt>
<trkpt lat="-27.9506611" lon="152.8820357">
<ele>74.958</ele>
<time>2015-12-30T00:41:35.658Z</time>
</trkpt>
<trkpt lat="-27.9501601" lon="152.8814584">
<ele>72.549</ele>
<time>2015-12-30T00:41:38.635Z</time>
</trkpt>
<trkpt lat="-27.9498600" lon="152.8810090">
<ele>71.819</ele>
<time>2015-12-30T00:41:40.675Z</time>
</trkpt>
<trkpt lat="-27.9496161" lon="152.8805614">
<ele>72.748</ele>
<time>2015-12-30T00:41:42.582Z</time>
</trkpt>
<trkpt lat="-27.9492672" lon="152.8798275">
<ele>74.083</ele>
<time>2015-12-30T00:41:45.641Z</time>
</trkpt>
<trkpt lat="-27.9490807" lon="152.8793388">
<ele>75.370</ele>
<time>2015-12-30T00:41:47.622Z</time>
</trkpt>
<trkpt lat="-27.9488867" lon="152.8785820">
<ele>77.407</ele>
<time>2015-12-30T00:41:50.611Z</time>
</trkpt>
<trkpt lat="-27.9487676" lon="152.8778303">
<ele>80.408</ele>
<time>2015-12-30T00:41:53.571Z</time>
</trkpt>
<trkpt lat="-27.9487093" lon="152.8772874">
<ele>83.543</ele>
<time>2015-12-30T00:41:55.701Z</time>
</trkpt>
<trkpt lat="-27.9486520" lon="152.8767944">
<ele>86.010</ele>
<time>2015-12-30T00:41:57.659Z</time>
</trkpt>
<trkpt lat="-27.9485357" lon="152.8760794">
<ele>87.560</ele>
<time>2015-12-30T00:42:00.593Z</time>
</trkpt>
<trkpt lat="-27.9484114" lon="152.8753998">
<ele>87.511</ele>
<time>2015-12-30T00:42:03.470Z</time>
</trkpt>
<trkpt lat="-27.9482210" lon="152.8747021">
<ele>85.455</ele>
<time>2015-12-30T00:42:06.516Z</time>
</trkpt>
<trkpt lat="-27.9479967" lon="152.8742897">
<ele>82.191</ele>
<time>2015-12-30T00:42:08.503Z</time>
</trkpt>
<trkpt lat="-27.9476033" lon="152.8736722">
<ele>78.815</ele>
<time>2015-12-30T00:42:11.522Z</time>
</trkpt>
<trkpt lat="-27.9473364" lon="152.8732435">
<ele>75.963</ele>
<time>2015-12-30T00:42:13.554Z</time>
</trkpt>
<trkpt lat="-27.9471311" lon="152.8728026">
<ele>73.703</ele>
<time>2015-12-30T00:42:15.522Z</time>
</trkpt>
<trkpt lat="-27.9467984" lon="152.8718972">
<ele>71.669</ele>
<time>2015-12-30T00:42:19.488Z</time>
</trkpt>
<trkpt lat="-27.9466930" lon="152.8713942">
<ele>69.803</ele>
<time>2015-12-30T00:42:21.540Z</time>
</trkpt>
<trkpt lat="-27.9465944" lon="152.8705828">
<ele>68.333</ele>
<time>2015-12-30T00:42:24.662Z</time>
</trkpt>
<trkpt lat="-27.9466214" lon="152.8700581">
<ele>67.582</ele>
<time>2015-12-30T00:42:26.598Z</time>
</trkpt>
<trkpt lat="-27.9466226" lon="152.8695215">
<ele>67.457</ele>
<time>2015-12-30T00:42:28.581Z</time>
</trkpt>
<trkpt lat="-27.9466530" lon="152.8687401">
<ele>67.354</ele>
<time>2015-12-30T00:42:31.525Z</time>
</trkpt>
<trkpt lat="-27.9466905" lon="152.8679588">
<ele>66.901</ele>
<time>2015-12-30T00:42:34.518Z</time>
</trkpt>
<trkpt lat="-27.9467164" lon="152.8674321">
<ele>66.744</ele>
<time>2015-12-30T00:42:36.555Z</time>
</trkpt>
<trkpt lat="-27.9467577" lon="152.8663909">
<ele>67.457</ele>
<time>2015-12-30T00:42:40.523Z</time>
</trkpt>
<trkpt lat="-27.9467158" lon="152.8655824">
<ele>68.549</ele>
<time>2015-12-30T00:42:43.530Z</time>
</trkpt>
<trkpt lat="-27.9465615" lon="152.8647693">
<ele>69.415</ele>
<time>2015-12-30T00:42:46.586Z</time>
</trkpt>
<trkpt lat="-27.9464088" lon="152.8642296">
<ele>70.008</ele>
<time>2015-12-30T00:42:48.635Z</time>
</trkpt>
<trkpt lat="-27.9461811" lon="152.8637257">
<ele>70.431</ele>
<time>2015-12-30T00:42:50.691Z</time>
</trkpt>
<trkpt lat="-27.9458255" lon="152.8630666">
<ele>70.652</ele>
<time>2015-12-30T00:42:53.575Z</time>
</trkpt>
<trkpt lat="-27.9454566" lon="152.8624068">
<ele>69.682</ele>
<time>2015-12-30T00:42:56.557Z</time>
</trkpt>
<trkpt lat="-27.9450907" lon="152.8617316">
<ele>67.005</ele>
<time>2015-12-30T00:42:59.543Z</time>
</trkpt>
<trkpt lat="-27.9447006" lon="152.8610353">
<ele>64.115</ele>
<time>2015-12-30T00:43:02.563Z</time>
</trkpt>
<trkpt lat="-27.9444435" lon="152.8605563">
<ele>63.113</ele>
<time>2015-12-30T00:43:04.562Z</time>
</trkpt>
<trkpt lat="-27.9440516" lon="152.8598533">
<ele>64.163</ele>
<time>2015-12-30T00:43:07.539Z</time>
</trkpt>
<trkpt lat="-27.9438106" lon="152.8593829">
<ele>65.861</ele>
<time>2015-12-30T00:43:09.532Z</time>
</trkpt>
<trkpt lat="-27.9435060" lon="152.8586694">
<ele>67.011</ele>
<time>2015-12-30T00:43:12.486Z</time>
</trkpt>
<trkpt lat="-27.9433394" lon="152.8581703">
<ele>67.703</ele>
<time>2015-12-30T00:43:14.486Z</time>
</trkpt>
<trkpt lat="-27.9431022" lon="152.8573966">
<ele>68.394</ele>
<time>2015-12-30T00:43:17.524Z</time>
</trkpt>
<trkpt lat="-27.9429770" lon="152.8568738">
<ele>69.112</ele>
<time>2015-12-30T00:43:19.504Z</time>
</trkpt>
<trkpt lat="-27.9428759" lon="152.8563503">
<ele>69.690</ele>
<time>2015-12-30T00:43:21.442Z</time>
</trkpt>
<trkpt lat="-27.9427969" lon="152.8557823">
<ele>70.191</ele>
<time>2015-12-30T00:43:23.432Z</time>
</trkpt>
<trkpt lat="-27.9427165" lon="152.8548110">
<ele>70.848</ele>
<time>2015-12-30T00:43:26.491Z</time>
</trkpt>
<trkpt lat="-27.9426828" lon="152.8540515">
<ele>71.747</ele>
<time>2015-12-30T00:43:28.598Z</time>
</trkpt>
<trkpt lat="-27.9426845" lon="152.8528529">
<ele>71.352</ele>
<time>2015-12-30T00:43:31.758Z</time>
</trkpt>
<trkpt lat="-27.9426618" lon="152.8517473">
<ele>68.626</ele>
<time>2015-12-30T00:43:34.745Z</time>
</trkpt>
<trkpt lat="-27.9425448" lon="152.8507223">
<ele>65.871</ele>
<time>2015-12-30T00:43:37.699Z</time>
</trkpt>
<trkpt lat="-27.9423571" lon="152.8497366">
<ele>66.107</ele>
<time>2015-12-30T00:43:40.692Z</time>
</trkpt>
<trkpt lat="-27.9420897" lon="152.8487699">
<ele>69.349</ele>
<time>2015-12-30T00:43:43.815Z</time>
</trkpt>
<trkpt lat="-27.9418242" lon="152.8479359">
<ele>73.163</ele>
<time>2015-12-30T00:43:46.702Z</time>
</trkpt>
<trkpt lat="-27.9416542" lon="152.8474068">
<ele>75.148</ele>
<time>2015-12-30T00:43:48.630Z</time>
</trkpt>
<trkpt lat="-27.9413938" lon="152.8466104">
<ele>74.945</ele>
<time>2015-12-30T00:43:51.579Z</time>
</trkpt>
<trkpt lat="-27.9411467" lon="152.8457986">
<ele>73.743</ele>
<time>2015-12-30T00:43:54.551Z</time>
</trkpt>
<trkpt lat="-27.9409392" lon="152.8449219">
<ele>72.777</ele>
<time>2015-12-30T00:43:57.600Z</time>
</trkpt>
<trkpt lat="-27.9407861" lon="152.8440339">
<ele>72.399</ele>
<time>2015-12-30T00:44:00.599Z</time>
</trkpt>
<trkpt lat="-27.9407006" lon="152.8431686">
<ele>72.394</ele>
<time>2015-12-30T00:44:03.549Z</time>
</trkpt>
<trkpt lat="-27.9406603" lon="152.8425844">
<ele>71.690</ele>
<time>2015-12-30T00:44:05.535Z</time>
</trkpt>
<trkpt lat="-27.9406546" lon="152.8419738">
<ele>69.673</ele>
<time>2015-12-30T00:44:07.505Z</time>
</trkpt>
<trkpt lat="-27.9406824" lon="152.8409575">
<ele>68.245</ele>
<time>2015-12-30T00:44:10.531Z</time>
</trkpt>
<trkpt lat="-27.9407519" lon="152.8402290">
<ele>70.228</ele>
<time>2015-12-30T00:44:12.536Z</time>
</trkpt>
<trkpt lat="-27.9408765" lon="152.8394785">
<ele>76.083</ele>
<time>2015-12-30T00:44:14.590Z</time>
</trkpt>
<trkpt lat="-27.9410948" lon="152.8384614">
<ele>83.352</ele>
<time>2015-12-30T00:44:17.561Z</time>
</trkpt>
<trkpt lat="-27.9413060" lon="152.8375672">
<ele>88.747</ele>
<time>2015-12-30T00:44:20.476Z</time>
</trkpt>
<trkpt lat="-27.9414231" lon="152.8369943">
<ele>90.689</ele>
<time>2015-12-30T00:44:22.437Z</time>
</trkpt>
<trkpt lat="-27.9415587" lon="152.8361305">
<ele>89.834</ele>
<time>2015-12-30T00:44:25.410Z</time>
</trkpt>
<trkpt lat="-27.9416023" lon="152.8355565">
<ele>87.737</ele>
<time>2015-12-30T00:44:27.394Z</time>
</trkpt>
<trkpt lat="-27.9416169" lon="152.8349999">
<ele>85.579</ele>
<time>2015-12-30T00:44:29.346Z</time>
</trkpt>
<trkpt lat="-27.9415907" lon="152.8341715">
<ele>84.010</ele>
<time>2015-12-30T00:44:32.292Z</time>
</trkpt>
<trkpt lat="-27.9415408" lon="152.8336110">
<ele>83.355</ele>
<time>2015-12-30T00:44:34.300Z</time>
</trkpt>
<trkpt lat="-27.9414582" lon="152.8330463">
<ele>83.485</ele>
<time>2015-12-30T00:44:36.331Z</time>
</trkpt>
<trkpt lat="-27.9412904" lon="152.8322298">
<ele>84.813</ele>
<time>2015-12-30T00:44:39.298Z</time>
</trkpt>
<trkpt lat="-27.9410944" lon="152.8314398">
<ele>87.427</ele>
<time>2015-12-30T00:44:42.208Z</time>
</trkpt>
<trkpt lat="-27.9409353" lon="152.8309633">
<ele>89.865</ele>
<time>2015-12-30T00:44:44.021Z</time>
</trkpt>
<trkpt lat="-27.9406127" lon="152.8302294">
<ele>90.917</ele>
<time>2015-12-30T00:44:46.965Z</time>
</trkpt>
<trkpt lat="-27.9402343" lon="152.8294818">
<ele>90.964</ele>
<time>2015-12-30T00:44:50.069Z</time>
</trkpt>
<trkpt lat="-27.9399658" lon="152.8290127">
<ele>90.674</ele>
<time>2015-12-30T00:44:52.072Z</time>
</trkpt>
<trkpt lat="-27.9395045" lon="152.8283350">
<ele>90.417</ele>
<time>2015-12-30T00:44:55.114Z</time>
</trkpt>
<trkpt lat="-27.9389578" lon="152.8277024">
<ele>90.292</ele>
<time>2015-12-30T00:44:58.219Z</time>
</trkpt>
<trkpt lat="-27.9385543" lon="152.8272723">
<ele>90.562</ele>
<time>2015-12-30T00:45:00.390Z</time>
</trkpt>
<trkpt lat="-27.9381677" lon="152.8268973">
<ele>91.433</ele>
<time>2015-12-30T00:45:02.384Z</time>
</trkpt>
<trkpt lat="-27.9377694" lon="152.8265546">
<ele>92.478</ele>
<time>2015-12-30T00:45:04.381Z</time>
</trkpt>
<trkpt lat="-27.9375835" lon="152.8263772">
<ele>92.652</ele>
<time>2015-12-30T00:45:05.380Z</time>
</trkpt>
<trkpt lat="-27.9368269" lon="152.8257212">
<ele>91.569</ele>
<time>2015-12-30T00:45:09.359Z</time>
</trkpt>
<trkpt lat="-27.9364563" lon="152.8253913">
<ele>89.629</ele>
<time>2015-12-30T00:45:11.323Z</time>
</trkpt>
<trkpt lat="-27.9359122" lon="152.8248627">
<ele>87.422</ele>
<time>2015-12-30T00:45:14.282Z</time>
</trkpt>
<trkpt lat="-27.9353767" lon="152.8242810">
<ele>85.457</ele>
<time>2015-12-30T00:45:17.294Z</time>
</trkpt>
<trkpt lat="-27.9350334" lon="152.8238720">
<ele>83.853</ele>
<time>2015-12-30T00:45:19.311Z</time>
</trkpt>
<trkpt lat="-27.9347048" lon="152.8234458">
<ele>82.288</ele>
<time>2015-12-30T00:45:21.342Z</time>
</trkpt>
<trkpt lat="-27.9344035" lon="152.8230223">
<ele>80.734</ele>
<time>2015-12-30T00:45:23.303Z</time>
</trkpt>
<trkpt lat="-27.9340332" lon="152.8224020">
<ele>78.909</ele>
<time>2015-12-30T00:45:26.022Z</time>
</trkpt>
<trkpt lat="-27.9337465" lon="152.8219353">
<ele>76.269</ele>
<time>2015-12-30T00:45:28.075Z</time>
</trkpt>
<trkpt lat="-27.9334761" lon="152.8214496">
<ele>73.025</ele>
<time>2015-12-30T00:45:30.122Z</time>
</trkpt>
<trkpt lat="-27.9332183" lon="152.8209455">
<ele>70.301</ele>
<time>2015-12-30T00:45:32.168Z</time>
</trkpt>
<trkpt lat="-27.9328892" lon="152.8201770">
<ele>68.777</ele>
<time>2015-12-30T00:45:35.153Z</time>
</trkpt>
<trkpt lat="-27.9327043" lon="152.8196883">
<ele>68.235</ele>
<time>2015-12-30T00:45:37.036Z</time>
</trkpt>
<trkpt lat="-27.9325154" lon="152.8191807">
<ele>68.182</ele>
<time>2015-12-30T00:45:39.039Z</time>
</trkpt>
<trkpt lat="-27.9322871" lon="152.8184407">
<ele>68.268</ele>
<time>2015-12-30T00:45:41.991Z</time>
</trkpt>
<trkpt lat="-27.9321537" lon="152.8179443">
<ele>68.321</ele>
<time>2015-12-30T00:45:43.983Z</time>
</trkpt>
<trkpt lat="-27.9319744" lon="152.8171918">
<ele>68.846</ele>
<time>2015-12-30T00:45:46.981Z</time>
</trkpt>
<trkpt lat="-27.9318747" lon="152.8166771">
<ele>70.630</ele>
<time>2015-12-30T00:45:48.992Z</time>
</trkpt>
<trkpt lat="-27.9317233" lon="152.8158668">
<ele>73.324</ele>
<time>2015-12-30T00:45:52.090Z</time>
</trkpt>
<trkpt lat="-27.9316545" lon="152.8153080">
<ele>75.969</ele>
<time>2015-12-30T00:45:54.153Z</time>
</trkpt>
<trkpt lat="-27.9316031" lon="152.8144735">
<ele>78.183</ele>
<time>2015-12-30T00:45:57.167Z</time>
</trkpt>
<trkpt lat="-27.9315779" lon="152.8136625">
<ele>79.907</ele>
<time>2015-12-30T00:46:00.091Z</time>
</trkpt>
<trkpt lat="-27.9315888" lon="152.8128579">
<ele>80.996</ele>
<time>2015-12-30T00:46:03.029Z</time>
</trkpt>
<trkpt lat="-27.9316134" lon="152.8123294">
<ele>81.386</ele>
<time>2015-12-30T00:46:04.988Z</time>
</trkpt>
<trkpt lat="-27.9316367" lon="152.8117832">
<ele>81.187</ele>
<time>2015-12-30T00:46:07.003Z</time>
</trkpt>
<trkpt lat="-27.9316745" lon="152.8109593">
<ele>80.716</ele>
<time>2015-12-30T00:46:10.018Z</time>
</trkpt>
<trkpt lat="-27.9316786" lon="152.8101383">
<ele>80.183</ele>
<time>2015-12-30T00:46:13.019Z</time>
</trkpt>
<trkpt lat="-27.9316611" lon="152.8093250">
<ele>79.751</ele>
<time>2015-12-30T00:46:15.979Z</time>
</trkpt>
<trkpt lat="-27.9316391" lon="152.8085242">
<ele>79.292</ele>
<time>2015-12-30T00:46:18.887Z</time>
</trkpt>
<trkpt lat="-27.9316044" lon="152.8079671">
<ele>78.848</ele>
<time>2015-12-30T00:46:20.912Z</time>
</trkpt>
<trkpt lat="-27.9315671" lon="152.8074247">
<ele>78.769</ele>
<time>2015-12-30T00:46:22.876Z</time>
</trkpt>
<trkpt lat="-27.9314857" lon="152.8066054">
<ele>79.211</ele>
<time>2015-12-30T00:46:25.875Z</time>
</trkpt>
<trkpt lat="-27.9314179" lon="152.8060615">
<ele>79.920</ele>
<time>2015-12-30T00:46:27.892Z</time>
</trkpt>
<trkpt lat="-27.9313389" lon="152.8055313">
<ele>80.351</ele>
<time>2015-12-30T00:46:29.899Z</time>
</trkpt>
<trkpt lat="-27.9312374" lon="152.8047695">
<ele>80.162</ele>
<time>2015-12-30T00:46:32.835Z</time>
</trkpt>
<trkpt lat="-27.9311638" lon="152.8042645">
<ele>80.106</ele>
<time>2015-12-30T00:46:34.803Z</time>
</trkpt>
<trkpt lat="-27.9310348" lon="152.8034715">
<ele>80.998</ele>
<time>2015-12-30T00:46:37.866Z</time>
</trkpt>
<trkpt lat="-27.9308916" lon="152.8026850">
<ele>82.612</ele>
<time>2015-12-30T00:46:40.835Z</time>
</trkpt>
<trkpt lat="-27.9307905" lon="152.8021733">
<ele>84.172</ele>
<time>2015-12-30T00:46:42.744Z</time>
</trkpt>
<trkpt lat="-27.9306675" lon="152.8016417">
<ele>85.174</ele>
<time>2015-12-30T00:46:44.740Z</time>
</trkpt>
<trkpt lat="-27.9305437" lon="152.8011168">
<ele>85.685</ele>
<time>2015-12-30T00:46:46.718Z</time>
</trkpt>
<trkpt lat="-27.9304243" lon="152.8005849">
<ele>86.041</ele>
<time>2015-12-30T00:46:48.742Z</time>
</trkpt>
<trkpt lat="-27.9302142" lon="152.7997846">
<ele>86.101</ele>
<time>2015-12-30T00:46:51.823Z</time>
</trkpt>
<trkpt lat="-27.9300561" lon="152.7992668">
<ele>85.711</ele>
<time>2015-12-30T00:46:53.813Z</time>
</trkpt>
<trkpt lat="-27.9298831" lon="152.7987486">
<ele>85.447</ele>
<time>2015-12-30T00:46:55.812Z</time>
</trkpt>
<trkpt lat="-27.9296321" lon="152.7979549">
<ele>85.781</ele>
<time>2015-12-30T00:46:58.840Z</time>
</trkpt>
<trkpt lat="-27.9294551" lon="152.7974105">
<ele>86.021</ele>
<time>2015-12-30T00:47:00.916Z</time>
</trkpt>
<trkpt lat="-27.9292833" lon="152.7969264">
<ele>84.997</ele>
<time>2015-12-30T00:47:02.804Z</time>
</trkpt>
<trkpt lat="-27.9291179" lon="152.7964318">
<ele>82.551</ele>
<time>2015-12-30T00:47:04.735Z</time>
</trkpt>
<trkpt lat="-27.9288653" lon="152.7956612">
<ele>79.524</ele>
<time>2015-12-30T00:47:07.720Z</time>
</trkpt>
<trkpt lat="-27.9286980" lon="152.7951348">
<ele>76.941</ele>
<time>2015-12-30T00:47:09.747Z</time>
</trkpt>
<trkpt lat="-27.9284356" lon="152.7943517">
<ele>75.353</ele>
<time>2015-12-30T00:47:12.775Z</time>
</trkpt>
<trkpt lat="-27.9282810" lon="152.7938433">
<ele>74.081</ele>
<time>2015-12-30T00:47:14.718Z</time>
</trkpt>
<trkpt lat="-27.9280520" lon="152.7930498">
<ele>71.903</ele>
<time>2015-12-30T00:47:17.762Z</time>
</trkpt>
<trkpt lat="-27.9279500" lon="152.7925280">
<ele>68.845</ele>
<time>2015-12-30T00:47:19.731Z</time>
</trkpt>
<trkpt lat="-27.9278694" lon="152.7919943">
<ele>66.066</ele>
<time>2015-12-30T00:47:21.747Z</time>
</trkpt>
<trkpt lat="-27.9278252" lon="152.7912149">
<ele>64.351</ele>
<time>2015-12-30T00:47:24.705Z</time>
</trkpt>
<trkpt lat="-27.9278241" lon="152.7906834">
<ele>63.611</ele>
<time>2015-12-30T00:47:26.728Z</time>
</trkpt>
<trkpt lat="-27.9278680" lon="152.7901565">
<ele>63.436</ele>
<time>2015-12-30T00:47:28.722Z</time>
</trkpt>
<trkpt lat="-27.9279445" lon="152.7896466">
<ele>63.816</ele>
<time>2015-12-30T00:47:30.671Z</time>
</trkpt>
<trkpt lat="-27.9280484" lon="152.7891330">
<ele>64.535</ele>
<time>2015-12-30T00:47:32.673Z</time>
</trkpt>
<trkpt lat="-27.9282716" lon="152.7883971">
<ele>64.949</ele>
<time>2015-12-30T00:47:35.648Z</time>
</trkpt>
<trkpt lat="-27.9284537" lon="152.7879098">
<ele>64.884</ele>
<time>2015-12-30T00:47:37.653Z</time>
</trkpt>
<trkpt lat="-27.9287581" lon="152.7871777">
<ele>64.994</ele>
<time>2015-12-30T00:47:40.644Z</time>
</trkpt>
<trkpt lat="-27.9291628" lon="152.7864800">
<ele>65.643</ele>
<time>2015-12-30T00:47:43.667Z</time>
</trkpt>
<trkpt lat="-27.9296512" lon="152.7858402">
<ele>66.406</ele>
<time>2015-12-30T00:47:46.676Z</time>
</trkpt>
<trkpt lat="-27.9300139" lon="152.7853835">
<ele>66.890</ele>
<time>2015-12-30T00:47:48.787Z</time>
</trkpt>
<trkpt lat="-27.9306219" lon="152.7846025">
<ele>67.233</ele>
<time>2015-12-30T00:47:52.000Z</time>
</trkpt>
<trkpt lat="-27.9310493" lon="152.7840316">
<ele>68.863</ele>
<time>2015-12-30T00:47:54.063Z</time>
</trkpt>
<trkpt lat="-27.9317586" lon="152.7831822">
<ele>73.526</ele>
<time>2015-12-30T00:47:57.147Z</time>
</trkpt>
<trkpt lat="-27.9322521" lon="152.7827019">
<ele>80.180</ele>
<time>2015-12-30T00:47:59.113Z</time>
</trkpt>
<trkpt lat="-27.9327516" lon="152.7823046">
<ele>85.627</ele>
<time>2015-12-30T00:48:01.037Z</time>
</trkpt>
<trkpt lat="-27.9335567" lon="152.7818055">
<ele>88.260</ele>
<time>2015-12-30T00:48:04.042Z</time>
</trkpt>
<trkpt lat="-27.9343727" lon="152.7814250">
<ele>88.556</ele>
<time>2015-12-30T00:48:07.030Z</time>
</trkpt>
<trkpt lat="-27.9349230" lon="152.7812483">
<ele>87.960</ele>
<time>2015-12-30T00:48:09.019Z</time>
</trkpt>
<trkpt lat="-27.9354950" lon="152.7811361">
<ele>87.764</ele>
<time>2015-12-30T00:48:11.066Z</time>
</trkpt>
<trkpt lat="-27.9363686" lon="152.7810348">
<ele>88.878</ele>
<time>2015-12-30T00:48:14.119Z</time>
</trkpt>
<trkpt lat="-27.9369496" lon="152.7810004">
<ele>91.268</ele>
<time>2015-12-30T00:48:16.104Z</time>
</trkpt>
<trkpt lat="-27.9375199" lon="152.7809739">
<ele>93.762</ele>
<time>2015-12-30T00:48:18.084Z</time>
</trkpt>
<trkpt lat="-27.9383229" lon="152.7808878">
<ele>95.710</ele>
<time>2015-12-30T00:48:20.994Z</time>
</trkpt>
<trkpt lat="-27.9388423" lon="152.7807677">
<ele>97.368</ele>
<time>2015-12-30T00:48:22.960Z</time>
</trkpt>
<trkpt lat="-27.9396255" lon="152.7804731">
<ele>98.036</ele>
<time>2015-12-30T00:48:26.009Z</time>
</trkpt>
<trkpt lat="-27.9398673" lon="152.7803351">
<ele>96.613</ele>
<time>2015-12-30T00:48:27.014Z</time>
</trkpt>
<trkpt lat="-27.9407907" lon="152.7797077">
<ele>93.942</ele>
<time>2015-12-30T00:48:31.036Z</time>
</trkpt>
<trkpt lat="-27.9413769" lon="152.7791311">
<ele>91.859</ele>
<time>2015-12-30T00:48:33.963Z</time>
</trkpt>
<trkpt lat="-27.9417420" lon="152.7787060">
<ele>90.894</ele>
<time>2015-12-30T00:48:35.959Z</time>
</trkpt>
<trkpt lat="-27.9420781" lon="152.7782341">
<ele>90.243</ele>
<time>2015-12-30T00:48:37.993Z</time>
</trkpt>
<trkpt lat="-27.9424825" lon="152.7774632">
<ele>89.386</ele>
<time>2015-12-30T00:48:40.998Z</time>
</trkpt>
<trkpt lat="-27.9426944" lon="152.7769412">
<ele>88.624</ele>
<time>2015-12-30T00:48:42.948Z</time>
</trkpt>
<trkpt lat="-27.9428535" lon="152.7763782">
<ele>88.378</ele>
<time>2015-12-30T00:48:44.959Z</time>
</trkpt>
<trkpt lat="-27.9430162" lon="152.7755100">
<ele>88.422</ele>
<time>2015-12-30T00:48:47.935Z</time>
</trkpt>
<trkpt lat="-27.9430757" lon="152.7752131">
<ele>87.993</ele>
<time>2015-12-30T00:48:48.962Z</time>
</trkpt>
<trkpt lat="-27.9431403" lon="152.7743386">
<ele>86.596</ele>
<time>2015-12-30T00:48:51.966Z</time>
</trkpt>
<trkpt lat="-27.9431933" lon="152.7737583">
<ele>84.911</ele>
<time>2015-12-30T00:48:53.990Z</time>
</trkpt>
<trkpt lat="-27.9432972" lon="152.7728725">
<ele>83.562</ele>
<time>2015-12-30T00:48:57.040Z</time>
</trkpt>
<trkpt lat="-27.9434093" lon="152.7722483">
<ele>81.729</ele>
<time>2015-12-30T00:48:59.085Z</time>
</trkpt>
<trkpt lat="-27.9436543" lon="152.7711975">
<ele>79.117</ele>
<time>2015-12-30T00:49:02.197Z</time>
</trkpt>
<trkpt lat="-27.9439564" lon="152.7700407">
<ele>77.493</ele>
<time>2015-12-30T00:49:05.302Z</time>
</trkpt>
<trkpt lat="-27.9442654" lon="152.7687991">
<ele>77.968</ele>
<time>2015-12-30T00:49:08.463Z</time>
</trkpt>
<trkpt lat="-27.9445877" lon="152.7676181">
<ele>79.456</ele>
<time>2015-12-30T00:49:11.526Z</time>
</trkpt>
<trkpt lat="-27.9447563" lon="152.7669534">
<ele>79.435</ele>
<time>2015-12-30T00:49:13.408Z</time>
</trkpt>
<trkpt lat="-27.9449889" lon="152.7660666">
<ele>76.760</ele>
<time>2015-12-30T00:49:16.204Z</time>
</trkpt>
<trkpt lat="-27.9451397" lon="152.7654677">
<ele>73.466</ele>
<time>2015-12-30T00:49:18.208Z</time>
</trkpt>
<trkpt lat="-27.9453016" lon="152.7648931">
<ele>71.684</ele>
<time>2015-12-30T00:49:20.183Z</time>
</trkpt>
<trkpt lat="-27.9455183" lon="152.7640540">
<ele>71.160</ele>
<time>2015-12-30T00:49:23.160Z</time>
</trkpt>
<trkpt lat="-27.9456612" lon="152.7635251">
<ele>70.794</ele>
<time>2015-12-30T00:49:25.131Z</time>
</trkpt>
<trkpt lat="-27.9458725" lon="152.7627246">
<ele>69.624</ele>
<time>2015-12-30T00:49:28.121Z</time>
</trkpt>
<trkpt lat="-27.9460227" lon="152.7621908">
<ele>67.707</ele>
<time>2015-12-30T00:49:30.157Z</time>
</trkpt>
<trkpt lat="-27.9463267" lon="152.7611027">
<ele>65.671</ele>
<time>2015-12-30T00:49:34.266Z</time>
</trkpt>
<trkpt lat="-27.9464730" lon="152.7605544">
<ele>63.992</ele>
<time>2015-12-30T00:49:36.240Z</time>
</trkpt>
<trkpt lat="-27.9466076" lon="152.7599757">
<ele>63.141</ele>
<time>2015-12-30T00:49:38.234Z</time>
</trkpt>
<trkpt lat="-27.9467643" lon="152.7593350">
<ele>63.502</ele>
<time>2015-12-30T00:49:40.276Z</time>
</trkpt>
<trkpt lat="-27.9470485" lon="152.7582552">
<ele>65.778</ele>
<time>2015-12-30T00:49:43.407Z</time>
</trkpt>
<trkpt lat="-27.9473269" lon="152.7571741">
<ele>69.621</ele>
<time>2015-12-30T00:49:46.458Z</time>
</trkpt>
<trkpt lat="-27.9475703" lon="152.7562364">
<ele>72.645</ele>
<time>2015-12-30T00:49:49.319Z</time>
</trkpt>
<trkpt lat="-27.9478460" lon="152.7554069">
<ele>72.225</ele>
<time>2015-12-30T00:49:52.200Z</time>
</trkpt>
<trkpt lat="-27.9482565" lon="152.7547082">
<ele>68.655</ele>
<time>2015-12-30T00:49:55.128Z</time>
</trkpt>
<trkpt lat="-27.9488444" lon="152.7541875">
<ele>65.002</ele>
<time>2015-12-30T00:49:58.117Z</time>
</trkpt>
<trkpt lat="-27.9495446" lon="152.7538102">
<ele>63.985</ele>
<time>2015-12-30T00:50:01.180Z</time>
</trkpt>
<trkpt lat="-27.9503531" lon="152.7536099">
<ele>65.598</ele>
<time>2015-12-30T00:50:04.288Z</time>
</trkpt>
<trkpt lat="-27.9511935" lon="152.7534340">
<ele>68.047</ele>
<time>2015-12-30T00:50:07.355Z</time>
</trkpt>
<trkpt lat="-27.9517327" lon="152.7533330">
<ele>69.514</ele>
<time>2015-12-30T00:50:09.327Z</time>
</trkpt>
<trkpt lat="-27.9522593" lon="152.7532049">
<ele>69.228</ele>
<time>2015-12-30T00:50:11.359Z</time>
</trkpt>
<trkpt lat="-27.9532263" lon="152.7530225">
<ele>67.597</ele>
<time>2015-12-30T00:50:15.281Z</time>
</trkpt>
<trkpt lat="-27.9538352" lon="152.7528557">
<ele>65.555</ele>
<time>2015-12-30T00:50:18.036Z</time>
</trkpt>
<trkpt lat="-27.9543991" lon="152.7526219">
<ele>63.717</ele>
<time>2015-12-30T00:50:20.970Z</time>
</trkpt>
<trkpt lat="-27.9547321" lon="152.7524444">
<ele>62.679</ele>
<time>2015-12-30T00:50:22.906Z</time>
</trkpt>
<trkpt lat="-27.9551823" lon="152.7521077">
<ele>62.766</ele>
<time>2015-12-30T00:50:25.812Z</time>
</trkpt>
<trkpt lat="-27.9554801" lon="152.7518352">
<ele>63.321</ele>
<time>2015-12-30T00:50:27.904Z</time>
</trkpt>
<trkpt lat="-27.9558254" lon="152.7513853">
<ele>63.493</ele>
<time>2015-12-30T00:50:30.800Z</time>
</trkpt>
<trkpt lat="-27.9561727" lon="152.7508521">
<ele>63.001</ele>
<time>2015-12-30T00:50:33.874Z</time>
</trkpt>
<trkpt lat="-27.9563763" lon="152.7504397">
<ele>62.175</ele>
<time>2015-12-30T00:50:35.934Z</time>
</trkpt>
<trkpt lat="-27.9565353" lon="152.7500065">
<ele>61.305</ele>
<time>2015-12-30T00:50:37.922Z</time>
</trkpt>
<trkpt lat="-27.9566444" lon="152.7495744">
<ele>59.869</ele>
<time>2015-12-30T00:50:39.847Z</time>
</trkpt>
<trkpt lat="-27.9567402" lon="152.7491437">
<ele>57.217</ele>
<time>2015-12-30T00:50:41.804Z</time>
</trkpt>
<trkpt lat="-27.9567706" lon="152.7489312">
<ele>53.902</ele>
<time>2015-12-30T00:50:42.787Z</time>
</trkpt>
<trkpt lat="-27.9567997" lon="152.7480748">
<ele>51.329</ele>
<time>2015-12-30T00:50:46.778Z</time>
</trkpt>
<trkpt lat="-27.9567487" lon="152.7476502">
<ele>50.334</ele>
<time>2015-12-30T00:50:48.772Z</time>
</trkpt>
<trkpt lat="-27.9566339" lon="152.7470456">
<ele>51.045</ele>
<time>2015-12-30T00:50:51.651Z</time>
</trkpt>
<trkpt lat="-27.9565175" lon="152.7466374">
<ele>53.894</ele>
<time>2015-12-30T00:50:53.642Z</time>
</trkpt>
<trkpt lat="-27.9563456" lon="152.7462186">
<ele>58.289</ele>
<time>2015-12-30T00:50:55.756Z</time>
</trkpt>
<trkpt lat="-27.9560972" lon="152.7455906">
<ele>61.832</ele>
<time>2015-12-30T00:50:58.832Z</time>
</trkpt>
<trkpt lat="-27.9558378" lon="152.7449639">
<ele>63.138</ele>
<time>2015-12-30T00:51:01.880Z</time>
</trkpt>
<trkpt lat="-27.9555646" lon="152.7443410">
<ele>63.422</ele>
<time>2015-12-30T00:51:04.904Z</time>
</trkpt>
<trkpt lat="-27.9553862" lon="152.7439126">
<ele>64.197</ele>
<time>2015-12-30T00:51:06.937Z</time>
</trkpt>
<trkpt lat="-27.9552069" lon="152.7434818">
<ele>65.638</ele>
<time>2015-12-30T00:51:08.954Z</time>
</trkpt>
<trkpt lat="-27.9550711" lon="152.7430534">
<ele>67.257</ele>
<time>2015-12-30T00:51:10.886Z</time>
</trkpt>
<trkpt lat="-27.9549904" lon="152.7426349">
<ele>68.949</ele>
<time>2015-12-30T00:51:12.751Z</time>
</trkpt>
<trkpt lat="-27.9549288" lon="152.7419773">
<ele>70.944</ele>
<time>2015-12-30T00:51:15.670Z</time>
</trkpt>
<trkpt lat="-27.9549726" lon="152.7412893">
<ele>73.677</ele>
<time>2015-12-30T00:51:18.695Z</time>
</trkpt>
<trkpt lat="-27.9550675" lon="152.7408571">
<ele>76.990</ele>
<time>2015-12-30T00:51:20.648Z</time>
</trkpt>
<trkpt lat="-27.9552108" lon="152.7404269">
<ele>79.723</ele>
<time>2015-12-30T00:51:22.671Z</time>
</trkpt>
<trkpt lat="-27.9555085" lon="152.7398228">
<ele>80.850</ele>
<time>2015-12-30T00:51:25.664Z</time>
</trkpt>
<trkpt lat="-27.9558494" lon="152.7392233">
<ele>79.418</ele>
<time>2015-12-30T00:51:28.669Z</time>
</trkpt>
<trkpt lat="-27.9560839" lon="152.7388181">
<ele>75.483</ele>
<time>2015-12-30T00:51:30.679Z</time>
</trkpt>
<trkpt lat="-27.9563335" lon="152.7384216">
<ele>70.858</ele>
<time>2015-12-30T00:51:32.688Z</time>
</trkpt>
<trkpt lat="-27.9565860" lon="152.7377837">
<ele>66.944</ele>
<time>2015-12-30T00:51:35.605Z</time>
</trkpt>
<trkpt lat="-27.9566480" lon="152.7373357">
<ele>63.604</ele>
<time>2015-12-30T00:51:37.556Z</time>
</trkpt>
<trkpt lat="-27.9566615" lon="152.7366648">
<ele>60.931</ele>
<time>2015-12-30T00:51:40.522Z</time>
</trkpt>
<trkpt lat="-27.9566043" lon="152.7362260">
<ele>59.519</ele>
<time>2015-12-30T00:51:42.477Z</time>
</trkpt>
<trkpt lat="-27.9564030" lon="152.7355984">
<ele>59.400</ele>
<time>2015-12-30T00:51:45.411Z</time>
</trkpt>
<trkpt lat="-27.9561549" lon="152.7352336">
<ele>59.561</ele>
<time>2015-12-30T00:51:47.442Z</time>
</trkpt>
<trkpt lat="-27.9558930" lon="152.7349239">
<ele>59.168</ele>
<time>2015-12-30T00:51:49.373Z</time>
</trkpt>
<trkpt lat="-27.9556245" lon="152.7346548">
<ele>58.170</ele>
<time>2015-12-30T00:51:51.295Z</time>
</trkpt>
<trkpt lat="-27.9552300" lon="152.7342764">
<ele>56.769</ele>
<time>2015-12-30T00:51:54.276Z</time>
</trkpt>
<trkpt lat="-27.9549837" lon="152.7340158">
<ele>55.180</ele>
<time>2015-12-30T00:51:56.301Z</time>
</trkpt>
<trkpt lat="-27.9547668" lon="152.7337281">
<ele>53.850</ele>
<time>2015-12-30T00:51:58.319Z</time>
</trkpt>
<trkpt lat="-27.9545923" lon="152.7333924">
<ele>53.803</ele>
<time>2015-12-30T00:52:00.365Z</time>
</trkpt>
<trkpt lat="-27.9544672" lon="152.7330483">
<ele>55.725</ele>
<time>2015-12-30T00:52:02.298Z</time>
</trkpt>
<trkpt lat="-27.9543598" lon="152.7324557">
<ele>58.472</ele>
<time>2015-12-30T00:52:05.366Z</time>
</trkpt>
<trkpt lat="-27.9543511" lon="152.7320300">
<ele>60.681</ele>
<time>2015-12-30T00:52:07.478Z</time>
</trkpt>
<trkpt lat="-27.9543374" lon="152.7314691">
<ele>62.362</ele>
<time>2015-12-30T00:52:10.325Z</time>
</trkpt>
<trkpt lat="-27.9543397" lon="152.7309366">
<ele>63.608</ele>
<time>2015-12-30T00:52:13.180Z</time>
</trkpt>
<trkpt lat="-27.9543277" lon="152.7305716">
<ele>63.896</ele>
<time>2015-12-30T00:52:15.194Z</time>
</trkpt>
<trkpt lat="-27.9543149" lon="152.7303925">
<ele>63.143</ele>
<time>2015-12-30T00:52:16.203Z</time>
</trkpt>
<trkpt lat="-27.9542385" lon="152.7297914">
<ele>62.100</ele>
<time>2015-12-30T00:52:19.890Z</time>
</trkpt>
<trkpt lat="-27.9541560" lon="152.7295417">
<ele>62.813</ele>
<time>2015-12-30T00:52:21.727Z</time>
</trkpt>
<trkpt lat="-27.9540276" lon="152.7292262">
<ele>66.131</ele>
<time>2015-12-30T00:52:24.379Z</time>
</trkpt>
<trkpt lat="-27.9538280" lon="152.7288729">
<ele>69.908</ele>
<time>2015-12-30T00:52:27.566Z</time>
</trkpt>
<trkpt lat="-27.9536602" lon="152.7286610">
<ele>72.147</ele>
<time>2015-12-30T00:52:29.641Z</time>
</trkpt>
<trkpt lat="-27.9534282" lon="152.7284234">
<ele>73.157</ele>
<time>2015-12-30T00:52:32.032Z</time>
</trkpt>
<trkpt lat="-27.9531698" lon="152.7282092">
<ele>73.669</ele>
<time>2015-12-30T00:52:34.243Z</time>
</trkpt>
<trkpt lat="-27.9527780" lon="152.7279489">
<ele>74.142</ele>
<time>2015-12-30T00:52:37.271Z</time>
</trkpt>
<trkpt lat="-27.9525293" lon="152.7277956">
<ele>74.713</ele>
<time>2015-12-30T00:52:39.185Z</time>
</trkpt>
<trkpt lat="-27.9521276" lon="152.7275111">
<ele>75.177</ele>
<time>2015-12-30T00:52:42.335Z</time>
</trkpt>
<trkpt lat="-27.9518556" lon="152.7272937">
<ele>75.142</ele>
<time>2015-12-30T00:52:44.458Z</time>
</trkpt>
<trkpt lat="-27.9516201" lon="152.7270593">
<ele>74.436</ele>
<time>2015-12-30T00:52:46.428Z</time>
</trkpt>
<trkpt lat="-27.9515082" lon="152.7269458">
<ele>73.115</ele>
<time>2015-12-30T00:52:47.388Z</time>
</trkpt>
<trkpt lat="-27.9511369" lon="152.7264667">
<ele>71.572</ele>
<time>2015-12-30T00:52:51.180Z</time>
</trkpt>
<trkpt lat="-27.9509705" lon="152.7262132">
<ele>70.602</ele>
<time>2015-12-30T00:52:53.144Z</time>
</trkpt>
<trkpt lat="-27.9508114" lon="152.7258596">
<ele>70.511</ele>
<time>2015-12-30T00:52:55.831Z</time>
</trkpt>
<trkpt lat="-27.9507334" lon="152.7256705">
<ele>70.127</ele>
<time>2015-12-30T00:52:57.359Z</time>
</trkpt>
<trkpt lat="-27.9506513" lon="152.7254343">
<ele>68.569</ele>
<time>2015-12-30T00:52:59.620Z</time>
</trkpt>
<trkpt lat="-27.9505960" lon="152.7251781">
<ele>66.791</ele>
<time>2015-12-30T00:53:02.359Z</time>
</trkpt>
<trkpt lat="-27.9505595" lon="152.7250258">
<ele>65.303</ele>
<time>2015-12-30T00:53:04.220Z</time>
</trkpt>
<trkpt lat="-27.9505183" lon="152.7249065">
<ele>63.626</ele>
<time>2015-12-30T00:53:05.797Z</time>
</trkpt>
<trkpt lat="-27.9504918" lon="152.7247671">
<ele>62.235</ele>
<time>2015-12-30T00:53:07.705Z</time>
</trkpt>
<trkpt lat="-27.9504875" lon="152.7246644">
<ele>61.689</ele>
<time>2015-12-30T00:53:09.201Z</time>
</trkpt>
<trkpt lat="-27.9504629" lon="152.7245336">
<ele>61.255</ele>
<time>2015-12-30T00:53:11.345Z</time>
</trkpt>
<trkpt lat="-27.9504309" lon="152.7243698">
<ele>60.288</ele>
<time>2015-12-30T00:53:14.067Z</time>
</trkpt>
<trkpt lat="-27.9504210" lon="152.7242519">
<ele>59.254</ele>
<time>2015-12-30T00:53:15.934Z</time>
</trkpt>
<trkpt lat="-27.9504117" lon="152.7241207">
<ele>58.765</ele>
<time>2015-12-30T00:53:18.120Z</time>
</trkpt>
<trkpt lat="-27.9503980" lon="152.7239890">
<ele>58.717</ele>
<time>2015-12-30T00:53:20.561Z</time>
</trkpt>
<trkpt lat="-27.9503949" lon="152.7238728">
<ele>58.834</ele>
<time>2015-12-30T00:53:22.932Z</time>
</trkpt>
<trkpt lat="-27.9504006" lon="152.7237641">
<ele>59.195</ele>
<time>2015-12-30T00:53:25.314Z</time>
</trkpt>
<trkpt lat="-27.9503974" lon="152.7236582">
<ele>60.093</ele>
<time>2015-12-30T00:53:27.679Z</time>
</trkpt>
<trkpt lat="-27.9504372" lon="152.7234411">
<ele>61.259</ele>
<time>2015-12-30T00:53:33.283Z</time>
</trkpt>
<trkpt lat="-27.9505082" lon="152.7231314">
<ele>61.627</ele>
<time>2015-12-30T00:53:39.188Z</time>
</trkpt>
<trkpt lat="-27.9506435" lon="152.7229729">
<ele>60.770</ele>
<time>2015-12-30T00:53:42.027Z</time>
</trkpt>
<trkpt lat="-27.9508152" lon="152.7229311">
<ele>59.839</ele>
<time>2015-12-30T00:53:44.531Z</time>
</trkpt>
<trkpt lat="-27.9511618" lon="152.7229373">
<ele>60.160</ele>
<time>2015-12-30T00:53:48.896Z</time>
</trkpt>
<trkpt lat="-27.9514213" lon="152.7229110">
<ele>61.746</ele>
<time>2015-12-30T00:53:51.468Z</time>
</trkpt>
<trkpt lat="-27.9517078" lon="152.7228579">
<ele>63.763</ele>
<time>2015-12-30T00:53:53.797Z</time>
</trkpt>
<trkpt lat="-27.9521472" lon="152.7226825">
<ele>65.540</ele>
<time>2015-12-30T00:53:57.124Z</time>
</trkpt>
<trkpt lat="-27.9526265" lon="152.7223646">
<ele>66.950</ele>
<time>2015-12-30T00:54:00.631Z</time>
</trkpt>
<trkpt lat="-27.9529113" lon="152.7221399">
<ele>67.944</ele>
<time>2015-12-30T00:54:02.611Z</time>
</trkpt>
<trkpt lat="-27.9532251" lon="152.7219119">
<ele>68.399</ele>
<time>2015-12-30T00:54:04.712Z</time>
</trkpt>
<trkpt lat="-27.9536897" lon="152.7215698">
<ele>68.432</ele>
<time>2015-12-30T00:54:07.792Z</time>
</trkpt>
<trkpt lat="-27.9539767" lon="152.7212918">
<ele>68.324</ele>
<time>2015-12-30T00:54:09.824Z</time>
</trkpt>
<trkpt lat="-27.9544491" lon="152.7209455">
<ele>68.509</ele>
<time>2015-12-30T00:54:12.812Z</time>
</trkpt>
<trkpt lat="-27.9548029" lon="152.7207298">
<ele>69.225</ele>
<time>2015-12-30T00:54:14.942Z</time>
</trkpt>
<trkpt lat="-27.9549889" lon="152.7206533">
<ele>70.080</ele>
<time>2015-12-30T00:54:16.001Z</time>
</trkpt>
<trkpt lat="-27.9557671" lon="152.7204939">
<ele>70.580</ele>
<time>2015-12-30T00:54:20.160Z</time>
</trkpt>
<trkpt lat="-27.9561727" lon="152.7204621">
<ele>70.975</ele>
<time>2015-12-30T00:54:22.163Z</time>
</trkpt>
<trkpt lat="-27.9568187" lon="152.7204164">
<ele>71.751</ele>
<time>2015-12-30T00:54:25.226Z</time>
</trkpt>
<trkpt lat="-27.9575174" lon="152.7203398">
<ele>72.918</ele>
<time>2015-12-30T00:54:28.323Z</time>
</trkpt>
<trkpt lat="-27.9582464" lon="152.7202002">
<ele>74.405</ele>
<time>2015-12-30T00:54:31.394Z</time>
</trkpt>
<trkpt lat="-27.9587292" lon="152.7200720">
<ele>76.135</ele>
<time>2015-12-30T00:54:33.417Z</time>
</trkpt>
<trkpt lat="-27.9589668" lon="152.7200126">
<ele>77.549</ele>
<time>2015-12-30T00:54:34.425Z</time>
</trkpt>
<trkpt lat="-27.9599061" lon="152.7197556">
<ele>78.236</ele>
<time>2015-12-30T00:54:38.479Z</time>
</trkpt>
<trkpt lat="-27.9605696" lon="152.7195644">
<ele>78.552</ele>
<time>2015-12-30T00:54:41.417Z</time>
</trkpt>
<trkpt lat="-27.9610010" lon="152.7194056">
<ele>78.991</ele>
<time>2015-12-30T00:54:43.421Z</time>
</trkpt>
<trkpt lat="-27.9614242" lon="152.7192292">
<ele>79.457</ele>
<time>2015-12-30T00:54:45.442Z</time>
</trkpt>
<trkpt lat="-27.9620378" lon="152.7190158">
<ele>79.611</ele>
<time>2015-12-30T00:54:48.370Z</time>
</trkpt>
<trkpt lat="-27.9624767" lon="152.7189307">
<ele>79.153</ele>
<time>2015-12-30T00:54:50.410Z</time>
</trkpt>
<trkpt lat="-27.9629169" lon="152.7188839">
<ele>78.055</ele>
<time>2015-12-30T00:54:52.409Z</time>
</trkpt>
<trkpt lat="-27.9633786" lon="152.7188771">
<ele>76.966</ele>
<time>2015-12-30T00:54:54.473Z</time>
</trkpt>
<trkpt lat="-27.9638131" lon="152.7189003">
<ele>76.775</ele>
<time>2015-12-30T00:54:56.431Z</time>
</trkpt>
<trkpt lat="-27.9644678" lon="152.7189619">
<ele>77.714</ele>
<time>2015-12-30T00:54:59.420Z</time>
</trkpt>
<trkpt lat="-27.9649033" lon="152.7189991">
<ele>79.150</ele>
<time>2015-12-30T00:55:01.403Z</time>
</trkpt>
<trkpt lat="-27.9655781" lon="152.7190227">
<ele>79.593</ele>
<time>2015-12-30T00:55:04.433Z</time>
</trkpt>
<trkpt lat="-27.9662953" lon="152.7188265">
<ele>78.429</ele>
<time>2015-12-30T00:55:07.538Z</time>
</trkpt>
<trkpt lat="-27.9669947" lon="152.7183423">
<ele>77.421</ele>
<time>2015-12-30T00:55:10.715Z</time>
</trkpt>
<trkpt lat="-27.9674124" lon="152.7179348">
<ele>78.236</ele>
<time>2015-12-30T00:55:12.787Z</time>
</trkpt>
<trkpt lat="-27.9679817" lon="152.7173535">
<ele>81.006</ele>
<time>2015-12-30T00:55:15.757Z</time>
</trkpt>
<trkpt lat="-27.9683069" lon="152.7169779">
<ele>84.848</ele>
<time>2015-12-30T00:55:17.671Z</time>
</trkpt>
<trkpt lat="-27.9689718" lon="152.7162102">
<ele>87.776</ele>
<time>2015-12-30T00:55:21.647Z</time>
</trkpt>
<trkpt lat="-27.9693247" lon="152.7158330">
<ele>88.560</ele>
<time>2015-12-30T00:55:23.623Z</time>
</trkpt>
<trkpt lat="-27.9696947" lon="152.7154228">
<ele>88.104</ele>
<time>2015-12-30T00:55:25.726Z</time>
</trkpt>
<trkpt lat="-27.9702106" lon="152.7148602">
<ele>87.511</ele>
<time>2015-12-30T00:55:28.715Z</time>
</trkpt>
<trkpt lat="-27.9706537" lon="152.7143191">
<ele>87.097</ele>
<time>2015-12-30T00:55:31.585Z</time>
</trkpt>
<trkpt lat="-27.9710102" lon="152.7136788">
<ele>86.095</ele>
<time>2015-12-30T00:55:34.623Z</time>
</trkpt>
<trkpt lat="-27.9712751" lon="152.7130387">
<ele>83.870</ele>
<time>2015-12-30T00:55:37.684Z</time>
</trkpt>
<trkpt lat="-27.9714115" lon="152.7127100">
<ele>80.407</ele>
<time>2015-12-30T00:55:39.591Z</time>
</trkpt>
<trkpt lat="-27.9715943" lon="152.7123227">
<ele>75.988</ele>
<time>2015-12-30T00:55:42.357Z</time>
</trkpt>
<trkpt lat="-27.9717027" lon="152.7120982">
<ele>71.324</ele>
<time>2015-12-30T00:55:44.231Z</time>
</trkpt>
<trkpt lat="-27.9719523" lon="152.7117757">
<ele>67.593</ele>
<time>2015-12-30T00:55:47.314Z</time>
</trkpt>
<trkpt lat="-27.9722806" lon="152.7114840">
<ele>65.709</ele>
<time>2015-12-30T00:55:50.451Z</time>
</trkpt>
<trkpt lat="-27.9725102" lon="152.7113424">
<ele>65.994</ele>
<time>2015-12-30T00:55:52.338Z</time>
</trkpt>
<trkpt lat="-27.9729151" lon="152.7111986">
<ele>67.540</ele>
<time>2015-12-30T00:55:55.456Z</time>
</trkpt>
<trkpt lat="-27.9732921" lon="152.7111190">
<ele>68.941</ele>
<time>2015-12-30T00:55:58.447Z</time>
</trkpt>
<trkpt lat="-27.9735169" lon="152.7110876">
<ele>69.363</ele>
<time>2015-12-30T00:56:00.327Z</time>
</trkpt>
<trkpt lat="-27.9737521" lon="152.7110502">
<ele>69.011</ele>
<time>2015-12-30T00:56:02.294Z</time>
</trkpt>
<trkpt lat="-27.9740184" lon="152.7109979">
<ele>68.521</ele>
<time>2015-12-30T00:56:04.316Z</time>
</trkpt>
<trkpt lat="-27.9745274" lon="152.7109123">
<ele>68.492</ele>
<time>2015-12-30T00:56:07.566Z</time>
</trkpt>
<trkpt lat="-27.9750499" lon="152.7108095">
<ele>69.581</ele>
<time>2015-12-30T00:56:10.619Z</time>
</trkpt>
<trkpt lat="-27.9753829" lon="152.7107555">
<ele>71.940</ele>
<time>2015-12-30T00:56:12.555Z</time>
</trkpt>
<trkpt lat="-27.9757015" lon="152.7106788">
<ele>74.623</ele>
<time>2015-12-30T00:56:14.439Z</time>
</trkpt>
<trkpt lat="-27.9762224" lon="152.7105395">
<ele>76.593</ele>
<time>2015-12-30T00:56:17.475Z</time>
</trkpt>
<trkpt lat="-27.9767411" lon="152.7103094">
<ele>77.773</ele>
<time>2015-12-30T00:56:20.551Z</time>
</trkpt>
<trkpt lat="-27.9770328" lon="152.7100847">
<ele>78.795</ele>
<time>2015-12-30T00:56:22.542Z</time>
</trkpt>
<trkpt lat="-27.9774596" lon="152.7097506">
<ele>79.936</ele>
<time>2015-12-30T00:56:25.633Z</time>
</trkpt>
<trkpt lat="-27.9778353" lon="152.7094916">
<ele>80.554</ele>
<time>2015-12-30T00:56:28.499Z</time>
</trkpt>
<trkpt lat="-27.9780787" lon="152.7093020">
<ele>80.199</ele>
<time>2015-12-30T00:56:30.567Z</time>
</trkpt>
<trkpt lat="-27.9781882" lon="152.7092104">
<ele>79.379</ele>
<time>2015-12-30T00:56:31.541Z</time>
</trkpt>
<trkpt lat="-27.9786336" lon="152.7088481">
<ele>78.780</ele>
<time>2015-12-30T00:56:35.673Z</time>
</trkpt>
<trkpt lat="-27.9788090" lon="152.7087074">
<ele>78.471</ele>
<time>2015-12-30T00:56:37.450Z</time>
</trkpt>
<trkpt lat="-27.9789783" lon="152.7085721">
<ele>78.187</ele>
<time>2015-12-30T00:56:39.272Z</time>
</trkpt>
<trkpt lat="-27.9791676" lon="152.7084390">
<ele>77.871</ele>
<time>2015-12-30T00:56:41.247Z</time>
</trkpt>
<trkpt lat="-27.9794807" lon="152.7082038">
<ele>77.660</ele>
<time>2015-12-30T00:56:44.419Z</time>
</trkpt>
<trkpt lat="-27.9797864" lon="152.7079914">
<ele>77.917</ele>
<time>2015-12-30T00:56:47.378Z</time>
</trkpt>
<trkpt lat="-27.9799659" lon="152.7078368">
<ele>78.943</ele>
<time>2015-12-30T00:56:49.306Z</time>
</trkpt>
<trkpt lat="-27.9801689" lon="152.7076960">
<ele>80.507</ele>
<time>2015-12-30T00:56:51.354Z</time>
</trkpt>
<trkpt lat="-27.9804244" lon="152.7074599">
<ele>82.376</ele>
<time>2015-12-30T00:56:54.161Z</time>
</trkpt>
<trkpt lat="-27.9806894" lon="152.7072877">
<ele>84.609</ele>
<time>2015-12-30T00:56:56.533Z</time>
</trkpt>
<trkpt lat="-27.9809313" lon="152.7070894">
<ele>87.106</ele>
<time>2015-12-30T00:56:58.582Z</time>
</trkpt>
<trkpt lat="-27.9812007" lon="152.7068658">
<ele>89.842</ele>
<time>2015-12-30T00:57:00.726Z</time>
</trkpt>
<trkpt lat="-27.9817656" lon="152.7063613">
<ele>93.026</ele>
<time>2015-12-30T00:57:04.997Z</time>
</trkpt>
<trkpt lat="-27.9820116" lon="152.7060929">
<ele>96.624</ele>
<time>2015-12-30T00:57:06.946Z</time>
</trkpt>
<trkpt lat="-27.9823553" lon="152.7056101">
<ele>100.246</ele>
<time>2015-12-30T00:57:10.027Z</time>
</trkpt>
<trkpt lat="-27.9825705" lon="152.7052835">
<ele>103.814</ele>
<time>2015-12-30T00:57:12.026Z</time>
</trkpt>
<trkpt lat="-27.9827423" lon="152.7049289">
<ele>107.256</ele>
<time>2015-12-30T00:57:13.996Z</time>
</trkpt>
<trkpt lat="-27.9830015" lon="152.7043767">
<ele>110.220</ele>
<time>2015-12-30T00:57:17.031Z</time>
</trkpt>
<trkpt lat="-27.9832441" lon="152.7038310">
<ele>112.827</ele>
<time>2015-12-30T00:57:20.105Z</time>
</trkpt>
<trkpt lat="-27.9834902" lon="152.7033742">
<ele>115.506</ele>
<time>2015-12-30T00:57:23.131Z</time>
</trkpt>
<trkpt lat="-27.9837257" lon="152.7030242">
<ele>117.895</ele>
<time>2015-12-30T00:57:26.012Z</time>
</trkpt>
<trkpt lat="-27.9839404" lon="152.7026930">
<ele>119.330</ele>
<time>2015-12-30T00:57:28.933Z</time>
</trkpt>
<trkpt lat="-27.9841272" lon="152.7024972">
<ele>120.184</ele>
<time>2015-12-30T00:57:31.017Z</time>
</trkpt>
<trkpt lat="-27.9843053" lon="152.7022995">
<ele>121.373</ele>
<time>2015-12-30T00:57:33.074Z</time>
</trkpt>
<trkpt lat="-27.9846795" lon="152.7019100">
<ele>122.781</ele>
<time>2015-12-30T00:57:36.977Z</time>
</trkpt>
<trkpt lat="-27.9850735" lon="152.7015805">
<ele>124.072</ele>
<time>2015-12-30T00:57:40.313Z</time>
</trkpt>
<trkpt lat="-27.9854470" lon="152.7012578">
<ele>125.804</ele>
<time>2015-12-30T00:57:43.389Z</time>
</trkpt>
<trkpt lat="-27.9856892" lon="152.7010624">
<ele>128.280</ele>
<time>2015-12-30T00:57:45.383Z</time>
</trkpt>
<trkpt lat="-27.9859990" lon="152.7007512">
<ele>130.662</ele>
<time>2015-12-30T00:57:48.220Z</time>
</trkpt>
<trkpt lat="-27.9862119" lon="152.7005376">
<ele>131.892</ele>
<time>2015-12-30T00:57:50.196Z</time>
</trkpt>
<trkpt lat="-27.9864447" lon="152.7003410">
<ele>131.435</ele>
<time>2015-12-30T00:57:52.217Z</time>
</trkpt>
<trkpt lat="-27.9866835" lon="152.7001316">
<ele>129.578</ele>
<time>2015-12-30T00:57:54.346Z</time>
</trkpt>
<trkpt lat="-27.9869002" lon="152.6999446">
<ele>127.359</ele>
<time>2015-12-30T00:57:56.298Z</time>
</trkpt>
<trkpt lat="-27.9872195" lon="152.6996457">
<ele>125.487</ele>
<time>2015-12-30T00:57:59.304Z</time>
</trkpt>
<trkpt lat="-27.9874446" lon="152.6994722">
<ele>123.431</ele>
<time>2015-12-30T00:58:01.318Z</time>
</trkpt>
<trkpt lat="-27.9876459" lon="152.6992887">
<ele>120.709</ele>
<time>2015-12-30T00:58:03.278Z</time>
</trkpt>
<trkpt lat="-27.9879633" lon="152.6990024">
<ele>117.908</ele>
<time>2015-12-30T00:58:06.425Z</time>
</trkpt>
<trkpt lat="-27.9882522" lon="152.6987294">
<ele>115.297</ele>
<time>2015-12-30T00:58:09.362Z</time>
</trkpt>
<trkpt lat="-27.9884248" lon="152.6985278">
<ele>112.419</ele>
<time>2015-12-30T00:58:11.236Z</time>
</trkpt>
<trkpt lat="-27.9887289" lon="152.6982161">
<ele>109.535</ele>
<time>2015-12-30T00:58:14.290Z</time>
</trkpt>
<trkpt lat="-27.9889346" lon="152.6980197">
<ele>107.085</ele>
<time>2015-12-30T00:58:16.269Z</time>
</trkpt>
<trkpt lat="-27.9891216" lon="152.6978077">
<ele>104.825</ele>
<time>2015-12-30T00:58:18.191Z</time>
</trkpt>
<trkpt lat="-27.9893141" lon="152.6975871">
<ele>102.653</ele>
<time>2015-12-30T00:58:20.167Z</time>
</trkpt>
<trkpt lat="-27.9895743" lon="152.6972246">
<ele>100.969</ele>
<time>2015-12-30T00:58:23.124Z</time>
</trkpt>
<trkpt lat="-27.9897422" lon="152.6969682">
<ele>99.494</ele>
<time>2015-12-30T00:58:25.068Z</time>
</trkpt>
<trkpt lat="-27.9899178" lon="152.6965058">
<ele>97.493</ele>
<time>2015-12-30T00:58:28.015Z</time>
</trkpt>
<trkpt lat="-27.9899933" lon="152.6961539">
<ele>94.988</ele>
<time>2015-12-30T00:58:30.088Z</time>
</trkpt>
<trkpt lat="-27.9900780" lon="152.6956503">
<ele>92.632</ele>
<time>2015-12-30T00:58:33.097Z</time>
</trkpt>
<trkpt lat="-27.9901294" lon="152.6951663">
<ele>90.979</ele>
<time>2015-12-30T00:58:36.125Z</time>
</trkpt>
<trkpt lat="-27.9901242" lon="152.6947165">
<ele>90.522</ele>
<time>2015-12-30T00:58:39.203Z</time>
</trkpt>
<trkpt lat="-27.9901325" lon="152.6943416">
<ele>91.371</ele>
<time>2015-12-30T00:58:42.206Z</time>
</trkpt>
<trkpt lat="-27.9901422" lon="152.6941535">
<ele>92.874</ele>
<time>2015-12-30T00:58:44.071Z</time>
</trkpt>
<trkpt lat="-27.9901559" lon="152.6938750">
<ele>94.131</ele>
<time>2015-12-30T00:58:47.213Z</time>
</trkpt>
<trkpt lat="-27.9901798" lon="152.6936322">
<ele>94.959</ele>
<time>2015-12-30T00:58:50.130Z</time>
</trkpt>
<trkpt lat="-27.9902091" lon="152.6934405">
<ele>95.812</ele>
<time>2015-12-30T00:58:52.208Z</time>
</trkpt>
<trkpt lat="-27.9902631" lon="152.6932436">
<ele>96.961</ele>
<time>2015-12-30T00:58:54.227Z</time>
</trkpt>
<trkpt lat="-27.9903767" lon="152.6929548">
<ele>98.253</ele>
<time>2015-12-30T00:58:57.239Z</time>
</trkpt>
<trkpt lat="-27.9905331" lon="152.6926956">
<ele>99.328</ele>
<time>2015-12-30T00:59:00.178Z</time>
</trkpt>
<trkpt lat="-27.9906155" lon="152.6924920">
<ele>99.943</ele>
<time>2015-12-30T00:59:02.264Z</time>
</trkpt>
<trkpt lat="-27.9907568" lon="152.6922227">
<ele>100.111</ele>
<time>2015-12-30T00:59:05.237Z</time>
</trkpt>
<trkpt lat="-27.9908516" lon="152.6920574">
<ele>99.849</ele>
<time>2015-12-30T00:59:07.148Z</time>
</trkpt>
<trkpt lat="-27.9909375" lon="152.6918759">
<ele>99.128</ele>
<time>2015-12-30T00:59:09.050Z</time>
</trkpt>
<trkpt lat="-27.9910321" lon="152.6916557">
<ele>98.275</ele>
<time>2015-12-30T00:59:11.078Z</time>
</trkpt>
<trkpt lat="-27.9911574" lon="152.6914230">
<ele>97.713</ele>
<time>2015-12-30T00:59:13.090Z</time>
</trkpt>
<trkpt lat="-27.9913081" lon="152.6911803">
<ele>97.403</ele>
<time>2015-12-30T00:59:15.131Z</time>
</trkpt>
<trkpt lat="-27.9915221" lon="152.6908009">
<ele>97.028</ele>
<time>2015-12-30T00:59:18.159Z</time>
</trkpt>
<trkpt lat="-27.9916808" lon="152.6905570">
<ele>96.188</ele>
<time>2015-12-30T00:59:20.271Z</time>
</trkpt>
<trkpt lat="-27.9917832" lon="152.6903115">
<ele>94.796</ele>
<time>2015-12-30T00:59:22.214Z</time>
</trkpt>
<trkpt lat="-27.9920346" lon="152.6898140">
<ele>93.423</ele>
<time>2015-12-30T00:59:26.129Z</time>
</trkpt>
<trkpt lat="-27.9921462" lon="152.6893470">
<ele>92.700</ele>
<time>2015-12-30T00:59:29.119Z</time>
</trkpt>
<trkpt lat="-27.9922318" lon="152.6888480">
<ele>92.650</ele>
<time>2015-12-30T00:59:32.170Z</time>
</trkpt>
<trkpt lat="-27.9923237" lon="152.6883880">
<ele>93.346</ele>
<time>2015-12-30T00:59:35.079Z</time>
</trkpt>
<trkpt lat="-27.9923903" lon="152.6879245">
<ele>95.022</ele>
<time>2015-12-30T00:59:38.058Z</time>
</trkpt>
<trkpt lat="-27.9924579" lon="152.6876130">
<ele>97.329</ele>
<time>2015-12-30T00:59:40.139Z</time>
</trkpt>
<trkpt lat="-27.9925537" lon="152.6871919">
<ele>99.476</ele>
<time>2015-12-30T00:59:42.995Z</time>
</trkpt>
<trkpt lat="-27.9926439" lon="152.6867495">
<ele>100.934</ele>
<time>2015-12-30T00:59:45.922Z</time>
</trkpt>
<trkpt lat="-27.9927245" lon="152.6864267">
<ele>101.357</ele>
<time>2015-12-30T00:59:47.985Z</time>
</trkpt>
<trkpt lat="-27.9927840" lon="152.6861049">
<ele>100.794</ele>
<time>2015-12-30T00:59:50.006Z</time>
</trkpt>
<trkpt lat="-27.9929125" lon="152.6856610">
<ele>99.885</ele>
<time>2015-12-30T00:59:52.973Z</time>
</trkpt>
<trkpt lat="-27.9930329" lon="152.6852430">
<ele>98.985</ele>
<time>2015-12-30T00:59:55.974Z</time>
</trkpt>
<trkpt lat="-27.9931040" lon="152.6849927">
<ele>97.519</ele>
<time>2015-12-30T00:59:57.962Z</time>
</trkpt>
<trkpt lat="-27.9932057" lon="152.6846499">
<ele>95.149</ele>
<time>2015-12-30T01:00:00.910Z</time>
</trkpt>
<trkpt lat="-27.9932935" lon="152.6843398">
<ele>92.444</ele>
<time>2015-12-30T01:00:03.730Z</time>
</trkpt>
<trkpt lat="-27.9933691" lon="152.6841194">
<ele>90.232</ele>
<time>2015-12-30T01:00:05.804Z</time>
</trkpt>
<trkpt lat="-27.9934320" lon="152.6839121">
<ele>88.754</ele>
<time>2015-12-30T01:00:07.806Z</time>
</trkpt>
<trkpt lat="-27.9934996" lon="152.6837305">
<ele>87.879</ele>
<time>2015-12-30T01:00:09.795Z</time>
</trkpt>
<trkpt lat="-27.9935735" lon="152.6834752">
<ele>87.489</ele>
<time>2015-12-30T01:00:12.869Z</time>
</trkpt>
<trkpt lat="-27.9936461" lon="152.6832650">
<ele>87.482</ele>
<time>2015-12-30T01:00:15.727Z</time>
</trkpt>
<trkpt lat="-27.9937142" lon="152.6830362">
<ele>87.662</ele>
<time>2015-12-30T01:00:18.686Z</time>
</trkpt>
<trkpt lat="-27.9938885" lon="152.6827860">
<ele>87.989</ele>
<time>2015-12-30T01:00:21.976Z</time>
</trkpt>
<trkpt lat="-27.9940294" lon="152.6826374">
<ele>88.704</ele>
<time>2015-12-30T01:00:24.003Z</time>
</trkpt>
<trkpt lat="-27.9941897" lon="152.6824872">
<ele>89.854</ele>
<time>2015-12-30T01:00:26.285Z</time>
</trkpt>
<trkpt lat="-27.9943384" lon="152.6823991">
<ele>90.822</ele>
<time>2015-12-30T01:00:28.229Z</time>
</trkpt>
<trkpt lat="-27.9944789" lon="152.6822945">
<ele>91.174</ele>
<time>2015-12-30T01:00:30.151Z</time>
</trkpt>
<trkpt lat="-27.9946917" lon="152.6821309">
<ele>91.158</ele>
<time>2015-12-30T01:00:32.939Z</time>
</trkpt>
<trkpt lat="-27.9948889" lon="152.6820189">
<ele>91.460</ele>
<time>2015-12-30T01:00:35.287Z</time>
</trkpt>
<trkpt lat="-27.9951105" lon="152.6819307">
<ele>92.412</ele>
<time>2015-12-30T01:00:38.233Z</time>
</trkpt>
<trkpt lat="-27.9952061" lon="152.6818901">
<ele>93.318</ele>
<time>2015-12-30T01:00:40.138Z</time>
</trkpt>
<trkpt lat="-27.9952965" lon="152.6818379">
<ele>93.450</ele>
<time>2015-12-30T01:00:42.447Z</time>
</trkpt>
<trkpt lat="-27.9954150" lon="152.6818020">
<ele>93.021</ele>
<time>2015-12-30T01:00:45.747Z</time>
</trkpt>
<trkpt lat="-27.9955229" lon="152.6817783">
<ele>92.694</ele>
<time>2015-12-30T01:00:48.183Z</time>
</trkpt>
<trkpt lat="-27.9956288" lon="152.6817785">
<ele>92.891</ele>
<time>2015-12-30T01:00:50.299Z</time>
</trkpt>
<trkpt lat="-27.9957188" lon="152.6818237">
<ele>93.504</ele>
<time>2015-12-30T01:00:52.662Z</time>
</trkpt>
<trkpt lat="-27.9957744" lon="152.6819189">
<ele>94.142</ele>
<time>2015-12-30T01:00:55.661Z</time>
</trkpt>
<trkpt lat="-27.9957883" lon="152.6820430">
<ele>94.490</ele>
<time>2015-12-30T01:00:59.077Z</time>
</trkpt>
<trkpt lat="-27.9958030" lon="152.6821634">
<ele>94.501</ele>
<time>2015-12-30T01:01:02.343Z</time>
</trkpt>
<trkpt lat="-27.9958510" lon="152.6822664">
<ele>94.263</ele>
<time>2015-12-30T01:01:05.808Z</time>
</trkpt>
<trkpt lat="-27.9959036" lon="152.6821838">
<ele>93.774</ele>
<time>2015-12-30T01:01:09.832Z</time>
</trkpt>
<trkpt lat="-27.9958679" lon="152.6820842">
<ele>93.152</ele>
<time>2015-12-30T01:01:14.027Z</time>
</trkpt>
<trkpt lat="-27.9958694" lon="152.6819617">
<ele>92.701</ele>
<time>2015-12-30T01:01:18.000Z</time>
</trkpt>
<trkpt lat="-27.9958694" lon="152.6819617">
<ele>92.539</ele>
<time>2015-12-30T01:01:21.000Z</time>
</trkpt>
<trkpt lat="-27.9958694" lon="152.6819617">
<ele>92.536</ele>
<time>2015-12-30T02:22:03.477Z</time>
</trkpt>
<trkpt lat="-27.9957775" lon="152.6817613">
<ele>92.566</ele>
<time>2015-12-30T02:22:16.098Z</time>
</trkpt>
<trkpt lat="-27.9955276" lon="152.6817278">
<ele>94.216</ele>
<time>2015-12-30T02:22:19.287Z</time>
</trkpt>
<trkpt lat="-27.9951770" lon="152.6818583">
<ele>98.648</ele>
<time>2015-12-30T02:22:22.719Z</time>
</trkpt>
<trkpt lat="-27.9948397" lon="152.6820103">
<ele>103.485</ele>
<time>2015-12-30T02:22:25.702Z</time>
</trkpt>
<trkpt lat="-27.9946102" lon="152.6821287">
<ele>105.522</ele>
<time>2015-12-30T02:22:27.749Z</time>
</trkpt>
<trkpt lat="-27.9942728" lon="152.6822924">
<ele>104.680</ele>
<time>2015-12-30T02:22:31.007Z</time>
</trkpt>
<trkpt lat="-27.9940611" lon="152.6823664">
<ele>102.721</ele>
<time>2015-12-30T02:22:33.327Z</time>
</trkpt>
<trkpt lat="-27.9938676" lon="152.6823556">
<ele>100.984</ele>
<time>2015-12-30T02:22:35.623Z</time>
</trkpt>
<trkpt lat="-27.9936358" lon="152.6824108">
<ele>99.724</ele>
<time>2015-12-30T02:22:38.653Z</time>
</trkpt>
<trkpt lat="-27.9935609" lon="152.6825315">
<ele>98.907</ele>
<time>2015-12-30T02:22:40.194Z</time>
</trkpt>
<trkpt lat="-27.9936047" lon="152.6828587">
<ele>98.397</ele>
<time>2015-12-30T02:22:42.774Z</time>
</trkpt>
<trkpt lat="-27.9935749" lon="152.6831203">
<ele>98.458</ele>
<time>2015-12-30T02:22:44.554Z</time>
</trkpt>
<trkpt lat="-27.9934633" lon="152.6835856">
<ele>99.352</ele>
<time>2015-12-30T02:22:47.482Z</time>
</trkpt>
<trkpt lat="-27.9933232" lon="152.6840773">
<ele>100.715</ele>
<time>2015-12-30T02:22:50.470Z</time>
</trkpt>
<trkpt lat="-27.9931661" lon="152.6845861">
<ele>102.025</ele>
<time>2015-12-30T02:22:53.573Z</time>
</trkpt>
<trkpt lat="-27.9930222" lon="152.6850733">
<ele>102.977</ele>
<time>2015-12-30T02:22:56.573Z</time>
</trkpt>
<trkpt lat="-27.9929331" lon="152.6854017">
<ele>103.513</ele>
<time>2015-12-30T02:22:58.601Z</time>
</trkpt>
<trkpt lat="-27.9928039" lon="152.6858825">
<ele>103.922</ele>
<time>2015-12-30T02:23:01.614Z</time>
</trkpt>
<trkpt lat="-27.9926870" lon="152.6863593">
<ele>104.842</ele>
<time>2015-12-30T02:23:04.749Z</time>
</trkpt>
<trkpt lat="-27.9926209" lon="152.6866526">
<ele>106.415</ele>
<time>2015-12-30T02:23:06.734Z</time>
</trkpt>
<trkpt lat="-27.9925227" lon="152.6870954">
<ele>108.004</ele>
<time>2015-12-30T02:23:09.727Z</time>
</trkpt>
<trkpt lat="-27.9924375" lon="152.6875324">
<ele>109.094</ele>
<time>2015-12-30T02:23:12.759Z</time>
</trkpt>
<trkpt lat="-27.9923841" lon="152.6878316">
<ele>109.877</ele>
<time>2015-12-30T02:23:14.885Z</time>
</trkpt>
<trkpt lat="-27.9923297" lon="152.6881066">
<ele>110.583</ele>
<time>2015-12-30T02:23:16.820Z</time>
</trkpt>
<trkpt lat="-27.9922246" lon="152.6885427">
<ele>111.168</ele>
<time>2015-12-30T02:23:19.719Z</time>
</trkpt>
<trkpt lat="-27.9921087" lon="152.6890063">
<ele>111.386</ele>
<time>2015-12-30T02:23:22.691Z</time>
</trkpt>
<trkpt lat="-27.9920082" lon="152.6894839">
<ele>110.532</ele>
<time>2015-12-30T02:23:25.703Z</time>
</trkpt>
<trkpt lat="-27.9918596" lon="152.6899184">
<ele>108.389</ele>
<time>2015-12-30T02:23:28.652Z</time>
</trkpt>
<trkpt lat="-27.9917454" lon="152.6901961">
<ele>106.088</ele>
<time>2015-12-30T02:23:30.612Z</time>
</trkpt>
<trkpt lat="-27.9915421" lon="152.6906079">
<ele>104.600</ele>
<time>2015-12-30T02:23:33.627Z</time>
</trkpt>
<trkpt lat="-27.9913311" lon="152.6910104">
<ele>103.950</ele>
<time>2015-12-30T02:23:36.694Z</time>
</trkpt>
<trkpt lat="-27.9911931" lon="152.6912707">
<ele>104.097</ele>
<time>2015-12-30T02:23:38.693Z</time>
</trkpt>
<trkpt lat="-27.9909862" lon="152.6916712">
<ele>104.982</ele>
<time>2015-12-30T02:23:41.650Z</time>
</trkpt>
<trkpt lat="-27.9907719" lon="152.6920745">
<ele>106.527</ele>
<time>2015-12-30T02:23:44.543Z</time>
</trkpt>
<trkpt lat="-27.9906241" lon="152.6923639">
<ele>108.659</ele>
<time>2015-12-30T02:23:46.563Z</time>
</trkpt>
<trkpt lat="-27.9903955" lon="152.6927834">
<ele>111.029</ele>
<time>2015-12-30T02:23:49.538Z</time>
</trkpt>
<trkpt lat="-27.9902635" lon="152.6930785">
<ele>113.103</ele>
<time>2015-12-30T02:23:51.501Z</time>
</trkpt>
<trkpt lat="-27.9901126" lon="152.6935625">
<ele>114.600</ele>
<time>2015-12-30T02:23:54.427Z</time>
</trkpt>
<trkpt lat="-27.9900711" lon="152.6939181">
<ele>115.485</ele>
<time>2015-12-30T02:23:56.358Z</time>
</trkpt>
<trkpt lat="-27.9900641" lon="152.6943021">
<ele>115.947</ele>
<time>2015-12-30T02:23:58.353Z</time>
</trkpt>
<trkpt lat="-27.9900659" lon="152.6948773">
<ele>116.168</ele>
<time>2015-12-30T02:24:01.277Z</time>
</trkpt>
<trkpt lat="-27.9900513" lon="152.6952691">
<ele>115.657</ele>
<time>2015-12-30T02:24:03.230Z</time>
</trkpt>
<trkpt lat="-27.9900264" lon="152.6958685">
<ele>113.892</ele>
<time>2015-12-30T02:24:06.255Z</time>
</trkpt>
<trkpt lat="-27.9899460" lon="152.6962383">
<ele>111.236</ele>
<time>2015-12-30T02:24:08.259Z</time>
</trkpt>
<trkpt lat="-27.9897650" lon="152.6967482">
<ele>108.737</ele>
<time>2015-12-30T02:24:11.189Z</time>
</trkpt>
<trkpt lat="-27.9895734" lon="152.6970745">
<ele>107.239</ele>
<time>2015-12-30T02:24:13.285Z</time>
</trkpt>
<trkpt lat="-27.9892525" lon="152.6974991">
<ele>107.068</ele>
<time>2015-12-30T02:24:16.310Z</time>
</trkpt>
<trkpt lat="-27.9889256" lon="152.6978936">
<ele>108.538</ele>
<time>2015-12-30T02:24:19.219Z</time>
</trkpt>
<trkpt lat="-27.9886976" lon="152.6981761">
<ele>111.383</ele>
<time>2015-12-30T02:24:21.223Z</time>
</trkpt>
<trkpt lat="-27.9884522" lon="152.6984317">
<ele>114.462</ele>
<time>2015-12-30T02:24:23.185Z</time>
</trkpt>
<trkpt lat="-27.9880669" lon="152.6988197">
<ele>117.304</ele>
<time>2015-12-30T02:24:26.255Z</time>
</trkpt>
<trkpt lat="-27.9878136" lon="152.6990385">
<ele>120.345</ele>
<time>2015-12-30T02:24:28.211Z</time>
</trkpt>
<trkpt lat="-27.9874309" lon="152.6994041">
<ele>123.645</ele>
<time>2015-12-30T02:24:31.359Z</time>
</trkpt>
<trkpt lat="-27.9870639" lon="152.6997128">
<ele>126.766</ele>
<time>2015-12-30T02:24:34.260Z</time>
</trkpt>
<trkpt lat="-27.9868163" lon="152.6999266">
<ele>129.456</ele>
<time>2015-12-30T02:24:36.128Z</time>
</trkpt>
<trkpt lat="-27.9864079" lon="152.7002798">
<ele>131.979</ele>
<time>2015-12-30T02:24:39.109Z</time>
</trkpt>
<trkpt lat="-27.9861329" lon="152.7005015">
<ele>134.753</ele>
<time>2015-12-30T02:24:41.042Z</time>
</trkpt>
<trkpt lat="-27.9857100" lon="152.7008618">
<ele>137.494</ele>
<time>2015-12-30T02:24:44.039Z</time>
</trkpt>
<trkpt lat="-27.9852919" lon="152.7013018">
<ele>139.142</ele>
<time>2015-12-30T02:24:47.157Z</time>
</trkpt>
<trkpt lat="-27.9849979" lon="152.7015665">
<ele>139.325</ele>
<time>2015-12-30T02:24:49.116Z</time>
</trkpt>
<trkpt lat="-27.9847035" lon="152.7018618">
<ele>139.066</ele>
<time>2015-12-30T02:24:51.126Z</time>
</trkpt>
<trkpt lat="-27.9842765" lon="152.7023148">
<ele>139.471</ele>
<time>2015-12-30T02:24:54.063Z</time>
</trkpt>
<trkpt lat="-27.9838542" lon="152.7028341">
<ele>140.277</ele>
<time>2015-12-30T02:24:57.152Z</time>
</trkpt>
<trkpt lat="-27.9834843" lon="152.7033733">
<ele>140.562</ele>
<time>2015-12-30T02:25:00.156Z</time>
</trkpt>
<trkpt lat="-27.9832766" lon="152.7037224">
<ele>139.861</ele>
<time>2015-12-30T02:25:02.005Z</time>
</trkpt>
<trkpt lat="-27.9829808" lon="152.7043076">
<ele>138.037</ele>
<time>2015-12-30T02:25:04.947Z</time>
</trkpt>
<trkpt lat="-27.9827176" lon="152.7049170">
<ele>134.790</ele>
<time>2015-12-30T02:25:07.896Z</time>
</trkpt>
<trkpt lat="-27.9825045" lon="152.7053278">
<ele>130.701</ele>
<time>2015-12-30T02:25:09.970Z</time>
</trkpt>
<trkpt lat="-27.9822660" lon="152.7056999">
<ele>126.916</ele>
<time>2015-12-30T02:25:11.958Z</time>
</trkpt>
<trkpt lat="-27.9818674" lon="152.7062112">
<ele>124.016</ele>
<time>2015-12-30T02:25:14.748Z</time>
</trkpt>
<trkpt lat="-27.9813290" lon="152.7067145">
<ele>121.647</ele>
<time>2015-12-30T02:25:17.654Z</time>
</trkpt>
<trkpt lat="-27.9808905" lon="152.7070831">
<ele>119.456</ele>
<time>2015-12-30T02:25:19.738Z</time>
</trkpt>
<trkpt lat="-27.9804586" lon="152.7074083">
<ele>117.655</ele>
<time>2015-12-30T02:25:21.761Z</time>
</trkpt>
<trkpt lat="-27.9798486" lon="152.7078765">
<ele>116.555</ele>
<time>2015-12-30T02:25:24.718Z</time>
</trkpt>
<trkpt lat="-27.9792506" lon="152.7083424">
<ele>114.777</ele>
<time>2015-12-30T02:25:27.748Z</time>
</trkpt>
<trkpt lat="-27.9786890" lon="152.7087988">
<ele>110.509</ele>
<time>2015-12-30T02:25:30.766Z</time>
</trkpt>
<trkpt lat="-27.9781389" lon="152.7092260">
<ele>104.300</ele>
<time>2015-12-30T02:25:33.791Z</time>
</trkpt>
<trkpt lat="-27.9777844" lon="152.7095038">
<ele>98.857</ele>
<time>2015-12-30T02:25:35.785Z</time>
</trkpt>
<trkpt lat="-27.9774354" lon="152.7097787">
<ele>95.778</ele>
<time>2015-12-30T02:25:37.764Z</time>
</trkpt>
<trkpt lat="-27.9770807" lon="152.7100478">
<ele>94.585</ele>
<time>2015-12-30T02:25:39.774Z</time>
</trkpt>
<trkpt lat="-27.9765340" lon="152.7103800">
<ele>93.825</ele>
<time>2015-12-30T02:25:42.725Z</time>
</trkpt>
<trkpt lat="-27.9761418" lon="152.7105296">
<ele>92.623</ele>
<time>2015-12-30T02:25:44.706Z</time>
</trkpt>
<trkpt lat="-27.9755218" lon="152.7106753">
<ele>90.910</ele>
<time>2015-12-30T02:25:47.727Z</time>
</trkpt>
<trkpt lat="-27.9751006" lon="152.7107503">
<ele>88.763</ele>
<time>2015-12-30T02:25:49.734Z</time>
</trkpt>
<trkpt lat="-27.9744607" lon="152.7108567">
<ele>86.080</ele>
<time>2015-12-30T02:25:52.743Z</time>
</trkpt>
<trkpt lat="-27.9738230" lon="152.7109712">
<ele>83.198</ele>
<time>2015-12-30T02:25:55.732Z</time>
</trkpt>
<trkpt lat="-27.9733990" lon="152.7110507">
<ele>80.548</ele>
<time>2015-12-30T02:25:57.798Z</time>
</trkpt>
<trkpt lat="-27.9728119" lon="152.7111687">
<ele>78.528</ele>
<time>2015-12-30T02:26:00.776Z</time>
</trkpt>
<trkpt lat="-27.9724455" lon="152.7113009">
<ele>77.213</ele>
<time>2015-12-30T02:26:02.776Z</time>
</trkpt>
<trkpt lat="-27.9719682" lon="152.7116481">
<ele>76.070</ele>
<time>2015-12-30T02:26:05.727Z</time>
</trkpt>
<trkpt lat="-27.9717066" lon="152.7119774">
<ele>74.726</ele>
<time>2015-12-30T02:26:07.662Z</time>
</trkpt>
<trkpt lat="-27.9713966" lon="152.7126125">
<ele>73.963</ele>
<time>2015-12-30T02:26:10.682Z</time>
</trkpt>
<trkpt lat="-27.9711980" lon="152.7130732">
<ele>74.648</ele>
<time>2015-12-30T02:26:12.724Z</time>
</trkpt>
<trkpt lat="-27.9708988" lon="152.7137749">
<ele>76.665</ele>
<time>2015-12-30T02:26:15.770Z</time>
</trkpt>
<trkpt lat="-27.9706649" lon="152.7141914">
<ele>79.408</ele>
<time>2015-12-30T02:26:17.679Z</time>
</trkpt>
<trkpt lat="-27.9701821" lon="152.7147660">
<ele>82.278</ele>
<time>2015-12-30T02:26:20.689Z</time>
</trkpt>
<trkpt lat="-27.9698415" lon="152.7151377">
<ele>84.532</ele>
<time>2015-12-30T02:26:22.678Z</time>
</trkpt>
<trkpt lat="-27.9693471" lon="152.7157133">
<ele>85.880</ele>
<time>2015-12-30T02:26:25.637Z</time>
</trkpt>
<trkpt lat="-27.9688226" lon="152.7162751">
<ele>86.799</ele>
<time>2015-12-30T02:26:28.636Z</time>
</trkpt>
<trkpt lat="-27.9684860" lon="152.7166567">
<ele>87.559</ele>
<time>2015-12-30T02:26:30.650Z</time>
</trkpt>
<trkpt lat="-27.9681611" lon="152.7170237">
<ele>87.677</ele>
<time>2015-12-30T02:26:32.644Z</time>
</trkpt>
<trkpt lat="-27.9676810" lon="152.7175817">
<ele>86.857</ele>
<time>2015-12-30T02:26:35.685Z</time>
</trkpt>
<trkpt lat="-27.9673495" lon="152.7179367">
<ele>85.487</ele>
<time>2015-12-30T02:26:37.709Z</time>
</trkpt>
<trkpt lat="-27.9670049" lon="152.7182725">
<ele>84.216</ele>
<time>2015-12-30T02:26:39.710Z</time>
</trkpt>
<trkpt lat="-27.9664252" lon="152.7186694">
<ele>83.013</ele>
<time>2015-12-30T02:26:42.675Z</time>
</trkpt>
<trkpt lat="-27.9657674" lon="152.7189164">
<ele>81.621</ele>
<time>2015-12-30T02:26:45.700Z</time>
</trkpt>
<trkpt lat="-27.9653055" lon="152.7189804">
<ele>79.886</ele>
<time>2015-12-30T02:26:47.745Z</time>
</trkpt>
<trkpt lat="-27.9646355" lon="152.7189484">
<ele>77.955</ele>
<time>2015-12-30T02:26:50.737Z</time>
</trkpt>
<trkpt lat="-27.9639745" lon="152.7189117">
<ele>76.597</ele>
<time>2015-12-30T02:26:53.752Z</time>
</trkpt>
<trkpt lat="-27.9635468" lon="152.7188911">
<ele>76.416</ele>
<time>2015-12-30T02:26:55.691Z</time>
</trkpt>
<trkpt lat="-27.9631030" lon="152.7188795">
<ele>77.094</ele>
<time>2015-12-30T02:26:57.645Z</time>
</trkpt>
<trkpt lat="-27.9624117" lon="152.7189416">
<ele>78.107</ele>
<time>2015-12-30T02:27:00.628Z</time>
</trkpt>
<trkpt lat="-27.9619370" lon="152.7190392">
<ele>78.801</ele>
<time>2015-12-30T02:27:02.609Z</time>
</trkpt>
<trkpt lat="-27.9612218" lon="152.7193043">
<ele>78.854</ele>
<time>2015-12-30T02:27:05.627Z</time>
</trkpt>
<trkpt lat="-27.9607388" lon="152.7194794">
<ele>79.141</ele>
<time>2015-12-30T02:27:07.630Z</time>
</trkpt>
<trkpt lat="-27.9599989" lon="152.7196943">
<ele>80.345</ele>
<time>2015-12-30T02:27:10.621Z</time>
</trkpt>
<trkpt lat="-27.9594922" lon="152.7198107">
<ele>81.632</ele>
<time>2015-12-30T02:27:12.606Z</time>
</trkpt>
<trkpt lat="-27.9589809" lon="152.7199498">
<ele>81.992</ele>
<time>2015-12-30T02:27:14.641Z</time>
</trkpt>
<trkpt lat="-27.9584861" lon="152.7201009">
<ele>81.366</ele>
<time>2015-12-30T02:27:16.637Z</time>
</trkpt>
<trkpt lat="-27.9577234" lon="152.7202776">
<ele>80.208</ele>
<time>2015-12-30T02:27:19.647Z</time>
</trkpt>
<trkpt lat="-27.9571982" lon="152.7203690">
<ele>79.143</ele>
<time>2015-12-30T02:27:21.676Z</time>
</trkpt>
<trkpt lat="-27.9566743" lon="152.7204207">
<ele>78.460</ele>
<time>2015-12-30T02:27:23.706Z</time>
</trkpt>
<trkpt lat="-27.9559164" lon="152.7204545">
<ele>77.996</ele>
<time>2015-12-30T02:27:26.676Z</time>
</trkpt>
<trkpt lat="-27.9551702" lon="152.7206009">
<ele>77.380</ele>
<time>2015-12-30T02:27:29.689Z</time>
</trkpt>
<trkpt lat="-27.9544987" lon="152.7209390">
<ele>76.325</ele>
<time>2015-12-30T02:27:32.629Z</time>
</trkpt>
<trkpt lat="-27.9538623" lon="152.7214073">
<ele>75.114</ele>
<time>2015-12-30T02:27:35.708Z</time>
</trkpt>
<trkpt lat="-27.9534744" lon="152.7216938">
<ele>74.155</ele>
<time>2015-12-30T02:27:37.679Z</time>
</trkpt>
<trkpt lat="-27.9528923" lon="152.7221030">
<ele>73.131</ele>
<time>2015-12-30T02:27:40.643Z</time>
</trkpt>
<trkpt lat="-27.9524983" lon="152.7223752">
<ele>71.790</ele>
<time>2015-12-30T02:27:42.656Z</time>
</trkpt>
<trkpt lat="-27.9520813" lon="152.7225881">
<ele>70.647</ele>
<time>2015-12-30T02:27:44.647Z</time>
</trkpt>
<trkpt lat="-27.9514118" lon="152.7227902">
<ele>70.127</ele>
<time>2015-12-30T02:27:47.648Z</time>
</trkpt>
<trkpt lat="-27.9509387" lon="152.7228404">
<ele>70.163</ele>
<time>2015-12-30T02:27:49.682Z</time>
</trkpt>
<trkpt lat="-27.9504774" lon="152.7227757">
<ele>70.551</ele>
<time>2015-12-30T02:27:51.662Z</time>
</trkpt>
<trkpt lat="-27.9500265" lon="152.7226122">
<ele>70.944</ele>
<time>2015-12-30T02:27:53.637Z</time>
</trkpt>
<trkpt lat="-27.9495841" lon="152.7223775">
<ele>71.178</ele>
<time>2015-12-30T02:27:55.596Z</time>
</trkpt>
<trkpt lat="-27.9489067" lon="152.7218314">
<ele>71.514</ele>
<time>2015-12-30T02:27:58.553Z</time>
</trkpt>
<trkpt lat="-27.9484139" lon="152.7214130">
<ele>72.935</ele>
<time>2015-12-30T02:28:00.500Z</time>
</trkpt>
<trkpt lat="-27.9478833" lon="152.7209507">
<ele>75.927</ele>
<time>2015-12-30T02:28:02.490Z</time>
</trkpt>
<trkpt lat="-27.9470249" lon="152.7201900">
<ele>79.136</ele>
<time>2015-12-30T02:28:05.662Z</time>
</trkpt>
<trkpt lat="-27.9461956" lon="152.7194479">
<ele>79.179</ele>
<time>2015-12-30T02:28:08.813Z</time>
</trkpt>
<trkpt lat="-27.9454643" lon="152.7187867">
<ele>74.978</ele>
<time>2015-12-30T02:28:11.812Z</time>
</trkpt>
<trkpt lat="-27.9448679" lon="152.7180377">
<ele>70.227</ele>
<time>2015-12-30T02:28:14.858Z</time>
</trkpt>
<trkpt lat="-27.9445726" lon="152.7174815">
<ele>69.210</ele>
<time>2015-12-30T02:28:16.906Z</time>
</trkpt>
<trkpt lat="-27.9443337" lon="152.7169100">
<ele>73.500</ele>
<time>2015-12-30T02:28:18.978Z</time>
</trkpt>
<trkpt lat="-27.9441097" lon="152.7163664">
<ele>81.570</ele>
<time>2015-12-30T02:28:21.022Z</time>
</trkpt>
<trkpt lat="-27.9437455" lon="152.7156116">
<ele>89.595</ele>
<time>2015-12-30T02:28:24.019Z</time>
</trkpt>
<trkpt lat="-27.9432693" lon="152.7149646">
<ele>95.097</ele>
<time>2015-12-30T02:28:26.974Z</time>
</trkpt>
<trkpt lat="-27.9429067" lon="152.7145696">
<ele>98.592</ele>
<time>2015-12-30T02:28:29.021Z</time>
</trkpt>
<trkpt lat="-27.9423358" lon="152.7140528">
<ele>101.469</ele>
<time>2015-12-30T02:28:32.068Z</time>
</trkpt>
<trkpt lat="-27.9417586" lon="152.7136063">
<ele>103.987</ele>
<time>2015-12-30T02:28:35.045Z</time>
</trkpt>
<trkpt lat="-27.9413673" lon="152.7133156">
<ele>105.788</ele>
<time>2015-12-30T02:28:37.011Z</time>
</trkpt>
<trkpt lat="-27.9407563" lon="152.7128578">
<ele>108.095</ele>
<time>2015-12-30T02:28:40.067Z</time>
</trkpt>
<trkpt lat="-27.9402353" lon="152.7122924">
<ele>111.855</ele>
<time>2015-12-30T02:28:43.088Z</time>
</trkpt>
<trkpt lat="-27.9399492" lon="152.7118571">
<ele>115.953</ele>
<time>2015-12-30T02:28:45.108Z</time>
</trkpt>
<trkpt lat="-27.9395835" lon="152.7111544">
<ele>119.110</ele>
<time>2015-12-30T02:28:48.173Z</time>
</trkpt>
<trkpt lat="-27.9393685" lon="152.7106896">
<ele>121.883</ele>
<time>2015-12-30T02:28:50.201Z</time>
</trkpt>
<trkpt lat="-27.9390183" lon="152.7100457">
<ele>124.722</ele>
<time>2015-12-30T02:28:53.178Z</time>
</trkpt>
<trkpt lat="-27.9387556" lon="152.7096846">
<ele>127.323</ele>
<time>2015-12-30T02:28:55.040Z</time>
</trkpt>
<trkpt lat="-27.9384134" lon="152.7093528">
<ele>129.448</ele>
<time>2015-12-30T02:28:57.003Z</time>
</trkpt>
<trkpt lat="-27.9378034" lon="152.7089712">
<ele>130.909</ele>
<time>2015-12-30T02:28:59.960Z</time>
</trkpt>
<trkpt lat="-27.9373395" lon="152.7087938">
<ele>131.810</ele>
<time>2015-12-30T02:29:01.975Z</time>
</trkpt>
<trkpt lat="-27.9366035" lon="152.7087142">
<ele>132.625</ele>
<time>2015-12-30T02:29:05.013Z</time>
</trkpt>
<trkpt lat="-27.9358761" lon="152.7088446">
<ele>133.235</ele>
<time>2015-12-30T02:29:08.035Z</time>
</trkpt>
<trkpt lat="-27.9354137" lon="152.7090522">
<ele>134.225</ele>
<time>2015-12-30T02:29:10.058Z</time>
</trkpt>
<trkpt lat="-27.9347940" lon="152.7095158">
<ele>136.492</ele>
<time>2015-12-30T02:29:13.068Z</time>
</trkpt>
<trkpt lat="-27.9344471" lon="152.7099072">
<ele>139.200</ele>
<time>2015-12-30T02:29:15.046Z</time>
</trkpt>
<trkpt lat="-27.9341630" lon="152.7103611">
<ele>140.663</ele>
<time>2015-12-30T02:29:17.014Z</time>
</trkpt>
<trkpt lat="-27.9339531" lon="152.7108739">
<ele>140.275</ele>
<time>2015-12-30T02:29:18.983Z</time>
</trkpt>
<trkpt lat="-27.9336754" lon="152.7116953">
<ele>138.748</ele>
<time>2015-12-30T02:29:22.083Z</time>
</trkpt>
<trkpt lat="-27.9334110" lon="152.7124635">
<ele>138.219</ele>
<time>2015-12-30T02:29:25.057Z</time>
</trkpt>
<trkpt lat="-27.9330432" lon="152.7131669">
<ele>140.164</ele>
<time>2015-12-30T02:29:28.014Z</time>
</trkpt>
<trkpt lat="-27.9325233" lon="152.7137475">
<ele>143.275</ele>
<time>2015-12-30T02:29:30.944Z</time>
</trkpt>
<trkpt lat="-27.9318747" lon="152.7142101">
<ele>144.956</ele>
<time>2015-12-30T02:29:33.924Z</time>
</trkpt>
<trkpt lat="-27.9313940" lon="152.7144753">
<ele>143.492</ele>
<time>2015-12-30T02:29:35.960Z</time>
</trkpt>
<trkpt lat="-27.9306792" lon="152.7148429">
<ele>138.904</ele>
<time>2015-12-30T02:29:38.970Z</time>
</trkpt>
<trkpt lat="-27.9302090" lon="152.7150875">
<ele>133.549</ele>
<time>2015-12-30T02:29:41.011Z</time>
</trkpt>
<trkpt lat="-27.9295280" lon="152.7154469">
<ele>129.632</ele>
<time>2015-12-30T02:29:44.047Z</time>
</trkpt>
<trkpt lat="-27.9288874" lon="152.7158048">
<ele>127.325</ele>
<time>2015-12-30T02:29:47.028Z</time>
</trkpt>
<trkpt lat="-27.9284632" lon="152.7160277">
<ele>126.213</ele>
<time>2015-12-30T02:29:49.027Z</time>
</trkpt>
<trkpt lat="-27.9280375" lon="152.7162527">
<ele>126.619</ele>
<time>2015-12-30T02:29:51.048Z</time>
</trkpt>
<trkpt lat="-27.9274059" lon="152.7165926">
<ele>128.392</ele>
<time>2015-12-30T02:29:54.063Z</time>
</trkpt>
<trkpt lat="-27.9269696" lon="152.7167931">
<ele>131.104</ele>
<time>2015-12-30T02:29:56.084Z</time>
</trkpt>
<trkpt lat="-27.9262888" lon="152.7169752">
<ele>134.639</ele>
<time>2015-12-30T02:29:59.020Z</time>
</trkpt>
<trkpt lat="-27.9257999" lon="152.7170378">
<ele>139.044</ele>
<time>2015-12-30T02:30:00.948Z</time>
</trkpt>
<trkpt lat="-27.9252696" lon="152.7170593">
<ele>143.418</ele>
<time>2015-12-30T02:30:02.919Z</time>
</trkpt>
<trkpt lat="-27.9244511" lon="152.7169877">
<ele>147.164</ele>
<time>2015-12-30T02:30:05.913Z</time>
</trkpt>
<trkpt lat="-27.9236241" lon="152.7168916">
<ele>150.277</ele>
<time>2015-12-30T02:30:08.939Z</time>
</trkpt>
<trkpt lat="-27.9228150" lon="152.7168010">
<ele>151.563</ele>
<time>2015-12-30T02:30:11.972Z</time>
</trkpt>
<trkpt lat="-27.9220262" lon="152.7167165">
<ele>149.221</ele>
<time>2015-12-30T02:30:14.985Z</time>
</trkpt>
<trkpt lat="-27.9212418" lon="152.7166323">
<ele>143.703</ele>
<time>2015-12-30T02:30:17.998Z</time>
</trkpt>
<trkpt lat="-27.9207280" lon="152.7165731">
<ele>137.453</ele>
<time>2015-12-30T02:30:19.976Z</time>
</trkpt>
<trkpt lat="-27.9199573" lon="152.7164831">
<ele>132.626</ele>
<time>2015-12-30T02:30:22.932Z</time>
</trkpt>
<trkpt lat="-27.9194252" lon="152.7164230">
<ele>129.798</ele>
<time>2015-12-30T02:30:24.994Z</time>
</trkpt>
<trkpt lat="-27.9189203" lon="152.7163750">
<ele>128.646</ele>
<time>2015-12-30T02:30:26.985Z</time>
</trkpt>
<trkpt lat="-27.9184231" lon="152.7163223">
<ele>128.610</ele>
<time>2015-12-30T02:30:28.953Z</time>
</trkpt>
<trkpt lat="-27.9176622" lon="152.7163239">
<ele>128.439</ele>
<time>2015-12-30T02:30:31.950Z</time>
</trkpt>
<trkpt lat="-27.9169048" lon="152.7164569">
<ele>127.235</ele>
<time>2015-12-30T02:30:34.970Z</time>
</trkpt>
<trkpt lat="-27.9164179" lon="152.7166073">
<ele>125.590</ele>
<time>2015-12-30T02:30:36.977Z</time>
</trkpt>
<trkpt lat="-27.9157065" lon="152.7168876">
<ele>124.595</ele>
<time>2015-12-30T02:30:39.980Z</time>
</trkpt>
<trkpt lat="-27.9152278" lon="152.7170768">
<ele>124.364</ele>
<time>2015-12-30T02:30:42.020Z</time>
</trkpt>
<trkpt lat="-27.9147670" lon="152.7172621">
<ele>124.332</ele>
<time>2015-12-30T02:30:44.053Z</time>
</trkpt>
<trkpt lat="-27.9143065" lon="152.7174263">
<ele>123.817</ele>
<time>2015-12-30T02:30:46.093Z</time>
</trkpt>
<trkpt lat="-27.9138400" lon="152.7175446">
<ele>122.475</ele>
<time>2015-12-30T02:30:48.083Z</time>
</trkpt>
<trkpt lat="-27.9130946" lon="152.7176209">
<ele>120.284</ele>
<time>2015-12-30T02:30:51.071Z</time>
</trkpt>
<trkpt lat="-27.9123202" lon="152.7176051">
<ele>117.151</ele>
<time>2015-12-30T02:30:54.058Z</time>
</trkpt>
<trkpt lat="-27.9115434" lon="152.7175845">
<ele>113.305</ele>
<time>2015-12-30T02:30:57.019Z</time>
</trkpt>
<trkpt lat="-27.9110160" lon="152.7175618">
<ele>109.118</ele>
<time>2015-12-30T02:30:59.001Z</time>
</trkpt>
<trkpt lat="-27.9104850" lon="152.7175479">
<ele>104.697</ele>
<time>2015-12-30T02:31:01.001Z</time>
</trkpt>
<trkpt lat="-27.9096964" lon="152.7175279">
<ele>100.773</ele>
<time>2015-12-30T02:31:04.015Z</time>
</trkpt>
<trkpt lat="-27.9091774" lon="152.7174964">
<ele>98.445</ele>
<time>2015-12-30T02:31:06.022Z</time>
</trkpt>
<trkpt lat="-27.9083962" lon="152.7173846">
<ele>97.715</ele>
<time>2015-12-30T02:31:09.064Z</time>
</trkpt>
<trkpt lat="-27.9078982" lon="152.7172271">
<ele>97.516</ele>
<time>2015-12-30T02:31:11.086Z</time>
</trkpt>
<trkpt lat="-27.9071964" lon="152.7168850">
<ele>97.082</ele>
<time>2015-12-30T02:31:14.102Z</time>
</trkpt>
<trkpt lat="-27.9067338" lon="152.7166718">
<ele>96.565</ele>
<time>2015-12-30T02:31:16.100Z</time>
</trkpt>
<trkpt lat="-27.9060096" lon="152.7164548">
<ele>96.250</ele>
<time>2015-12-30T02:31:19.063Z</time>
</trkpt>
<trkpt lat="-27.9052371" lon="152.7164039">
<ele>95.980</ele>
<time>2015-12-30T02:31:22.059Z</time>
</trkpt>
<trkpt lat="-27.9047067" lon="152.7164422">
<ele>95.743</ele>
<time>2015-12-30T02:31:24.066Z</time>
</trkpt>
<trkpt lat="-27.9039065" lon="152.7166206">
<ele>95.774</ele>
<time>2015-12-30T02:31:27.065Z</time>
</trkpt>
<trkpt lat="-27.9030959" lon="152.7168211">
<ele>96.058</ele>
<time>2015-12-30T02:31:30.134Z</time>
</trkpt>
<trkpt lat="-27.9023314" lon="152.7170253">
<ele>96.209</ele>
<time>2015-12-30T02:31:33.141Z</time>
</trkpt>
<trkpt lat="-27.9018397" lon="152.7171753">
<ele>96.029</ele>
<time>2015-12-30T02:31:35.144Z</time>
</trkpt>
<trkpt lat="-27.9013663" lon="152.7173880">
<ele>95.501</ele>
<time>2015-12-30T02:31:37.141Z</time>
</trkpt>
<trkpt lat="-27.9007029" lon="152.7178129">
<ele>94.732</ele>
<time>2015-12-30T02:31:40.105Z</time>
</trkpt>
<trkpt lat="-27.9000931" lon="152.7183716">
<ele>94.198</ele>
<time>2015-12-30T02:31:43.139Z</time>
</trkpt>
<trkpt lat="-27.8997475" lon="152.7188086">
<ele>94.237</ele>
<time>2015-12-30T02:31:45.177Z</time>
</trkpt>
<trkpt lat="-27.8994304" lon="152.7192636">
<ele>94.446</ele>
<time>2015-12-30T02:31:47.247Z</time>
</trkpt>
<trkpt lat="-27.8991319" lon="152.7196930">
<ele>94.406</ele>
<time>2015-12-30T02:31:49.224Z</time>
</trkpt>
<trkpt lat="-27.8988321" lon="152.7201273">
<ele>94.180</ele>
<time>2015-12-30T02:31:51.216Z</time>
</trkpt>
<trkpt lat="-27.8983558" lon="152.7207593">
<ele>93.980</ele>
<time>2015-12-30T02:31:54.223Z</time>
</trkpt>
<trkpt lat="-27.8978208" lon="152.7212923">
<ele>93.692</ele>
<time>2015-12-30T02:31:57.111Z</time>
</trkpt>
<trkpt lat="-27.8973955" lon="152.7216230">
<ele>93.505</ele>
<time>2015-12-30T02:31:59.172Z</time>
</trkpt>
<trkpt lat="-27.8967487" lon="152.7220348">
<ele>93.595</ele>
<time>2015-12-30T02:32:02.135Z</time>
</trkpt>
<trkpt lat="-27.8960845" lon="152.7224154">
<ele>93.581</ele>
<time>2015-12-30T02:32:05.074Z</time>
</trkpt>
<trkpt lat="-27.8954004" lon="152.7228178">
<ele>93.305</ele>
<time>2015-12-30T02:32:08.063Z</time>
</trkpt>
<trkpt lat="-27.8947055" lon="152.7232207">
<ele>93.106</ele>
<time>2015-12-30T02:32:11.047Z</time>
</trkpt>
<trkpt lat="-27.8942419" lon="152.7234872">
<ele>93.025</ele>
<time>2015-12-30T02:32:13.059Z</time>
</trkpt>
<trkpt lat="-27.8935657" lon="152.7239087">
<ele>93.082</ele>
<time>2015-12-30T02:32:16.127Z</time>
</trkpt>
<trkpt lat="-27.8931233" lon="152.7241436">
<ele>93.351</ele>
<time>2015-12-30T02:32:18.145Z</time>
</trkpt>
<trkpt lat="-27.8926902" lon="152.7243776">
<ele>93.738</ele>
<time>2015-12-30T02:32:20.126Z</time>
</trkpt>
<trkpt lat="-27.8922405" lon="152.7246113">
<ele>94.007</ele>
<time>2015-12-30T02:32:22.147Z</time>
</trkpt>
<trkpt lat="-27.8915505" lon="152.7249592">
<ele>93.931</ele>
<time>2015-12-30T02:32:25.244Z</time>
</trkpt>
<trkpt lat="-27.8911124" lon="152.7251675">
<ele>93.483</ele>
<time>2015-12-30T02:32:27.196Z</time>
</trkpt>
<trkpt lat="-27.8904251" lon="152.7255118">
<ele>92.796</ele>
<time>2015-12-30T02:32:30.200Z</time>
</trkpt>
<trkpt lat="-27.8897152" lon="152.7258441">
<ele>91.706</ele>
<time>2015-12-30T02:32:33.208Z</time>
</trkpt>
<trkpt lat="-27.8892450" lon="152.7260660">
<ele>90.281</ele>
<time>2015-12-30T02:32:35.224Z</time>
</trkpt>
<trkpt lat="-27.8887878" lon="152.7263029">
<ele>89.204</ele>
<time>2015-12-30T02:32:37.256Z</time>
</trkpt>
<trkpt lat="-27.8881266" lon="152.7266249">
<ele>88.910</ele>
<time>2015-12-30T02:32:40.207Z</time>
</trkpt>
<trkpt lat="-27.8876806" lon="152.7268468">
<ele>89.088</ele>
<time>2015-12-30T02:32:42.239Z</time>
</trkpt>
<trkpt lat="-27.8870285" lon="152.7271769">
<ele>88.935</ele>
<time>2015-12-30T02:32:45.201Z</time>
</trkpt>
<trkpt lat="-27.8863394" lon="152.7274746">
<ele>88.141</ele>
<time>2015-12-30T02:32:48.198Z</time>
</trkpt>
<trkpt lat="-27.8858491" lon="152.7276431">
<ele>87.829</ele>
<time>2015-12-30T02:32:50.217Z</time>
</trkpt>
<trkpt lat="-27.8851164" lon="152.7279184">
<ele>88.797</ele>
<time>2015-12-30T02:32:53.225Z</time>
</trkpt>
<trkpt lat="-27.8843787" lon="152.7281726">
<ele>89.714</ele>
<time>2015-12-30T02:32:56.208Z</time>
</trkpt>
<trkpt lat="-27.8836344" lon="152.7284455">
<ele>88.835</ele>
<time>2015-12-30T02:32:59.230Z</time>
</trkpt>
<trkpt lat="-27.8831469" lon="152.7286513">
<ele>86.298</ele>
<time>2015-12-30T02:33:01.223Z</time>
</trkpt>
<trkpt lat="-27.8824267" lon="152.7290145">
<ele>83.660</ele>
<time>2015-12-30T02:33:04.218Z</time>
</trkpt>
<trkpt lat="-27.8817314" lon="152.7294267">
<ele>82.579</ele>
<time>2015-12-30T02:33:07.237Z</time>
</trkpt>
<trkpt lat="-27.8810697" lon="152.7298521">
<ele>83.365</ele>
<time>2015-12-30T02:33:10.248Z</time>
</trkpt>
<trkpt lat="-27.8804035" lon="152.7302429">
<ele>84.886</ele>
<time>2015-12-30T02:33:13.270Z</time>
</trkpt>
<trkpt lat="-27.8799380" lon="152.7304357">
<ele>86.337</ele>
<time>2015-12-30T02:33:15.276Z</time>
</trkpt>
<trkpt lat="-27.8792164" lon="152.7306274">
<ele>87.740</ele>
<time>2015-12-30T02:33:18.267Z</time>
</trkpt>
<trkpt lat="-27.8787206" lon="152.7306959">
<ele>89.066</ele>
<time>2015-12-30T02:33:20.271Z</time>
</trkpt>
<trkpt lat="-27.8782284" lon="152.7307033">
<ele>90.146</ele>
<time>2015-12-30T02:33:22.239Z</time>
</trkpt>
<trkpt lat="-27.8774811" lon="152.7306415">
<ele>90.701</ele>
<time>2015-12-30T02:33:25.222Z</time>
</trkpt>
<trkpt lat="-27.8767230" lon="152.7305547">
<ele>90.660</ele>
<time>2015-12-30T02:33:28.251Z</time>
</trkpt>
<trkpt lat="-27.8759710" lon="152.7304886">
<ele>90.609</ele>
<time>2015-12-30T02:33:31.267Z</time>
</trkpt>
<trkpt lat="-27.8754793" lon="152.7304370">
<ele>91.110</ele>
<time>2015-12-30T02:33:33.256Z</time>
</trkpt>
<trkpt lat="-27.8749857" lon="152.7303742">
<ele>91.987</ele>
<time>2015-12-30T02:33:35.253Z</time>
</trkpt>
<trkpt lat="-27.8745033" lon="152.7302738">
<ele>92.699</ele>
<time>2015-12-30T02:33:37.214Z</time>
</trkpt>
<trkpt lat="-27.8737788" lon="152.7300355">
<ele>92.842</ele>
<time>2015-12-30T02:33:40.217Z</time>
</trkpt>
<trkpt lat="-27.8733007" lon="152.7298401">
<ele>92.149</ele>
<time>2015-12-30T02:33:42.252Z</time>
</trkpt>
<trkpt lat="-27.8726197" lon="152.7295360">
<ele>90.916</ele>
<time>2015-12-30T02:33:45.208Z</time>
</trkpt>
<trkpt lat="-27.8719255" lon="152.7292486">
<ele>90.169</ele>
<time>2015-12-30T02:33:48.184Z</time>
</trkpt>
<trkpt lat="-27.8712186" lon="152.7289715">
<ele>90.488</ele>
<time>2015-12-30T02:33:51.137Z</time>
</trkpt>
<trkpt lat="-27.8704655" lon="152.7287324">
<ele>91.322</ele>
<time>2015-12-30T02:33:54.155Z</time>
</trkpt>
<trkpt lat="-27.8697026" lon="152.7285053">
<ele>91.930</ele>
<time>2015-12-30T02:33:57.153Z</time>
</trkpt>
<trkpt lat="-27.8689289" lon="152.7282677">
<ele>92.520</ele>
<time>2015-12-30T02:34:00.202Z</time>
</trkpt>
<trkpt lat="-27.8684299" lon="152.7281128">
<ele>93.769</ele>
<time>2015-12-30T02:34:02.219Z</time>
</trkpt>
<trkpt lat="-27.8676992" lon="152.7278892">
<ele>95.874</ele>
<time>2015-12-30T02:34:05.250Z</time>
</trkpt>
<trkpt lat="-27.8669851" lon="152.7276814">
<ele>98.507</ele>
<time>2015-12-30T02:34:08.300Z</time>
</trkpt>
<trkpt lat="-27.8665270" lon="152.7275683">
<ele>101.637</ele>
<time>2015-12-30T02:34:10.237Z</time>
</trkpt>
<trkpt lat="-27.8660384" lon="152.7274977">
<ele>105.269</ele>
<time>2015-12-30T02:34:12.215Z</time>
</trkpt>
<trkpt lat="-27.8655270" lon="152.7274639">
<ele>108.688</ele>
<time>2015-12-30T02:34:14.210Z</time>
</trkpt>
<trkpt lat="-27.8647303" lon="152.7275366">
<ele>111.421</ele>
<time>2015-12-30T02:34:17.228Z</time>
</trkpt>
<trkpt lat="-27.8641979" lon="152.7276597">
<ele>113.785</ele>
<time>2015-12-30T02:34:19.280Z</time>
</trkpt>
<trkpt lat="-27.8636858" lon="152.7277659">
<ele>115.695</ele>
<time>2015-12-30T02:34:21.283Z</time>
</trkpt>
<trkpt lat="-27.8631797" lon="152.7278594">
<ele>116.776</ele>
<time>2015-12-30T02:34:23.283Z</time>
</trkpt>
<trkpt lat="-27.8626823" lon="152.7279791">
<ele>116.940</ele>
<time>2015-12-30T02:34:25.283Z</time>
</trkpt>
<trkpt lat="-27.8621931" lon="152.7281560">
<ele>116.313</ele>
<time>2015-12-30T02:34:27.324Z</time>
</trkpt>
<trkpt lat="-27.8614963" lon="152.7285113">
<ele>115.335</ele>
<time>2015-12-30T02:34:30.407Z</time>
</trkpt>
<trkpt lat="-27.8608335" lon="152.7288776">
<ele>113.466</ele>
<time>2015-12-30T02:34:33.415Z</time>
</trkpt>
<trkpt lat="-27.8602170" lon="152.7293201">
<ele>109.989</ele>
<time>2015-12-30T02:34:36.361Z</time>
</trkpt>
<trkpt lat="-27.8596509" lon="152.7298674">
<ele>106.169</ele>
<time>2015-12-30T02:34:39.280Z</time>
</trkpt>
<trkpt lat="-27.8592750" lon="152.7302821">
<ele>103.744</ele>
<time>2015-12-30T02:34:41.303Z</time>
</trkpt>
<trkpt lat="-27.8587380" lon="152.7309247">
<ele>102.833</ele>
<time>2015-12-30T02:34:44.362Z</time>
</trkpt>
<trkpt lat="-27.8583921" lon="152.7313238">
<ele>102.320</ele>
<time>2015-12-30T02:34:46.322Z</time>
</trkpt>
<trkpt lat="-27.8578726" lon="152.7319483">
<ele>101.294</ele>
<time>2015-12-30T02:34:49.306Z</time>
</trkpt>
<trkpt lat="-27.8575047" lon="152.7323705">
<ele>100.223</ele>
<time>2015-12-30T02:34:51.365Z</time>
</trkpt>
<trkpt lat="-27.8569695" lon="152.7329883">
<ele>99.786</ele>
<time>2015-12-30T02:34:54.408Z</time>
</trkpt>
<trkpt lat="-27.8566239" lon="152.7333977">
<ele>99.048</ele>
<time>2015-12-30T02:34:56.433Z</time>
</trkpt>
<trkpt lat="-27.8561086" lon="152.7339773">
<ele>97.141</ele>
<time>2015-12-30T02:34:59.411Z</time>
</trkpt>
<trkpt lat="-27.8556116" lon="152.7345612">
<ele>94.575</ele>
<time>2015-12-30T02:35:02.336Z</time>
</trkpt>
<trkpt lat="-27.8552929" lon="152.7349895">
<ele>91.771</ele>
<time>2015-12-30T02:35:04.292Z</time>
</trkpt>
<trkpt lat="-27.8548138" lon="152.7356766">
<ele>88.982</ele>
<time>2015-12-30T02:35:07.348Z</time>
</trkpt>
<trkpt lat="-27.8543420" lon="152.7363146">
<ele>87.058</ele>
<time>2015-12-30T02:35:10.303Z</time>
</trkpt>
<trkpt lat="-27.8538435" lon="152.7369376">
<ele>85.943</ele>
<time>2015-12-30T02:35:13.316Z</time>
</trkpt>
<trkpt lat="-27.8534608" lon="152.7372895">
<ele>85.042</ele>
<time>2015-12-30T02:35:15.310Z</time>
</trkpt>
<trkpt lat="-27.8530558" lon="152.7376091">
<ele>84.234</ele>
<time>2015-12-30T02:35:17.299Z</time>
</trkpt>
<trkpt lat="-27.8526157" lon="152.7378915">
<ele>83.379</ele>
<time>2015-12-30T02:35:19.302Z</time>
</trkpt>
<trkpt lat="-27.8519107" lon="152.7382463">
<ele>82.170</ele>
<time>2015-12-30T02:35:22.289Z</time>
</trkpt>
<trkpt lat="-27.8514096" lon="152.7384183">
<ele>80.791</ele>
<time>2015-12-30T02:35:24.298Z</time>
</trkpt>
<trkpt lat="-27.8508965" lon="152.7385402">
<ele>79.684</ele>
<time>2015-12-30T02:35:26.296Z</time>
</trkpt>
<trkpt lat="-27.8501159" lon="152.7386849">
<ele>78.994</ele>
<time>2015-12-30T02:35:29.323Z</time>
</trkpt>
<trkpt lat="-27.8496051" lon="152.7387818">
<ele>78.637</ele>
<time>2015-12-30T02:35:31.357Z</time>
</trkpt>
<trkpt lat="-27.8488605" lon="152.7389176">
<ele>78.518</ele>
<time>2015-12-30T02:35:34.399Z</time>
</trkpt>
<trkpt lat="-27.8483752" lon="152.7390042">
<ele>78.466</ele>
<time>2015-12-30T02:35:36.395Z</time>
</trkpt>
<trkpt lat="-27.8476416" lon="152.7391602">
<ele>78.619</ele>
<time>2015-12-30T02:35:39.381Z</time>
</trkpt>
<trkpt lat="-27.8468958" lon="152.7392968">
<ele>79.457</ele>
<time>2015-12-30T02:35:42.406Z</time>
</trkpt>
<trkpt lat="-27.8464063" lon="152.7393887">
<ele>81.676</ele>
<time>2015-12-30T02:35:44.431Z</time>
</trkpt>
<trkpt lat="-27.8459426" lon="152.7394800">
<ele>84.919</ele>
<time>2015-12-30T02:35:46.357Z</time>
</trkpt>
<trkpt lat="-27.8452286" lon="152.7396129">
<ele>87.130</ele>
<time>2015-12-30T02:35:49.280Z</time>
</trkpt>
<trkpt lat="-27.8447321" lon="152.7397088">
<ele>86.818</ele>
<time>2015-12-30T02:35:51.265Z</time>
</trkpt>
<trkpt lat="-27.8439733" lon="152.7398589">
<ele>84.939</ele>
<time>2015-12-30T02:35:54.278Z</time>
</trkpt>
<trkpt lat="-27.8432118" lon="152.7400051">
<ele>83.167</ele>
<time>2015-12-30T02:35:57.337Z</time>
</trkpt>
<trkpt lat="-27.8424760" lon="152.7401534">
<ele>82.478</ele>
<time>2015-12-30T02:36:00.399Z</time>
</trkpt>
<trkpt lat="-27.8420026" lon="152.7402279">
<ele>82.926</ele>
<time>2015-12-30T02:36:02.450Z</time>
</trkpt>
<trkpt lat="-27.8413171" lon="152.7403466">
<ele>84.206</ele>
<time>2015-12-30T02:36:05.433Z</time>
</trkpt>
<trkpt lat="-27.8403928" lon="152.7405224">
<ele>86.799</ele>
<time>2015-12-30T02:36:09.393Z</time>
</trkpt>
<trkpt lat="-27.8399146" lon="152.7406146">
<ele>90.811</ele>
<time>2015-12-30T02:36:11.363Z</time>
</trkpt>
<trkpt lat="-27.8391616" lon="152.7407523">
<ele>94.552</ele>
<time>2015-12-30T02:36:14.416Z</time>
</trkpt>
<trkpt lat="-27.8386662" lon="152.7408449">
<ele>96.525</ele>
<time>2015-12-30T02:36:16.419Z</time>
</trkpt>
<trkpt lat="-27.8381801" lon="152.7409369">
<ele>96.179</ele>
<time>2015-12-30T02:36:18.376Z</time>
</trkpt>
<trkpt lat="-27.8374371" lon="152.7410789">
<ele>93.166</ele>
<time>2015-12-30T02:36:21.338Z</time>
</trkpt>
<trkpt lat="-27.8369300" lon="152.7411782">
<ele>88.644</ele>
<time>2015-12-30T02:36:23.346Z</time>
</trkpt>
<trkpt lat="-27.8361725" lon="152.7413211">
<ele>84.250</ele>
<time>2015-12-30T02:36:26.371Z</time>
</trkpt>
<trkpt lat="-27.8354352" lon="152.7414582">
<ele>80.341</ele>
<time>2015-12-30T02:36:29.371Z</time>
</trkpt>
<trkpt lat="-27.8347059" lon="152.7415981">
<ele>77.264</ele>
<time>2015-12-30T02:36:32.398Z</time>
</trkpt>
<trkpt lat="-27.8342265" lon="152.7416901">
<ele>75.552</ele>
<time>2015-12-30T02:36:34.421Z</time>
</trkpt>
<trkpt lat="-27.8337565" lon="152.7417786">
<ele>74.637</ele>
<time>2015-12-30T02:36:36.418Z</time>
</trkpt>
<trkpt lat="-27.8330587" lon="152.7419139">
<ele>73.825</ele>
<time>2015-12-30T02:36:39.390Z</time>
</trkpt>
<trkpt lat="-27.8323534" lon="152.7420477">
<ele>73.043</ele>
<time>2015-12-30T02:36:42.359Z</time>
</trkpt>
<trkpt lat="-27.8316312" lon="152.7421789">
<ele>72.539</ele>
<time>2015-12-30T02:36:45.338Z</time>
</trkpt>
<trkpt lat="-27.8311488" lon="152.7422685">
<ele>72.543</ele>
<time>2015-12-30T02:36:47.270Z</time>
</trkpt>
<trkpt lat="-27.8303847" lon="152.7424174">
<ele>72.945</ele>
<time>2015-12-30T02:36:50.280Z</time>
</trkpt>
<trkpt lat="-27.8298664" lon="152.7425256">
<ele>73.742</ele>
<time>2015-12-30T02:36:52.316Z</time>
</trkpt>
<trkpt lat="-27.8293578" lon="152.7426318">
<ele>75.522</ele>
<time>2015-12-30T02:36:54.311Z</time>
</trkpt>
<trkpt lat="-27.8285886" lon="152.7427758">
<ele>78.554</ele>
<time>2015-12-30T02:36:57.305Z</time>
</trkpt>
<trkpt lat="-27.8278092" lon="152.7429340">
<ele>81.897</ele>
<time>2015-12-30T02:37:00.335Z</time>
</trkpt>
<trkpt lat="-27.8270568" lon="152.7430667">
<ele>84.246</ele>
<time>2015-12-30T02:37:03.237Z</time>
</trkpt>
<trkpt lat="-27.8265308" lon="152.7431676">
<ele>84.334</ele>
<time>2015-12-30T02:37:05.252Z</time>
</trkpt>
<trkpt lat="-27.8260046" lon="152.7432709">
<ele>81.723</ele>
<time>2015-12-30T02:37:07.268Z</time>
</trkpt>
<trkpt lat="-27.8252244" lon="152.7434118">
<ele>77.630</ele>
<time>2015-12-30T02:37:10.256Z</time>
</trkpt>
<trkpt lat="-27.8247079" lon="152.7435178">
<ele>73.652</ele>
<time>2015-12-30T02:37:12.265Z</time>
</trkpt>
<trkpt lat="-27.8241942" lon="152.7436158">
<ele>70.596</ele>
<time>2015-12-30T02:37:14.315Z</time>
</trkpt>
<trkpt lat="-27.8234579" lon="152.7437393">
<ele>68.669</ele>
<time>2015-12-30T02:37:17.333Z</time>
</trkpt>
<trkpt lat="-27.8227467" lon="152.7438225">
<ele>67.572</ele>
<time>2015-12-30T02:37:20.290Z</time>
</trkpt>
<trkpt lat="-27.8222669" lon="152.7438200">
<ele>67.045</ele>
<time>2015-12-30T02:37:22.248Z</time>
</trkpt>
<trkpt lat="-27.8215231" lon="152.7437367">
<ele>67.401</ele>
<time>2015-12-30T02:37:25.212Z</time>
</trkpt>
<trkpt lat="-27.8210136" lon="152.7436108">
<ele>68.657</ele>
<time>2015-12-30T02:37:27.194Z</time>
</trkpt>
<trkpt lat="-27.8202311" lon="152.7433912">
<ele>69.527</ele>
<time>2015-12-30T02:37:30.227Z</time>
</trkpt>
<trkpt lat="-27.8197114" lon="152.7432469">
<ele>69.033</ele>
<time>2015-12-30T02:37:32.267Z</time>
</trkpt>
<trkpt lat="-27.8192050" lon="152.7430980">
<ele>68.177</ele>
<time>2015-12-30T02:37:34.285Z</time>
</trkpt>
<trkpt lat="-27.8187132" lon="152.7429587">
<ele>68.041</ele>
<time>2015-12-30T02:37:36.215Z</time>
</trkpt>
<trkpt lat="-27.8179453" lon="152.7427301">
<ele>68.457</ele>
<time>2015-12-30T02:37:39.197Z</time>
</trkpt>
<trkpt lat="-27.8174292" lon="152.7425766">
<ele>69.215</ele>
<time>2015-12-30T02:37:41.231Z</time>
</trkpt>
<trkpt lat="-27.8166786" lon="152.7423569">
<ele>70.288</ele>
<time>2015-12-30T02:37:44.249Z</time>
</trkpt>
<trkpt lat="-27.8159481" lon="152.7421094">
<ele>71.193</ele>
<time>2015-12-30T02:37:47.199Z</time>
</trkpt>
<trkpt lat="-27.8154619" lon="152.7419071">
<ele>71.153</ele>
<time>2015-12-30T02:37:49.147Z</time>
</trkpt>
<trkpt lat="-27.8149690" lon="152.7416679">
<ele>70.072</ele>
<time>2015-12-30T02:37:51.156Z</time>
</trkpt>
<trkpt lat="-27.8144825" lon="152.7414367">
<ele>68.743</ele>
<time>2015-12-30T02:37:53.149Z</time>
</trkpt>
<trkpt lat="-27.8137610" lon="152.7410720">
<ele>67.367</ele>
<time>2015-12-30T02:37:56.171Z</time>
</trkpt>
<trkpt lat="-27.8132899" lon="152.7408458">
<ele>65.382</ele>
<time>2015-12-30T02:37:58.156Z</time>
</trkpt>
<trkpt lat="-27.8128209" lon="152.7406172">
<ele>63.150</ele>
<time>2015-12-30T02:38:00.127Z</time>
</trkpt>
<trkpt lat="-27.8123369" lon="152.7403906">
<ele>61.524</ele>
<time>2015-12-30T02:38:02.136Z</time>
</trkpt>
<trkpt lat="-27.8116168" lon="152.7400536">
<ele>60.785</ele>
<time>2015-12-30T02:38:05.120Z</time>
</trkpt>
<trkpt lat="-27.8111304" lon="152.7398259">
<ele>60.679</ele>
<time>2015-12-30T02:38:07.142Z</time>
</trkpt>
<trkpt lat="-27.8106457" lon="152.7395959">
<ele>60.929</ele>
<time>2015-12-30T02:38:09.195Z</time>
</trkpt>
<trkpt lat="-27.8101809" lon="152.7393711">
<ele>61.630</ele>
<time>2015-12-30T02:38:11.212Z</time>
</trkpt>
<trkpt lat="-27.8094923" lon="152.7390380">
<ele>62.690</ele>
<time>2015-12-30T02:38:14.236Z</time>
</trkpt>
<trkpt lat="-27.8090355" lon="152.7388161">
<ele>63.896</ele>
<time>2015-12-30T02:38:16.266Z</time>
</trkpt>
<trkpt lat="-27.8085865" lon="152.7386088">
<ele>65.493</ele>
<time>2015-12-30T02:38:18.233Z</time>
</trkpt>
<trkpt lat="-27.8081341" lon="152.7384021">
<ele>67.330</ele>
<time>2015-12-30T02:38:20.179Z</time>
</trkpt>
<trkpt lat="-27.8074399" lon="152.7380824">
<ele>68.680</ele>
<time>2015-12-30T02:38:23.137Z</time>
</trkpt>
<trkpt lat="-27.8069668" lon="152.7378587">
<ele>69.232</ele>
<time>2015-12-30T02:38:25.152Z</time>
</trkpt>
<trkpt lat="-27.8062723" lon="152.7375172">
<ele>69.237</ele>
<time>2015-12-30T02:38:28.154Z</time>
</trkpt>
<trkpt lat="-27.8058181" lon="152.7372999">
<ele>69.176</ele>
<time>2015-12-30T02:38:30.138Z</time>
</trkpt>
<trkpt lat="-27.8051351" lon="152.7369793">
<ele>69.322</ele>
<time>2015-12-30T02:38:33.127Z</time>
</trkpt>
<trkpt lat="-27.8046781" lon="152.7367608">
<ele>68.486</ele>
<time>2015-12-30T02:38:35.129Z</time>
</trkpt>
<trkpt lat="-27.8042215" lon="152.7365312">
<ele>65.703</ele>
<time>2015-12-30T02:38:37.134Z</time>
</trkpt>
<trkpt lat="-27.8037622" lon="152.7363099">
<ele>62.529</ele>
<time>2015-12-30T02:38:39.139Z</time>
</trkpt>
<trkpt lat="-27.8032969" lon="152.7360841">
<ele>61.113</ele>
<time>2015-12-30T02:38:41.140Z</time>
</trkpt>
<trkpt lat="-27.8025717" lon="152.7357464">
<ele>61.784</ele>
<time>2015-12-30T02:38:44.130Z</time>
</trkpt>
<trkpt lat="-27.8020743" lon="152.7355128">
<ele>64.084</ele>
<time>2015-12-30T02:38:46.145Z</time>
</trkpt>
<trkpt lat="-27.8015694" lon="152.7352791">
<ele>67.045</ele>
<time>2015-12-30T02:38:48.211Z</time>
</trkpt>
<trkpt lat="-27.8010813" lon="152.7350581">
<ele>69.856</ele>
<time>2015-12-30T02:38:50.230Z</time>
</trkpt>
<trkpt lat="-27.8005868" lon="152.7348913">
<ele>72.242</ele>
<time>2015-12-30T02:38:52.213Z</time>
</trkpt>
<trkpt lat="-27.7998230" lon="152.7347480">
<ele>74.106</ele>
<time>2015-12-30T02:38:55.182Z</time>
</trkpt>
<trkpt lat="-27.7992940" lon="152.7347291">
<ele>75.302</ele>
<time>2015-12-30T02:38:57.215Z</time>
</trkpt>
<trkpt lat="-27.7987751" lon="152.7347941">
<ele>75.751</ele>
<time>2015-12-30T02:38:59.221Z</time>
</trkpt>
<trkpt lat="-27.7980042" lon="152.7349396">
<ele>75.434</ele>
<time>2015-12-30T02:39:02.228Z</time>
</trkpt>
<trkpt lat="-27.7972384" lon="152.7351008">
<ele>74.781</ele>
<time>2015-12-30T02:39:05.274Z</time>
</trkpt>
<trkpt lat="-27.7967327" lon="152.7352087">
<ele>73.802</ele>
<time>2015-12-30T02:39:07.355Z</time>
</trkpt>
<trkpt lat="-27.7960157" lon="152.7353594">
<ele>72.163</ele>
<time>2015-12-30T02:39:10.381Z</time>
</trkpt>
<trkpt lat="-27.7955443" lon="152.7354506">
<ele>69.948</ele>
<time>2015-12-30T02:39:12.407Z</time>
</trkpt>
<trkpt lat="-27.7948417" lon="152.7355841">
<ele>67.749</ele>
<time>2015-12-30T02:39:15.446Z</time>
</trkpt>
<trkpt lat="-27.7943785" lon="152.7356555">
<ele>66.086</ele>
<time>2015-12-30T02:39:17.456Z</time>
</trkpt>
<trkpt lat="-27.7939129" lon="152.7356951">
<ele>65.079</ele>
<time>2015-12-30T02:39:19.426Z</time>
</trkpt>
<trkpt lat="-27.7931974" lon="152.7356591">
<ele>64.638</ele>
<time>2015-12-30T02:39:22.353Z</time>
</trkpt>
<trkpt lat="-27.7927102" lon="152.7355836">
<ele>64.926</ele>
<time>2015-12-30T02:39:24.317Z</time>
</trkpt>
<trkpt lat="-27.7919806" lon="152.7353588">
<ele>65.883</ele>
<time>2015-12-30T02:39:27.297Z</time>
</trkpt>
<trkpt lat="-27.7915042" lon="152.7351421">
<ele>66.926</ele>
<time>2015-12-30T02:39:29.321Z</time>
</trkpt>
<trkpt lat="-27.7908210" lon="152.7347425">
<ele>67.517</ele>
<time>2015-12-30T02:39:32.500Z</time>
</trkpt>
<trkpt lat="-27.7904078" lon="152.7344803">
<ele>67.106</ele>
<time>2015-12-30T02:39:34.617Z</time>
</trkpt>
<trkpt lat="-27.7898509" lon="152.7341305">
<ele>65.035</ele>
<time>2015-12-30T02:39:37.614Z</time>
</trkpt>
<trkpt lat="-27.7892995" lon="152.7337893">
<ele>61.331</ele>
<time>2015-12-30T02:39:40.646Z</time>
</trkpt>
<trkpt lat="-27.7889504" lon="152.7335449">
<ele>56.936</ele>
<time>2015-12-30T02:39:42.667Z</time>
</trkpt>
<trkpt lat="-27.7886011" lon="152.7333204">
<ele>53.150</ele>
<time>2015-12-30T02:39:44.719Z</time>
</trkpt>
<trkpt lat="-27.7882654" lon="152.7331116">
<ele>50.706</ele>
<time>2015-12-30T02:39:46.744Z</time>
</trkpt>
<trkpt lat="-27.7877800" lon="152.7328064">
<ele>48.967</ele>
<time>2015-12-30T02:39:49.954Z</time>
</trkpt>
<trkpt lat="-27.7874830" lon="152.7326294">
<ele>47.281</ele>
<time>2015-12-30T02:39:52.027Z</time>
</trkpt>
<trkpt lat="-27.7870698" lon="152.7323929">
<ele>45.968</ele>
<time>2015-12-30T02:39:55.069Z</time>
</trkpt>
<trkpt lat="-27.7867985" lon="152.7321904">
<ele>45.284</ele>
<time>2015-12-30T02:39:57.209Z</time>
</trkpt>
<trkpt lat="-27.7863898" lon="152.7319595">
<ele>44.889</ele>
<time>2015-12-30T02:40:00.259Z</time>
</trkpt>
<trkpt lat="-27.7861353" lon="152.7318119">
<ele>44.586</ele>
<time>2015-12-30T02:40:02.192Z</time>
</trkpt>
<trkpt lat="-27.7857554" lon="152.7315704">
<ele>44.398</ele>
<time>2015-12-30T02:40:05.105Z</time>
</trkpt>
<trkpt lat="-27.7854876" lon="152.7314019">
<ele>44.339</ele>
<time>2015-12-30T02:40:07.136Z</time>
</trkpt>
<trkpt lat="-27.7852185" lon="152.7312302">
<ele>44.529</ele>
<time>2015-12-30T02:40:09.181Z</time>
</trkpt>
<trkpt lat="-27.7849577" lon="152.7310460">
<ele>45.159</ele>
<time>2015-12-30T02:40:11.201Z</time>
</trkpt>
<trkpt lat="-27.7845646" lon="152.7308051">
<ele>46.039</ele>
<time>2015-12-30T02:40:14.155Z</time>
</trkpt>
<trkpt lat="-27.7842941" lon="152.7306336">
<ele>46.792</ele>
<time>2015-12-30T02:40:16.252Z</time>
</trkpt>
<trkpt lat="-27.7840375" lon="152.7304766">
<ele>47.398</ele>
<time>2015-12-30T02:40:18.224Z</time>
</trkpt>
<trkpt lat="-27.7837808" lon="152.7303263">
<ele>47.932</ele>
<time>2015-12-30T02:40:20.169Z</time>
</trkpt>
<trkpt lat="-27.7833951" lon="152.7300828">
<ele>48.310</ele>
<time>2015-12-30T02:40:23.103Z</time>
</trkpt>
<trkpt lat="-27.7831158" lon="152.7299276">
<ele>48.501</ele>
<time>2015-12-30T02:40:25.158Z</time>
</trkpt>
<trkpt lat="-27.7828366" lon="152.7298329">
<ele>48.559</ele>
<time>2015-12-30T02:40:27.068Z</time>
</trkpt>
<trkpt lat="-27.7825345" lon="152.7298030">
<ele>48.527</ele>
<time>2015-12-30T02:40:29.035Z</time>
</trkpt>
<trkpt lat="-27.7822301" lon="152.7298164">
<ele>48.602</ele>
<time>2015-12-30T02:40:31.000Z</time>
</trkpt>
<trkpt lat="-27.7819254" lon="152.7299068">
<ele>48.780</ele>
<time>2015-12-30T02:40:32.988Z</time>
</trkpt>
<trkpt lat="-27.7815172" lon="152.7302014">
<ele>48.668</ele>
<time>2015-12-30T02:40:36.071Z</time>
</trkpt>
<trkpt lat="-27.7812545" lon="152.7304040">
<ele>48.187</ele>
<time>2015-12-30T02:40:38.132Z</time>
</trkpt>
<trkpt lat="-27.7808755" lon="152.7306957">
<ele>47.718</ele>
<time>2015-12-30T02:40:41.079Z</time>
</trkpt>
<trkpt lat="-27.7806101" lon="152.7308814">
<ele>47.465</ele>
<time>2015-12-30T02:40:43.071Z</time>
</trkpt>
<trkpt lat="-27.7802197" lon="152.7311842">
<ele>47.399</ele>
<time>2015-12-30T02:40:46.072Z</time>
</trkpt>
<trkpt lat="-27.7799594" lon="152.7313790">
<ele>47.495</ele>
<time>2015-12-30T02:40:48.045Z</time>
</trkpt>
<trkpt lat="-27.7795806" lon="152.7316861">
<ele>47.849</ele>
<time>2015-12-30T02:40:51.025Z</time>
</trkpt>
<trkpt lat="-27.7793192" lon="152.7318939">
<ele>48.394</ele>
<time>2015-12-30T02:40:53.069Z</time>
</trkpt>
<trkpt lat="-27.7789493" lon="152.7322426">
<ele>48.808</ele>
<time>2015-12-30T02:40:56.150Z</time>
</trkpt>
<trkpt lat="-27.7786000" lon="152.7325471">
<ele>48.815</ele>
<time>2015-12-30T02:40:58.954Z</time>
</trkpt>
<trkpt lat="-27.7783420" lon="152.7327937">
<ele>48.316</ele>
<time>2015-12-30T02:41:01.045Z</time>
</trkpt>
<trkpt lat="-27.7779147" lon="152.7330770">
<ele>47.454</ele>
<time>2015-12-30T02:41:04.054Z</time>
</trkpt>
<trkpt lat="-27.7774551" lon="152.7332928">
<ele>46.616</ele>
<time>2015-12-30T02:41:07.054Z</time>
</trkpt>
<trkpt lat="-27.7771399" lon="152.7333972">
<ele>45.990</ele>
<time>2015-12-30T02:41:09.032Z</time>
</trkpt>
<trkpt lat="-27.7766633" lon="152.7335815">
<ele>45.504</ele>
<time>2015-12-30T02:41:12.080Z</time>
</trkpt>
<trkpt lat="-27.7761969" lon="152.7337536">
<ele>45.075</ele>
<time>2015-12-30T02:41:15.076Z</time>
</trkpt>
<trkpt lat="-27.7758825" lon="152.7338613">
<ele>44.691</ele>
<time>2015-12-30T02:41:17.097Z</time>
</trkpt>
<trkpt lat="-27.7754312" lon="152.7340207">
<ele>44.378</ele>
<time>2015-12-30T02:41:20.022Z</time>
</trkpt>
<trkpt lat="-27.7751165" lon="152.7341281">
<ele>44.084</ele>
<time>2015-12-30T02:41:22.056Z</time>
</trkpt>
<trkpt lat="-27.7747999" lon="152.7342279">
<ele>43.729</ele>
<time>2015-12-30T02:41:24.064Z</time>
</trkpt>
<trkpt lat="-27.7743186" lon="152.7343843">
<ele>43.412</ele>
<time>2015-12-30T02:41:27.051Z</time>
</trkpt>
<trkpt lat="-27.7740058" lon="152.7345031">
<ele>43.424</ele>
<time>2015-12-30T02:41:28.944Z</time>
</trkpt>
<trkpt lat="-27.7736924" lon="152.7346099">
<ele>43.966</ele>
<time>2015-12-30T02:41:30.761Z</time>
</trkpt>
<trkpt lat="-27.7731501" lon="152.7347778">
<ele>44.763</ele>
<time>2015-12-30T02:41:33.597Z</time>
</trkpt>
<trkpt lat="-27.7727541" lon="152.7349137">
<ele>45.640</ele>
<time>2015-12-30T02:41:35.614Z</time>
</trkpt>
<trkpt lat="-27.7723623" lon="152.7350403">
<ele>46.796</ele>
<time>2015-12-30T02:41:37.600Z</time>
</trkpt>
<trkpt lat="-27.7717764" lon="152.7352293">
<ele>48.172</ele>
<time>2015-12-30T02:41:40.575Z</time>
</trkpt>
<trkpt lat="-27.7713840" lon="152.7353596">
<ele>49.388</ele>
<time>2015-12-30T02:41:42.577Z</time>
</trkpt>
<trkpt lat="-27.7707937" lon="152.7355675">
<ele>50.158</ele>
<time>2015-12-30T02:41:45.621Z</time>
</trkpt>
<trkpt lat="-27.7704137" lon="152.7357049">
<ele>50.168</ele>
<time>2015-12-30T02:41:47.596Z</time>
</trkpt>
<trkpt lat="-27.7698387" lon="152.7359076">
<ele>49.323</ele>
<time>2015-12-30T02:41:50.499Z</time>
</trkpt>
<trkpt lat="-27.7692145" lon="152.7361225">
<ele>48.144</ele>
<time>2015-12-30T02:41:53.394Z</time>
</trkpt>
<trkpt lat="-27.7687652" lon="152.7362799">
<ele>47.511</ele>
<time>2015-12-30T02:41:55.276Z</time>
</trkpt>
<trkpt lat="-27.7682670" lon="152.7364615">
<ele>47.913</ele>
<time>2015-12-30T02:41:57.305Z</time>
</trkpt>
<trkpt lat="-27.7675080" lon="152.7367185">
<ele>49.415</ele>
<time>2015-12-30T02:42:00.517Z</time>
</trkpt>
<trkpt lat="-27.7670599" lon="152.7368662">
<ele>51.438</ele>
<time>2015-12-30T02:42:02.504Z</time>
</trkpt>
<trkpt lat="-27.7664007" lon="152.7370932">
<ele>52.581</ele>
<time>2015-12-30T02:42:05.503Z</time>
</trkpt>
<trkpt lat="-27.7657584" lon="152.7373191">
<ele>52.186</ele>
<time>2015-12-30T02:42:08.500Z</time>
</trkpt>
<trkpt lat="-27.7651300" lon="152.7375335">
<ele>51.217</ele>
<time>2015-12-30T02:42:11.474Z</time>
</trkpt>
<trkpt lat="-27.7646990" lon="152.7376296">
<ele>50.639</ele>
<time>2015-12-30T02:42:13.458Z</time>
</trkpt>
<trkpt lat="-27.7642583" lon="152.7376630">
<ele>50.308</ele>
<time>2015-12-30T02:42:15.390Z</time>
</trkpt>
<trkpt lat="-27.7638074" lon="152.7376075">
<ele>49.863</ele>
<time>2015-12-30T02:42:17.287Z</time>
</trkpt>
<trkpt lat="-27.7630908" lon="152.7374163">
<ele>49.610</ele>
<time>2015-12-30T02:42:20.228Z</time>
</trkpt>
<trkpt lat="-27.7625767" lon="152.7372499">
<ele>49.910</ele>
<time>2015-12-30T02:42:22.287Z</time>
</trkpt>
<trkpt lat="-27.7618198" lon="152.7370099">
<ele>50.411</ele>
<time>2015-12-30T02:42:25.304Z</time>
</trkpt>
<trkpt lat="-27.7610779" lon="152.7367509">
<ele>50.383</ele>
<time>2015-12-30T02:42:28.277Z</time>
</trkpt>
<trkpt lat="-27.7605818" lon="152.7365861">
<ele>49.434</ele>
<time>2015-12-30T02:42:30.248Z</time>
</trkpt>
<trkpt lat="-27.7600743" lon="152.7364369">
<ele>47.934</ele>
<time>2015-12-30T02:42:32.268Z</time>
</trkpt>
<trkpt lat="-27.7593258" lon="152.7361768">
<ele>46.536</ele>
<time>2015-12-30T02:42:35.358Z</time>
</trkpt>
<trkpt lat="-27.7586232" lon="152.7359344">
<ele>45.574</ele>
<time>2015-12-30T02:42:38.351Z</time>
</trkpt>
<trkpt lat="-27.7579069" lon="152.7357746">
<ele>44.991</ele>
<time>2015-12-30T02:42:41.306Z</time>
</trkpt>
<trkpt lat="-27.7574157" lon="152.7357675">
<ele>44.736</ele>
<time>2015-12-30T02:42:43.215Z</time>
</trkpt>
<trkpt lat="-27.7566155" lon="152.7358227">
<ele>45.118</ele>
<time>2015-12-30T02:42:46.305Z</time>
</trkpt>
<trkpt lat="-27.7558412" lon="152.7358831">
<ele>46.391</ele>
<time>2015-12-30T02:42:49.316Z</time>
</trkpt>
<trkpt lat="-27.7553341" lon="152.7359199">
<ele>48.035</ele>
<time>2015-12-30T02:42:51.280Z</time>
</trkpt>
<trkpt lat="-27.7548228" lon="152.7359504">
<ele>49.208</ele>
<time>2015-12-30T02:42:53.210Z</time>
</trkpt>
<trkpt lat="-27.7542833" lon="152.7359894">
<ele>49.912</ele>
<time>2015-12-30T02:42:55.207Z</time>
</trkpt>
<trkpt lat="-27.7534710" lon="152.7360535">
<ele>50.645</ele>
<time>2015-12-30T02:42:58.214Z</time>
</trkpt>
<trkpt lat="-27.7526524" lon="152.7361081">
<ele>51.258</ele>
<time>2015-12-30T02:43:01.301Z</time>
</trkpt>
<trkpt lat="-27.7518770" lon="152.7361701">
<ele>51.200</ele>
<time>2015-12-30T02:43:04.307Z</time>
</trkpt>
<trkpt lat="-27.7511122" lon="152.7362164">
<ele>50.365</ele>
<time>2015-12-30T02:43:07.304Z</time>
</trkpt>
<trkpt lat="-27.7506003" lon="152.7362607">
<ele>49.238</ele>
<time>2015-12-30T02:43:09.334Z</time>
</trkpt>
<trkpt lat="-27.7498453" lon="152.7363018">
<ele>48.408</ele>
<time>2015-12-30T02:43:12.358Z</time>
</trkpt>
<trkpt lat="-27.7491193" lon="152.7363568">
<ele>47.869</ele>
<time>2015-12-30T02:43:15.296Z</time>
</trkpt>
<trkpt lat="-27.7486264" lon="152.7364325">
<ele>47.383</ele>
<time>2015-12-30T02:43:17.321Z</time>
</trkpt>
<trkpt lat="-27.7479224" lon="152.7366928">
<ele>47.028</ele>
<time>2015-12-30T02:43:20.355Z</time>
</trkpt>
<trkpt lat="-27.7473033" lon="152.7371118">
<ele>46.994</ele>
<time>2015-12-30T02:43:23.277Z</time>
</trkpt>
<trkpt lat="-27.7469131" lon="152.7374713">
<ele>47.198</ele>
<time>2015-12-30T02:43:25.258Z</time>
</trkpt>
<trkpt lat="-27.7465189" lon="152.7378523">
<ele>47.839</ele>
<time>2015-12-30T02:43:27.294Z</time>
</trkpt>
<trkpt lat="-27.7459377" lon="152.7384092">
<ele>49.245</ele>
<time>2015-12-30T02:43:30.322Z</time>
</trkpt>
<trkpt lat="-27.7453727" lon="152.7389478">
<ele>50.932</ele>
<time>2015-12-30T02:43:33.316Z</time>
</trkpt>
<trkpt lat="-27.7449837" lon="152.7393018">
<ele>52.022</ele>
<time>2015-12-30T02:43:35.380Z</time>
</trkpt>
<trkpt lat="-27.7445947" lon="152.7396026">
<ele>52.252</ele>
<time>2015-12-30T02:43:37.323Z</time>
</trkpt>
<trkpt lat="-27.7439291" lon="152.7399427">
<ele>51.946</ele>
<time>2015-12-30T02:43:40.282Z</time>
</trkpt>
<trkpt lat="-27.7432251" lon="152.7402437">
<ele>51.415</ele>
<time>2015-12-30T02:43:43.296Z</time>
</trkpt>
<trkpt lat="-27.7425156" lon="152.7405330">
<ele>50.720</ele>
<time>2015-12-30T02:43:46.284Z</time>
</trkpt>
<trkpt lat="-27.7420357" lon="152.7407300">
<ele>49.730</ele>
<time>2015-12-30T02:43:48.287Z</time>
</trkpt>
<trkpt lat="-27.7415480" lon="152.7409441">
<ele>48.550</ele>
<time>2015-12-30T02:43:50.369Z</time>
</trkpt>
<trkpt lat="-27.7408534" lon="152.7412394">
<ele>47.629</ele>
<time>2015-12-30T02:43:53.431Z</time>
</trkpt>
<trkpt lat="-27.7401886" lon="152.7415092">
<ele>47.041</ele>
<time>2015-12-30T02:43:56.493Z</time>
</trkpt>
<trkpt lat="-27.7397656" lon="152.7416959">
<ele>46.132</ele>
<time>2015-12-30T02:43:58.506Z</time>
</trkpt>
<trkpt lat="-27.7391068" lon="152.7418542">
<ele>44.728</ele>
<time>2015-12-30T02:44:01.444Z</time>
</trkpt>
<trkpt lat="-27.7386497" lon="152.7418291">
<ele>43.467</ele>
<time>2015-12-30T02:44:03.290Z</time>
</trkpt>
<trkpt lat="-27.7378678" lon="152.7417219">
<ele>42.843</ele>
<time>2015-12-30T02:44:06.267Z</time>
</trkpt>
<trkpt lat="-27.7373259" lon="152.7416423">
<ele>43.507</ele>
<time>2015-12-30T02:44:08.287Z</time>
</trkpt>
<trkpt lat="-27.7365267" lon="152.7415344">
<ele>45.619</ele>
<time>2015-12-30T02:44:11.249Z</time>
</trkpt>
<trkpt lat="-27.7359867" lon="152.7414523">
<ele>47.339</ele>
<time>2015-12-30T02:44:13.252Z</time>
</trkpt>
<trkpt lat="-27.7351804" lon="152.7413367">
<ele>46.896</ele>
<time>2015-12-30T02:44:16.270Z</time>
</trkpt>
<trkpt lat="-27.7346525" lon="152.7412674">
<ele>44.878</ele>
<time>2015-12-30T02:44:18.289Z</time>
</trkpt>
<trkpt lat="-27.7341291" lon="152.7411949">
<ele>42.717</ele>
<time>2015-12-30T02:44:20.335Z</time>
</trkpt>
<trkpt lat="-27.7336186" lon="152.7411266">
<ele>41.240</ele>
<time>2015-12-30T02:44:22.357Z</time>
</trkpt>
<trkpt lat="-27.7331275" lon="152.7410465">
<ele>40.234</ele>
<time>2015-12-30T02:44:24.331Z</time>
</trkpt>
<trkpt lat="-27.7323868" lon="152.7409990">
<ele>39.032</ele>
<time>2015-12-30T02:44:27.313Z</time>
</trkpt>
<trkpt lat="-27.7316451" lon="152.7410376">
<ele>37.692</ele>
<time>2015-12-30T02:44:30.287Z</time>
</trkpt>
<trkpt lat="-27.7308866" lon="152.7411407">
<ele>36.524</ele>
<time>2015-12-30T02:44:33.312Z</time>
</trkpt>
<trkpt lat="-27.7303800" lon="152.7412214">
<ele>35.505</ele>
<time>2015-12-30T02:44:35.346Z</time>
</trkpt>
<trkpt lat="-27.7296388" lon="152.7413356">
<ele>34.801</ele>
<time>2015-12-30T02:44:38.354Z</time>
</trkpt>
<trkpt lat="-27.7289033" lon="152.7414468">
<ele>34.268</ele>
<time>2015-12-30T02:44:41.358Z</time>
</trkpt>
<trkpt lat="-27.7284204" lon="152.7415240">
<ele>33.522</ele>
<time>2015-12-30T02:44:43.349Z</time>
</trkpt>
<trkpt lat="-27.7279394" lon="152.7415956">
<ele>32.918</ele>
<time>2015-12-30T02:44:45.350Z</time>
</trkpt>
<trkpt lat="-27.7272277" lon="152.7417041">
<ele>32.864</ele>
<time>2015-12-30T02:44:48.295Z</time>
</trkpt>
<trkpt lat="-27.7264945" lon="152.7418108">
<ele>33.200</ele>
<time>2015-12-30T02:44:51.262Z</time>
</trkpt>
<trkpt lat="-27.7257467" lon="152.7419255">
<ele>33.892</ele>
<time>2015-12-30T02:44:54.253Z</time>
</trkpt>
<trkpt lat="-27.7250031" lon="152.7420397">
<ele>35.082</ele>
<time>2015-12-30T02:44:57.236Z</time>
</trkpt>
<trkpt lat="-27.7244936" lon="152.7421153">
<ele>36.705</ele>
<time>2015-12-30T02:44:59.260Z</time>
</trkpt>
<trkpt lat="-27.7237161" lon="152.7421990">
<ele>38.450</ele>
<time>2015-12-30T02:45:02.290Z</time>
</trkpt>
<trkpt lat="-27.7232022" lon="152.7421904">
<ele>39.862</ele>
<time>2015-12-30T02:45:04.258Z</time>
</trkpt>
<trkpt lat="-27.7224205" lon="152.7420778">
<ele>40.882</ele>
<time>2015-12-30T02:45:07.254Z</time>
</trkpt>
<trkpt lat="-27.7219077" lon="152.7419509">
<ele>41.740</ele>
<time>2015-12-30T02:45:09.246Z</time>
</trkpt>
<trkpt lat="-27.7211385" lon="152.7417537">
<ele>42.183</ele>
<time>2015-12-30T02:45:12.250Z</time>
</trkpt>
<trkpt lat="-27.7203678" lon="152.7415628">
<ele>41.974</ele>
<time>2015-12-30T02:45:15.261Z</time>
</trkpt>
<trkpt lat="-27.7195937" lon="152.7413681">
<ele>41.817</ele>
<time>2015-12-30T02:45:18.297Z</time>
</trkpt>
<trkpt lat="-27.7190882" lon="152.7412342">
<ele>42.288</ele>
<time>2015-12-30T02:45:20.306Z</time>
</trkpt>
<trkpt lat="-27.7185901" lon="152.7411073">
<ele>42.782</ele>
<time>2015-12-30T02:45:22.290Z</time>
</trkpt>
<trkpt lat="-27.7178581" lon="152.7408777">
<ele>42.449</ele>
<time>2015-12-30T02:45:25.244Z</time>
</trkpt>
<trkpt lat="-27.7171264" lon="152.7406286">
<ele>41.450</ele>
<time>2015-12-30T02:45:28.241Z</time>
</trkpt>
<trkpt lat="-27.7163962" lon="152.7403964">
<ele>40.564</ele>
<time>2015-12-30T02:45:31.259Z</time>
</trkpt>
<trkpt lat="-27.7159097" lon="152.7402381">
<ele>40.290</ele>
<time>2015-12-30T02:45:33.296Z</time>
</trkpt>
<trkpt lat="-27.7151905" lon="152.7400137">
<ele>40.538</ele>
<time>2015-12-30T02:45:36.320Z</time>
</trkpt>
<trkpt lat="-27.7147194" lon="152.7398607">
<ele>41.347</ele>
<time>2015-12-30T02:45:38.344Z</time>
</trkpt>
<trkpt lat="-27.7142617" lon="152.7397147">
<ele>42.709</ele>
<time>2015-12-30T02:45:40.357Z</time>
</trkpt>
<trkpt lat="-27.7135936" lon="152.7395029">
<ele>44.170</ele>
<time>2015-12-30T02:45:43.332Z</time>
</trkpt>
<trkpt lat="-27.7129237" lon="152.7392934">
<ele>45.299</ele>
<time>2015-12-30T02:45:46.279Z</time>
</trkpt>
<trkpt lat="-27.7122249" lon="152.7391002">
<ele>46.003</ele>
<time>2015-12-30T02:45:49.262Z</time>
</trkpt>
<trkpt lat="-27.7117534" lon="152.7389883">
<ele>46.449</ele>
<time>2015-12-30T02:45:51.223Z</time>
</trkpt>
<trkpt lat="-27.7112666" lon="152.7388896">
<ele>46.963</ele>
<time>2015-12-30T02:45:53.215Z</time>
</trkpt>
<trkpt lat="-27.7107764" lon="152.7387713">
<ele>47.472</ele>
<time>2015-12-30T02:45:55.197Z</time>
</trkpt>
<trkpt lat="-27.7100253" lon="152.7385954">
<ele>47.754</ele>
<time>2015-12-30T02:45:58.213Z</time>
</trkpt>
<trkpt lat="-27.7095254" lon="152.7384925">
<ele>47.964</ele>
<time>2015-12-30T02:46:00.252Z</time>
</trkpt>
<trkpt lat="-27.7090455" lon="152.7383806">
<ele>48.354</ele>
<time>2015-12-30T02:46:02.243Z</time>
</trkpt>
<trkpt lat="-27.7083227" lon="152.7382162">
<ele>48.820</ele>
<time>2015-12-30T02:46:05.237Z</time>
</trkpt>
<trkpt lat="-27.7078372" lon="152.7381134">
<ele>48.932</ele>
<time>2015-12-30T02:46:07.230Z</time>
</trkpt>
<trkpt lat="-27.7073456" lon="152.7380081">
<ele>48.443</ele>
<time>2015-12-30T02:46:09.235Z</time>
</trkpt>
<trkpt lat="-27.7066028" lon="152.7378549">
<ele>47.525</ele>
<time>2015-12-30T02:46:12.261Z</time>
</trkpt>
<trkpt lat="-27.7061094" lon="152.7377788">
<ele>46.182</ele>
<time>2015-12-30T02:46:14.263Z</time>
</trkpt>
<trkpt lat="-27.7053617" lon="152.7377359">
<ele>43.930</ele>
<time>2015-12-30T02:46:17.257Z</time>
</trkpt>
<trkpt lat="-27.7048607" lon="152.7377534">
<ele>40.956</ele>
<time>2015-12-30T02:46:19.252Z</time>
</trkpt>
<trkpt lat="-27.7043604" lon="152.7377846">
<ele>38.452</ele>
<time>2015-12-30T02:46:21.247Z</time>
</trkpt>
<trkpt lat="-27.7036118" lon="152.7378365">
<ele>37.153</ele>
<time>2015-12-30T02:46:24.212Z</time>
</trkpt>
<trkpt lat="-27.7030997" lon="152.7378747">
<ele>36.513</ele>
<time>2015-12-30T02:46:26.214Z</time>
</trkpt>
<trkpt lat="-27.7023269" lon="152.7379301">
<ele>35.839</ele>
<time>2015-12-30T02:46:29.217Z</time>
</trkpt>
<trkpt lat="-27.7015526" lon="152.7379671">
<ele>35.233</ele>
<time>2015-12-30T02:46:32.212Z</time>
</trkpt>
<trkpt lat="-27.7010357" lon="152.7380029">
<ele>35.033</ele>
<time>2015-12-30T02:46:34.220Z</time>
</trkpt>
<trkpt lat="-27.7002646" lon="152.7380468">
<ele>35.196</ele>
<time>2015-12-30T02:46:37.273Z</time>
</trkpt>
<trkpt lat="-27.6997696" lon="152.7380737">
<ele>35.488</ele>
<time>2015-12-30T02:46:39.288Z</time>
</trkpt>
<trkpt lat="-27.6992926" lon="152.7381003">
<ele>35.507</ele>
<time>2015-12-30T02:46:41.221Z</time>
</trkpt>
<trkpt lat="-27.6985415" lon="152.7381417">
<ele>35.040</ele>
<time>2015-12-30T02:46:44.216Z</time>
</trkpt>
<trkpt lat="-27.6980284" lon="152.7381702">
<ele>34.431</ele>
<time>2015-12-30T02:46:46.238Z</time>
</trkpt>
<trkpt lat="-27.6972615" lon="152.7382203">
<ele>34.084</ele>
<time>2015-12-30T02:46:49.297Z</time>
</trkpt>
<trkpt lat="-27.6967691" lon="152.7382498">
<ele>34.121</ele>
<time>2015-12-30T02:46:51.298Z</time>
</trkpt>
<trkpt lat="-27.6962819" lon="152.7382782">
<ele>34.557</ele>
<time>2015-12-30T02:46:53.290Z</time>
</trkpt>
<trkpt lat="-27.6955501" lon="152.7383266">
<ele>35.189</ele>
<time>2015-12-30T02:46:56.302Z</time>
</trkpt>
<trkpt lat="-27.6950739" lon="152.7383594">
<ele>35.729</ele>
<time>2015-12-30T02:46:58.264Z</time>
</trkpt>
<trkpt lat="-27.6945826" lon="152.7383852">
<ele>36.058</ele>
<time>2015-12-30T02:47:00.263Z</time>
</trkpt>
<trkpt lat="-27.6940873" lon="152.7384149">
<ele>36.360</ele>
<time>2015-12-30T02:47:02.252Z</time>
</trkpt>
<trkpt lat="-27.6935823" lon="152.7384462">
<ele>36.866</ele>
<time>2015-12-30T02:47:04.272Z</time>
</trkpt>
<trkpt lat="-27.6930778" lon="152.7384814">
<ele>37.600</ele>
<time>2015-12-30T02:47:06.269Z</time>
</trkpt>
<trkpt lat="-27.6923039" lon="152.7385110">
<ele>38.369</ele>
<time>2015-12-30T02:47:09.268Z</time>
</trkpt>
<trkpt lat="-27.6917942" lon="152.7385353">
<ele>38.953</ele>
<time>2015-12-30T02:47:11.222Z</time>
</trkpt>
<trkpt lat="-27.6910128" lon="152.7385763">
<ele>39.737</ele>
<time>2015-12-30T02:47:14.211Z</time>
</trkpt>
<trkpt lat="-27.6904877" lon="152.7385757">
<ele>41.093</ele>
<time>2015-12-30T02:47:16.214Z</time>
</trkpt>
<trkpt lat="-27.6897009" lon="152.7385285">
<ele>42.085</ele>
<time>2015-12-30T02:47:19.212Z</time>
</trkpt>
<trkpt lat="-27.6889146" lon="152.7384214">
<ele>41.738</ele>
<time>2015-12-30T02:47:22.247Z</time>
</trkpt>
<trkpt lat="-27.6883994" lon="152.7383201">
<ele>40.132</ele>
<time>2015-12-30T02:47:24.273Z</time>
</trkpt>
<trkpt lat="-27.6876511" lon="152.7381316">
<ele>37.867</ele>
<time>2015-12-30T02:47:27.266Z</time>
</trkpt>
<trkpt lat="-27.6871585" lon="152.7380018">
<ele>35.706</ele>
<time>2015-12-30T02:47:29.247Z</time>
</trkpt>
<trkpt lat="-27.6864106" lon="152.7377977">
<ele>34.083</ele>
<time>2015-12-30T02:47:32.254Z</time>
</trkpt>
<trkpt lat="-27.6859167" lon="152.7376653">
<ele>32.814</ele>
<time>2015-12-30T02:47:34.232Z</time>
</trkpt>
<trkpt lat="-27.6851698" lon="152.7374974">
<ele>31.739</ele>
<time>2015-12-30T02:47:37.192Z</time>
</trkpt>
<trkpt lat="-27.6846561" lon="152.7374133">
<ele>31.039</ele>
<time>2015-12-30T02:47:39.213Z</time>
</trkpt>
<trkpt lat="-27.6841531" lon="152.7373373">
<ele>30.865</ele>
<time>2015-12-30T02:47:41.194Z</time>
</trkpt>
<trkpt lat="-27.6833870" lon="152.7372502">
<ele>31.153</ele>
<time>2015-12-30T02:47:44.201Z</time>
</trkpt>
<trkpt lat="-27.6826309" lon="152.7371570">
<ele>32.159</ele>
<time>2015-12-30T02:47:47.210Z</time>
</trkpt>
<trkpt lat="-27.6818889" lon="152.7370675">
<ele>33.798</ele>
<time>2015-12-30T02:47:50.223Z</time>
</trkpt>
<trkpt lat="-27.6813949" lon="152.7370038">
<ele>35.212</ele>
<time>2015-12-30T02:47:52.261Z</time>
</trkpt>
<trkpt lat="-27.6809089" lon="152.7369353">
<ele>35.853</ele>
<time>2015-12-30T02:47:54.289Z</time>
</trkpt>
<trkpt lat="-27.6801901" lon="152.7368425">
<ele>35.928</ele>
<time>2015-12-30T02:47:57.354Z</time>
</trkpt>
<trkpt lat="-27.6797206" lon="152.7367808">
<ele>35.750</ele>
<time>2015-12-30T02:47:59.353Z</time>
</trkpt>
<trkpt lat="-27.6787708" lon="152.7366673">
<ele>35.539</ele>
<time>2015-12-30T02:48:03.283Z</time>
</trkpt>
<trkpt lat="-27.6782828" lon="152.7366197">
<ele>35.399</ele>
<time>2015-12-30T02:48:05.259Z</time>
</trkpt>
<trkpt lat="-27.6777813" lon="152.7365617">
<ele>35.390</ele>
<time>2015-12-30T02:48:07.296Z</time>
</trkpt>
<trkpt lat="-27.6770500" lon="152.7364709">
<ele>35.370</ele>
<time>2015-12-30T02:48:10.270Z</time>
</trkpt>
<trkpt lat="-27.6765596" lon="152.7364065">
<ele>35.209</ele>
<time>2015-12-30T02:48:12.261Z</time>
</trkpt>
<trkpt lat="-27.6758113" lon="152.7363123">
<ele>35.046</ele>
<time>2015-12-30T02:48:15.305Z</time>
</trkpt>
<trkpt lat="-27.6753182" lon="152.7362500">
<ele>35.101</ele>
<time>2015-12-30T02:48:17.339Z</time>
</trkpt>
<trkpt lat="-27.6745921" lon="152.7361729">
<ele>35.483</ele>
<time>2015-12-30T02:48:20.361Z</time>
</trkpt>
<trkpt lat="-27.6738679" lon="152.7361691">
<ele>36.123</ele>
<time>2015-12-30T02:48:23.358Z</time>
</trkpt>
<trkpt lat="-27.6731385" lon="152.7362160">
<ele>37.083</ele>
<time>2015-12-30T02:48:26.422Z</time>
</trkpt>
<trkpt lat="-27.6724468" lon="152.7362588">
<ele>38.829</ele>
<time>2015-12-30T02:48:29.430Z</time>
</trkpt>
<trkpt lat="-27.6719936" lon="152.7362942">
<ele>41.151</ele>
<time>2015-12-30T02:48:31.486Z</time>
</trkpt>
<trkpt lat="-27.6713397" lon="152.7363467">
<ele>42.957</ele>
<time>2015-12-30T02:48:34.721Z</time>
</trkpt>
<trkpt lat="-27.6709554" lon="152.7363726">
<ele>43.633</ele>
<time>2015-12-30T02:48:36.784Z</time>
</trkpt>
<trkpt lat="-27.6704130" lon="152.7364123">
<ele>43.278</ele>
<time>2015-12-30T02:48:39.843Z</time>
</trkpt>
<trkpt lat="-27.6698895" lon="152.7364430">
<ele>42.314</ele>
<time>2015-12-30T02:48:42.833Z</time>
</trkpt>
<trkpt lat="-27.6693682" lon="152.7365100">
<ele>41.194</ele>
<time>2015-12-30T02:48:45.797Z</time>
</trkpt>
<trkpt lat="-27.6688462" lon="152.7366563">
<ele>40.072</ele>
<time>2015-12-30T02:48:48.789Z</time>
</trkpt>
<trkpt lat="-27.6685098" lon="152.7368047">
<ele>39.123</ele>
<time>2015-12-30T02:48:50.807Z</time>
</trkpt>
<trkpt lat="-27.6680109" lon="152.7370440">
<ele>38.451</ele>
<time>2015-12-30T02:48:53.906Z</time>
</trkpt>
<trkpt lat="-27.6676971" lon="152.7371889">
<ele>37.835</ele>
<time>2015-12-30T02:48:55.849Z</time>
</trkpt>
<trkpt lat="-27.6672030" lon="152.7374137">
<ele>37.057</ele>
<time>2015-12-30T02:48:58.883Z</time>
</trkpt>
<trkpt lat="-27.6667086" lon="152.7376126">
<ele>36.005</ele>
<time>2015-12-30T02:49:02.028Z</time>
</trkpt>
<trkpt lat="-27.6662455" lon="152.7377657">
<ele>34.883</ele>
<time>2015-12-30T02:49:05.442Z</time>
</trkpt>
<trkpt lat="-27.6659649" lon="152.7378495">
<ele>34.297</ele>
<time>2015-12-30T02:49:07.975Z</time>
</trkpt>
<trkpt lat="-27.6656360" lon="152.7379360">
<ele>34.432</ele>
<time>2015-12-30T02:49:12.352Z</time>
</trkpt>
<trkpt lat="-27.6654808" lon="152.7379738">
<ele>34.306</ele>
<time>2015-12-30T02:49:14.648Z</time>
</trkpt>
<trkpt lat="-27.6652960" lon="152.7380300">
<ele>33.000</ele>
<time>2015-12-30T02:49:17.040Z</time>
</trkpt>
<trkpt lat="-27.6651603" lon="152.7380786">
<ele>31.179</ele>
<time>2015-12-30T02:49:18.545Z</time>
</trkpt>
<trkpt lat="-27.6649106" lon="152.7381456">
<ele>30.026</ele>
<time>2015-12-30T02:49:21.050Z</time>
</trkpt>
<trkpt lat="-27.6647198" lon="152.7381887">
<ele>29.975</ele>
<time>2015-12-30T02:49:22.758Z</time>
</trkpt>
<trkpt lat="-27.6645009" lon="152.7382447">
<ele>30.916</ele>
<time>2015-12-30T02:49:24.729Z</time>
</trkpt>
<trkpt lat="-27.6641549" lon="152.7383571">
<ele>32.367</ele>
<time>2015-12-30T02:49:28.140Z</time>
</trkpt>
<trkpt lat="-27.6639494" lon="152.7384167">
<ele>33.786</ele>
<time>2015-12-30T02:49:30.568Z</time>
</trkpt>
<trkpt lat="-27.6637629" lon="152.7384748">
<ele>34.817</ele>
<time>2015-12-30T02:49:33.024Z</time>
</trkpt>
<trkpt lat="-27.6635362" lon="152.7385452">
<ele>35.262</ele>
<time>2015-12-30T02:49:35.678Z</time>
</trkpt>
<trkpt lat="-27.6634383" lon="152.7386722">
<ele>35.232</ele>
<time>2015-12-30T02:49:36.959Z</time>
</trkpt>
<trkpt lat="-27.6634482" lon="152.7390161">
<ele>35.243</ele>
<time>2015-12-30T02:49:39.091Z</time>
</trkpt>
<trkpt lat="-27.6635199" lon="152.7393363">
<ele>35.975</ele>
<time>2015-12-30T02:49:40.927Z</time>
</trkpt>
<trkpt lat="-27.6636310" lon="152.7399131">
<ele>38.054</ele>
<time>2015-12-30T02:49:44.015Z</time>
</trkpt>
<trkpt lat="-27.6637107" lon="152.7402929">
<ele>41.923</ele>
<time>2015-12-30T02:49:46.100Z</time>
</trkpt>
<trkpt lat="-27.6637866" lon="152.7406505">
<ele>46.870</ele>
<time>2015-12-30T02:49:48.074Z</time>
</trkpt>
<trkpt lat="-27.6638936" lon="152.7411850">
<ele>50.989</ele>
<time>2015-12-30T02:49:50.987Z</time>
</trkpt>
<trkpt lat="-27.6639752" lon="152.7415578">
<ele>53.361</ele>
<time>2015-12-30T02:49:53.044Z</time>
</trkpt>
<trkpt lat="-27.6641080" lon="152.7420807">
<ele>54.875</ele>
<time>2015-12-30T02:49:56.050Z</time>
</trkpt>
<trkpt lat="-27.6642102" lon="152.7424179">
<ele>56.421</ele>
<time>2015-12-30T02:49:58.034Z</time>
</trkpt>
<trkpt lat="-27.6644045" lon="152.7428997">
<ele>58.037</ele>
<time>2015-12-30T02:50:00.992Z</time>
</trkpt>
<trkpt lat="-27.6645746" lon="152.7432032">
<ele>59.841</ele>
<time>2015-12-30T02:50:02.995Z</time>
</trkpt>
<trkpt lat="-27.6647881" lon="152.7434768">
<ele>62.063</ele>
<time>2015-12-30T02:50:05.035Z</time>
</trkpt>
<trkpt lat="-27.6651392" lon="152.7438294">
<ele>64.351</ele>
<time>2015-12-30T02:50:08.030Z</time>
</trkpt>
<trkpt lat="-27.6655153" lon="152.7441260">
<ele>66.401</ele>
<time>2015-12-30T02:50:10.794Z</time>
</trkpt>
<trkpt lat="-27.6658078" lon="152.7443134">
<ele>68.191</ele>
<time>2015-12-30T02:50:12.733Z</time>
</trkpt>
<trkpt lat="-27.6663034" lon="152.7445204">
<ele>69.419</ele>
<time>2015-12-30T02:50:15.487Z</time>
</trkpt>
<trkpt lat="-27.6668990" lon="152.7446586">
<ele>70.252</ele>
<time>2015-12-30T02:50:18.260Z</time>
</trkpt>
<trkpt lat="-27.6675978" lon="152.7448019">
<ele>71.708</ele>
<time>2015-12-30T02:50:21.279Z</time>
</trkpt>
<trkpt lat="-27.6683013" lon="152.7449402">
<ele>74.597</ele>
<time>2015-12-30T02:50:24.345Z</time>
</trkpt>
<trkpt lat="-27.6687488" lon="152.7450265">
<ele>78.193</ele>
<time>2015-12-30T02:50:26.368Z</time>
</trkpt>
<trkpt lat="-27.6694021" lon="152.7450827">
<ele>80.741</ele>
<time>2015-12-30T02:50:29.298Z</time>
</trkpt>
<trkpt lat="-27.6700886" lon="152.7450535">
<ele>81.242</ele>
<time>2015-12-30T02:50:32.255Z</time>
</trkpt>
<trkpt lat="-27.6708074" lon="152.7449542">
<ele>80.256</ele>
<time>2015-12-30T02:50:35.250Z</time>
</trkpt>
<trkpt lat="-27.6715418" lon="152.7448852">
<ele>79.377</ele>
<time>2015-12-30T02:50:38.255Z</time>
</trkpt>
<trkpt lat="-27.6720285" lon="152.7448766">
<ele>79.807</ele>
<time>2015-12-30T02:50:40.235Z</time>
</trkpt>
<trkpt lat="-27.6727618" lon="152.7449369">
<ele>81.117</ele>
<time>2015-12-30T02:50:43.273Z</time>
</trkpt>
<trkpt lat="-27.6732246" lon="152.7450333">
<ele>82.209</ele>
<time>2015-12-30T02:50:45.273Z</time>
</trkpt>
<trkpt lat="-27.6736718" lon="152.7451529">
<ele>82.614</ele>
<time>2015-12-30T02:50:47.254Z</time>
</trkpt>
<trkpt lat="-27.6743344" lon="152.7453803">
<ele>82.547</ele>
<time>2015-12-30T02:50:50.253Z</time>
</trkpt>
<trkpt lat="-27.6749763" lon="152.7456986">
<ele>82.139</ele>
<time>2015-12-30T02:50:53.275Z</time>
</trkpt>
<trkpt lat="-27.6753808" lon="152.7459315">
<ele>81.530</ele>
<time>2015-12-30T02:50:55.211Z</time>
</trkpt>
<trkpt lat="-27.6759830" lon="152.7463342">
<ele>81.153</ele>
<time>2015-12-30T02:50:58.147Z</time>
</trkpt>
<trkpt lat="-27.6765768" lon="152.7468223">
<ele>81.146</ele>
<time>2015-12-30T02:51:01.159Z</time>
</trkpt>
<trkpt lat="-27.6771384" lon="152.7473773">
<ele>81.163</ele>
<time>2015-12-30T02:51:04.181Z</time>
</trkpt>
<trkpt lat="-27.6774801" lon="152.7477861">
<ele>80.977</ele>
<time>2015-12-30T02:51:06.216Z</time>
</trkpt>
<trkpt lat="-27.6779505" lon="152.7484117">
<ele>80.567</ele>
<time>2015-12-30T02:51:09.256Z</time>
</trkpt>
<trkpt lat="-27.6782337" lon="152.7488453">
<ele>79.624</ele>
<time>2015-12-30T02:51:11.314Z</time>
</trkpt>
<trkpt lat="-27.6785926" lon="152.7495037">
<ele>77.855</ele>
<time>2015-12-30T02:51:14.334Z</time>
</trkpt>
<trkpt lat="-27.6787999" lon="152.7499447">
<ele>75.747</ele>
<time>2015-12-30T02:51:16.301Z</time>
</trkpt>
<trkpt lat="-27.6789856" lon="152.7503984">
<ele>73.627</ele>
<time>2015-12-30T02:51:18.250Z</time>
</trkpt>
<trkpt lat="-27.6791438" lon="152.7508780">
<ele>71.533</ele>
<time>2015-12-30T02:51:20.239Z</time>
</trkpt>
<trkpt lat="-27.6793462" lon="152.7516243">
<ele>70.000</ele>
<time>2015-12-30T02:51:23.257Z</time>
</trkpt>
<trkpt lat="-27.6794777" lon="152.7523864">
<ele>69.340</ele>
<time>2015-12-30T02:51:26.231Z</time>
</trkpt>
<trkpt lat="-27.6795735" lon="152.7531786">
<ele>68.998</ele>
<time>2015-12-30T02:51:29.344Z</time>
</trkpt>
<trkpt lat="-27.6796624" lon="152.7539316">
<ele>68.461</ele>
<time>2015-12-30T02:51:32.519Z</time>
</trkpt>
<trkpt lat="-27.6797114" lon="152.7543855">
<ele>67.358</ele>
<time>2015-12-30T02:51:34.615Z</time>
</trkpt>
<trkpt lat="-27.6797787" lon="152.7550049">
<ele>65.657</ele>
<time>2015-12-30T02:51:37.808Z</time>
</trkpt>
<trkpt lat="-27.6798182" lon="152.7553687">
<ele>63.692</ele>
<time>2015-12-30T02:51:39.823Z</time>
</trkpt>
<trkpt lat="-27.6798758" lon="152.7558823">
<ele>61.429</ele>
<time>2015-12-30T02:51:42.773Z</time>
</trkpt>
<trkpt lat="-27.6799268" lon="152.7564124">
<ele>58.559</ele>
<time>2015-12-30T02:51:45.873Z</time>
</trkpt>
<trkpt lat="-27.6799585" lon="152.7567625">
<ele>55.544</ele>
<time>2015-12-30T02:51:47.957Z</time>
</trkpt>
<trkpt lat="-27.6799690" lon="152.7572558">
<ele>53.174</ele>
<time>2015-12-30T02:51:51.070Z</time>
</trkpt>
<trkpt lat="-27.6799771" lon="152.7575539">
<ele>51.817</ele>
<time>2015-12-30T02:51:53.055Z</time>
</trkpt>
<trkpt lat="-27.6800211" lon="152.7578690">
<ele>50.959</ele>
<time>2015-12-30T02:51:55.416Z</time>
</trkpt>
<trkpt lat="-27.6800917" lon="152.7581471">
<ele>49.963</ele>
<time>2015-12-30T02:51:57.769Z</time>
</trkpt>
<trkpt lat="-27.6800771" lon="152.7584862">
<ele>48.994</ele>
<time>2015-12-30T02:52:00.655Z</time>
</trkpt>
<trkpt lat="-27.6799548" lon="152.7587963">
<ele>48.175</ele>
<time>2015-12-30T02:52:03.223Z</time>
</trkpt>
<trkpt lat="-27.6800665" lon="152.7591845">
<ele>47.272</ele>
<time>2015-12-30T02:52:05.755Z</time>
</trkpt>
<trkpt lat="-27.6802804" lon="152.7596515">
<ele>47.096</ele>
<time>2015-12-30T02:52:08.447Z</time>
</trkpt>
<trkpt lat="-27.6803538" lon="152.7600414">
<ele>48.803</ele>
<time>2015-12-30T02:52:10.233Z</time>
</trkpt>
<trkpt lat="-27.6804394" lon="152.7607671">
<ele>52.136</ele>
<time>2015-12-30T02:52:13.261Z</time>
</trkpt>
<trkpt lat="-27.6805197" lon="152.7615877">
<ele>56.224</ele>
<time>2015-12-30T02:52:16.411Z</time>
</trkpt>
<trkpt lat="-27.6805753" lon="152.7621537">
<ele>60.171</ele>
<time>2015-12-30T02:52:18.467Z</time>
</trkpt>
<trkpt lat="-27.6806600" lon="152.7629900">
<ele>62.839</ele>
<time>2015-12-30T02:52:21.543Z</time>
</trkpt>
<trkpt lat="-27.6807359" lon="152.7637898">
<ele>63.981</ele>
<time>2015-12-30T02:52:24.636Z</time>
</trkpt>
<trkpt lat="-27.6808038" lon="152.7642727">
<ele>64.222</ele>
<time>2015-12-30T02:52:26.595Z</time>
</trkpt>
<trkpt lat="-27.6808827" lon="152.7650170">
<ele>63.558</ele>
<time>2015-12-30T02:52:29.647Z</time>
</trkpt>
<trkpt lat="-27.6809577" lon="152.7657350">
<ele>61.994</ele>
<time>2015-12-30T02:52:32.573Z</time>
</trkpt>
<trkpt lat="-27.6810391" lon="152.7664731">
<ele>60.353</ele>
<time>2015-12-30T02:52:35.543Z</time>
</trkpt>
<trkpt lat="-27.6810787" lon="152.7669778">
<ele>59.183</ele>
<time>2015-12-30T02:52:37.548Z</time>
</trkpt>
<trkpt lat="-27.6811415" lon="152.7674726">
<ele>58.361</ele>
<time>2015-12-30T02:52:39.524Z</time>
</trkpt>
<trkpt lat="-27.6812108" lon="152.7679593">
<ele>57.879</ele>
<time>2015-12-30T02:52:41.477Z</time>
</trkpt>
<trkpt lat="-27.6813087" lon="152.7687149">
<ele>57.837</ele>
<time>2015-12-30T02:52:44.505Z</time>
</trkpt>
<trkpt lat="-27.6813867" lon="152.7691929">
<ele>58.243</ele>
<time>2015-12-30T02:52:46.425Z</time>
</trkpt>
<trkpt lat="-27.6815332" lon="152.7699623">
<ele>59.324</ele>
<time>2015-12-30T02:52:49.521Z</time>
</trkpt>
<trkpt lat="-27.6816371" lon="152.7704427">
<ele>61.159</ele>
<time>2015-12-30T02:52:51.466Z</time>
</trkpt>
<trkpt lat="-27.6818172" lon="152.7711694">
<ele>63.236</ele>
<time>2015-12-30T02:52:54.451Z</time>
</trkpt>
<trkpt lat="-27.6819450" lon="152.7716470">
<ele>64.974</ele>
<time>2015-12-30T02:52:56.430Z</time>
</trkpt>
<trkpt lat="-27.6820882" lon="152.7721229">
<ele>66.212</ele>
<time>2015-12-30T02:52:58.410Z</time>
</trkpt>
<trkpt lat="-27.6822383" lon="152.7726053">
<ele>66.986</ele>
<time>2015-12-30T02:53:00.411Z</time>
</trkpt>
<trkpt lat="-27.6824611" lon="152.7733304">
<ele>67.700</ele>
<time>2015-12-30T02:53:03.409Z</time>
</trkpt>
<trkpt lat="-27.6826987" lon="152.7740359">
<ele>68.901</ele>
<time>2015-12-30T02:53:06.361Z</time>
</trkpt>
<trkpt lat="-27.6829771" lon="152.7747299">
<ele>71.032</ele>
<time>2015-12-30T02:53:09.350Z</time>
</trkpt>
<trkpt lat="-27.6831741" lon="152.7751837">
<ele>73.901</ele>
<time>2015-12-30T02:53:11.350Z</time>
</trkpt>
<trkpt lat="-27.6833636" lon="152.7756236">
<ele>76.450</ele>
<time>2015-12-30T02:53:13.298Z</time>
</trkpt>
<trkpt lat="-27.6835778" lon="152.7760676">
<ele>77.904</ele>
<time>2015-12-30T02:53:15.338Z</time>
</trkpt>
<trkpt lat="-27.6839014" lon="152.7767097">
<ele>79.133</ele>
<time>2015-12-30T02:53:18.372Z</time>
</trkpt>
<trkpt lat="-27.6842050" lon="152.7773283">
<ele>80.934</ele>
<time>2015-12-30T02:53:21.312Z</time>
</trkpt>
<trkpt lat="-27.6844038" lon="152.7777458">
<ele>82.636</ele>
<time>2015-12-30T02:53:23.304Z</time>
</trkpt>
<trkpt lat="-27.6846170" lon="152.7781572">
<ele>83.700</ele>
<time>2015-12-30T02:53:25.333Z</time>
</trkpt>
<trkpt lat="-27.6848175" lon="152.7785796">
<ele>84.480</ele>
<time>2015-12-30T02:53:27.395Z</time>
</trkpt>
<trkpt lat="-27.6851474" lon="152.7791854">
<ele>84.995</ele>
<time>2015-12-30T02:53:30.479Z</time>
</trkpt>
<trkpt lat="-27.6853372" lon="152.7795765">
<ele>85.067</ele>
<time>2015-12-30T02:53:32.392Z</time>
</trkpt>
<trkpt lat="-27.6856428" lon="152.7802010">
<ele>84.799</ele>
<time>2015-12-30T02:53:35.346Z</time>
</trkpt>
<trkpt lat="-27.6858567" lon="152.7806305">
<ele>84.485</ele>
<time>2015-12-30T02:53:37.316Z</time>
</trkpt>
<trkpt lat="-27.6861733" lon="152.7813025">
<ele>84.273</ele>
<time>2015-12-30T02:53:40.216Z</time>
</trkpt>
<trkpt lat="-27.6865317" lon="152.7820185">
<ele>84.274</ele>
<time>2015-12-30T02:53:43.232Z</time>
</trkpt>
<trkpt lat="-27.6867781" lon="152.7824956">
<ele>84.572</ele>
<time>2015-12-30T02:53:45.332Z</time>
</trkpt>
<trkpt lat="-27.6870001" lon="152.7829409">
<ele>84.928</ele>
<time>2015-12-30T02:53:47.355Z</time>
</trkpt>
<trkpt lat="-27.6872072" lon="152.7833704">
<ele>84.517</ele>
<time>2015-12-30T02:53:49.313Z</time>
</trkpt>
<trkpt lat="-27.6875413" lon="152.7840233">
<ele>82.946</ele>
<time>2015-12-30T02:53:52.370Z</time>
</trkpt>
<trkpt lat="-27.6877468" lon="152.7844398">
<ele>80.709</ele>
<time>2015-12-30T02:53:54.331Z</time>
</trkpt>
<trkpt lat="-27.6879488" lon="152.7848523">
<ele>78.545</ele>
<time>2015-12-30T02:53:56.267Z</time>
</trkpt>
<trkpt lat="-27.6881600" lon="152.7852772">
<ele>77.035</ele>
<time>2015-12-30T02:53:58.279Z</time>
</trkpt>
<trkpt lat="-27.6883722" lon="152.7856961">
<ele>76.518</ele>
<time>2015-12-30T02:54:00.318Z</time>
</trkpt>
<trkpt lat="-27.6885714" lon="152.7861001">
<ele>76.755</ele>
<time>2015-12-30T02:54:02.324Z</time>
</trkpt>
<trkpt lat="-27.6888625" lon="152.7866881">
<ele>77.317</ele>
<time>2015-12-30T02:54:05.293Z</time>
</trkpt>
<trkpt lat="-27.6890432" lon="152.7870781">
<ele>78.234</ele>
<time>2015-12-30T02:54:07.242Z</time>
</trkpt>
<trkpt lat="-27.6893239" lon="152.7876733">
<ele>79.731</ele>
<time>2015-12-30T02:54:10.224Z</time>
</trkpt>
<trkpt lat="-27.6895263" lon="152.7880646">
<ele>81.563</ele>
<time>2015-12-30T02:54:12.234Z</time>
</trkpt>
<trkpt lat="-27.6898240" lon="152.7886530">
<ele>83.382</ele>
<time>2015-12-30T02:54:15.225Z</time>
</trkpt>
<trkpt lat="-27.6901192" lon="152.7892521">
<ele>85.194</ele>
<time>2015-12-30T02:54:18.181Z</time>
</trkpt>
<trkpt lat="-27.6902985" lon="152.7896880">
<ele>86.782</ele>
<time>2015-12-30T02:54:20.217Z</time>
</trkpt>
<trkpt lat="-27.6905325" lon="152.7903378">
<ele>87.738</ele>
<time>2015-12-30T02:54:23.238Z</time>
</trkpt>
<trkpt lat="-27.6906634" lon="152.7907782">
<ele>87.612</ele>
<time>2015-12-30T02:54:25.260Z</time>
</trkpt>
<trkpt lat="-27.6907705" lon="152.7912066">
<ele>86.464</ele>
<time>2015-12-30T02:54:27.164Z</time>
</trkpt>
<trkpt lat="-27.6909003" lon="152.7918975">
<ele>85.004</ele>
<time>2015-12-30T02:54:30.115Z</time>
</trkpt>
<trkpt lat="-27.6909870" lon="152.7923828">
<ele>83.901</ele>
<time>2015-12-30T02:54:32.088Z</time>
</trkpt>
<trkpt lat="-27.6910752" lon="152.7931536">
<ele>83.303</ele>
<time>2015-12-30T02:54:35.126Z</time>
</trkpt>
<trkpt lat="-27.6910934" lon="152.7936656">
<ele>83.034</ele>
<time>2015-12-30T02:54:37.118Z</time>
</trkpt>
<trkpt lat="-27.6910859" lon="152.7941640">
<ele>82.488</ele>
<time>2015-12-30T02:54:39.060Z</time>
</trkpt>
<trkpt lat="-27.6910393" lon="152.7949466">
<ele>81.417</ele>
<time>2015-12-30T02:54:42.070Z</time>
</trkpt>
<trkpt lat="-27.6909637" lon="152.7954771">
<ele>80.244</ele>
<time>2015-12-30T02:54:44.097Z</time>
</trkpt>
<trkpt lat="-27.6908176" lon="152.7962432">
<ele>78.833</ele>
<time>2015-12-30T02:54:47.066Z</time>
</trkpt>
<trkpt lat="-27.6906279" lon="152.7969916">
<ele>76.781</ele>
<time>2015-12-30T02:54:50.048Z</time>
</trkpt>
<trkpt lat="-27.6903917" lon="152.7977249">
<ele>74.442</ele>
<time>2015-12-30T02:54:53.090Z</time>
</trkpt>
<trkpt lat="-27.6902219" lon="152.7981890">
<ele>72.270</ele>
<time>2015-12-30T02:54:55.109Z</time>
</trkpt>
<trkpt lat="-27.6899069" lon="152.7988553">
<ele>70.361</ele>
<time>2015-12-30T02:54:58.262Z</time>
</trkpt>
<trkpt lat="-27.6897988" lon="152.7990570">
<ele>68.189</ele>
<time>2015-12-30T02:54:59.329Z</time>
</trkpt>
<trkpt lat="-27.6893891" lon="152.7997880">
<ele>65.367</ele>
<time>2015-12-30T02:55:03.311Z</time>
</trkpt>
<trkpt lat="-27.6890772" lon="152.8003344">
<ele>62.483</ele>
<time>2015-12-30T02:55:06.306Z</time>
</trkpt>
<trkpt lat="-27.6887429" lon="152.8008775">
<ele>60.130</ele>
<time>2015-12-30T02:55:09.397Z</time>
</trkpt>
<trkpt lat="-27.6884921" lon="152.8011954">
<ele>58.526</ele>
<time>2015-12-30T02:55:11.606Z</time>
</trkpt>
<trkpt lat="-27.6883167" lon="152.8014736">
<ele>57.604</ele>
<time>2015-12-30T02:55:13.570Z</time>
</trkpt>
<trkpt lat="-27.6881450" lon="152.8019305">
<ele>56.184</ele>
<time>2015-12-30T02:55:17.002Z</time>
</trkpt>
<trkpt lat="-27.6879787" lon="152.8021211">
<ele>53.734</ele>
<time>2015-12-30T02:55:19.152Z</time>
</trkpt>
<trkpt lat="-27.6877656" lon="152.8021941">
<ele>50.927</ele>
<time>2015-12-30T02:55:21.196Z</time>
</trkpt>
<trkpt lat="-27.6875560" lon="152.8024548">
<ele>48.418</ele>
<time>2015-12-30T02:55:23.598Z</time>
</trkpt>
<trkpt lat="-27.6875324" lon="152.8027650">
<ele>46.789</ele>
<time>2015-12-30T02:55:25.306Z</time>
</trkpt>
<trkpt lat="-27.6874220" lon="152.8031345">
<ele>46.711</ele>
<time>2015-12-30T02:55:27.090Z</time>
</trkpt>
<trkpt lat="-27.6871567" lon="152.8037910">
<ele>48.464</ele>
<time>2015-12-30T02:55:30.105Z</time>
</trkpt>
<trkpt lat="-27.6868468" lon="152.8045474">
<ele>52.242</ele>
<time>2015-12-30T02:55:33.328Z</time>
</trkpt>
<trkpt lat="-27.6866583" lon="152.8050491">
<ele>57.179</ele>
<time>2015-12-30T02:55:35.306Z</time>
</trkpt>
<trkpt lat="-27.6864878" lon="152.8055568">
<ele>61.418</ele>
<time>2015-12-30T02:55:37.200Z</time>
</trkpt>
<trkpt lat="-27.6863210" lon="152.8061103">
<ele>63.773</ele>
<time>2015-12-30T02:55:39.184Z</time>
</trkpt>
<trkpt lat="-27.6861001" lon="152.8070022">
<ele>64.484</ele>
<time>2015-12-30T02:55:42.314Z</time>
</trkpt>
<trkpt lat="-27.6859502" lon="152.8078642">
<ele>64.358</ele>
<time>2015-12-30T02:55:45.248Z</time>
</trkpt>
<trkpt lat="-27.6858703" lon="152.8084696">
<ele>64.023</ele>
<time>2015-12-30T02:55:47.252Z</time>
</trkpt>
<trkpt lat="-27.6858161" lon="152.8090966">
<ele>61.972</ele>
<time>2015-12-30T02:55:49.303Z</time>
</trkpt>
<trkpt lat="-27.6857808" lon="152.8100085">
<ele>57.242</ele>
<time>2015-12-30T02:55:52.279Z</time>
</trkpt>
<trkpt lat="-27.6857801" lon="152.8106150">
<ele>52.611</ele>
<time>2015-12-30T02:55:54.276Z</time>
</trkpt>
<trkpt lat="-27.6858522" lon="152.8114965">
<ele>50.958</ele>
<time>2015-12-30T02:55:57.202Z</time>
</trkpt>
<trkpt lat="-27.6859244" lon="152.8120867">
<ele>52.208</ele>
<time>2015-12-30T02:55:59.183Z</time>
</trkpt>
<trkpt lat="-27.6860014" lon="152.8126831">
<ele>55.194</ele>
<time>2015-12-30T02:56:01.214Z</time>
</trkpt>
<trkpt lat="-27.6860976" lon="152.8132545">
<ele>58.273</ele>
<time>2015-12-30T02:56:03.231Z</time>
</trkpt>
<trkpt lat="-27.6863007" lon="152.8140715">
<ele>61.379</ele>
<time>2015-12-30T02:56:06.258Z</time>
</trkpt>
<trkpt lat="-27.6865350" lon="152.8148433">
<ele>65.096</ele>
<time>2015-12-30T02:56:09.238Z</time>
</trkpt>
<trkpt lat="-27.6867040" lon="152.8153504">
<ele>68.199</ele>
<time>2015-12-30T02:56:11.227Z</time>
</trkpt>
<trkpt lat="-27.6869492" lon="152.8161141">
<ele>69.306</ele>
<time>2015-12-30T02:56:14.184Z</time>
</trkpt>
<trkpt lat="-27.6871859" lon="152.8168954">
<ele>69.021</ele>
<time>2015-12-30T02:56:17.146Z</time>
</trkpt>
<trkpt lat="-27.6873225" lon="152.8174389">
<ele>68.352</ele>
<time>2015-12-30T02:56:19.144Z</time>
</trkpt>
<trkpt lat="-27.6874380" lon="152.8179792">
<ele>67.603</ele>
<time>2015-12-30T02:56:21.095Z</time>
</trkpt>
<trkpt lat="-27.6875760" lon="152.8188176">
<ele>66.599</ele>
<time>2015-12-30T02:56:24.130Z</time>
</trkpt>
<trkpt lat="-27.6876495" lon="152.8193678">
<ele>65.451</ele>
<time>2015-12-30T02:56:26.141Z</time>
</trkpt>
<trkpt lat="-27.6877072" lon="152.8201855">
<ele>64.329</ele>
<time>2015-12-30T02:56:29.097Z</time>
</trkpt>
<trkpt lat="-27.6877176" lon="152.8207398">
<ele>63.187</ele>
<time>2015-12-30T02:56:31.090Z</time>
</trkpt>
<trkpt lat="-27.6876937" lon="152.8215671">
<ele>61.802</ele>
<time>2015-12-30T02:56:34.073Z</time>
</trkpt>
<trkpt lat="-27.6876656" lon="152.8221085">
<ele>60.307</ele>
<time>2015-12-30T02:56:36.046Z</time>
</trkpt>
<trkpt lat="-27.6875670" lon="152.8229068">
<ele>59.479</ele>
<time>2015-12-30T02:56:38.985Z</time>
</trkpt>
<trkpt lat="-27.6874326" lon="152.8237084">
<ele>59.753</ele>
<time>2015-12-30T02:56:41.956Z</time>
</trkpt>
<trkpt lat="-27.6873169" lon="152.8242468">
<ele>60.914</ele>
<time>2015-12-30T02:56:43.976Z</time>
</trkpt>
<trkpt lat="-27.6871093" lon="152.8250308">
<ele>62.648</ele>
<time>2015-12-30T02:56:46.970Z</time>
</trkpt>
<trkpt lat="-27.6869407" lon="152.8255437">
<ele>64.506</ele>
<time>2015-12-30T02:56:48.994Z</time>
</trkpt>
<trkpt lat="-27.6866752" lon="152.8262958">
<ele>66.261</ele>
<time>2015-12-30T02:56:52.006Z</time>
</trkpt>
<trkpt lat="-27.6864578" lon="152.8267924">
<ele>68.109</ele>
<time>2015-12-30T02:56:54.071Z</time>
</trkpt>
<trkpt lat="-27.6860886" lon="152.8275021">
<ele>70.320</ele>
<time>2015-12-30T02:56:57.138Z</time>
</trkpt>
<trkpt lat="-27.6858397" lon="152.8279424">
<ele>72.664</ele>
<time>2015-12-30T02:56:59.056Z</time>
</trkpt>
<trkpt lat="-27.6854258" lon="152.8286138">
<ele>74.308</ele>
<time>2015-12-30T02:57:02.016Z</time>
</trkpt>
<trkpt lat="-27.6849550" lon="152.8292695">
<ele>75.496</ele>
<time>2015-12-30T02:57:05.033Z</time>
</trkpt>
<trkpt lat="-27.6846254" lon="152.8296960">
<ele>77.260</ele>
<time>2015-12-30T02:57:07.050Z</time>
</trkpt>
<trkpt lat="-27.6841156" lon="152.8302901">
<ele>79.241</ele>
<time>2015-12-30T02:57:10.004Z</time>
</trkpt>
<trkpt lat="-27.6836001" lon="152.8308608">
<ele>80.674</ele>
<time>2015-12-30T02:57:12.914Z</time>
</trkpt>
<trkpt lat="-27.6832528" lon="152.8312605">
<ele>82.035</ele>
<time>2015-12-30T02:57:14.900Z</time>
</trkpt>
<trkpt lat="-27.6828980" lon="152.8316613">
<ele>83.760</ele>
<time>2015-12-30T02:57:16.907Z</time>
</trkpt>
<trkpt lat="-27.6823739" lon="152.8322718">
<ele>85.628</ele>
<time>2015-12-30T02:57:19.932Z</time>
</trkpt>
<trkpt lat="-27.6820307" lon="152.8326764">
<ele>86.936</ele>
<time>2015-12-30T02:57:21.966Z</time>
</trkpt>
<trkpt lat="-27.6815159" lon="152.8332706">
<ele>87.459</ele>
<time>2015-12-30T02:57:25.008Z</time>
</trkpt>
<trkpt lat="-27.6811817" lon="152.8336585">
<ele>87.809</ele>
<time>2015-12-30T02:57:26.980Z</time>
</trkpt>
<trkpt lat="-27.6808473" lon="152.8340438">
<ele>88.295</ele>
<time>2015-12-30T02:57:28.917Z</time>
</trkpt>
<trkpt lat="-27.6803197" lon="152.8346453">
<ele>88.580</ele>
<time>2015-12-30T02:57:31.966Z</time>
</trkpt>
<trkpt lat="-27.6799803" lon="152.8350274">
<ele>88.668</ele>
<time>2015-12-30T02:57:33.956Z</time>
</trkpt>
<trkpt lat="-27.6796595" lon="152.8354098">
<ele>88.354</ele>
<time>2015-12-30T02:57:35.909Z</time>
</trkpt>
<trkpt lat="-27.6793248" lon="152.8357889">
<ele>87.533</ele>
<time>2015-12-30T02:57:37.881Z</time>
</trkpt>
<trkpt lat="-27.6788130" lon="152.8363668">
<ele>86.702</ele>
<time>2015-12-30T02:57:40.901Z</time>
</trkpt>
<trkpt lat="-27.6784855" lon="152.8367475">
<ele>86.442</ele>
<time>2015-12-30T02:57:43.008Z</time>
</trkpt>
<trkpt lat="-27.6780515" lon="152.8372583">
<ele>86.728</ele>
<time>2015-12-30T02:57:46.017Z</time>
</trkpt>
<trkpt lat="-27.6777912" lon="152.8375596">
<ele>86.697</ele>
<time>2015-12-30T02:57:47.978Z</time>
</trkpt>
<trkpt lat="-27.6775274" lon="152.8378491">
<ele>85.683</ele>
<time>2015-12-30T02:57:50.013Z</time>
</trkpt>
<trkpt lat="-27.6771305" lon="152.8382406">
<ele>84.321</ele>
<time>2015-12-30T02:57:53.062Z</time>
</trkpt>
<trkpt lat="-27.6767615" lon="152.8386317">
<ele>83.470</ele>
<time>2015-12-30T02:57:56.284Z</time>
</trkpt>
<trkpt lat="-27.6765825" lon="152.8389020">
<ele>82.861</ele>
<time>2015-12-30T02:57:58.518Z</time>
</trkpt>
<trkpt lat="-27.6763078" lon="152.8391191">
<ele>82.028</ele>
<time>2015-12-30T02:58:01.383Z</time>
</trkpt>
<trkpt lat="-27.6760772" lon="152.8391583">
<ele>82.792</ele>
<time>2015-12-30T02:58:03.390Z</time>
</trkpt>
<trkpt lat="-27.6759120" lon="152.8393281">
<ele>86.493</ele>
<time>2015-12-30T02:58:05.099Z</time>
</trkpt>
<trkpt lat="-27.6757896" lon="152.8398041">
<ele>90.642</ele>
<time>2015-12-30T02:58:07.898Z</time>
</trkpt>
<trkpt lat="-27.6756626" lon="152.8402009">
<ele>91.663</ele>
<time>2015-12-30T02:58:09.777Z</time>
</trkpt>
<trkpt lat="-27.6754796" lon="152.8406543">
<ele>89.276</ele>
<time>2015-12-30T02:58:11.788Z</time>
</trkpt>
<trkpt lat="-27.6752705" lon="152.8411562">
<ele>86.565</ele>
<time>2015-12-30T02:58:13.884Z</time>
</trkpt>
<trkpt lat="-27.6750404" lon="152.8417045">
<ele>86.645</ele>
<time>2015-12-30T02:58:16.073Z</time>
</trkpt>
<trkpt lat="-27.6747601" lon="152.8424770">
<ele>89.157</ele>
<time>2015-12-30T02:58:19.051Z</time>
</trkpt>
<trkpt lat="-27.6746059" lon="152.8430021">
<ele>91.792</ele>
<time>2015-12-30T02:58:21.001Z</time>
</trkpt>
<trkpt lat="-27.6744534" lon="152.8435400">
<ele>92.941</ele>
<time>2015-12-30T02:58:22.968Z</time>
</trkpt>
<trkpt lat="-27.6743312" lon="152.8440960">
<ele>92.456</ele>
<time>2015-12-30T02:58:24.951Z</time>
</trkpt>
<trkpt lat="-27.6742389" lon="152.8446431">
<ele>91.128</ele>
<time>2015-12-30T02:58:26.888Z</time>
</trkpt>
<trkpt lat="-27.6741596" lon="152.8451960">
<ele>90.382</ele>
<time>2015-12-30T02:58:28.855Z</time>
</trkpt>
<trkpt lat="-27.6741009" lon="152.8457662">
<ele>90.850</ele>
<time>2015-12-30T02:58:30.918Z</time>
</trkpt>
<trkpt lat="-27.6740676" lon="152.8465828">
<ele>90.816</ele>
<time>2015-12-30T02:58:33.917Z</time>
</trkpt>
<trkpt lat="-27.6740839" lon="152.8471252">
<ele>88.739</ele>
<time>2015-12-30T02:58:35.921Z</time>
</trkpt>
<trkpt lat="-27.6741302" lon="152.8479509">
<ele>85.945</ele>
<time>2015-12-30T02:58:38.929Z</time>
</trkpt>
<trkpt lat="-27.6741930" lon="152.8485024">
<ele>84.666</ele>
<time>2015-12-30T02:58:40.934Z</time>
</trkpt>
<trkpt lat="-27.6743096" lon="152.8493249">
<ele>85.219</ele>
<time>2015-12-30T02:58:43.920Z</time>
</trkpt>
<trkpt lat="-27.6744036" lon="152.8498681">
<ele>86.387</ele>
<time>2015-12-30T02:58:45.894Z</time>
</trkpt>
<trkpt lat="-27.6745423" lon="152.8506644">
<ele>87.161</ele>
<time>2015-12-30T02:58:48.794Z</time>
</trkpt>
<trkpt lat="-27.6746418" lon="152.8511967">
<ele>87.508</ele>
<time>2015-12-30T02:58:50.737Z</time>
</trkpt>
<trkpt lat="-27.6748074" lon="152.8520164">
<ele>87.392</ele>
<time>2015-12-30T02:58:53.739Z</time>
</trkpt>
<trkpt lat="-27.6749112" lon="152.8525670">
<ele>86.817</ele>
<time>2015-12-30T02:58:55.753Z</time>
</trkpt>
<trkpt lat="-27.6750202" lon="152.8531200">
<ele>86.365</ele>
<time>2015-12-30T02:58:57.785Z</time>
</trkpt>
<trkpt lat="-27.6751357" lon="152.8536496">
<ele>86.518</ele>
<time>2015-12-30T02:58:59.752Z</time>
</trkpt>
<trkpt lat="-27.6752958" lon="152.8544577">
<ele>87.175</ele>
<time>2015-12-30T02:59:02.743Z</time>
</trkpt>
<trkpt lat="-27.6753950" lon="152.8550046">
<ele>88.439</ele>
<time>2015-12-30T02:59:04.755Z</time>
</trkpt>
<trkpt lat="-27.6755521" lon="152.8558078">
<ele>90.735</ele>
<time>2015-12-30T02:59:07.727Z</time>
</trkpt>
<trkpt lat="-27.6756531" lon="152.8563423">
<ele>94.168</ele>
<time>2015-12-30T02:59:09.761Z</time>
</trkpt>
<trkpt lat="-27.6758022" lon="152.8571110">
<ele>98.125</ele>
<time>2015-12-30T02:59:12.745Z</time>
</trkpt>
<trkpt lat="-27.6758962" lon="152.8576150">
<ele>101.402</ele>
<time>2015-12-30T02:59:14.705Z</time>
</trkpt>
<trkpt lat="-27.6759910" lon="152.8581310">
<ele>103.154</ele>
<time>2015-12-30T02:59:16.677Z</time>
</trkpt>
<trkpt lat="-27.6761405" lon="152.8589253">
<ele>103.691</ele>
<time>2015-12-30T02:59:19.678Z</time>
</trkpt>
<trkpt lat="-27.6762717" lon="152.8597383">
<ele>104.181</ele>
<time>2015-12-30T02:59:22.683Z</time>
</trkpt>
<trkpt lat="-27.6763948" lon="152.8605612">
<ele>105.332</ele>
<time>2015-12-30T02:59:25.680Z</time>
</trkpt>
<trkpt lat="-27.6764897" lon="152.8613944">
<ele>106.537</ele>
<time>2015-12-30T02:59:28.690Z</time>
</trkpt>
<trkpt lat="-27.6765316" lon="152.8619523">
<ele>106.796</ele>
<time>2015-12-30T02:59:30.688Z</time>
</trkpt>
<trkpt lat="-27.6765873" lon="152.8628051">
<ele>106.028</ele>
<time>2015-12-30T02:59:33.687Z</time>
</trkpt>
<trkpt lat="-27.6766193" lon="152.8633773">
<ele>104.449</ele>
<time>2015-12-30T02:59:35.689Z</time>
</trkpt>
<trkpt lat="-27.6766252" lon="152.8639466">
<ele>102.190</ele>
<time>2015-12-30T02:59:37.680Z</time>
</trkpt>
<trkpt lat="-27.6766203" lon="152.8648068">
<ele>99.514</ele>
<time>2015-12-30T02:59:40.681Z</time>
</trkpt>
<trkpt lat="-27.6766017" lon="152.8656658">
<ele>96.882</ele>
<time>2015-12-30T02:59:43.665Z</time>
</trkpt>
<trkpt lat="-27.6765729" lon="152.8662430">
<ele>94.269</ele>
<time>2015-12-30T02:59:45.682Z</time>
</trkpt>
<trkpt lat="-27.6765240" lon="152.8668192">
<ele>90.995</ele>
<time>2015-12-30T02:59:47.716Z</time>
</trkpt>
<trkpt lat="-27.6764359" lon="152.8676418">
<ele>86.804</ele>
<time>2015-12-30T02:59:50.639Z</time>
</trkpt>
<trkpt lat="-27.6763567" lon="152.8682068">
<ele>82.152</ele>
<time>2015-12-30T02:59:52.630Z</time>
</trkpt>
<trkpt lat="-27.6762717" lon="152.8687736">
<ele>77.701</ele>
<time>2015-12-30T02:59:54.617Z</time>
</trkpt>
<trkpt lat="-27.6761138" lon="152.8696137">
<ele>74.438</ele>
<time>2015-12-30T02:59:57.566Z</time>
</trkpt>
<trkpt lat="-27.6759228" lon="152.8704753">
<ele>72.435</ele>
<time>2015-12-30T03:00:00.580Z</time>
</trkpt>
<trkpt lat="-27.6757799" lon="152.8710428">
<ele>70.920</ele>
<time>2015-12-30T03:00:02.582Z</time>
</trkpt>
<trkpt lat="-27.6756462" lon="152.8716062">
<ele>69.823</ele>
<time>2015-12-30T03:00:04.610Z</time>
</trkpt>
<trkpt lat="-27.6754850" lon="152.8721446">
<ele>69.315</ele>
<time>2015-12-30T03:00:06.635Z</time>
</trkpt>
<trkpt lat="-27.6752401" lon="152.8729133">
<ele>69.104</ele>
<time>2015-12-30T03:00:09.591Z</time>
</trkpt>
<trkpt lat="-27.6749586" lon="152.8736784">
<ele>68.931</ele>
<time>2015-12-30T03:00:12.597Z</time>
</trkpt>
<trkpt lat="-27.6747579" lon="152.8741765">
<ele>70.044</ele>
<time>2015-12-30T03:00:14.578Z</time>
</trkpt>
<trkpt lat="-27.6745587" lon="152.8746715">
<ele>73.413</ele>
<time>2015-12-30T03:00:16.544Z</time>
</trkpt>
<trkpt lat="-27.6743360" lon="152.8751738">
<ele>77.347</ele>
<time>2015-12-30T03:00:18.584Z</time>
</trkpt>
<trkpt lat="-27.6740088" lon="152.8759078">
<ele>80.066</ele>
<time>2015-12-30T03:00:21.556Z</time>
</trkpt>
<trkpt lat="-27.6737826" lon="152.8764038">
<ele>82.159</ele>
<time>2015-12-30T03:00:23.543Z</time>
</trkpt>
<trkpt lat="-27.6735631" lon="152.8768980">
<ele>84.340</ele>
<time>2015-12-30T03:00:25.529Z</time>
</trkpt>
<trkpt lat="-27.6732318" lon="152.8776300">
<ele>86.560</ele>
<time>2015-12-30T03:00:28.528Z</time>
</trkpt>
<trkpt lat="-27.6729088" lon="152.8783428">
<ele>88.521</ele>
<time>2015-12-30T03:00:31.493Z</time>
</trkpt>
<trkpt lat="-27.6725766" lon="152.8790708">
<ele>89.854</ele>
<time>2015-12-30T03:00:34.541Z</time>
</trkpt>
<trkpt lat="-27.6722646" lon="152.8797884">
<ele>90.099</ele>
<time>2015-12-30T03:00:37.510Z</time>
</trkpt>
<trkpt lat="-27.6719646" lon="152.8805348">
<ele>88.842</ele>
<time>2015-12-30T03:00:40.494Z</time>
</trkpt>
<trkpt lat="-27.6717846" lon="152.8810706">
<ele>86.500</ele>
<time>2015-12-30T03:00:42.488Z</time>
</trkpt>
<trkpt lat="-27.6715550" lon="152.8819277">
<ele>84.730</ele>
<time>2015-12-30T03:00:45.523Z</time>
</trkpt>
<trkpt lat="-27.6714336" lon="152.8824981">
<ele>84.448</ele>
<time>2015-12-30T03:00:47.466Z</time>
</trkpt>
<trkpt lat="-27.6712898" lon="152.8833943">
<ele>84.855</ele>
<time>2015-12-30T03:00:50.488Z</time>
</trkpt>
<trkpt lat="-27.6712238" lon="152.8839814">
<ele>84.565</ele>
<time>2015-12-30T03:00:52.462Z</time>
</trkpt>
<trkpt lat="-27.6711751" lon="152.8848683">
<ele>82.968</ele>
<time>2015-12-30T03:00:55.438Z</time>
</trkpt>
<trkpt lat="-27.6711744" lon="152.8854445">
<ele>80.543</ele>
<time>2015-12-30T03:00:57.435Z</time>
</trkpt>
<trkpt lat="-27.6712205" lon="152.8862827">
<ele>78.254</ele>
<time>2015-12-30T03:01:00.449Z</time>
</trkpt>
<trkpt lat="-27.6712954" lon="152.8870835">
<ele>77.004</ele>
<time>2015-12-30T03:01:03.443Z</time>
</trkpt>
<trkpt lat="-27.6714267" lon="152.8878545">
<ele>77.139</ele>
<time>2015-12-30T03:01:06.366Z</time>
</trkpt>
<trkpt lat="-27.6715889" lon="152.8885938">
<ele>78.024</ele>
<time>2015-12-30T03:01:09.141Z</time>
</trkpt>
<trkpt lat="-27.6718277" lon="152.8894713">
<ele>78.910</ele>
<time>2015-12-30T03:01:12.401Z</time>
</trkpt>
<trkpt lat="-27.6719789" lon="152.8900104">
<ele>80.079</ele>
<time>2015-12-30T03:01:14.432Z</time>
</trkpt>
<trkpt lat="-27.6721969" lon="152.8907620">
<ele>81.873</ele>
<time>2015-12-30T03:01:17.350Z</time>
</trkpt>
<trkpt lat="-27.6723499" lon="152.8912470">
<ele>83.485</ele>
<time>2015-12-30T03:01:19.305Z</time>
</trkpt>
<trkpt lat="-27.6724965" lon="152.8917383">
<ele>84.114</ele>
<time>2015-12-30T03:01:21.297Z</time>
</trkpt>
<trkpt lat="-27.6727159" lon="152.8924808">
<ele>83.711</ele>
<time>2015-12-30T03:01:24.327Z</time>
</trkpt>
<trkpt lat="-27.6728533" lon="152.8929674">
<ele>82.575</ele>
<time>2015-12-30T03:01:26.291Z</time>
</trkpt>
<trkpt lat="-27.6730754" lon="152.8937093">
<ele>81.499</ele>
<time>2015-12-30T03:01:29.277Z</time>
</trkpt>
<trkpt lat="-27.6732246" lon="152.8942018">
<ele>80.898</ele>
<time>2015-12-30T03:01:31.237Z</time>
</trkpt>
<trkpt lat="-27.6734483" lon="152.8949631">
<ele>80.290</ele>
<time>2015-12-30T03:01:34.220Z</time>
</trkpt>
<trkpt lat="-27.6736943" lon="152.8957320">
<ele>79.190</ele>
<time>2015-12-30T03:01:37.209Z</time>
</trkpt>
<trkpt lat="-27.6739347" lon="152.8965198">
<ele>77.622</ele>
<time>2015-12-30T03:01:40.196Z</time>
</trkpt>
<trkpt lat="-27.6741410" lon="152.8973280">
<ele>75.395</ele>
<time>2015-12-30T03:01:43.152Z</time>
</trkpt>
<trkpt lat="-27.6743615" lon="152.8981536">
<ele>72.307</ele>
<time>2015-12-30T03:01:46.173Z</time>
</trkpt>
<trkpt lat="-27.6744866" lon="152.8986929">
<ele>69.150</ele>
<time>2015-12-30T03:01:48.158Z</time>
</trkpt>
<trkpt lat="-27.6746926" lon="152.8995002">
<ele>66.760</ele>
<time>2015-12-30T03:01:51.191Z</time>
</trkpt>
<trkpt lat="-27.6748017" lon="152.9000046">
<ele>65.071</ele>
<time>2015-12-30T03:01:53.101Z</time>
</trkpt>
<trkpt lat="-27.6748843" lon="152.9007846">
<ele>63.794</ele>
<time>2015-12-30T03:01:56.019Z</time>
</trkpt>
<trkpt lat="-27.6749023" lon="152.9015867">
<ele>62.170</ele>
<time>2015-12-30T03:01:59.021Z</time>
</trkpt>
<trkpt lat="-27.6748965" lon="152.9021218">
<ele>59.650</ele>
<time>2015-12-30T03:02:01.024Z</time>
</trkpt>
<trkpt lat="-27.6748554" lon="152.9029261">
<ele>57.016</ele>
<time>2015-12-30T03:02:04.034Z</time>
</trkpt>
<trkpt lat="-27.6748187" lon="152.9037416">
<ele>54.920</ele>
<time>2015-12-30T03:02:07.076Z</time>
</trkpt>
<trkpt lat="-27.6747549" lon="152.9042764">
<ele>53.321</ele>
<time>2015-12-30T03:02:09.061Z</time>
</trkpt>
<trkpt lat="-27.6746042" lon="152.9050850">
<ele>52.465</ele>
<time>2015-12-30T03:02:12.073Z</time>
</trkpt>
<trkpt lat="-27.6744865" lon="152.9056360">
<ele>52.474</ele>
<time>2015-12-30T03:02:14.129Z</time>
</trkpt>
<trkpt lat="-27.6742848" lon="152.9064124">
<ele>52.961</ele>
<time>2015-12-30T03:02:17.058Z</time>
</trkpt>
<trkpt lat="-27.6741284" lon="152.9069264">
<ele>53.493</ele>
<time>2015-12-30T03:02:19.037Z</time>
</trkpt>
<trkpt lat="-27.6739498" lon="152.9074270">
<ele>53.811</ele>
<time>2015-12-30T03:02:21.029Z</time>
</trkpt>
<trkpt lat="-27.6736562" lon="152.9081749">
<ele>53.886</ele>
<time>2015-12-30T03:02:24.074Z</time>
</trkpt>
<trkpt lat="-27.6734537" lon="152.9086422">
<ele>53.894</ele>
<time>2015-12-30T03:02:26.017Z</time>
</trkpt>
<trkpt lat="-27.6732158" lon="152.9091218">
<ele>54.276</ele>
<time>2015-12-30T03:02:28.049Z</time>
</trkpt>
<trkpt lat="-27.6728394" lon="152.9098351">
<ele>55.349</ele>
<time>2015-12-30T03:02:31.086Z</time>
</trkpt>
<trkpt lat="-27.6724409" lon="152.9105030">
<ele>56.847</ele>
<time>2015-12-30T03:02:34.001Z</time>
</trkpt>
<trkpt lat="-27.6721411" lon="152.9109575">
<ele>58.167</ele>
<time>2015-12-30T03:02:36.033Z</time>
</trkpt>
<trkpt lat="-27.6716748" lon="152.9116161">
<ele>58.980</ele>
<time>2015-12-30T03:02:39.057Z</time>
</trkpt>
<trkpt lat="-27.6711838" lon="152.9122207">
<ele>59.416</ele>
<time>2015-12-30T03:02:42.023Z</time>
</trkpt>
<trkpt lat="-27.6708326" lon="152.9125753">
<ele>59.817</ele>
<time>2015-12-30T03:02:43.957Z</time>
</trkpt>
<trkpt lat="-27.6702630" lon="152.9131018">
<ele>60.153</ele>
<time>2015-12-30T03:02:46.981Z</time>
</trkpt>
<trkpt lat="-27.6697373" lon="152.9136895">
<ele>60.354</ele>
<time>2015-12-30T03:02:50.031Z</time>
</trkpt>
<trkpt lat="-27.6693547" lon="152.9140053">
<ele>60.554</ele>
<time>2015-12-30T03:02:52.020Z</time>
</trkpt>
<trkpt lat="-27.6688140" lon="152.9144980">
<ele>60.816</ele>
<time>2015-12-30T03:02:54.982Z</time>
</trkpt>
<trkpt lat="-27.6682758" lon="152.9150149">
<ele>61.026</ele>
<time>2015-12-30T03:02:58.017Z</time>
</trkpt>
<trkpt lat="-27.6677298" lon="152.9155115">
<ele>61.173</ele>
<time>2015-12-30T03:03:01.032Z</time>
</trkpt>
<trkpt lat="-27.6673794" lon="152.9158187">
<ele>61.260</ele>
<time>2015-12-30T03:03:02.951Z</time>
</trkpt>
<trkpt lat="-27.6670168" lon="152.9161511">
<ele>61.474</ele>
<time>2015-12-30T03:03:04.966Z</time>
</trkpt>
<trkpt lat="-27.6666369" lon="152.9164549">
<ele>61.967</ele>
<time>2015-12-30T03:03:06.953Z</time>
</trkpt>
<trkpt lat="-27.6662712" lon="152.9167796">
<ele>62.631</ele>
<time>2015-12-30T03:03:08.898Z</time>
</trkpt>
<trkpt lat="-27.6656926" lon="152.9173151">
<ele>63.294</ele>
<time>2015-12-30T03:03:11.942Z</time>
</trkpt>
<trkpt lat="-27.6651140" lon="152.9178833">
<ele>64.227</ele>
<time>2015-12-30T03:03:14.996Z</time>
</trkpt>
<trkpt lat="-27.6647239" lon="152.9182322">
<ele>65.537</ele>
<time>2015-12-30T03:03:16.988Z</time>
</trkpt>
<trkpt lat="-27.6643537" lon="152.9186384">
<ele>66.660</ele>
<time>2015-12-30T03:03:19.056Z</time>
</trkpt>
<trkpt lat="-27.6637850" lon="152.9191388">
<ele>67.165</ele>
<time>2015-12-30T03:03:21.940Z</time>
</trkpt>
<trkpt lat="-27.6633844" lon="152.9194954">
<ele>67.294</ele>
<time>2015-12-30T03:03:23.966Z</time>
</trkpt>
<trkpt lat="-27.6629757" lon="152.9198550">
<ele>67.318</ele>
<time>2015-12-30T03:03:26.015Z</time>
</trkpt>
<trkpt lat="-27.6623966" lon="152.9203582">
<ele>67.937</ele>
<time>2015-12-30T03:03:28.915Z</time>
</trkpt>
<trkpt lat="-27.6618057" lon="152.9208531">
<ele>70.119</ele>
<time>2015-12-30T03:03:31.864Z</time>
</trkpt>
<trkpt lat="-27.6614075" lon="152.9211839">
<ele>73.533</ele>
<time>2015-12-30T03:03:33.878Z</time>
</trkpt>
<trkpt lat="-27.6610346" lon="152.9215265">
<ele>76.529</ele>
<time>2015-12-30T03:03:35.855Z</time>
</trkpt>
<trkpt lat="-27.6604694" lon="152.9220381">
<ele>77.967</ele>
<time>2015-12-30T03:03:38.832Z</time>
</trkpt>
<trkpt lat="-27.6598924" lon="152.9225468">
<ele>78.035</ele>
<time>2015-12-30T03:03:41.814Z</time>
</trkpt>
<trkpt lat="-27.6594968" lon="152.9229025">
<ele>77.714</ele>
<time>2015-12-30T03:03:43.872Z</time>
</trkpt>
<trkpt lat="-27.6591075" lon="152.9232457">
<ele>77.747</ele>
<time>2015-12-30T03:03:45.888Z</time>
</trkpt>
<trkpt lat="-27.6587346" lon="152.9236014">
<ele>78.041</ele>
<time>2015-12-30T03:03:47.891Z</time>
</trkpt>
<trkpt lat="-27.6583603" lon="152.9239462">
<ele>78.153</ele>
<time>2015-12-30T03:03:49.882Z</time>
</trkpt>
<trkpt lat="-27.6577879" lon="152.9244759">
<ele>77.994</ele>
<time>2015-12-30T03:03:52.908Z</time>
</trkpt>
<trkpt lat="-27.6573986" lon="152.9248143">
<ele>77.738</ele>
<time>2015-12-30T03:03:54.910Z</time>
</trkpt>
<trkpt lat="-27.6570229" lon="152.9251407">
<ele>77.407</ele>
<time>2015-12-30T03:03:56.858Z</time>
</trkpt>
<trkpt lat="-27.6564558" lon="152.9256468">
<ele>76.805</ele>
<time>2015-12-30T03:03:59.857Z</time>
</trkpt>
<trkpt lat="-27.6560901" lon="152.9259797">
<ele>75.635</ele>
<time>2015-12-30T03:04:01.824Z</time>
</trkpt>
<trkpt lat="-27.6555178" lon="152.9264918">
<ele>73.999</ele>
<time>2015-12-30T03:04:04.864Z</time>
</trkpt>
<trkpt lat="-27.6551424" lon="152.9268242">
<ele>72.518</ele>
<time>2015-12-30T03:04:06.816Z</time>
</trkpt>
<trkpt lat="-27.6545615" lon="152.9273432">
<ele>71.304</ele>
<time>2015-12-30T03:04:09.809Z</time>
</trkpt>
<trkpt lat="-27.6541622" lon="152.9276961">
<ele>69.642</ele>
<time>2015-12-30T03:04:11.840Z</time>
</trkpt>
<trkpt lat="-27.6537710" lon="152.9280503">
<ele>67.238</ele>
<time>2015-12-30T03:04:13.854Z</time>
</trkpt>
<trkpt lat="-27.6531898" lon="152.9285817">
<ele>64.876</ele>
<time>2015-12-30T03:04:16.850Z</time>
</trkpt>
<trkpt lat="-27.6526079" lon="152.9290911">
<ele>62.998</ele>
<time>2015-12-30T03:04:19.820Z</time>
</trkpt>
<trkpt lat="-27.6520492" lon="152.9296099">
<ele>61.090</ele>
<time>2015-12-30T03:04:22.802Z</time>
</trkpt>
<trkpt lat="-27.6516750" lon="152.9299482">
<ele>59.153</ele>
<time>2015-12-30T03:04:24.803Z</time>
</trkpt>
<trkpt lat="-27.6512955" lon="152.9302933">
<ele>57.929</ele>
<time>2015-12-30T03:04:26.830Z</time>
</trkpt>
<trkpt lat="-27.6507285" lon="152.9307969">
<ele>57.482</ele>
<time>2015-12-30T03:04:29.813Z</time>
</trkpt>
<trkpt lat="-27.6501623" lon="152.9313237">
<ele>57.210</ele>
<time>2015-12-30T03:04:32.839Z</time>
</trkpt>
<trkpt lat="-27.6497652" lon="152.9316702">
<ele>56.431</ele>
<time>2015-12-30T03:04:34.907Z</time>
</trkpt>
<trkpt lat="-27.6493836" lon="152.9320076">
<ele>55.103</ele>
<time>2015-12-30T03:04:36.896Z</time>
</trkpt>
<trkpt lat="-27.6488105" lon="152.9325410">
<ele>54.189</ele>
<time>2015-12-30T03:04:39.939Z</time>
</trkpt>
<trkpt lat="-27.6484404" lon="152.9328891">
<ele>54.484</ele>
<time>2015-12-30T03:04:41.912Z</time>
</trkpt>
<trkpt lat="-27.6480617" lon="152.9332317">
<ele>55.571</ele>
<time>2015-12-30T03:04:43.896Z</time>
</trkpt>
<trkpt lat="-27.6476876" lon="152.9335690">
<ele>56.888</ele>
<time>2015-12-30T03:04:45.858Z</time>
</trkpt>
<trkpt lat="-27.6471119" lon="152.9340967">
<ele>58.704</ele>
<time>2015-12-30T03:04:48.913Z</time>
</trkpt>
<trkpt lat="-27.6467430" lon="152.9344241">
<ele>61.048</ele>
<time>2015-12-30T03:04:50.859Z</time>
</trkpt>
<trkpt lat="-27.6463644" lon="152.9347576">
<ele>63.065</ele>
<time>2015-12-30T03:04:52.848Z</time>
</trkpt>
<trkpt lat="-27.6459832" lon="152.9351304">
<ele>64.274</ele>
<time>2015-12-30T03:04:54.925Z</time>
</trkpt>
<trkpt lat="-27.6454020" lon="152.9356110">
<ele>65.395</ele>
<time>2015-12-30T03:04:57.878Z</time>
</trkpt>
<trkpt lat="-27.6450007" lon="152.9359540">
<ele>66.909</ele>
<time>2015-12-30T03:04:59.928Z</time>
</trkpt>
<trkpt lat="-27.6445909" lon="152.9362551">
<ele>68.267</ele>
<time>2015-12-30T03:05:01.910Z</time>
</trkpt>
<trkpt lat="-27.6439492" lon="152.9366872">
<ele>68.980</ele>
<time>2015-12-30T03:05:04.882Z</time>
</trkpt>
<trkpt lat="-27.6435000" lon="152.9369648">
<ele>69.195</ele>
<time>2015-12-30T03:05:06.888Z</time>
</trkpt>
<trkpt lat="-27.6428237" lon="152.9373527">
<ele>69.211</ele>
<time>2015-12-30T03:05:09.883Z</time>
</trkpt>
<trkpt lat="-27.6421425" lon="152.9376907">
<ele>68.910</ele>
<time>2015-12-30T03:05:12.890Z</time>
</trkpt>
<trkpt lat="-27.6416931" lon="152.9378871">
<ele>67.670</ele>
<time>2015-12-30T03:05:14.859Z</time>
</trkpt>
<trkpt lat="-27.6412266" lon="152.9380638">
<ele>65.724</ele>
<time>2015-12-30T03:05:16.855Z</time>
</trkpt>
<trkpt lat="-27.6407489" lon="152.9382092">
<ele>64.352</ele>
<time>2015-12-30T03:05:18.837Z</time>
</trkpt>
<trkpt lat="-27.6400018" lon="152.9384105">
<ele>64.142</ele>
<time>2015-12-30T03:05:21.885Z</time>
</trkpt>
<trkpt lat="-27.6392528" lon="152.9385814">
<ele>64.574</ele>
<time>2015-12-30T03:05:24.913Z</time>
</trkpt>
<trkpt lat="-27.6385201" lon="152.9387305">
<ele>65.038</ele>
<time>2015-12-30T03:05:27.906Z</time>
</trkpt>
<trkpt lat="-27.6378118" lon="152.9388762">
<ele>65.301</ele>
<time>2015-12-30T03:05:30.870Z</time>
</trkpt>
<trkpt lat="-27.6373568" lon="152.9389594">
<ele>65.350</ele>
<time>2015-12-30T03:05:32.798Z</time>
</trkpt>
<trkpt lat="-27.6368826" lon="152.9390566">
<ele>65.076</ele>
<time>2015-12-30T03:05:34.780Z</time>
</trkpt>
<trkpt lat="-27.6363811" lon="152.9391790">
<ele>64.664</ele>
<time>2015-12-30T03:05:36.820Z</time>
</trkpt>
<trkpt lat="-27.6358784" lon="152.9392788">
<ele>64.747</ele>
<time>2015-12-30T03:05:38.823Z</time>
</trkpt>
<trkpt lat="-27.6351300" lon="152.9394241">
<ele>65.389</ele>
<time>2015-12-30T03:05:41.825Z</time>
</trkpt>
<trkpt lat="-27.6344043" lon="152.9395534">
<ele>65.782</ele>
<time>2015-12-30T03:05:44.792Z</time>
</trkpt>
<trkpt lat="-27.6339436" lon="152.9396504">
<ele>65.119</ele>
<time>2015-12-30T03:05:46.759Z</time>
</trkpt>
<trkpt lat="-27.6332601" lon="152.9397780">
<ele>63.393</ele>
<time>2015-12-30T03:05:49.730Z</time>
</trkpt>
<trkpt lat="-27.6325719" lon="152.9399158">
<ele>61.218</ele>
<time>2015-12-30T03:05:52.759Z</time>
</trkpt>
<trkpt lat="-27.6321275" lon="152.9400031">
<ele>59.242</ele>
<time>2015-12-30T03:05:54.728Z</time>
</trkpt>
<trkpt lat="-27.6316806" lon="152.9400959">
<ele>58.004</ele>
<time>2015-12-30T03:05:56.709Z</time>
</trkpt>
<trkpt lat="-27.6312155" lon="152.9401884">
<ele>57.216</ele>
<time>2015-12-30T03:05:58.748Z</time>
</trkpt>
<trkpt lat="-27.6305238" lon="152.9403450">
<ele>56.096</ele>
<time>2015-12-30T03:06:01.816Z</time>
</trkpt>
<trkpt lat="-27.6298880" lon="152.9404707">
<ele>54.773</ele>
<time>2015-12-30T03:06:04.827Z</time>
</trkpt>
<trkpt lat="-27.6293334" lon="152.9405815">
<ele>53.116</ele>
<time>2015-12-30T03:06:07.794Z</time>
</trkpt>
<trkpt lat="-27.6290114" lon="152.9406463">
<ele>50.805</ele>
<time>2015-12-30T03:06:09.775Z</time>
</trkpt>
<trkpt lat="-27.6285916" lon="152.9407499">
<ele>48.335</ele>
<time>2015-12-30T03:06:12.639Z</time>
</trkpt>
<trkpt lat="-27.6283180" lon="152.9408185">
<ele>46.085</ele>
<time>2015-12-30T03:06:14.619Z</time>
</trkpt>
<trkpt lat="-27.6280386" lon="152.9408882">
<ele>44.248</ele>
<time>2015-12-30T03:06:16.601Z</time>
</trkpt>
<trkpt lat="-27.6275851" lon="152.9409679">
<ele>43.325</ele>
<time>2015-12-30T03:06:19.634Z</time>
</trkpt>
<trkpt lat="-27.6272544" lon="152.9409737">
<ele>43.231</ele>
<time>2015-12-30T03:06:21.694Z</time>
</trkpt>
<trkpt lat="-27.6267776" lon="152.9409326">
<ele>43.463</ele>
<time>2015-12-30T03:06:24.625Z</time>
</trkpt>
<trkpt lat="-27.6262994" lon="152.9408773">
<ele>43.736</ele>
<time>2015-12-30T03:06:27.609Z</time>
</trkpt>
<trkpt lat="-27.6259972" lon="152.9408374">
<ele>44.005</ele>
<time>2015-12-30T03:06:29.562Z</time>
</trkpt>
<trkpt lat="-27.6255597" lon="152.9407840">
<ele>44.184</ele>
<time>2015-12-30T03:06:32.549Z</time>
</trkpt>
<trkpt lat="-27.6251986" lon="152.9407084">
<ele>43.904</ele>
<time>2015-12-30T03:06:35.473Z</time>
</trkpt>
<trkpt lat="-27.6249652" lon="152.9406778">
<ele>42.908</ele>
<time>2015-12-30T03:06:38.000Z</time>
</trkpt>
<trkpt lat="-27.6249652" lon="152.9406778">
<ele>41.654</ele>
<time>2015-12-30T03:06:43.000Z</time>
</trkpt>
<trkpt lat="-27.6249652" lon="152.9406778">
<ele>40.955</ele>
<time>2015-12-30T03:06:43.099Z</time>
</trkpt>
<trkpt lat="-27.6247367" lon="152.9406873">
<ele>41.165</ele>
<time>2015-12-30T03:06:49.261Z</time>
</trkpt>
<trkpt lat="-27.6245941" lon="152.9406892">
<ele>42.021</ele>
<time>2015-12-30T03:06:51.170Z</time>
</trkpt>
<trkpt lat="-27.6243659" lon="152.9407174">
<ele>43.161</ele>
<time>2015-12-30T03:06:54.358Z</time>
</trkpt>
<trkpt lat="-27.6241830" lon="152.9407711">
<ele>44.519</ele>
<time>2015-12-30T03:06:57.848Z</time>
</trkpt>
<trkpt lat="-27.6240854" lon="152.9408080">
<ele>45.960</ele>
<time>2015-12-30T03:07:00.316Z</time>
</trkpt>
<trkpt lat="-27.6240001" lon="152.9408637">
<ele>47.089</ele>
<time>2015-12-30T03:07:02.167Z</time>
</trkpt>
<trkpt lat="-27.6238726" lon="152.9409532">
<ele>47.761</ele>
<time>2015-12-30T03:07:03.951Z</time>
</trkpt>
<trkpt lat="-27.6235605" lon="152.9411489">
<ele>48.326</ele>
<time>2015-12-30T03:07:06.981Z</time>
</trkpt>
<trkpt lat="-27.6232831" lon="152.9413105">
<ele>49.397</ele>
<time>2015-12-30T03:07:09.009Z</time>
</trkpt>
<trkpt lat="-27.6227951" lon="152.9415588">
<ele>51.369</ele>
<time>2015-12-30T03:07:12.193Z</time>
</trkpt>
<trkpt lat="-27.6224545" lon="152.9416755">
<ele>53.712</ele>
<time>2015-12-30T03:07:14.178Z</time>
</trkpt>
<trkpt lat="-27.6221173" lon="152.9417308">
<ele>55.164</ele>
<time>2015-12-30T03:07:16.160Z</time>
</trkpt>
<trkpt lat="-27.6216545" lon="152.9417387">
<ele>55.067</ele>
<time>2015-12-30T03:07:19.156Z</time>
</trkpt>
<trkpt lat="-27.6212866" lon="152.9417524">
<ele>53.674</ele>
<time>2015-12-30T03:07:22.109Z</time>
</trkpt>
<trkpt lat="-27.6211160" lon="152.9417559">
<ele>51.389</ele>
<time>2015-12-30T03:07:24.068Z</time>
</trkpt>
<trkpt lat="-27.6209483" lon="152.9417471">
<ele>48.866</ele>
<time>2015-12-30T03:07:26.631Z</time>
</trkpt>
<trkpt lat="-27.6208436" lon="152.9417544">
<ele>46.954</ele>
<time>2015-12-30T03:07:29.000Z</time>
</trkpt>
<trkpt lat="-27.6208436" lon="152.9417544">
<ele>46.003</ele>
<time>2015-12-30T03:07:32.000Z</time>
</trkpt>
<trkpt lat="-27.6208436" lon="152.9417544">
<ele>45.768</ele>
<time>2015-12-30T03:07:58.754Z</time>
</trkpt>
<trkpt lat="-27.6206405" lon="152.9418042">
<ele>45.977</ele>
<time>2015-12-30T03:08:03.057Z</time>
</trkpt>
<trkpt lat="-27.6202938" lon="152.9418464">
<ele>46.633</ele>
<time>2015-12-30T03:08:06.206Z</time>
</trkpt>
<trkpt lat="-27.6199700" lon="152.9418804">
<ele>48.044</ele>
<time>2015-12-30T03:08:08.588Z</time>
</trkpt>
<trkpt lat="-27.6195961" lon="152.9419496">
<ele>50.274</ele>
<time>2015-12-30T03:08:11.095Z</time>
</trkpt>
<trkpt lat="-27.6189745" lon="152.9420865">
<ele>52.721</ele>
<time>2015-12-30T03:08:14.685Z</time>
</trkpt>
<trkpt lat="-27.6185009" lon="152.9421408">
<ele>54.734</ele>
<time>2015-12-30T03:08:16.989Z</time>
</trkpt>
<trkpt lat="-27.6178393" lon="152.9422442">
<ele>56.075</ele>
<time>2015-12-30T03:08:19.887Z</time>
</trkpt>
<trkpt lat="-27.6173759" lon="152.9423502">
<ele>56.869</ele>
<time>2015-12-30T03:08:21.911Z</time>
</trkpt>
<trkpt lat="-27.6166836" lon="152.9424846">
<ele>57.226</ele>
<time>2015-12-30T03:08:24.813Z</time>
</trkpt>
<trkpt lat="-27.6159743" lon="152.9427043">
<ele>57.089</ele>
<time>2015-12-30T03:08:27.684Z</time>
</trkpt>
<trkpt lat="-27.6152246" lon="152.9427962">
<ele>55.249</ele>
<time>2015-12-30T03:08:30.568Z</time>
</trkpt>
<trkpt lat="-27.6146992" lon="152.9428814">
<ele>51.262</ele>
<time>2015-12-30T03:08:32.599Z</time>
</trkpt>
<trkpt lat="-27.6139229" lon="152.9430048">
<ele>47.395</ele>
<time>2015-12-30T03:08:35.622Z</time>
</trkpt>
<trkpt lat="-27.6134055" lon="152.9430760">
<ele>45.838</ele>
<time>2015-12-30T03:08:37.649Z</time>
</trkpt>
<trkpt lat="-27.6128926" lon="152.9431327">
<ele>47.165</ele>
<time>2015-12-30T03:08:39.703Z</time>
</trkpt>
<trkpt lat="-27.6123895" lon="152.9431871">
<ele>50.998</ele>
<time>2015-12-30T03:08:41.771Z</time>
</trkpt>
<trkpt lat="-27.6116811" lon="152.9432552">
<ele>55.061</ele>
<time>2015-12-30T03:08:44.745Z</time>
</trkpt>
<trkpt lat="-27.6112157" lon="152.9432945">
<ele>56.591</ele>
<time>2015-12-30T03:08:46.695Z</time>
</trkpt>
<trkpt lat="-27.6107369" lon="152.9433286">
<ele>55.116</ele>
<time>2015-12-30T03:08:48.692Z</time>
</trkpt>
<trkpt lat="-27.6100165" lon="152.9433897">
<ele>52.447</ele>
<time>2015-12-30T03:08:51.668Z</time>
</trkpt>
<trkpt lat="-27.6095292" lon="152.9434451">
<ele>50.355</ele>
<time>2015-12-30T03:08:53.661Z</time>
</trkpt>
<trkpt lat="-27.6087929" lon="152.9435119">
<ele>49.201</ele>
<time>2015-12-30T03:08:56.644Z</time>
</trkpt>
<trkpt lat="-27.6083066" lon="152.9435528">
<ele>48.843</ele>
<time>2015-12-30T03:08:58.610Z</time>
</trkpt>
<trkpt lat="-27.6078250" lon="152.9435777">
<ele>48.963</ele>
<time>2015-12-30T03:09:00.541Z</time>
</trkpt>
<trkpt lat="-27.6073231" lon="152.9436355">
<ele>48.688</ele>
<time>2015-12-30T03:09:02.538Z</time>
</trkpt>
<trkpt lat="-27.6065683" lon="152.9437362">
<ele>47.334</ele>
<time>2015-12-30T03:09:05.521Z</time>
</trkpt>
<trkpt lat="-27.6058080" lon="152.9438256">
<ele>45.083</ele>
<time>2015-12-30T03:09:08.527Z</time>
</trkpt>
<trkpt lat="-27.6050560" lon="152.9439279">
<ele>42.406</ele>
<time>2015-12-30T03:09:11.526Z</time>
</trkpt>
<trkpt lat="-27.6043350" lon="152.9440351">
<ele>39.947</ele>
<time>2015-12-30T03:09:14.428Z</time>
</trkpt>
<trkpt lat="-27.6035919" lon="152.9441698">
<ele>38.514</ele>
<time>2015-12-30T03:09:17.435Z</time>
</trkpt>
<trkpt lat="-27.6028598" lon="152.9443268">
<ele>38.203</ele>
<time>2015-12-30T03:09:20.415Z</time>
</trkpt>
<trkpt lat="-27.6021231" lon="152.9444851">
<ele>38.748</ele>
<time>2015-12-30T03:09:23.436Z</time>
</trkpt>
<trkpt lat="-27.6013995" lon="152.9446583">
<ele>39.940</ele>
<time>2015-12-30T03:09:26.460Z</time>
</trkpt>
<trkpt lat="-27.6009141" lon="152.9447825">
<ele>41.248</ele>
<time>2015-12-30T03:09:28.481Z</time>
</trkpt>
<trkpt lat="-27.6001826" lon="152.9449865">
<ele>42.148</ele>
<time>2015-12-30T03:09:31.480Z</time>
</trkpt>
<trkpt lat="-27.5997024" lon="152.9451276">
<ele>42.758</ele>
<time>2015-12-30T03:09:33.453Z</time>
</trkpt>
<trkpt lat="-27.5989873" lon="152.9453420">
<ele>43.305</ele>
<time>2015-12-30T03:09:36.394Z</time>
</trkpt>
<trkpt lat="-27.5982649" lon="152.9455780">
<ele>43.911</ele>
<time>2015-12-30T03:09:39.360Z</time>
</trkpt>
<trkpt lat="-27.5977712" lon="152.9457520">
<ele>44.740</ele>
<time>2015-12-30T03:09:41.385Z</time>
</trkpt>
<trkpt lat="-27.5972870" lon="152.9459247">
<ele>45.616</ele>
<time>2015-12-30T03:09:43.395Z</time>
</trkpt>
<trkpt lat="-27.5968131" lon="152.9460800">
<ele>45.922</ele>
<time>2015-12-30T03:09:45.392Z</time>
</trkpt>
<trkpt lat="-27.5961261" lon="152.9463471">
<ele>45.295</ele>
<time>2015-12-30T03:09:48.395Z</time>
</trkpt>
<trkpt lat="-27.5956754" lon="152.9465179">
<ele>43.976</ele>
<time>2015-12-30T03:09:50.398Z</time>
</trkpt>
<trkpt lat="-27.5952356" lon="152.9466832">
<ele>42.278</ele>
<time>2015-12-30T03:09:52.366Z</time>
</trkpt>
<trkpt lat="-27.5945667" lon="152.9469314">
<ele>40.330</ele>
<time>2015-12-30T03:09:55.359Z</time>
</trkpt>
<trkpt lat="-27.5941271" lon="152.9470960">
<ele>38.611</ele>
<time>2015-12-30T03:09:57.322Z</time>
</trkpt>
<trkpt lat="-27.5934550" lon="152.9473420">
<ele>37.686</ele>
<time>2015-12-30T03:10:00.289Z</time>
</trkpt>
<trkpt lat="-27.5930012" lon="152.9475126">
<ele>37.589</ele>
<time>2015-12-30T03:10:02.266Z</time>
</trkpt>
<trkpt lat="-27.5925363" lon="152.9476952">
<ele>37.934</ele>
<time>2015-12-30T03:10:04.277Z</time>
</trkpt>
<trkpt lat="-27.5918269" lon="152.9479534">
<ele>38.288</ele>
<time>2015-12-30T03:10:07.314Z</time>
</trkpt>
<trkpt lat="-27.5913578" lon="152.9480977">
<ele>38.148</ele>
<time>2015-12-30T03:10:09.308Z</time>
</trkpt>
<trkpt lat="-27.5908951" lon="152.9482045">
<ele>37.228</ele>
<time>2015-12-30T03:10:11.242Z</time>
</trkpt>
<trkpt lat="-27.5901703" lon="152.9482851">
<ele>35.897</ele>
<time>2015-12-30T03:10:14.172Z</time>
</trkpt>
<trkpt lat="-27.5896660" lon="152.9482962">
<ele>34.826</ele>
<time>2015-12-30T03:10:16.180Z</time>
</trkpt>
<trkpt lat="-27.5889161" lon="152.9482606">
<ele>34.418</ele>
<time>2015-12-30T03:10:19.190Z</time>
</trkpt>
<trkpt lat="-27.5881930" lon="152.9481340">
<ele>34.628</ele>
<time>2015-12-30T03:10:22.135Z</time>
</trkpt>
<trkpt lat="-27.5874522" lon="152.9479756">
<ele>34.740</ele>
<time>2015-12-30T03:10:25.194Z</time>
</trkpt>
<trkpt lat="-27.5869842" lon="152.9478763">
<ele>34.181</ele>
<time>2015-12-30T03:10:27.159Z</time>
</trkpt>
<trkpt lat="-27.5865075" lon="152.9478074">
<ele>32.817</ele>
<time>2015-12-30T03:10:29.133Z</time>
</trkpt>
<trkpt lat="-27.5857801" lon="152.9477428">
<ele>30.748</ele>
<time>2015-12-30T03:10:32.103Z</time>
</trkpt>
<trkpt lat="-27.5852802" lon="152.9477233">
<ele>28.552</ele>
<time>2015-12-30T03:10:34.106Z</time>
</trkpt>
<trkpt lat="-27.5845437" lon="152.9476811">
<ele>26.840</ele>
<time>2015-12-30T03:10:37.043Z</time>
</trkpt>
<trkpt lat="-27.5840364" lon="152.9476654">
<ele>25.717</ele>
<time>2015-12-30T03:10:39.073Z</time>
</trkpt>
<trkpt lat="-27.5832848" lon="152.9476166">
<ele>25.196</ele>
<time>2015-12-30T03:10:42.072Z</time>
</trkpt>
<trkpt lat="-27.5825434" lon="152.9474961">
<ele>24.829</ele>
<time>2015-12-30T03:10:45.019Z</time>
</trkpt>
<trkpt lat="-27.5820580" lon="152.9473549">
<ele>24.155</ele>
<time>2015-12-30T03:10:46.965Z</time>
</trkpt>
<trkpt lat="-27.5815594" lon="152.9471841">
<ele>23.458</ele>
<time>2015-12-30T03:10:49.002Z</time>
</trkpt>
<trkpt lat="-27.5808644" lon="152.9468125">
<ele>23.178</ele>
<time>2015-12-30T03:10:52.045Z</time>
</trkpt>
<trkpt lat="-27.5804293" lon="152.9465423">
<ele>23.200</ele>
<time>2015-12-30T03:10:54.068Z</time>
</trkpt>
<trkpt lat="-27.5798251" lon="152.9460894">
<ele>23.111</ele>
<time>2015-12-30T03:10:57.064Z</time>
</trkpt>
<trkpt lat="-27.5792630" lon="152.9456003">
<ele>22.752</ele>
<time>2015-12-30T03:11:00.012Z</time>
</trkpt>
<trkpt lat="-27.5788665" lon="152.9453021">
<ele>22.624</ele>
<time>2015-12-30T03:11:01.973Z</time>
</trkpt>
<trkpt lat="-27.5784254" lon="152.9450426">
<ele>23.297</ele>
<time>2015-12-30T03:11:03.986Z</time>
</trkpt>
<trkpt lat="-27.5777221" lon="152.9447539">
<ele>24.836</ele>
<time>2015-12-30T03:11:06.997Z</time>
</trkpt>
<trkpt lat="-27.5770026" lon="152.9445822">
<ele>26.852</ele>
<time>2015-12-30T03:11:09.956Z</time>
</trkpt>
<trkpt lat="-27.5762671" lon="152.9445175">
<ele>28.708</ele>
<time>2015-12-30T03:11:12.965Z</time>
</trkpt>
<trkpt lat="-27.5755365" lon="152.9445189">
<ele>29.865</ele>
<time>2015-12-30T03:11:16.005Z</time>
</trkpt>
<trkpt lat="-27.5750604" lon="152.9445366">
<ele>30.167</ele>
<time>2015-12-30T03:11:17.993Z</time>
</trkpt>
<trkpt lat="-27.5745658" lon="152.9445455">
<ele>29.746</ele>
<time>2015-12-30T03:11:20.010Z</time>
</trkpt>
<trkpt lat="-27.5740704" lon="152.9445261">
<ele>28.847</ele>
<time>2015-12-30T03:11:22.006Z</time>
</trkpt>
<trkpt lat="-27.5735801" lon="152.9444876">
<ele>27.755</ele>
<time>2015-12-30T03:11:23.977Z</time>
</trkpt>
<trkpt lat="-27.5730913" lon="152.9444202">
<ele>26.836</ele>
<time>2015-12-30T03:11:25.956Z</time>
</trkpt>
<trkpt lat="-27.5723604" lon="152.9442861">
<ele>26.368</ele>
<time>2015-12-30T03:11:28.948Z</time>
</trkpt>
<trkpt lat="-27.5716378" lon="152.9441641">
<ele>26.573</ele>
<time>2015-12-30T03:11:31.909Z</time>
</trkpt>
<trkpt lat="-27.5708964" lon="152.9440393">
<ele>27.417</ele>
<time>2015-12-30T03:11:34.940Z</time>
</trkpt>
<trkpt lat="-27.5701693" lon="152.9439151">
<ele>28.329</ele>
<time>2015-12-30T03:11:37.921Z</time>
</trkpt>
<trkpt lat="-27.5696806" lon="152.9438254">
<ele>28.629</ele>
<time>2015-12-30T03:11:39.936Z</time>
</trkpt>
<trkpt lat="-27.5689466" lon="152.9436877">
<ele>28.023</ele>
<time>2015-12-30T03:11:42.957Z</time>
</trkpt>
<trkpt lat="-27.5684679" lon="152.9435697">
<ele>26.159</ele>
<time>2015-12-30T03:11:44.905Z</time>
</trkpt>
<trkpt lat="-27.5677358" lon="152.9433463">
<ele>23.017</ele>
<time>2015-12-30T03:11:47.874Z</time>
</trkpt>
<trkpt lat="-27.5672625" lon="152.9431678">
<ele>19.721</ele>
<time>2015-12-30T03:11:49.791Z</time>
</trkpt>
<trkpt lat="-27.5667748" lon="152.9429546">
<ele>17.514</ele>
<time>2015-12-30T03:11:51.810Z</time>
</trkpt>
<trkpt lat="-27.5660538" lon="152.9426128">
<ele>16.254</ele>
<time>2015-12-30T03:11:54.873Z</time>
</trkpt>
<trkpt lat="-27.5653692" lon="152.9422760">
<ele>15.242</ele>
<time>2015-12-30T03:11:57.871Z</time>
</trkpt>
<trkpt lat="-27.5649291" lon="152.9420666">
<ele>14.371</ele>
<time>2015-12-30T03:11:59.841Z</time>
</trkpt>
<trkpt lat="-27.5644932" lon="152.9418522">
<ele>13.817</ele>
<time>2015-12-30T03:12:01.826Z</time>
</trkpt>
<trkpt lat="-27.5640553" lon="152.9416338">
<ele>13.539</ele>
<time>2015-12-30T03:12:03.843Z</time>
</trkpt>
<trkpt lat="-27.5636170" lon="152.9414252">
<ele>13.412</ele>
<time>2015-12-30T03:12:05.843Z</time>
</trkpt>
<trkpt lat="-27.5629595" lon="152.9411104">
<ele>13.450</ele>
<time>2015-12-30T03:12:08.829Z</time>
</trkpt>
<trkpt lat="-27.5623127" lon="152.9408035">
<ele>14.172</ele>
<time>2015-12-30T03:12:11.752Z</time>
</trkpt>
<trkpt lat="-27.5616378" lon="152.9404841">
<ele>16.087</ele>
<time>2015-12-30T03:12:14.841Z</time>
</trkpt>
<trkpt lat="-27.5609925" lon="152.9401866">
<ele>19.111</ele>
<time>2015-12-30T03:12:17.861Z</time>
</trkpt>
<trkpt lat="-27.5603351" lon="152.9399587">
<ele>22.697</ele>
<time>2015-12-30T03:12:20.881Z</time>
</trkpt>
<trkpt lat="-27.5598951" lon="152.9398584">
<ele>26.030</ele>
<time>2015-12-30T03:12:22.876Z</time>
</trkpt>
<trkpt lat="-27.5592265" lon="152.9397794">
<ele>28.276</ele>
<time>2015-12-30T03:12:25.898Z</time>
</trkpt>
<trkpt lat="-27.5587844" lon="152.9397756">
<ele>29.301</ele>
<time>2015-12-30T03:12:27.930Z</time>
</trkpt>
<trkpt lat="-27.5583657" lon="152.9397923">
<ele>29.547</ele>
<time>2015-12-30T03:12:29.886Z</time>
</trkpt>
<trkpt lat="-27.5579337" lon="152.9398533">
<ele>29.508</ele>
<time>2015-12-30T03:12:31.899Z</time>
</trkpt>
<trkpt lat="-27.5572993" lon="152.9399738">
<ele>29.464</ele>
<time>2015-12-30T03:12:34.802Z</time>
</trkpt>
<trkpt lat="-27.5566226" lon="152.9401049">
<ele>29.683</ele>
<time>2015-12-30T03:12:37.814Z</time>
</trkpt>
<trkpt lat="-27.5559433" lon="152.9402316">
<ele>30.187</ele>
<time>2015-12-30T03:12:40.820Z</time>
</trkpt>
<trkpt lat="-27.5552684" lon="152.9403661">
<ele>30.346</ele>
<time>2015-12-30T03:12:43.821Z</time>
</trkpt>
<trkpt lat="-27.5548376" lon="152.9404478">
<ele>29.200</ele>
<time>2015-12-30T03:12:45.718Z</time>
</trkpt>
<trkpt lat="-27.5541476" lon="152.9405754">
<ele>26.961</ele>
<time>2015-12-30T03:12:48.755Z</time>
</trkpt>
<trkpt lat="-27.5536917" lon="152.9406798">
<ele>25.025</ele>
<time>2015-12-30T03:12:50.803Z</time>
</trkpt>
<trkpt lat="-27.5530450" lon="152.9408013">
<ele>23.906</ele>
<time>2015-12-30T03:12:53.695Z</time>
</trkpt>
<trkpt lat="-27.5523607" lon="152.9409215">
<ele>22.752</ele>
<time>2015-12-30T03:12:56.739Z</time>
</trkpt>
<trkpt lat="-27.5516967" lon="152.9410386">
<ele>20.981</ele>
<time>2015-12-30T03:12:59.699Z</time>
</trkpt>
<trkpt lat="-27.5512549" lon="152.9411259">
<ele>19.081</ele>
<time>2015-12-30T03:13:01.685Z</time>
</trkpt>
<trkpt lat="-27.5508595" lon="152.9411979">
<ele>18.119</ele>
<time>2015-12-30T03:13:03.454Z</time>
</trkpt>
<trkpt lat="-27.5501276" lon="152.9412539">
<ele>18.521</ele>
<time>2015-12-30T03:13:06.681Z</time>
</trkpt>
<trkpt lat="-27.5494418" lon="152.9413430">
<ele>19.909</ele>
<time>2015-12-30T03:13:09.712Z</time>
</trkpt>
<trkpt lat="-27.5489855" lon="152.9413583">
<ele>21.737</ele>
<time>2015-12-30T03:13:11.711Z</time>
</trkpt>
<trkpt lat="-27.5483107" lon="152.9413874">
<ele>23.478</ele>
<time>2015-12-30T03:13:14.649Z</time>
</trkpt>
<trkpt lat="-27.5478460" lon="152.9414203">
<ele>25.075</ele>
<time>2015-12-30T03:13:16.672Z</time>
</trkpt>
<trkpt lat="-27.5473947" lon="152.9414749">
<ele>26.857</ele>
<time>2015-12-30T03:13:18.642Z</time>
</trkpt>
<trkpt lat="-27.5467163" lon="152.9416396">
<ele>28.523</ele>
<time>2015-12-30T03:13:21.641Z</time>
</trkpt>
<trkpt lat="-27.5462595" lon="152.9417729">
<ele>29.435</ele>
<time>2015-12-30T03:13:23.644Z</time>
</trkpt>
<trkpt lat="-27.5455480" lon="152.9419920">
<ele>29.568</ele>
<time>2015-12-30T03:13:26.626Z</time>
</trkpt>
<trkpt lat="-27.5448106" lon="152.9422710">
<ele>29.568</ele>
<time>2015-12-30T03:13:29.689Z</time>
</trkpt>
<trkpt lat="-27.5441000" lon="152.9425750">
<ele>29.908</ele>
<time>2015-12-30T03:13:32.737Z</time>
</trkpt>
<trkpt lat="-27.5434437" lon="152.9429314">
<ele>30.098</ele>
<time>2015-12-30T03:13:35.753Z</time>
</trkpt>
<trkpt lat="-27.5430328" lon="152.9431983">
<ele>28.781</ele>
<time>2015-12-30T03:13:37.746Z</time>
</trkpt>
<trkpt lat="-27.5426451" lon="152.9434814">
<ele>25.684</ele>
<time>2015-12-30T03:13:39.684Z</time>
</trkpt>
<trkpt lat="-27.5420525" lon="152.9439256">
<ele>22.214</ele>
<time>2015-12-30T03:13:42.676Z</time>
</trkpt>
<trkpt lat="-27.5416620" lon="152.9442344">
<ele>19.072</ele>
<time>2015-12-30T03:13:44.722Z</time>
</trkpt>
<trkpt lat="-27.5412723" lon="152.9445348">
<ele>15.746</ele>
<time>2015-12-30T03:13:46.745Z</time>
</trkpt>
<trkpt lat="-27.5404994" lon="152.9451409">
<ele>12.597</ele>
<time>2015-12-30T03:13:50.697Z</time>
</trkpt>
<trkpt lat="-27.5400952" lon="152.9454422">
<ele>10.580</ele>
<time>2015-12-30T03:13:52.673Z</time>
</trkpt>
<trkpt lat="-27.5394443" lon="152.9458339">
<ele>10.039</ele>
<time>2015-12-30T03:13:55.644Z</time>
</trkpt>
<trkpt lat="-27.5387509" lon="152.9461785">
<ele>10.675</ele>
<time>2015-12-30T03:13:58.656Z</time>
</trkpt>
<trkpt lat="-27.5380274" lon="152.9464279">
<ele>11.771</ele>
<time>2015-12-30T03:14:01.651Z</time>
</trkpt>
<trkpt lat="-27.5375287" lon="152.9465512">
<ele>12.576</ele>
<time>2015-12-30T03:14:03.675Z</time>
</trkpt>
<trkpt lat="-27.5370216" lon="152.9466342">
<ele>12.783</ele>
<time>2015-12-30T03:14:05.756Z</time>
</trkpt>
<trkpt lat="-27.5363153" lon="152.9466905">
<ele>12.524</ele>
<time>2015-12-30T03:14:08.713Z</time>
</trkpt>
<trkpt lat="-27.5358638" lon="152.9466726">
<ele>12.090</ele>
<time>2015-12-30T03:14:10.669Z</time>
</trkpt>
<trkpt lat="-27.5354226" lon="152.9466299">
<ele>11.693</ele>
<time>2015-12-30T03:14:12.612Z</time>
</trkpt>
<trkpt lat="-27.5349962" lon="152.9465390">
<ele>11.255</ele>
<time>2015-12-30T03:14:14.549Z</time>
</trkpt>
<trkpt lat="-27.5343328" lon="152.9464323">
<ele>10.519</ele>
<time>2015-12-30T03:14:17.562Z</time>
</trkpt>
<trkpt lat="-27.5338894" lon="152.9463734">
<ele>9.562</ele>
<time>2015-12-30T03:14:19.551Z</time>
</trkpt>
<trkpt lat="-27.5334238" lon="152.9463353">
<ele>9.157</ele>
<time>2015-12-30T03:14:21.628Z</time>
</trkpt>
<trkpt lat="-27.5329746" lon="152.9463104">
<ele>9.696</ele>
<time>2015-12-30T03:14:23.705Z</time>
</trkpt>
<trkpt lat="-27.5323543" lon="152.9463168">
<ele>10.166</ele>
<time>2015-12-30T03:14:26.696Z</time>
</trkpt>
<trkpt lat="-27.5319744" lon="152.9463241">
<ele>9.636</ele>
<time>2015-12-30T03:14:28.683Z</time>
</trkpt>
<trkpt lat="-27.5314283" lon="152.9463662">
<ele>8.603</ele>
<time>2015-12-30T03:14:31.649Z</time>
</trkpt>
<trkpt lat="-27.5310669" lon="152.9464104">
<ele>7.550</ele>
<time>2015-12-30T03:14:33.666Z</time>
</trkpt>
<trkpt lat="-27.5307194" lon="152.9464579">
<ele>6.232</ele>
<time>2015-12-30T03:14:35.567Z</time>
</trkpt>
<trkpt lat="-27.5301547" lon="152.9465466">
<ele>4.823</ele>
<time>2015-12-30T03:14:38.637Z</time>
</trkpt>
<trkpt lat="-27.5295997" lon="152.9466469">
<ele>3.901</ele>
<time>2015-12-30T03:14:41.674Z</time>
</trkpt>
<trkpt lat="-27.5292236" lon="152.9467201">
<ele>3.606</ele>
<time>2015-12-30T03:14:43.791Z</time>
</trkpt>
<trkpt lat="-27.5288908" lon="152.9467722">
<ele>3.792</ele>
<time>2015-12-30T03:14:45.721Z</time>
</trkpt>
<trkpt lat="-27.5284006" lon="152.9468424">
<ele>4.285</ele>
<time>2015-12-30T03:14:48.561Z</time>
</trkpt>
<trkpt lat="-27.5278832" lon="152.9469267">
<ele>4.896</ele>
<time>2015-12-30T03:14:51.504Z</time>
</trkpt>
<trkpt lat="-27.5275331" lon="152.9469854">
<ele>5.949</ele>
<time>2015-12-30T03:14:53.435Z</time>
</trkpt>
<trkpt lat="-27.5271611" lon="152.9470490">
<ele>7.946</ele>
<time>2015-12-30T03:14:55.439Z</time>
</trkpt>
<trkpt lat="-27.5265809" lon="152.9471561">
<ele>10.470</ele>
<time>2015-12-30T03:14:58.477Z</time>
</trkpt>
<trkpt lat="-27.5261774" lon="152.9472339">
<ele>12.474</ele>
<time>2015-12-30T03:15:00.494Z</time>
</trkpt>
<trkpt lat="-27.5257907" lon="152.9473038">
<ele>13.730</ele>
<time>2015-12-30T03:15:02.414Z</time>
</trkpt>
<trkpt lat="-27.5254196" lon="152.9473633">
<ele>14.787</ele>
<time>2015-12-30T03:15:04.282Z</time>
</trkpt>
<trkpt lat="-27.5248412" lon="152.9474767">
<ele>16.249</ele>
<time>2015-12-30T03:15:07.248Z</time>
</trkpt>
<trkpt lat="-27.5242770" lon="152.9476037">
<ele>18.834</ele>
<time>2015-12-30T03:15:10.196Z</time>
</trkpt>
<trkpt lat="-27.5237199" lon="152.9476954">
<ele>22.437</ele>
<time>2015-12-30T03:15:13.133Z</time>
</trkpt>
<trkpt lat="-27.5231765" lon="152.9478170">
<ele>25.622</ele>
<time>2015-12-30T03:15:16.098Z</time>
</trkpt>
<trkpt lat="-27.5228083" lon="152.9479117">
<ele>27.548</ele>
<time>2015-12-30T03:15:18.123Z</time>
</trkpt>
<trkpt lat="-27.5222536" lon="152.9480315">
<ele>28.348</ele>
<time>2015-12-30T03:15:21.103Z</time>
</trkpt>
<trkpt lat="-27.5216783" lon="152.9481226">
<ele>28.107</ele>
<time>2015-12-30T03:15:24.129Z</time>
</trkpt>
<trkpt lat="-27.5213017" lon="152.9482237">
<ele>26.774</ele>
<time>2015-12-30T03:15:26.147Z</time>
</trkpt>
<trkpt lat="-27.5209645" lon="152.9483811">
<ele>24.626</ele>
<time>2015-12-30T03:15:28.079Z</time>
</trkpt>
<trkpt lat="-27.5204929" lon="152.9487518">
<ele>22.228</ele>
<time>2015-12-30T03:15:31.155Z</time>
</trkpt>
<trkpt lat="-27.5201304" lon="152.9491896">
<ele>19.996</ele>
<time>2015-12-30T03:15:34.008Z</time>
</trkpt>
<trkpt lat="-27.5199412" lon="152.9495703">
<ele>18.273</ele>
<time>2015-12-30T03:15:36.078Z</time>
</trkpt>
<trkpt lat="-27.5198098" lon="152.9499751">
<ele>17.527</ele>
<time>2015-12-30T03:15:38.110Z</time>
</trkpt>
<trkpt lat="-27.5196062" lon="152.9505443">
<ele>17.848</ele>
<time>2015-12-30T03:15:40.993Z</time>
</trkpt>
<trkpt lat="-27.5194735" lon="152.9509503">
<ele>19.117</ele>
<time>2015-12-30T03:15:43.016Z</time>
</trkpt>
<trkpt lat="-27.5193402" lon="152.9513463">
<ele>20.902</ele>
<time>2015-12-30T03:15:44.975Z</time>
</trkpt>
<trkpt lat="-27.5191191" lon="152.9519620">
<ele>22.365</ele>
<time>2015-12-30T03:15:48.005Z</time>
</trkpt>
<trkpt lat="-27.5188511" lon="152.9525429">
<ele>22.420</ele>
<time>2015-12-30T03:15:50.945Z</time>
</trkpt>
<trkpt lat="-27.5186448" lon="152.9529316">
<ele>20.835</ele>
<time>2015-12-30T03:15:52.965Z</time>
</trkpt>
<trkpt lat="-27.5182981" lon="152.9534865">
<ele>18.601</ele>
<time>2015-12-30T03:15:56.007Z</time>
</trkpt>
<trkpt lat="-27.5179495" lon="152.9539861">
<ele>16.772</ele>
<time>2015-12-30T03:15:58.956Z</time>
</trkpt>
<trkpt lat="-27.5175876" lon="152.9544483">
<ele>14.878</ele>
<time>2015-12-30T03:16:01.907Z</time>
</trkpt>
<trkpt lat="-27.5171818" lon="152.9548911">
<ele>12.206</ele>
<time>2015-12-30T03:16:04.909Z</time>
</trkpt>
<trkpt lat="-27.5168759" lon="152.9551806">
<ele>9.542</ele>
<time>2015-12-30T03:16:06.950Z</time>
</trkpt>
<trkpt lat="-27.5163633" lon="152.9555393">
<ele>8.214</ele>
<time>2015-12-30T03:16:09.973Z</time>
</trkpt>
<trkpt lat="-27.5158436" lon="152.9558431">
<ele>8.327</ele>
<time>2015-12-30T03:16:12.868Z</time>
</trkpt>
<trkpt lat="-27.5152732" lon="152.9561301">
<ele>9.342</ele>
<time>2015-12-30T03:16:15.903Z</time>
</trkpt>
<trkpt lat="-27.5148930" lon="152.9563278">
<ele>10.643</ele>
<time>2015-12-30T03:16:17.918Z</time>
</trkpt>
<trkpt lat="-27.5145106" lon="152.9565208">
<ele>11.773</ele>
<time>2015-12-30T03:16:19.949Z</time>
</trkpt>
<trkpt lat="-27.5139473" lon="152.9567976">
<ele>12.717</ele>
<time>2015-12-30T03:16:22.956Z</time>
</trkpt>
<trkpt lat="-27.5134054" lon="152.9570842">
<ele>13.875</ele>
<time>2015-12-30T03:16:25.914Z</time>
</trkpt>
<trkpt lat="-27.5130437" lon="152.9572725">
<ele>15.518</ele>
<time>2015-12-30T03:16:27.943Z</time>
</trkpt>
<trkpt lat="-27.5125192" lon="152.9575397">
<ele>17.603</ele>
<time>2015-12-30T03:16:30.949Z</time>
</trkpt>
<trkpt lat="-27.5121938" lon="152.9577035">
<ele>19.857</ele>
<time>2015-12-30T03:16:32.853Z</time>
</trkpt>
<trkpt lat="-27.5118540" lon="152.9578728">
<ele>21.738</ele>
<time>2015-12-30T03:16:34.881Z</time>
</trkpt>
<trkpt lat="-27.5115362" lon="152.9580141">
<ele>22.755</ele>
<time>2015-12-30T03:16:36.843Z</time>
</trkpt>
<trkpt lat="-27.5110981" lon="152.9581882">
<ele>22.929</ele>
<time>2015-12-30T03:16:39.679Z</time>
</trkpt>
<trkpt lat="-27.5107166" lon="152.9583594">
<ele>22.465</ele>
<time>2015-12-30T03:16:42.355Z</time>
</trkpt>
<trkpt lat="-27.5102223" lon="152.9585192">
<ele>21.251</ele>
<time>2015-12-30T03:16:45.838Z</time>
</trkpt>
<trkpt lat="-27.5099436" lon="152.9585238">
<ele>19.450</ele>
<time>2015-12-30T03:16:47.732Z</time>
</trkpt>
<trkpt lat="-27.5096502" lon="152.9584750">
<ele>17.738</ele>
<time>2015-12-30T03:16:49.721Z</time>
</trkpt>
<trkpt lat="-27.5093464" lon="152.9583962">
<ele>16.365</ele>
<time>2015-12-30T03:16:51.810Z</time>
</trkpt>
<trkpt lat="-27.5089473" lon="152.9582629">
<ele>15.190</ele>
<time>2015-12-30T03:16:54.682Z</time>
</trkpt>
<trkpt lat="-27.5086812" lon="152.9581761">
<ele>14.373</ele>
<time>2015-12-30T03:16:56.705Z</time>
</trkpt>
<trkpt lat="-27.5083080" lon="152.9580429">
<ele>14.011</ele>
<time>2015-12-30T03:16:59.737Z</time>
</trkpt>
<trkpt lat="-27.5079929" lon="152.9579297">
<ele>13.772</ele>
<time>2015-12-30T03:17:02.868Z</time>
</trkpt>
<trkpt lat="-27.5078645" lon="152.9578781">
<ele>12.808</ele>
<time>2015-12-30T03:17:04.537Z</time>
</trkpt>
<trkpt lat="-27.5077713" lon="152.9576863">
<ele>10.596</ele>
<time>2015-12-30T03:17:07.509Z</time>
</trkpt>
<trkpt lat="-27.5077824" lon="152.9573543">
<ele>8.046</ele>
<time>2015-12-30T03:17:10.952Z</time>
</trkpt>
<trkpt lat="-27.5078197" lon="152.9568526">
<ele>6.594</ele>
<time>2015-12-30T03:17:14.381Z</time>
</trkpt>
<trkpt lat="-27.5078598" lon="152.9564978">
<ele>7.214</ele>
<time>2015-12-30T03:17:16.438Z</time>
</trkpt>
<trkpt lat="-27.5079937" lon="152.9559999">
<ele>9.687</ele>
<time>2015-12-30T03:17:19.360Z</time>
</trkpt>
<trkpt lat="-27.5081204" lon="152.9556750">
<ele>12.605</ele>
<time>2015-12-30T03:17:21.337Z</time>
</trkpt>
<trkpt lat="-27.5083069" lon="152.9551902">
<ele>15.456</ele>
<time>2015-12-30T03:17:24.352Z</time>
</trkpt>
<trkpt lat="-27.5083852" lon="152.9549125">
<ele>18.729</ele>
<time>2015-12-30T03:17:26.068Z</time>
</trkpt>
<trkpt lat="-27.5084710" lon="152.9543853">
<ele>22.115</ele>
<time>2015-12-30T03:17:29.251Z</time>
</trkpt>
<trkpt lat="-27.5084846" lon="152.9540214">
<ele>25.368</ele>
<time>2015-12-30T03:17:31.323Z</time>
</trkpt>
<trkpt lat="-27.5083923" lon="152.9534816">
<ele>28.787</ele>
<time>2015-12-30T03:17:34.414Z</time>
</trkpt>
<trkpt lat="-27.5083053" lon="152.9531508">
<ele>32.406</ele>
<time>2015-12-30T03:17:36.399Z</time>
</trkpt>
<trkpt lat="-27.5082040" lon="152.9528319">
<ele>35.599</ele>
<time>2015-12-30T03:17:38.373Z</time>
</trkpt>
<trkpt lat="-27.5081181" lon="152.9525117">
<ele>37.531</ele>
<time>2015-12-30T03:17:40.318Z</time>
</trkpt>
<trkpt lat="-27.5080364" lon="152.9521837">
<ele>38.008</ele>
<time>2015-12-30T03:17:42.282Z</time>
</trkpt>
<trkpt lat="-27.5079046" lon="152.9516793">
<ele>37.510</ele>
<time>2015-12-30T03:17:45.278Z</time>
</trkpt>
<trkpt lat="-27.5078139" lon="152.9513499">
<ele>36.084</ele>
<time>2015-12-30T03:17:47.200Z</time>
</trkpt>
<trkpt lat="-27.5076614" lon="152.9508236">
<ele>33.715</ele>
<time>2015-12-30T03:17:50.254Z</time>
</trkpt>
<trkpt lat="-27.5075061" lon="152.9503068">
<ele>30.561</ele>
<time>2015-12-30T03:17:53.251Z</time>
</trkpt>
<trkpt lat="-27.5074136" lon="152.9499484">
<ele>26.744</ele>
<time>2015-12-30T03:17:55.308Z</time>
</trkpt>
<trkpt lat="-27.5073332" lon="152.9494460">
<ele>23.075</ele>
<time>2015-12-30T03:17:58.143Z</time>
</trkpt>
<trkpt lat="-27.5073095" lon="152.9490909">
<ele>20.811</ele>
<time>2015-12-30T03:18:00.151Z</time>
</trkpt>
<trkpt lat="-27.5073429" lon="152.9485720">
<ele>20.179</ele>
<time>2015-12-30T03:18:03.117Z</time>
</trkpt>
<trkpt lat="-27.5074092" lon="152.9482371">
<ele>20.669</ele>
<time>2015-12-30T03:18:05.124Z</time>
</trkpt>
<trkpt lat="-27.5075929" lon="152.9477775">
<ele>21.666</ele>
<time>2015-12-30T03:18:08.130Z</time>
</trkpt>
<trkpt lat="-27.5078419" lon="152.9473586">
<ele>22.535</ele>
<time>2015-12-30T03:18:11.180Z</time>
</trkpt>
<trkpt lat="-27.5080080" lon="152.9471131">
<ele>23.179</ele>
<time>2015-12-30T03:18:13.080Z</time>
</trkpt>
<trkpt lat="-27.5082714" lon="152.9467291">
<ele>23.980</ele>
<time>2015-12-30T03:18:16.096Z</time>
</trkpt>
<trkpt lat="-27.5084712" lon="152.9465041">
<ele>25.093</ele>
<time>2015-12-30T03:18:18.081Z</time>
</trkpt>
<trkpt lat="-27.5087042" lon="152.9463204">
<ele>26.219</ele>
<time>2015-12-30T03:18:20.077Z</time>
</trkpt>
<trkpt lat="-27.5089388" lon="152.9461428">
<ele>27.015</ele>
<time>2015-12-30T03:18:22.057Z</time>
</trkpt>
<trkpt lat="-27.5091827" lon="152.9459710">
<ele>27.491</ele>
<time>2015-12-30T03:18:24.085Z</time>
</trkpt>
<trkpt lat="-27.5095275" lon="152.9456894">
<ele>28.043</ele>
<time>2015-12-30T03:18:27.151Z</time>
</trkpt>
<trkpt lat="-27.5097180" lon="152.9454744">
<ele>29.032</ele>
<time>2015-12-30T03:18:29.159Z</time>
</trkpt>
<trkpt lat="-27.5098658" lon="152.9450628">
<ele>30.498</ele>
<time>2015-12-30T03:18:32.063Z</time>
</trkpt>
<trkpt lat="-27.5098681" lon="152.9445977">
<ele>32.305</ele>
<time>2015-12-30T03:18:34.991Z</time>
</trkpt>
<trkpt lat="-27.5098600" lon="152.9444302">
<ele>34.351</ele>
<time>2015-12-30T03:18:36.026Z</time>
</trkpt>
<trkpt lat="-27.5097842" lon="152.9437756">
<ele>36.301</ele>
<time>2015-12-30T03:18:40.004Z</time>
</trkpt>
<trkpt lat="-27.5096776" lon="152.9434264">
<ele>37.792</ele>
<time>2015-12-30T03:18:42.347Z</time>
</trkpt>
<trkpt lat="-27.5095108" lon="152.9430602">
<ele>38.916</ele>
<time>2015-12-30T03:18:45.115Z</time>
</trkpt>
<trkpt lat="-27.5094153" lon="152.9428030">
<ele>39.840</ele>
<time>2015-12-30T03:18:47.049Z</time>
</trkpt>
<trkpt lat="-27.5092568" lon="152.9424158">
<ele>40.618</ele>
<time>2015-12-30T03:18:50.011Z</time>
</trkpt>
<trkpt lat="-27.5090289" lon="152.9420695">
<ele>41.297</ele>
<time>2015-12-30T03:18:53.039Z</time>
</trkpt>
<trkpt lat="-27.5087394" lon="152.9418218">
<ele>41.745</ele>
<time>2015-12-30T03:18:55.965Z</time>
</trkpt>
<trkpt lat="-27.5084420" lon="152.9416113">
<ele>41.460</ele>
<time>2015-12-30T03:18:58.832Z</time>
</trkpt>
<trkpt lat="-27.5082470" lon="152.9414206">
<ele>40.293</ele>
<time>2015-12-30T03:19:00.961Z</time>
</trkpt>
<trkpt lat="-27.5080843" lon="152.9412183">
<ele>38.974</ele>
<time>2015-12-30T03:19:03.028Z</time>
</trkpt>
<trkpt lat="-27.5079619" lon="152.9410041">
<ele>38.426</ele>
<time>2015-12-30T03:19:05.014Z</time>
</trkpt>
<trkpt lat="-27.5078592" lon="152.9407733">
<ele>38.729</ele>
<time>2015-12-30T03:19:07.073Z</time>
</trkpt>
<trkpt lat="-27.5077392" lon="152.9404546">
<ele>39.301</ele>
<time>2015-12-30T03:19:09.953Z</time>
</trkpt>
<trkpt lat="-27.5076642" lon="152.9402658">
<ele>39.606</ele>
<time>2015-12-30T03:19:11.802Z</time>
</trkpt>
<trkpt lat="-27.5075764" lon="152.9400651">
<ele>39.591</ele>
<time>2015-12-30T03:19:13.938Z</time>
</trkpt>
<trkpt lat="-27.5074867" lon="152.9398029">
<ele>39.350</ele>
<time>2015-12-30T03:19:16.948Z</time>
</trkpt>
<trkpt lat="-27.5074495" lon="152.9396640">
<ele>38.950</ele>
<time>2015-12-30T03:19:19.436Z</time>
</trkpt>
<trkpt lat="-27.5074528" lon="152.9395509">
<ele>38.362</ele>
<time>2015-12-30T03:19:22.087Z</time>
</trkpt>
<trkpt lat="-27.5074795" lon="152.9394119">
<ele>37.609</ele>
<time>2015-12-30T03:19:25.757Z</time>
</trkpt>
<trkpt lat="-27.5075548" lon="152.9392440">
<ele>36.810</ele>
<time>2015-12-30T03:19:29.080Z</time>
</trkpt>
<trkpt lat="-27.5075625" lon="152.9391311">
<ele>36.120</ele>
<time>2015-12-30T03:19:31.034Z</time>
</trkpt>
<trkpt lat="-27.5074135" lon="152.9389825">
<ele>35.691</ele>
<time>2015-12-30T03:19:34.433Z</time>
</trkpt>
<trkpt lat="-27.5072664" lon="152.9388586">
<ele>35.680</ele>
<time>2015-12-30T03:19:37.602Z</time>
</trkpt>
<trkpt lat="-27.5072016" lon="152.9387624">
<ele>36.006</ele>
<time>2015-12-30T03:19:40.000Z</time>
</trkpt>
<trkpt lat="-27.5072016" lon="152.9387624">
<ele>36.346</ele>
<time>2015-12-30T03:19:43.000Z</time>
</trkpt>
<trkpt lat="-27.5072016" lon="152.9387624">
<ele>36.459</ele>
<time>2015-12-30T03:20:01.199Z</time>
</trkpt>
<trkpt lat="-27.5071332" lon="152.9385784">
<ele>36.414</ele>
<time>2015-12-30T03:20:06.152Z</time>
</trkpt>
<trkpt lat="-27.5070438" lon="152.9382701">
<ele>36.774</ele>
<time>2015-12-30T03:20:09.282Z</time>
</trkpt>
<trkpt lat="-27.5069528" lon="152.9378435">
<ele>37.857</ele>
<time>2015-12-30T03:20:12.497Z</time>
</trkpt>
<trkpt lat="-27.5068575" lon="152.9374287">
<ele>38.796</ele>
<time>2015-12-30T03:20:15.446Z</time>
</trkpt>
<trkpt lat="-27.5067962" lon="152.9371507">
<ele>38.328</ele>
<time>2015-12-30T03:20:17.449Z</time>
</trkpt>
<trkpt lat="-27.5067352" lon="152.9368974">
<ele>36.397</ele>
<time>2015-12-30T03:20:19.413Z</time>
</trkpt>
<trkpt lat="-27.5066934" lon="152.9366625">
<ele>34.029</ele>
<time>2015-12-30T03:20:21.394Z</time>
</trkpt>
<trkpt lat="-27.5066772" lon="152.9363282">
<ele>31.909</ele>
<time>2015-12-30T03:20:24.382Z</time>
</trkpt>
<trkpt lat="-27.5067004" lon="152.9361407">
<ele>29.952</ele>
<time>2015-12-30T03:20:26.228Z</time>
</trkpt>
<trkpt lat="-27.5067174" lon="152.9358426">
<ele>28.179</ele>
<time>2015-12-30T03:20:29.164Z</time>
</trkpt>
<trkpt lat="-27.5067122" lon="152.9355042">
<ele>26.696</ele>
<time>2015-12-30T03:20:32.293Z</time>
</trkpt>
<trkpt lat="-27.5066506" lon="152.9351659">
<ele>25.246</ele>
<time>2015-12-30T03:20:35.077Z</time>
</trkpt>
<trkpt lat="-27.5065874" lon="152.9347331">
<ele>23.595</ele>
<time>2015-12-30T03:20:38.091Z</time>
</trkpt>
<trkpt lat="-27.5065291" lon="152.9344311">
<ele>21.817</ele>
<time>2015-12-30T03:20:40.032Z</time>
</trkpt>
<trkpt lat="-27.5063945" lon="152.9339828">
<ele>20.256</ele>
<time>2015-12-30T03:20:42.932Z</time>
</trkpt>
<trkpt lat="-27.5060764" lon="152.9335831">
<ele>19.189</ele>
<time>2015-12-30T03:20:46.022Z</time>
</trkpt>
<trkpt lat="-27.5057118" lon="152.9332170">
<ele>18.419</ele>
<time>2015-12-30T03:20:49.005Z</time>
</trkpt>
<trkpt lat="-27.5053417" lon="152.9328492">
<ele>17.866</ele>
<time>2015-12-30T03:20:51.998Z</time>
</trkpt>
<trkpt lat="-27.5049728" lon="152.9324797">
<ele>17.958</ele>
<time>2015-12-30T03:20:55.081Z</time>
</trkpt>
<trkpt lat="-27.5047348" lon="152.9322549">
<ele>19.216</ele>
<time>2015-12-30T03:20:57.111Z</time>
</trkpt>
<trkpt lat="-27.5045152" lon="152.9320607">
<ele>21.487</ele>
<time>2015-12-30T03:20:58.999Z</time>
</trkpt>
<trkpt lat="-27.5041256" lon="152.9318311">
<ele>23.698</ele>
<time>2015-12-30T03:21:02.017Z</time>
</trkpt>
<trkpt lat="-27.5038529" lon="152.9317545">
<ele>25.483</ele>
<time>2015-12-30T03:21:03.926Z</time>
</trkpt>
<trkpt lat="-27.5035335" lon="152.9317165">
<ele>27.271</ele>
<time>2015-12-30T03:21:06.050Z</time>
</trkpt>
<trkpt lat="-27.5031050" lon="152.9316247">
<ele>29.033</ele>
<time>2015-12-30T03:21:08.904Z</time>
</trkpt>
<trkpt lat="-27.5028105" lon="152.9315426">
<ele>30.877</ele>
<time>2015-12-30T03:21:10.930Z</time>
</trkpt>
<trkpt lat="-27.5023861" lon="152.9314222">
<ele>32.900</ele>
<time>2015-12-30T03:21:13.924Z</time>
</trkpt>
<trkpt lat="-27.5021115" lon="152.9313328">
<ele>34.518</ele>
<time>2015-12-30T03:21:15.928Z</time>
</trkpt>
<trkpt lat="-27.5018646" lon="152.9311980">
<ele>35.420</ele>
<time>2015-12-30T03:21:17.917Z</time>
</trkpt>
<trkpt lat="-27.5015687" lon="152.9308921">
<ele>36.159</ele>
<time>2015-12-30T03:21:20.869Z</time>
</trkpt>
<trkpt lat="-27.5014210" lon="152.9305902">
<ele>37.843</ele>
<time>2015-12-30T03:21:22.997Z</time>
</trkpt>
<trkpt lat="-27.5012903" lon="152.9302919">
<ele>41.030</ele>
<time>2015-12-30T03:21:24.984Z</time>
</trkpt>
<trkpt lat="-27.5010687" lon="152.9298660">
<ele>45.093</ele>
<time>2015-12-30T03:21:27.946Z</time>
</trkpt>
<trkpt lat="-27.5008459" lon="152.9296502">
<ele>48.832</ele>
<time>2015-12-30T03:21:29.944Z</time>
</trkpt>
<trkpt lat="-27.5005842" lon="152.9294694">
<ele>51.533</ele>
<time>2015-12-30T03:21:31.998Z</time>
</trkpt>
<trkpt lat="-27.5001356" lon="152.9293255">
<ele>53.099</ele>
<time>2015-12-30T03:21:35.076Z</time>
</trkpt>
<trkpt lat="-27.4998370" lon="152.9292413">
<ele>53.712</ele>
<time>2015-12-30T03:21:37.074Z</time>
</trkpt>
<trkpt lat="-27.4993980" lon="152.9290930">
<ele>53.696</ele>
<time>2015-12-30T03:21:40.043Z</time>
</trkpt>
<trkpt lat="-27.4989726" lon="152.9288926">
<ele>53.086</ele>
<time>2015-12-30T03:21:43.093Z</time>
</trkpt>
<trkpt lat="-27.4985588" lon="152.9287380">
<ele>51.873</ele>
<time>2015-12-30T03:21:46.090Z</time>
</trkpt>
<trkpt lat="-27.4982986" lon="152.9286265">
<ele>50.687</ele>
<time>2015-12-30T03:21:48.030Z</time>
</trkpt>
<trkpt lat="-27.4978860" lon="152.9284572">
<ele>50.150</ele>
<time>2015-12-30T03:21:51.045Z</time>
</trkpt>
<trkpt lat="-27.4974721" lon="152.9283003">
<ele>50.177</ele>
<time>2015-12-30T03:21:54.007Z</time>
</trkpt>
<trkpt lat="-27.4970850" lon="152.9280672">
<ele>50.406</ele>
<time>2015-12-30T03:21:57.047Z</time>
</trkpt>
<trkpt lat="-27.4968831" lon="152.9278570">
<ele>50.579</ele>
<time>2015-12-30T03:21:59.035Z</time>
</trkpt>
<trkpt lat="-27.4966383" lon="152.9274884">
<ele>50.821</ele>
<time>2015-12-30T03:22:02.079Z</time>
</trkpt>
<trkpt lat="-27.4964978" lon="152.9272654">
<ele>51.663</ele>
<time>2015-12-30T03:22:04.066Z</time>
</trkpt>
<trkpt lat="-27.4964185" lon="152.9270796">
<ele>53.156</ele>
<time>2015-12-30T03:22:06.054Z</time>
</trkpt>
<trkpt lat="-27.4963913" lon="152.9269265">
<ele>54.457</ele>
<time>2015-12-30T03:22:07.982Z</time>
</trkpt>
<trkpt lat="-27.4963561" lon="152.9268294">
<ele>54.802</ele>
<time>2015-12-30T03:22:10.759Z</time>
</trkpt>
<trkpt lat="-27.4961646" lon="152.9267304">
<ele>54.324</ele>
<time>2015-12-30T03:22:16.254Z</time>
</trkpt>
<trkpt lat="-27.4959452" lon="152.9266819">
<ele>54.040</ele>
<time>2015-12-30T03:22:19.246Z</time>
</trkpt>
<trkpt lat="-27.4955281" lon="152.9264653">
<ele>54.626</ele>
<time>2015-12-30T03:22:23.148Z</time>
</trkpt>
<trkpt lat="-27.4952984" lon="152.9261395">
<ele>55.504</ele>
<time>2015-12-30T03:22:26.114Z</time>
</trkpt>
<trkpt lat="-27.4951308" lon="152.9259936">
<ele>56.041</ele>
<time>2015-12-30T03:22:27.941Z</time>
</trkpt>
<trkpt lat="-27.4949083" lon="152.9259388">
<ele>56.389</ele>
<time>2015-12-30T03:22:29.943Z</time>
</trkpt>
<trkpt lat="-27.4945303" lon="152.9260352">
<ele>56.897</ele>
<time>2015-12-30T03:22:33.221Z</time>
</trkpt>
<trkpt lat="-27.4942847" lon="152.9261082">
<ele>57.731</ele>
<time>2015-12-30T03:22:35.238Z</time>
</trkpt>
<trkpt lat="-27.4939290" lon="152.9262813">
<ele>58.916</ele>
<time>2015-12-30T03:22:38.346Z</time>
</trkpt>
<trkpt lat="-27.4935989" lon="152.9264198">
<ele>60.704</ele>
<time>2015-12-30T03:22:41.380Z</time>
</trkpt>
<trkpt lat="-27.4933012" lon="152.9263095">
<ele>62.946</ele>
<time>2015-12-30T03:22:44.195Z</time>
</trkpt>
<trkpt lat="-27.4931205" lon="152.9261306">
<ele>65.185</ele>
<time>2015-12-30T03:22:46.197Z</time>
</trkpt>
<trkpt lat="-27.4928736" lon="152.9258023">
<ele>67.164</ele>
<time>2015-12-30T03:22:49.180Z</time>
</trkpt>
<trkpt lat="-27.4926220" lon="152.9254696">
<ele>68.517</ele>
<time>2015-12-30T03:22:52.115Z</time>
</trkpt>
<trkpt lat="-27.4923344" lon="152.9251496">
<ele>68.728</ele>
<time>2015-12-30T03:22:55.252Z</time>
</trkpt>
<trkpt lat="-27.4921646" lon="152.9249760">
<ele>67.534</ele>
<time>2015-12-30T03:22:57.157Z</time>
</trkpt>
<trkpt lat="-27.4919831" lon="152.9248298">
<ele>65.051</ele>
<time>2015-12-30T03:22:59.088Z</time>
</trkpt>
<trkpt lat="-27.4917046" lon="152.9246088">
<ele>62.185</ele>
<time>2015-12-30T03:23:02.195Z</time>
</trkpt>
<trkpt lat="-27.4915483" lon="152.9244764">
<ele>59.696</ele>
<time>2015-12-30T03:23:04.122Z</time>
</trkpt>
<trkpt lat="-27.4913188" lon="152.9243725">
<ele>57.377</ele>
<time>2015-12-30T03:23:06.936Z</time>
</trkpt>
<trkpt lat="-27.4911737" lon="152.9243567">
<ele>54.730</ele>
<time>2015-12-30T03:23:08.720Z</time>
</trkpt>
<trkpt lat="-27.4909510" lon="152.9245195">
<ele>51.674</ele>
<time>2015-12-30T03:23:11.839Z</time>
</trkpt>
<trkpt lat="-27.4907509" lon="152.9247247">
<ele>48.560</ele>
<time>2015-12-30T03:23:14.313Z</time>
</trkpt>
<trkpt lat="-27.4905421" lon="152.9249012">
<ele>45.721</ele>
<time>2015-12-30T03:23:16.303Z</time>
</trkpt>
<trkpt lat="-27.4901656" lon="152.9251702">
<ele>43.076</ele>
<time>2015-12-30T03:23:19.464Z</time>
</trkpt>
<trkpt lat="-27.4898897" lon="152.9253774">
<ele>40.160</ele>
<time>2015-12-30T03:23:21.769Z</time>
</trkpt>
<trkpt lat="-27.4895190" lon="152.9256141">
<ele>36.643</ele>
<time>2015-12-30T03:23:24.830Z</time>
</trkpt>
<trkpt lat="-27.4892879" lon="152.9256993">
<ele>32.946</ele>
<time>2015-12-30T03:23:26.655Z</time>
</trkpt>
<trkpt lat="-27.4890520" lon="152.9258441">
<ele>30.133</ele>
<time>2015-12-30T03:23:28.675Z</time>
</trkpt>
<trkpt lat="-27.4888031" lon="152.9260356">
<ele>28.832</ele>
<time>2015-12-30T03:23:31.012Z</time>
</trkpt>
<trkpt lat="-27.4884705" lon="152.9261779">
<ele>28.902</ele>
<time>2015-12-30T03:23:33.851Z</time>
</trkpt>
<trkpt lat="-27.4881354" lon="152.9263079">
<ele>29.702</ele>
<time>2015-12-30T03:23:36.656Z</time>
</trkpt>
<trkpt lat="-27.4878759" lon="152.9263109">
<ele>30.377</ele>
<time>2015-12-30T03:23:38.632Z</time>
</trkpt>
<trkpt lat="-27.4874891" lon="152.9262659">
<ele>30.461</ele>
<time>2015-12-30T03:23:41.555Z</time>
</trkpt>
<trkpt lat="-27.4870875" lon="152.9262508">
<ele>30.215</ele>
<time>2015-12-30T03:23:44.538Z</time>
</trkpt>
<trkpt lat="-27.4868206" lon="152.9262220">
<ele>30.092</ele>
<time>2015-12-30T03:23:46.602Z</time>
</trkpt>
<trkpt lat="-27.4864588" lon="152.9262676">
<ele>30.220</ele>
<time>2015-12-30T03:23:49.509Z</time>
</trkpt>
<trkpt lat="-27.4861195" lon="152.9264702">
<ele>30.427</ele>
<time>2015-12-30T03:23:52.510Z</time>
</trkpt>
<trkpt lat="-27.4858726" lon="152.9266665">
<ele>30.555</ele>
<time>2015-12-30T03:23:54.642Z</time>
</trkpt>
<trkpt lat="-27.4856008" lon="152.9268341">
<ele>30.784</ele>
<time>2015-12-30T03:23:56.787Z</time>
</trkpt>
<trkpt lat="-27.4853372" lon="152.9269538">
<ele>31.425</ele>
<time>2015-12-30T03:23:58.837Z</time>
</trkpt>
<trkpt lat="-27.4850958" lon="152.9269858">
<ele>32.469</ele>
<time>2015-12-30T03:24:00.719Z</time>
</trkpt>
<trkpt lat="-27.4848546" lon="152.9270090">
<ele>33.511</ele>
<time>2015-12-30T03:24:02.709Z</time>
</trkpt>
<trkpt lat="-27.4846200" lon="152.9270522">
<ele>34.092</ele>
<time>2015-12-30T03:24:04.682Z</time>
</trkpt>
<trkpt lat="-27.4842934" lon="152.9271495">
<ele>34.119</ele>
<time>2015-12-30T03:24:07.430Z</time>
</trkpt>
<trkpt lat="-27.4840520" lon="152.9272682">
<ele>34.056</ele>
<time>2015-12-30T03:24:09.476Z</time>
</trkpt>
<trkpt lat="-27.4838181" lon="152.9274048">
<ele>34.368</ele>
<time>2015-12-30T03:24:11.563Z</time>
</trkpt>
<trkpt lat="-27.4835078" lon="152.9274582">
<ele>35.287</ele>
<time>2015-12-30T03:24:14.182Z</time>
</trkpt>
<trkpt lat="-27.4832825" lon="152.9275288">
<ele>37.220</ele>
<time>2015-12-30T03:24:16.241Z</time>
</trkpt>
<trkpt lat="-27.4829245" lon="152.9275624">
<ele>40.091</ele>
<time>2015-12-30T03:24:19.324Z</time>
</trkpt>
<trkpt lat="-27.4826710" lon="152.9275749">
<ele>42.712</ele>
<time>2015-12-30T03:24:21.514Z</time>
</trkpt>
<trkpt lat="-27.4823858" lon="152.9274549">
<ele>44.075</ele>
<time>2015-12-30T03:24:24.299Z</time>
</trkpt>
<trkpt lat="-27.4821351" lon="152.9272050">
<ele>44.140</ele>
<time>2015-12-30T03:24:27.465Z</time>
</trkpt>
<trkpt lat="-27.4817943" lon="152.9271421">
<ele>43.165</ele>
<time>2015-12-30T03:24:30.472Z</time>
</trkpt>
<trkpt lat="-27.4814865" lon="152.9272212">
<ele>41.725</ele>
<time>2015-12-30T03:24:32.821Z</time>
</trkpt>
<trkpt lat="-27.4810885" lon="152.9273260">
<ele>40.653</ele>
<time>2015-12-30T03:24:35.783Z</time>
</trkpt>
<trkpt lat="-27.4808299" lon="152.9273767">
<ele>40.162</ele>
<time>2015-12-30T03:24:37.727Z</time>
</trkpt>
<trkpt lat="-27.4805849" lon="152.9274699">
<ele>39.923</ele>
<time>2015-12-30T03:24:39.705Z</time>
</trkpt>
<trkpt lat="-27.4803404" lon="152.9275912">
<ele>40.131</ele>
<time>2015-12-30T03:24:41.794Z</time>
</trkpt>
<trkpt lat="-27.4799086" lon="152.9278157">
<ele>41.115</ele>
<time>2015-12-30T03:24:45.725Z</time>
</trkpt>
<trkpt lat="-27.4796986" lon="152.9279007">
<ele>42.369</ele>
<time>2015-12-30T03:24:47.852Z</time>
</trkpt>
<trkpt lat="-27.4794543" lon="152.9280390">
<ele>43.156</ele>
<time>2015-12-30T03:24:50.505Z</time>
</trkpt>
<trkpt lat="-27.4791148" lon="152.9281272">
<ele>43.503</ele>
<time>2015-12-30T03:24:53.565Z</time>
</trkpt>
<trkpt lat="-27.4786810" lon="152.9280698">
<ele>44.055</ele>
<time>2015-12-30T03:24:56.931Z</time>
</trkpt>
<trkpt lat="-27.4784480" lon="152.9279897">
<ele>45.049</ele>
<time>2015-12-30T03:24:58.883Z</time>
</trkpt>
<trkpt lat="-27.4781112" lon="152.9278318">
<ele>45.837</ele>
<time>2015-12-30T03:25:02.046Z</time>
</trkpt>
<trkpt lat="-27.4779270" lon="152.9277129">
<ele>45.816</ele>
<time>2015-12-30T03:25:04.140Z</time>
</trkpt>
<trkpt lat="-27.4777738" lon="152.9275882">
<ele>45.186</ele>
<time>2015-12-30T03:25:06.064Z</time>
</trkpt>
<trkpt lat="-27.4776026" lon="152.9273136">
<ele>44.510</ele>
<time>2015-12-30T03:25:08.999Z</time>
</trkpt>
<trkpt lat="-27.4774849" lon="152.9270840">
<ele>44.189</ele>
<time>2015-12-30T03:25:10.974Z</time>
</trkpt>
<trkpt lat="-27.4772963" lon="152.9266994">
<ele>44.416</ele>
<time>2015-12-30T03:25:14.055Z</time>
</trkpt>
<trkpt lat="-27.4771878" lon="152.9264301">
<ele>45.250</ele>
<time>2015-12-30T03:25:16.100Z</time>
</trkpt>
<trkpt lat="-27.4770603" lon="152.9261758">
<ele>46.354</ele>
<time>2015-12-30T03:25:18.376Z</time>
</trkpt>
<trkpt lat="-27.4769391" lon="152.9259881">
<ele>47.171</ele>
<time>2015-12-30T03:25:20.453Z</time>
</trkpt>
<trkpt lat="-27.4768313" lon="152.9258292">
<ele>47.266</ele>
<time>2015-12-30T03:25:22.247Z</time>
</trkpt>
<trkpt lat="-27.4766561" lon="152.9255676">
<ele>46.691</ele>
<time>2015-12-30T03:25:24.952Z</time>
</trkpt>
<trkpt lat="-27.4765118" lon="152.9253617">
<ele>46.484</ele>
<time>2015-12-30T03:25:26.767Z</time>
</trkpt>
<trkpt lat="-27.4762609" lon="152.9249594">
<ele>47.985</ele>
<time>2015-12-30T03:25:29.975Z</time>
</trkpt>
<trkpt lat="-27.4760621" lon="152.9247320">
<ele>51.928</ele>
<time>2015-12-30T03:25:32.057Z</time>
</trkpt>
<trkpt lat="-27.4758814" lon="152.9245180">
<ele>57.461</ele>
<time>2015-12-30T03:25:34.155Z</time>
</trkpt>
<trkpt lat="-27.4755595" lon="152.9243201">
<ele>62.601</ele>
<time>2015-12-30T03:25:37.245Z</time>
</trkpt>
<trkpt lat="-27.4753356" lon="152.9242898">
<ele>66.588</ele>
<time>2015-12-30T03:25:39.083Z</time>
</trkpt>
<trkpt lat="-27.4749597" lon="152.9244262">
<ele>69.782</ele>
<time>2015-12-30T03:25:42.096Z</time>
</trkpt>
<trkpt lat="-27.4745608" lon="152.9245514">
<ele>72.482</ele>
<time>2015-12-30T03:25:45.152Z</time>
</trkpt>
<trkpt lat="-27.4742939" lon="152.9246205">
<ele>75.566</ele>
<time>2015-12-30T03:25:47.176Z</time>
</trkpt>
<trkpt lat="-27.4738912" lon="152.9247076">
<ele>79.514</ele>
<time>2015-12-30T03:25:50.244Z</time>
</trkpt>
<trkpt lat="-27.4735133" lon="152.9248350">
<ele>83.712</ele>
<time>2015-12-30T03:25:53.559Z</time>
</trkpt>
<trkpt lat="-27.4733284" lon="152.9249085">
<ele>87.412</ele>
<time>2015-12-30T03:25:55.522Z</time>
</trkpt>
<trkpt lat="-27.4731567" lon="152.9249790">
<ele>90.050</ele>
<time>2015-12-30T03:25:57.388Z</time>
</trkpt>
<trkpt lat="-27.4729782" lon="152.9250838">
<ele>91.445</ele>
<time>2015-12-30T03:25:59.268Z</time>
</trkpt>
<trkpt lat="-27.4727450" lon="152.9252130">
<ele>92.295</ele>
<time>2015-12-30T03:26:01.516Z</time>
</trkpt>
<trkpt lat="-27.4724452" lon="152.9254103">
<ele>93.623</ele>
<time>2015-12-30T03:26:04.673Z</time>
</trkpt>
<trkpt lat="-27.4721976" lon="152.9256591">
<ele>95.464</ele>
<time>2015-12-30T03:26:07.595Z</time>
</trkpt>
<trkpt lat="-27.4720332" lon="152.9257685">
<ele>97.185</ele>
<time>2015-12-30T03:26:09.066Z</time>
</trkpt>
<trkpt lat="-27.4716789" lon="152.9259593">
<ele>98.896</ele>
<time>2015-12-30T03:26:11.888Z</time>
</trkpt>
<trkpt lat="-27.4712590" lon="152.9261571">
<ele>101.084</ele>
<time>2015-12-30T03:26:15.018Z</time>
</trkpt>
<trkpt lat="-27.4709675" lon="152.9262280">
<ele>103.395</ele>
<time>2015-12-30T03:26:17.068Z</time>
</trkpt>
<trkpt lat="-27.4706744" lon="152.9262649">
<ele>105.053</ele>
<time>2015-12-30T03:26:19.225Z</time>
</trkpt>
<trkpt lat="-27.4702948" lon="152.9262527">
<ele>105.799</ele>
<time>2015-12-30T03:26:22.304Z</time>
</trkpt>
<trkpt lat="-27.4699817" lon="152.9262512">
<ele>105.760</ele>
<time>2015-12-30T03:26:25.073Z</time>
</trkpt>
<trkpt lat="-27.4697623" lon="152.9263097">
<ele>105.216</ele>
<time>2015-12-30T03:26:26.940Z</time>
</trkpt>
<trkpt lat="-27.4693790" lon="152.9263558">
<ele>104.695</ele>
<time>2015-12-30T03:26:29.980Z</time>
</trkpt>
<trkpt lat="-27.4689861" lon="152.9262925">
<ele>104.858</ele>
<time>2015-12-30T03:26:33.172Z</time>
</trkpt>
<trkpt lat="-27.4686639" lon="152.9261905">
<ele>105.815</ele>
<time>2015-12-30T03:26:36.002Z</time>
</trkpt>
<trkpt lat="-27.4683134" lon="152.9261165">
<ele>107.015</ele>
<time>2015-12-30T03:26:38.837Z</time>
</trkpt>
<trkpt lat="-27.4680428" lon="152.9260338">
<ele>108.566</ele>
<time>2015-12-30T03:26:40.878Z</time>
</trkpt>
<trkpt lat="-27.4677989" lon="152.9259802">
<ele>110.980</ele>
<time>2015-12-30T03:26:42.739Z</time>
</trkpt>
<trkpt lat="-27.4675470" lon="152.9259094">
<ele>113.488</ele>
<time>2015-12-30T03:26:44.753Z</time>
</trkpt>
<trkpt lat="-27.4671865" lon="152.9257901">
<ele>114.958</ele>
<time>2015-12-30T03:26:47.739Z</time>
</trkpt>
<trkpt lat="-27.4669563" lon="152.9257015">
<ele>116.086</ele>
<time>2015-12-30T03:26:49.901Z</time>
</trkpt>
<trkpt lat="-27.4666698" lon="152.9256073">
<ele>118.460</ele>
<time>2015-12-30T03:26:52.645Z</time>
</trkpt>
<trkpt lat="-27.4663425" lon="152.9255812">
<ele>122.149</ele>
<time>2015-12-30T03:26:55.524Z</time>
</trkpt>
<trkpt lat="-27.4659753" lon="152.9256240">
<ele>126.046</ele>
<time>2015-12-30T03:26:58.553Z</time>
</trkpt>
<trkpt lat="-27.4657420" lon="152.9256879">
<ele>129.558</ele>
<time>2015-12-30T03:27:00.754Z</time>
</trkpt>
<trkpt lat="-27.4654723" lon="152.9258193">
<ele>132.707</ele>
<time>2015-12-30T03:27:04.048Z</time>
</trkpt>
<trkpt lat="-27.4653676" lon="152.9258852">
<ele>135.677</ele>
<time>2015-12-30T03:27:05.758Z</time>
</trkpt>
<trkpt lat="-27.4652060" lon="152.9260529">
<ele>138.283</ele>
<time>2015-12-30T03:27:08.731Z</time>
</trkpt>
<trkpt lat="-27.4651613" lon="152.9261874">
<ele>140.220</ele>
<time>2015-12-30T03:27:10.021Z</time>
</trkpt>
<trkpt lat="-27.4650776" lon="152.9266142">
<ele>141.683</ele>
<time>2015-12-30T03:27:13.367Z</time>
</trkpt>
<trkpt lat="-27.4650259" lon="152.9269324">
<ele>143.001</ele>
<time>2015-12-30T03:27:15.486Z</time>
</trkpt>
<trkpt lat="-27.4649869" lon="152.9272359">
<ele>144.268</ele>
<time>2015-12-30T03:27:17.574Z</time>
</trkpt>
<trkpt lat="-27.4650399" lon="152.9276539">
<ele>145.478</ele>
<time>2015-12-30T03:27:20.575Z</time>
</trkpt>
<trkpt lat="-27.4651234" lon="152.9278943">
<ele>146.896</ele>
<time>2015-12-30T03:27:22.409Z</time>
</trkpt>
<trkpt lat="-27.4653158" lon="152.9282586">
<ele>148.566</ele>
<time>2015-12-30T03:27:25.355Z</time>
</trkpt>
<trkpt lat="-27.4654327" lon="152.9285315">
<ele>149.480</ele>
<time>2015-12-30T03:27:27.436Z</time>
</trkpt>
<trkpt lat="-27.4654409" lon="152.9288309">
<ele>148.636</ele>
<time>2015-12-30T03:27:29.625Z</time>
</trkpt>
<trkpt lat="-27.4654764" lon="152.9292117">
<ele>146.367</ele>
<time>2015-12-30T03:27:32.631Z</time>
</trkpt>
<trkpt lat="-27.4653479" lon="152.9295487">
<ele>143.298</ele>
<time>2015-12-30T03:27:35.558Z</time>
</trkpt>
<trkpt lat="-27.4650751" lon="152.9296896">
<ele>139.686</ele>
<time>2015-12-30T03:27:38.053Z</time>
</trkpt>
<trkpt lat="-27.4648871" lon="152.9298168">
<ele>136.099</ele>
<time>2015-12-30T03:27:39.910Z</time>
</trkpt>
<trkpt lat="-27.4646076" lon="152.9300220">
<ele>132.911</ele>
<time>2015-12-30T03:27:42.878Z</time>
</trkpt>
<trkpt lat="-27.4644418" lon="152.9301474">
<ele>129.392</ele>
<time>2015-12-30T03:27:44.951Z</time>
</trkpt>
<trkpt lat="-27.4641981" lon="152.9302741">
<ele>124.939</ele>
<time>2015-12-30T03:27:48.017Z</time>
</trkpt>
<trkpt lat="-27.4640450" lon="152.9302851">
<ele>120.015</ele>
<time>2015-12-30T03:27:49.926Z</time>
</trkpt>
<trkpt lat="-27.4638874" lon="152.9302457">
<ele>115.717</ele>
<time>2015-12-30T03:27:51.871Z</time>
</trkpt>
<trkpt lat="-27.4637552" lon="152.9301374">
<ele>112.950</ele>
<time>2015-12-30T03:27:53.382Z</time>
</trkpt>
<trkpt lat="-27.4634320" lon="152.9297196">
<ele>111.697</ele>
<time>2015-12-30T03:27:57.268Z</time>
</trkpt>
<trkpt lat="-27.4632731" lon="152.9292796">
<ele>110.999</ele>
<time>2015-12-30T03:28:00.371Z</time>
</trkpt>
<trkpt lat="-27.4631520" lon="152.9290289">
<ele>109.871</ele>
<time>2015-12-30T03:28:02.357Z</time>
</trkpt>
<trkpt lat="-27.4629923" lon="152.9288024">
<ele>107.870</ele>
<time>2015-12-30T03:28:04.488Z</time>
</trkpt>
<trkpt lat="-27.4627448" lon="152.9285512">
<ele>105.505</ele>
<time>2015-12-30T03:28:07.484Z</time>
</trkpt>
<trkpt lat="-27.4624699" lon="152.9284932">
<ele>103.359</ele>
<time>2015-12-30T03:28:09.981Z</time>
</trkpt>
<trkpt lat="-27.4622087" lon="152.9283740">
<ele>101.427</ele>
<time>2015-12-30T03:28:12.234Z</time>
</trkpt>
<trkpt lat="-27.4618205" lon="152.9283694">
<ele>99.854</ele>
<time>2015-12-30T03:28:15.220Z</time>
</trkpt>
<trkpt lat="-27.4615261" lon="152.9284998">
<ele>99.042</ele>
<time>2015-12-30T03:28:17.476Z</time>
</trkpt>
<trkpt lat="-27.4612579" lon="152.9285868">
<ele>98.872</ele>
<time>2015-12-30T03:28:19.413Z</time>
</trkpt>
<trkpt lat="-27.4609998" lon="152.9287336">
<ele>98.856</ele>
<time>2015-12-30T03:28:21.449Z</time>
</trkpt>
<trkpt lat="-27.4607744" lon="152.9289306">
<ele>98.063</ele>
<time>2015-12-30T03:28:23.477Z</time>
</trkpt>
<trkpt lat="-27.4604495" lon="152.9292507">
<ele>95.824</ele>
<time>2015-12-30T03:28:26.489Z</time>
</trkpt>
<trkpt lat="-27.4601047" lon="152.9295417">
<ele>92.558</ele>
<time>2015-12-30T03:28:29.474Z</time>
</trkpt>
<trkpt lat="-27.4597180" lon="152.9296323">
<ele>88.801</ele>
<time>2015-12-30T03:28:32.381Z</time>
</trkpt>
<trkpt lat="-27.4594836" lon="152.9297362">
<ele>84.501</ele>
<time>2015-12-30T03:28:34.446Z</time>
</trkpt>
<trkpt lat="-27.4591968" lon="152.9299449">
<ele>80.229</ele>
<time>2015-12-30T03:28:37.324Z</time>
</trkpt>
<trkpt lat="-27.4589312" lon="152.9302296">
<ele>76.963</ele>
<time>2015-12-30T03:28:40.311Z</time>
</trkpt>
<trkpt lat="-27.4587387" lon="152.9304089">
<ele>75.025</ele>
<time>2015-12-30T03:28:42.286Z</time>
</trkpt>
<trkpt lat="-27.4585231" lon="152.9305617">
<ele>74.318</ele>
<time>2015-12-30T03:28:44.353Z</time>
</trkpt>
<trkpt lat="-27.4582835" lon="152.9305490">
<ele>74.594</ele>
<time>2015-12-30T03:28:46.317Z</time>
</trkpt>
<trkpt lat="-27.4580384" lon="152.9305004">
<ele>75.311</ele>
<time>2015-12-30T03:28:48.248Z</time>
</trkpt>
<trkpt lat="-27.4576505" lon="152.9303899">
<ele>76.280</ele>
<time>2015-12-30T03:28:51.223Z</time>
</trkpt>
<trkpt lat="-27.4573881" lon="152.9302874">
<ele>77.422</ele>
<time>2015-12-30T03:28:53.343Z</time>
</trkpt>
<trkpt lat="-27.4570490" lon="152.9301053">
<ele>78.287</ele>
<time>2015-12-30T03:28:56.344Z</time>
</trkpt>
<trkpt lat="-27.4568113" lon="152.9300283">
<ele>78.351</ele>
<time>2015-12-30T03:28:58.525Z</time>
</trkpt>
<trkpt lat="-27.4566060" lon="152.9301423">
<ele>77.152</ele>
<time>2015-12-30T03:29:00.585Z</time>
</trkpt>
<trkpt lat="-27.4564002" lon="152.9302666">
<ele>74.991</ele>
<time>2015-12-30T03:29:02.561Z</time>
</trkpt>
<trkpt lat="-27.4560693" lon="152.9305155">
<ele>73.188</ele>
<time>2015-12-30T03:29:05.651Z</time>
</trkpt>
<trkpt lat="-27.4557464" lon="152.9307544">
<ele>72.477</ele>
<time>2015-12-30T03:29:08.556Z</time>
</trkpt>
<trkpt lat="-27.4555101" lon="152.9309125">
<ele>72.052</ele>
<time>2015-12-30T03:29:10.673Z</time>
</trkpt>
<trkpt lat="-27.4551960" lon="152.9311013">
<ele>70.707</ele>
<time>2015-12-30T03:29:13.344Z</time>
</trkpt>
<trkpt lat="-27.4548219" lon="152.9312596">
<ele>68.562</ele>
<time>2015-12-30T03:29:16.200Z</time>
</trkpt>
<trkpt lat="-27.4545555" lon="152.9313143">
<ele>66.786</ele>
<time>2015-12-30T03:29:18.103Z</time>
</trkpt>
<trkpt lat="-27.4541335" lon="152.9314272">
<ele>65.885</ele>
<time>2015-12-30T03:29:21.155Z</time>
</trkpt>
<trkpt lat="-27.4537082" lon="152.9315023">
<ele>65.527</ele>
<time>2015-12-30T03:29:24.182Z</time>
</trkpt>
<trkpt lat="-27.4532959" lon="152.9315687">
<ele>65.222</ele>
<time>2015-12-30T03:29:27.154Z</time>
</trkpt>
<trkpt lat="-27.4528800" lon="152.9316366">
<ele>64.331</ele>
<time>2015-12-30T03:29:30.347Z</time>
</trkpt>
<trkpt lat="-27.4526298" lon="152.9316834">
<ele>62.796</ele>
<time>2015-12-30T03:29:32.533Z</time>
</trkpt>
<trkpt lat="-27.4524139" lon="152.9317170">
<ele>61.484</ele>
<time>2015-12-30T03:29:34.746Z</time>
</trkpt>
<trkpt lat="-27.4522200" lon="152.9317501">
<ele>61.367</ele>
<time>2015-12-30T03:29:37.063Z</time>
</trkpt>
<trkpt lat="-27.4519981" lon="152.9317783">
<ele>62.531</ele>
<time>2015-12-30T03:29:40.517Z</time>
</trkpt>
<trkpt lat="-27.4518237" lon="152.9318081">
<ele>64.218</ele>
<time>2015-12-30T03:29:43.346Z</time>
</trkpt>
<trkpt lat="-27.4517907" lon="152.9320068">
<ele>65.570</ele>
<time>2015-12-30T03:29:45.480Z</time>
</trkpt>
<trkpt lat="-27.4518791" lon="152.9323462">
<ele>66.307</ele>
<time>2015-12-30T03:29:48.263Z</time>
</trkpt>
<trkpt lat="-27.4518551" lon="152.9327661">
<ele>66.516</ele>
<time>2015-12-30T03:29:51.180Z</time>
</trkpt>
<trkpt lat="-27.4518123" lon="152.9331879">
<ele>66.414</ele>
<time>2015-12-30T03:29:54.129Z</time>
</trkpt>
<trkpt lat="-27.4517749" lon="152.9336107">
<ele>65.792</ele>
<time>2015-12-30T03:29:57.124Z</time>
</trkpt>
<trkpt lat="-27.4518296" lon="152.9340236">
<ele>64.336</ele>
<time>2015-12-30T03:30:00.032Z</time>
</trkpt>
<trkpt lat="-27.4518911" lon="152.9343086">
<ele>62.377</ele>
<time>2015-12-30T03:30:02.107Z</time>
</trkpt>
<trkpt lat="-27.4519320" lon="152.9345827">
<ele>60.491</ele>
<time>2015-12-30T03:30:04.263Z</time>
</trkpt>
<trkpt lat="-27.4518936" lon="152.9348675">
<ele>58.793</ele>
<time>2015-12-30T03:30:07.174Z</time>
</trkpt>
<trkpt lat="-27.4518786" lon="152.9350984">
<ele>57.017</ele>
<time>2015-12-30T03:30:09.822Z</time>
</trkpt>
<trkpt lat="-27.4518525" lon="152.9353729">
<ele>55.210</ele>
<time>2015-12-30T03:30:12.549Z</time>
</trkpt>
<trkpt lat="-27.4518227" lon="152.9357495">
<ele>53.958</ele>
<time>2015-12-30T03:30:15.557Z</time>
</trkpt>
<trkpt lat="-27.4518038" lon="152.9361631">
<ele>53.934</ele>
<time>2015-12-30T03:30:18.469Z</time>
</trkpt>
<trkpt lat="-27.4518239" lon="152.9364535">
<ele>55.545</ele>
<time>2015-12-30T03:30:20.420Z</time>
</trkpt>
<trkpt lat="-27.4518827" lon="152.9368839">
<ele>58.100</ele>
<time>2015-12-30T03:30:23.269Z</time>
</trkpt>
<trkpt lat="-27.4519172" lon="152.9372106">
<ele>59.624</ele>
<time>2015-12-30T03:30:25.339Z</time>
</trkpt>
<trkpt lat="-27.4519768" lon="152.9375259">
<ele>58.921</ele>
<time>2015-12-30T03:30:27.328Z</time>
</trkpt>
<trkpt lat="-27.4520626" lon="152.9380144">
<ele>56.614</ele>
<time>2015-12-30T03:30:30.390Z</time>
</trkpt>
<trkpt lat="-27.4520817" lon="152.9384884">
<ele>54.144</ele>
<time>2015-12-30T03:30:33.343Z</time>
</trkpt>
<trkpt lat="-27.4519978" lon="152.9389494">
<ele>52.581</ele>
<time>2015-12-30T03:30:36.342Z</time>
</trkpt>
<trkpt lat="-27.4518947" lon="152.9392095">
<ele>52.218</ele>
<time>2015-12-30T03:30:38.208Z</time>
</trkpt>
<trkpt lat="-27.4517608" lon="152.9394805">
<ele>52.718</ele>
<time>2015-12-30T03:30:40.262Z</time>
</trkpt>
<trkpt lat="-27.4515870" lon="152.9397201">
<ele>53.512</ele>
<time>2015-12-30T03:30:42.350Z</time>
</trkpt>
<trkpt lat="-27.4513490" lon="152.9400400">
<ele>54.736</ele>
<time>2015-12-30T03:30:45.235Z</time>
</trkpt>
<trkpt lat="-27.4512084" lon="152.9402658">
<ele>56.644</ele>
<time>2015-12-30T03:30:47.185Z</time>
</trkpt>
<trkpt lat="-27.4509858" lon="152.9406284">
<ele>58.399</ele>
<time>2015-12-30T03:30:50.295Z</time>
</trkpt>
<trkpt lat="-27.4508448" lon="152.9408533">
<ele>59.027</ele>
<time>2015-12-30T03:30:52.249Z</time>
</trkpt>
<trkpt lat="-27.4506318" lon="152.9411714">
<ele>58.468</ele>
<time>2015-12-30T03:30:55.108Z</time>
</trkpt>
<trkpt lat="-27.4504220" lon="152.9415033">
<ele>56.914</ele>
<time>2015-12-30T03:30:58.033Z</time>
</trkpt>
<trkpt lat="-27.4502671" lon="152.9417463">
<ele>54.482</ele>
<time>2015-12-30T03:31:00.128Z</time>
</trkpt>
<trkpt lat="-27.4500340" lon="152.9420905">
<ele>51.548</ele>
<time>2015-12-30T03:31:03.084Z</time>
</trkpt>
<trkpt lat="-27.4498835" lon="152.9422971">
<ele>49.055</ele>
<time>2015-12-30T03:31:04.874Z</time>
</trkpt>
<trkpt lat="-27.4496390" lon="152.9426554">
<ele>47.720</ele>
<time>2015-12-30T03:31:07.905Z</time>
</trkpt>
<trkpt lat="-27.4493903" lon="152.9430201">
<ele>47.315</ele>
<time>2015-12-30T03:31:10.997Z</time>
</trkpt>
<trkpt lat="-27.4492212" lon="152.9432707">
<ele>47.311</ele>
<time>2015-12-30T03:31:13.081Z</time>
</trkpt>
<trkpt lat="-27.4490505" lon="152.9435257">
<ele>47.486</ele>
<time>2015-12-30T03:31:15.189Z</time>
</trkpt>
<trkpt lat="-27.4488278" lon="152.9438429">
<ele>47.916</ele>
<time>2015-12-30T03:31:18.011Z</time>
</trkpt>
<trkpt lat="-27.4486991" lon="152.9440464">
<ele>48.670</ele>
<time>2015-12-30T03:31:19.913Z</time>
</trkpt>
<trkpt lat="-27.4484955" lon="152.9442781">
<ele>49.655</ele>
<time>2015-12-30T03:31:22.494Z</time>
</trkpt>
<trkpt lat="-27.4481416" lon="152.9444391">
<ele>50.799</ele>
<time>2015-12-30T03:31:25.646Z</time>
</trkpt>
<trkpt lat="-27.4476906" lon="152.9444734">
<ele>52.061</ele>
<time>2015-12-30T03:31:28.839Z</time>
</trkpt>
<trkpt lat="-27.4473880" lon="152.9443980">
<ele>53.221</ele>
<time>2015-12-30T03:31:30.871Z</time>
</trkpt>
<trkpt lat="-27.4470925" lon="152.9442817">
<ele>54.369</ele>
<time>2015-12-30T03:31:32.913Z</time>
</trkpt>
<trkpt lat="-27.4466865" lon="152.9441166">
<ele>55.708</ele>
<time>2015-12-30T03:31:35.830Z</time>
</trkpt>
<trkpt lat="-27.4463142" lon="152.9439605">
<ele>56.922</ele>
<time>2015-12-30T03:31:38.746Z</time>
</trkpt>
<trkpt lat="-27.4459660" lon="152.9438566">
<ele>57.189</ele>
<time>2015-12-30T03:31:41.632Z</time>
</trkpt>
<trkpt lat="-27.4457313" lon="152.9438302">
<ele>55.660</ele>
<time>2015-12-30T03:31:43.615Z</time>
</trkpt>
<trkpt lat="-27.4453672" lon="152.9438434">
<ele>52.557</ele>
<time>2015-12-30T03:31:46.644Z</time>
</trkpt>
<trkpt lat="-27.4450064" lon="152.9438931">
<ele>49.010</ele>
<time>2015-12-30T03:31:49.580Z</time>
</trkpt>
<trkpt lat="-27.4446100" lon="152.9439183">
<ele>45.819</ele>
<time>2015-12-30T03:31:52.665Z</time>
</trkpt>
<trkpt lat="-27.4443385" lon="152.9439114">
<ele>43.540</ele>
<time>2015-12-30T03:31:54.756Z</time>
</trkpt>
<trkpt lat="-27.4440952" lon="152.9438904">
<ele>42.600</ele>
<time>2015-12-30T03:31:56.723Z</time>
</trkpt>
<trkpt lat="-27.4438632" lon="152.9438768">
<ele>42.881</ele>
<time>2015-12-30T03:31:58.781Z</time>
</trkpt>
<trkpt lat="-27.4435921" lon="152.9438781">
<ele>44.062</ele>
<time>2015-12-30T03:32:01.563Z</time>
</trkpt>
<trkpt lat="-27.4434114" lon="152.9438921">
<ele>45.580</ele>
<time>2015-12-30T03:32:04.000Z</time>
</trkpt>
<trkpt lat="-27.4434114" lon="152.9438921">
<ele>46.722</ele>
<time>2015-12-30T03:32:08.000Z</time>
</trkpt>
<trkpt lat="-27.4434114" lon="152.9438921">
<ele>47.156</ele>
<time>2015-12-30T03:32:51.680Z</time>
</trkpt>
<trkpt lat="-27.4432376" lon="152.9438784">
<ele>47.068</ele>
<time>2015-12-30T03:32:56.205Z</time>
</trkpt>
<trkpt lat="-27.4430197" lon="152.9439237">
<ele>47.781</ele>
<time>2015-12-30T03:32:58.527Z</time>
</trkpt>
<trkpt lat="-27.4426679" lon="152.9440052">
<ele>50.317</ele>
<time>2015-12-30T03:33:01.654Z</time>
</trkpt>
<trkpt lat="-27.4424150" lon="152.9440291">
<ele>53.366</ele>
<time>2015-12-30T03:33:03.679Z</time>
</trkpt>
<trkpt lat="-27.4421622" lon="152.9440242">
<ele>54.953</ele>
<time>2015-12-30T03:33:05.667Z</time>
</trkpt>
<trkpt lat="-27.4417746" lon="152.9439772">
<ele>54.701</ele>
<time>2015-12-30T03:33:08.619Z</time>
</trkpt>
<trkpt lat="-27.4414800" lon="152.9439667">
<ele>52.900</ele>
<time>2015-12-30T03:33:10.639Z</time>
</trkpt>
<trkpt lat="-27.4412040" lon="152.9438869">
<ele>50.357</ele>
<time>2015-12-30T03:33:12.553Z</time>
</trkpt>
<trkpt lat="-27.4409087" lon="152.9438486">
<ele>48.326</ele>
<time>2015-12-30T03:33:14.618Z</time>
</trkpt>
<trkpt lat="-27.4404806" lon="152.9437786">
<ele>47.339</ele>
<time>2015-12-30T03:33:17.741Z</time>
</trkpt>
<trkpt lat="-27.4402034" lon="152.9437309">
<ele>47.003</ele>
<time>2015-12-30T03:33:19.927Z</time>
</trkpt>
<trkpt lat="-27.4398149" lon="152.9436699">
<ele>46.973</ele>
<time>2015-12-30T03:33:23.233Z</time>
</trkpt>
<trkpt lat="-27.4394791" lon="152.9436328">
<ele>46.793</ele>
<time>2015-12-30T03:33:26.329Z</time>
</trkpt>
<trkpt lat="-27.4392908" lon="152.9436414">
<ele>45.840</ele>
<time>2015-12-30T03:33:27.828Z</time>
</trkpt>
<trkpt lat="-27.4388792" lon="152.9435761">
<ele>44.249</ele>
<time>2015-12-30T03:33:30.711Z</time>
</trkpt>
<trkpt lat="-27.4385691" lon="152.9434853">
<ele>43.654</ele>
<time>2015-12-30T03:33:32.610Z</time>
</trkpt>
<trkpt lat="-27.4382069" lon="152.9434497">
<ele>45.363</ele>
<time>2015-12-30T03:33:34.809Z</time>
</trkpt>
<trkpt lat="-27.4377231" lon="152.9433883">
<ele>48.889</ele>
<time>2015-12-30T03:33:38.213Z</time>
</trkpt>
<trkpt lat="-27.4373746" lon="152.9433596">
<ele>52.588</ele>
<time>2015-12-30T03:33:41.822Z</time>
</trkpt>
<trkpt lat="-27.4371655" lon="152.9433291">
<ele>54.834</ele>
<time>2015-12-30T03:33:44.691Z</time>
</trkpt>
<trkpt lat="-27.4370454" lon="152.9433183">
<ele>55.086</ele>
<time>2015-12-30T03:33:45.947Z</time>
</trkpt>
<trkpt lat="-27.4366789" lon="152.9433057">
<ele>54.254</ele>
<time>2015-12-30T03:33:48.839Z</time>
</trkpt>
<trkpt lat="-27.4361604" lon="152.9433119">
<ele>54.236</ele>
<time>2015-12-30T03:33:52.194Z</time>
</trkpt>
<trkpt lat="-27.4358454" lon="152.9433042">
<ele>56.635</ele>
<time>2015-12-30T03:33:54.262Z</time>
</trkpt>
<trkpt lat="-27.4353808" lon="152.9432424">
<ele>60.790</ele>
<time>2015-12-30T03:33:57.470Z</time>
</trkpt>
<trkpt lat="-27.4351074" lon="152.9431186">
<ele>64.449</ele>
<time>2015-12-30T03:33:59.587Z</time>
</trkpt>
<trkpt lat="-27.4347268" lon="152.9429575">
<ele>66.541</ele>
<time>2015-12-30T03:34:02.593Z</time>
</trkpt>
<trkpt lat="-27.4341987" lon="152.9429317">
<ele>67.489</ele>
<time>2015-12-30T03:34:06.444Z</time>
</trkpt>
<trkpt lat="-27.4333784" lon="152.9427712">
<ele>67.908</ele>
<time>2015-12-30T03:34:12.447Z</time>
</trkpt>
<trkpt lat="-27.4329709" lon="152.9426731">
<ele>68.371</ele>
<time>2015-12-30T03:34:15.479Z</time>
</trkpt>
<trkpt lat="-27.4325743" lon="152.9426954">
<ele>69.188</ele>
<time>2015-12-30T03:34:18.228Z</time>
</trkpt>
<trkpt lat="-27.4322793" lon="152.9427897">
<ele>69.946</ele>
<time>2015-12-30T03:34:20.274Z</time>
</trkpt>
<trkpt lat="-27.4319773" lon="152.9428870">
<ele>70.242</ele>
<time>2015-12-30T03:34:22.365Z</time>
</trkpt>
<trkpt lat="-27.4315547" lon="152.9431099">
<ele>70.104</ele>
<time>2015-12-30T03:34:25.512Z</time>
</trkpt>
<trkpt lat="-27.4312821" lon="152.9432271">
<ele>69.367</ele>
<time>2015-12-30T03:34:27.508Z</time>
</trkpt>
<trkpt lat="-27.4308479" lon="152.9433718">
<ele>68.077</ele>
<time>2015-12-30T03:34:30.644Z</time>
</trkpt>
<trkpt lat="-27.4304255" lon="152.9434826">
<ele>67.068</ele>
<time>2015-12-30T03:34:33.568Z</time>
</trkpt>
<trkpt lat="-27.4299755" lon="152.9434531">
<ele>67.063</ele>
<time>2015-12-30T03:34:36.578Z</time>
</trkpt>
<trkpt lat="-27.4296722" lon="152.9433274">
<ele>68.158</ele>
<time>2015-12-30T03:34:38.879Z</time>
</trkpt>
<trkpt lat="-27.4294051" lon="152.9431958">
<ele>70.542</ele>
<time>2015-12-30T03:34:41.021Z</time>
</trkpt>
<trkpt lat="-27.4291372" lon="152.9430665">
<ele>73.725</ele>
<time>2015-12-30T03:34:43.167Z</time>
</trkpt>
<trkpt lat="-27.4286991" lon="152.9428758">
<ele>76.408</ele>
<time>2015-12-30T03:34:46.632Z</time>
</trkpt>
<trkpt lat="-27.4283800" lon="152.9428195">
<ele>78.505</ele>
<time>2015-12-30T03:34:48.982Z</time>
</trkpt>
<trkpt lat="-27.4279008" lon="152.9428466">
<ele>81.159</ele>
<time>2015-12-30T03:34:52.355Z</time>
</trkpt>
<trkpt lat="-27.4275238" lon="152.9430994">
<ele>84.673</ele>
<time>2015-12-30T03:34:55.220Z</time>
</trkpt>
<trkpt lat="-27.4273972" lon="152.9433787">
<ele>88.408</ele>
<time>2015-12-30T03:34:56.874Z</time>
</trkpt>
<trkpt lat="-27.4274376" lon="152.9439201">
<ele>91.786</ele>
<time>2015-12-30T03:34:59.630Z</time>
</trkpt>
<trkpt lat="-27.4274383" lon="152.9442755">
<ele>95.142</ele>
<time>2015-12-30T03:35:01.539Z</time>
</trkpt>
<trkpt lat="-27.4273522" lon="152.9446867">
<ele>99.243</ele>
<time>2015-12-30T03:35:04.035Z</time>
</trkpt>
<trkpt lat="-27.4273095" lon="152.9450708">
<ele>103.842</ele>
<time>2015-12-30T03:35:06.374Z</time>
</trkpt>
<trkpt lat="-27.4275436" lon="152.9458216">
<ele>110.153</ele>
<time>2015-12-30T03:35:11.011Z</time>
</trkpt>
<trkpt lat="-27.4278613" lon="152.9462403">
<ele>112.923</ele>
<time>2015-12-30T03:35:14.040Z</time>
</trkpt>
<trkpt lat="-27.4279879" lon="152.9465824">
<ele>117.031</ele>
<time>2015-12-30T03:35:16.095Z</time>
</trkpt>
<trkpt lat="-27.4280326" lon="152.9471069">
<ele>121.436</ele>
<time>2015-12-30T03:35:19.121Z</time>
</trkpt>
<trkpt lat="-27.4280107" lon="152.9474154">
<ele>124.528</ele>
<time>2015-12-30T03:35:20.998Z</time>
</trkpt>
<trkpt lat="-27.4280187" lon="152.9477232">
<ele>126.315</ele>
<time>2015-12-30T03:35:22.864Z</time>
</trkpt>
<trkpt lat="-27.4280187" lon="152.9477232">
<ele>126.315</ele>
<time>2015-12-30T03:35:22.864Z</time>
</trkpt>
<trkpt lat="-27.4257866" lon="152.9490189">
<ele>126.488</ele>
<time>2015-12-30T03:35:40.059Z</time>
</trkpt>
<trkpt lat="-27.4255513" lon="152.9490899">
<ele>126.430</ele>
<time>2015-12-30T03:35:41.798Z</time>
</trkpt>
<trkpt lat="-27.4251066" lon="152.9491751">
<ele>126.103</ele>
<time>2015-12-30T03:35:45.007Z</time>
</trkpt>
<trkpt lat="-27.4246415" lon="152.9491758">
<ele>124.837</ele>
<time>2015-12-30T03:35:48.269Z</time>
</trkpt>
<trkpt lat="-27.4243351" lon="152.9491314">
<ele>122.268</ele>
<time>2015-12-30T03:35:50.446Z</time>
</trkpt>
<trkpt lat="-27.4239442" lon="152.9489500">
<ele>118.883</ele>
<time>2015-12-30T03:35:53.448Z</time>
</trkpt>
<trkpt lat="-27.4235570" lon="152.9487369">
<ele>114.948</ele>
<time>2015-12-30T03:35:56.376Z</time>
</trkpt>
<trkpt lat="-27.4232866" lon="152.9485643">
<ele>110.216</ele>
<time>2015-12-30T03:35:58.409Z</time>
</trkpt>
<trkpt lat="-27.4230097" lon="152.9484089">
<ele>105.359</ele>
<time>2015-12-30T03:36:00.422Z</time>
</trkpt>
<trkpt lat="-27.4227183" lon="152.9482492">
<ele>101.485</ele>
<time>2015-12-30T03:36:02.524Z</time>
</trkpt>
<trkpt lat="-27.4224385" lon="152.9480935">
<ele>98.621</ele>
<time>2015-12-30T03:36:04.537Z</time>
</trkpt>
<trkpt lat="-27.4221573" lon="152.9479332">
<ele>96.145</ele>
<time>2015-12-30T03:36:06.613Z</time>
</trkpt>
<trkpt lat="-27.4218979" lon="152.9478044">
<ele>93.583</ele>
<time>2015-12-30T03:36:08.570Z</time>
</trkpt>
<trkpt lat="-27.4214821" lon="152.9477164">
<ele>90.824</ele>
<time>2015-12-30T03:36:11.544Z</time>
</trkpt>
<trkpt lat="-27.4210496" lon="152.9477374">
<ele>87.792</ele>
<time>2015-12-30T03:36:14.587Z</time>
</trkpt>
<trkpt lat="-27.4207663" lon="152.9477922">
<ele>84.809</ele>
<time>2015-12-30T03:36:16.579Z</time>
</trkpt>
<trkpt lat="-27.4204815" lon="152.9478443">
<ele>82.865</ele>
<time>2015-12-30T03:36:18.663Z</time>
</trkpt>
<trkpt lat="-27.4201089" lon="152.9478419">
<ele>82.317</ele>
<time>2015-12-30T03:36:21.466Z</time>
</trkpt>
<trkpt lat="-27.4198475" lon="152.9477953">
<ele>82.597</ele>
<time>2015-12-30T03:36:23.480Z</time>
</trkpt>
<trkpt lat="-27.4194606" lon="152.9476733">
<ele>83.264</ele>
<time>2015-12-30T03:36:26.539Z</time>
</trkpt>
<trkpt lat="-27.4190716" lon="152.9476113">
<ele>83.998</ele>
<time>2015-12-30T03:36:29.653Z</time>
</trkpt>
<trkpt lat="-27.4188288" lon="152.9476106">
<ele>84.378</ele>
<time>2015-12-30T03:36:31.752Z</time>
</trkpt>
<trkpt lat="-27.4184888" lon="152.9476666">
<ele>84.089</ele>
<time>2015-12-30T03:36:34.915Z</time>
</trkpt>
<trkpt lat="-27.4181897" lon="152.9477790">
<ele>83.156</ele>
<time>2015-12-30T03:36:38.153Z</time>
</trkpt>
<trkpt lat="-27.4179512" lon="152.9479148">
<ele>81.809</ele>
<time>2015-12-30T03:36:40.855Z</time>
</trkpt>
<trkpt lat="-27.4176339" lon="152.9481502">
<ele>80.361</ele>
<time>2015-12-30T03:36:44.113Z</time>
</trkpt>
<trkpt lat="-27.4173926" lon="152.9482832">
<ele>79.181</ele>
<time>2015-12-30T03:36:46.077Z</time>
</trkpt>
<trkpt lat="-27.4171238" lon="152.9483989">
<ele>78.336</ele>
<time>2015-12-30T03:36:48.073Z</time>
</trkpt>
<trkpt lat="-27.4166910" lon="152.9484974">
<ele>77.290</ele>
<time>2015-12-30T03:36:51.115Z</time>
</trkpt>
<trkpt lat="-27.4165381" lon="152.9485221">
<ele>75.446</ele>
<time>2015-12-30T03:36:52.189Z</time>
</trkpt>
<trkpt lat="-27.4159510" lon="152.9486112">
<ele>72.921</ele>
<time>2015-12-30T03:36:56.377Z</time>
</trkpt>
<trkpt lat="-27.4155502" lon="152.9486914">
<ele>70.165</ele>
<time>2015-12-30T03:36:59.644Z</time>
</trkpt>
<trkpt lat="-27.4153143" lon="152.9487371">
<ele>67.481</ele>
<time>2015-12-30T03:37:02.436Z</time>
</trkpt>
<trkpt lat="-27.4151504" lon="152.9487735">
<ele>65.191</ele>
<time>2015-12-30T03:37:05.263Z</time>
</trkpt>
<trkpt lat="-27.4149967" lon="152.9488040">
<ele>63.610</ele>
<time>2015-12-30T03:37:09.489Z</time>
</trkpt>
<trkpt lat="-27.4148797" lon="152.9488640">
<ele>62.803</ele>
<time>2015-12-30T03:37:13.736Z</time>
</trkpt>
<trkpt lat="-27.4149185" lon="152.9487616">
<ele>62.812</ele>
<time>2015-12-30T03:37:17.000Z</time>
</trkpt>
<trkpt lat="-27.4149185" lon="152.9487616">
<ele>63.424</ele>
<time>2015-12-30T03:37:21.000Z</time>
</trkpt>
<trkpt lat="-27.4149185" lon="152.9487616">
<ele>63.949</ele>
<time>2015-12-30T03:38:17.722Z</time>
</trkpt>
<trkpt lat="-27.4147228" lon="152.9488130">
<ele>63.916</ele>
<time>2015-12-30T03:38:23.768Z</time>
</trkpt>
<trkpt lat="-27.4145793" lon="152.9489313">
<ele>64.996</ele>
<time>2015-12-30T03:38:26.604Z</time>
</trkpt>
<trkpt lat="-27.4145435" lon="152.9490993">
<ele>68.654</ele>
<time>2015-12-30T03:38:28.364Z</time>
</trkpt>
<trkpt lat="-27.4146214" lon="152.9494400">
<ele>73.091</ele>
<time>2015-12-30T03:38:31.359Z</time>
</trkpt>
<trkpt lat="-27.4147348" lon="152.9498294">
<ele>76.055</ele>
<time>2015-12-30T03:38:34.423Z</time>
</trkpt>
<trkpt lat="-27.4147664" lon="152.9499585">
<ele>77.521</ele>
<time>2015-12-30T03:38:35.400Z</time>
</trkpt>
<trkpt lat="-27.4148862" lon="152.9505098">
<ele>78.028</ele>
<time>2015-12-30T03:38:39.185Z</time>
</trkpt>
<trkpt lat="-27.4149915" lon="152.9510132">
<ele>78.485</ele>
<time>2015-12-30T03:38:42.164Z</time>
</trkpt>
<trkpt lat="-27.4150314" lon="152.9513961">
<ele>79.552</ele>
<time>2015-12-30T03:38:44.205Z</time>
</trkpt>
<trkpt lat="-27.4150138" lon="152.9517815">
<ele>80.714</ele>
<time>2015-12-30T03:38:46.184Z</time>
</trkpt>
<trkpt lat="-27.4149517" lon="152.9521709">
<ele>81.135</ele>
<time>2015-12-30T03:38:48.178Z</time>
</trkpt>
<trkpt lat="-27.4148551" lon="152.9527630">
<ele>80.815</ele>
<time>2015-12-30T03:38:51.234Z</time>
</trkpt>
<trkpt lat="-27.4146982" lon="152.9536716">
<ele>80.258</ele>
<time>2015-12-30T03:38:56.058Z</time>
</trkpt>
<trkpt lat="-27.4146518" lon="152.9540213">
<ele>79.246</ele>
<time>2015-12-30T03:38:57.987Z</time>
</trkpt>
<trkpt lat="-27.4146057" lon="152.9543714">
<ele>76.938</ele>
<time>2015-12-30T03:38:59.978Z</time>
</trkpt>
<trkpt lat="-27.4145405" lon="152.9548809">
<ele>73.913</ele>
<time>2015-12-30T03:39:02.999Z</time>
</trkpt>
<trkpt lat="-27.4145130" lon="152.9551858">
<ele>71.818</ele>
<time>2015-12-30T03:39:04.943Z</time>
</trkpt>
<trkpt lat="-27.4144630" lon="152.9555187">
<ele>71.393</ele>
<time>2015-12-30T03:39:07.092Z</time>
</trkpt>
<trkpt lat="-27.4143054" lon="152.9562701">
<ele>73.230</ele>
<time>2015-12-30T03:39:11.746Z</time>
</trkpt>
<trkpt lat="-27.4142531" lon="152.9566016">
<ele>74.522</ele>
<time>2015-12-30T03:39:13.707Z</time>
</trkpt>
<trkpt lat="-27.4142518" lon="152.9570991">
<ele>75.972</ele>
<time>2015-12-30T03:39:16.578Z</time>
</trkpt>
<trkpt lat="-27.4143134" lon="152.9574486">
<ele>77.584</ele>
<time>2015-12-30T03:39:18.569Z</time>
</trkpt>
<trkpt lat="-27.4144185" lon="152.9579754">
<ele>79.341</ele>
<time>2015-12-30T03:39:21.562Z</time>
</trkpt>
<trkpt lat="-27.4144866" lon="152.9583177">
<ele>80.582</ele>
<time>2015-12-30T03:39:23.497Z</time>
</trkpt>
<trkpt lat="-27.4145325" lon="152.9588472">
<ele>80.528</ele>
<time>2015-12-30T03:39:26.427Z</time>
</trkpt>
<trkpt lat="-27.4145090" lon="152.9591822">
<ele>79.270</ele>
<time>2015-12-30T03:39:28.269Z</time>
</trkpt>
<trkpt lat="-27.4144242" lon="152.9595320">
<ele>77.406</ele>
<time>2015-12-30T03:39:30.227Z</time>
</trkpt>
<trkpt lat="-27.4142689" lon="152.9598690">
<ele>75.680</ele>
<time>2015-12-30T03:39:32.265Z</time>
</trkpt>
<trkpt lat="-27.4139942" lon="152.9602996">
<ele>74.743</ele>
<time>2015-12-30T03:39:35.160Z</time>
</trkpt>
<trkpt lat="-27.4137757" lon="152.9605340">
<ele>74.807</ele>
<time>2015-12-30T03:39:37.109Z</time>
</trkpt>
<trkpt lat="-27.4134468" lon="152.9608291">
<ele>75.431</ele>
<time>2015-12-30T03:39:39.910Z</time>
</trkpt>
<trkpt lat="-27.4131020" lon="152.9611381">
<ele>76.036</ele>
<time>2015-12-30T03:39:42.906Z</time>
</trkpt>
<trkpt lat="-27.4128412" lon="152.9613249">
<ele>76.554</ele>
<time>2015-12-30T03:39:45.095Z</time>
</trkpt>
<trkpt lat="-27.4125722" lon="152.9616254">
<ele>77.310</ele>
<time>2015-12-30T03:39:48.199Z</time>
</trkpt>
<trkpt lat="-27.4124197" lon="152.9618445">
<ele>78.224</ele>
<time>2015-12-30T03:39:50.906Z</time>
</trkpt>
<trkpt lat="-27.4123498" lon="152.9619557">
<ele>78.603</ele>
<time>2015-12-30T03:39:52.872Z</time>
</trkpt>
<trkpt lat="-27.4122798" lon="152.9620470">
<ele>78.143</ele>
<time>2015-12-30T03:39:55.000Z</time>
</trkpt>
<trkpt lat="-27.4122798" lon="152.9620470">
<ele>77.407</ele>
<time>2015-12-30T03:40:00.000Z</time>
</trkpt>
<trkpt lat="-27.4122798" lon="152.9620470">
<ele>77.016</ele>
<time>2015-12-30T03:40:23.584Z</time>
</trkpt>
<trkpt lat="-27.4121954" lon="152.9622303">
<ele>77.095</ele>
<time>2015-12-30T03:40:32.002Z</time>
</trkpt>
<trkpt lat="-27.4120851" lon="152.9624115">
<ele>77.454</ele>
<time>2015-12-30T03:40:35.277Z</time>
</trkpt>
<trkpt lat="-27.4120195" lon="152.9625380">
<ele>77.841</ele>
<time>2015-12-30T03:40:37.137Z</time>
</trkpt>
<trkpt lat="-27.4117997" lon="152.9626392">
<ele>78.150</ele>
<time>2015-12-30T03:40:40.191Z</time>
</trkpt>
<trkpt lat="-27.4116281" lon="152.9626238">
<ele>78.314</ele>
<time>2015-12-30T03:40:41.924Z</time>
</trkpt>
<trkpt lat="-27.4112924" lon="152.9625828">
<ele>78.165</ele>
<time>2015-12-30T03:40:44.957Z</time>
</trkpt>
<trkpt lat="-27.4109608" lon="152.9625402">
<ele>77.617</ele>
<time>2015-12-30T03:40:47.658Z</time>
</trkpt>
<trkpt lat="-27.4106861" lon="152.9624957">
<ele>76.793</ele>
<time>2015-12-30T03:40:49.692Z</time>
</trkpt>
<trkpt lat="-27.4103931" lon="152.9624490">
<ele>75.855</ele>
<time>2015-12-30T03:40:51.732Z</time>
</trkpt>
<trkpt lat="-27.4099990" lon="152.9624208">
<ele>74.938</ele>
<time>2015-12-30T03:40:54.585Z</time>
</trkpt>
<trkpt lat="-27.4097273" lon="152.9624173">
<ele>74.176</ele>
<time>2015-12-30T03:40:56.692Z</time>
</trkpt>
<trkpt lat="-27.4093397" lon="152.9623734">
<ele>73.427</ele>
<time>2015-12-30T03:40:59.784Z</time>
</trkpt>
<trkpt lat="-27.4090572" lon="152.9623089">
<ele>72.401</ele>
<time>2015-12-30T03:41:01.822Z</time>
</trkpt>
<trkpt lat="-27.4087515" lon="152.9622785">
<ele>71.225</ele>
<time>2015-12-30T03:41:03.915Z</time>
</trkpt>
<trkpt lat="-27.4083282" lon="152.9622186">
<ele>70.368</ele>
<time>2015-12-30T03:41:06.893Z</time>
</trkpt>
<trkpt lat="-27.4080485" lon="152.9621887">
<ele>69.883</ele>
<time>2015-12-30T03:41:08.871Z</time>
</trkpt>
<trkpt lat="-27.4076033" lon="152.9621282">
<ele>69.421</ele>
<time>2015-12-30T03:41:11.956Z</time>
</trkpt>
<trkpt lat="-27.4073109" lon="152.9620978">
<ele>68.920</ele>
<time>2015-12-30T03:41:13.959Z</time>
</trkpt>
<trkpt lat="-27.4068811" lon="152.9620391">
<ele>68.266</ele>
<time>2015-12-30T03:41:16.926Z</time>
</trkpt>
<trkpt lat="-27.4064569" lon="152.9619915">
<ele>67.261</ele>
<time>2015-12-30T03:41:19.893Z</time>
</trkpt>
<trkpt lat="-27.4060351" lon="152.9619364">
<ele>65.720</ele>
<time>2015-12-30T03:41:22.960Z</time>
</trkpt>
<trkpt lat="-27.4057829" lon="152.9619174">
<ele>63.442</ele>
<time>2015-12-30T03:41:24.873Z</time>
</trkpt>
<trkpt lat="-27.4053936" lon="152.9618732">
<ele>60.601</ele>
<time>2015-12-30T03:41:27.913Z</time>
</trkpt>
<trkpt lat="-27.4050120" lon="152.9618367">
<ele>57.546</ele>
<time>2015-12-30T03:41:30.831Z</time>
</trkpt>
<trkpt lat="-27.4045820" lon="152.9617888">
<ele>54.705</ele>
<time>2015-12-30T03:41:33.904Z</time>
</trkpt>
<trkpt lat="-27.4042797" lon="152.9617385">
<ele>52.603</ele>
<time>2015-12-30T03:41:35.955Z</time>
</trkpt>
<trkpt lat="-27.4039879" lon="152.9616886">
<ele>50.972</ele>
<time>2015-12-30T03:41:37.862Z</time>
</trkpt>
<trkpt lat="-27.4034884" lon="152.9616190">
<ele>49.481</ele>
<time>2015-12-30T03:41:41.003Z</time>
</trkpt>
<trkpt lat="-27.4031731" lon="152.9615953">
<ele>48.711</ele>
<time>2015-12-30T03:41:42.985Z</time>
</trkpt>
<trkpt lat="-27.4027225" lon="152.9615475">
<ele>48.936</ele>
<time>2015-12-30T03:41:45.960Z</time>
</trkpt>
<trkpt lat="-27.4024519" lon="152.9615221">
<ele>49.731</ele>
<time>2015-12-30T03:41:47.861Z</time>
</trkpt>
<trkpt lat="-27.4020372" lon="152.9614859">
<ele>50.635</ele>
<time>2015-12-30T03:41:50.841Z</time>
</trkpt>
<trkpt lat="-27.4016221" lon="152.9613918">
<ele>51.209</ele>
<time>2015-12-30T03:41:53.892Z</time>
</trkpt>
<trkpt lat="-27.4013425" lon="152.9613516">
<ele>50.851</ele>
<time>2015-12-30T03:41:55.892Z</time>
</trkpt>
<trkpt lat="-27.4009143" lon="152.9613061">
<ele>49.436</ele>
<time>2015-12-30T03:41:58.861Z</time>
</trkpt>
<trkpt lat="-27.4004496" lon="152.9612651">
<ele>47.543</ele>
<time>2015-12-30T03:42:01.932Z</time>
</trkpt>
<trkpt lat="-27.4001420" lon="152.9612326">
<ele>45.929</ele>
<time>2015-12-30T03:42:03.912Z</time>
</trkpt>
<trkpt lat="-27.3996820" lon="152.9611857">
<ele>44.766</ele>
<time>2015-12-30T03:42:06.912Z</time>
</trkpt>
<trkpt lat="-27.3992254" lon="152.9611363">
<ele>43.481</ele>
<time>2015-12-30T03:42:10.054Z</time>
</trkpt>
<trkpt lat="-27.3988400" lon="152.9610885">
<ele>41.665</ele>
<time>2015-12-30T03:42:12.984Z</time>
</trkpt>
<trkpt lat="-27.3985037" lon="152.9610537">
<ele>39.873</ele>
<time>2015-12-30T03:42:16.084Z</time>
</trkpt>
<trkpt lat="-27.3982882" lon="152.9610367">
<ele>38.600</ele>
<time>2015-12-30T03:42:18.875Z</time>
</trkpt>
<trkpt lat="-27.3981767" lon="152.9610286">
<ele>37.491</ele>
<time>2015-12-30T03:42:21.000Z</time>
</trkpt>
<trkpt lat="-27.3981767" lon="152.9610286">
<ele>36.332</ele>
<time>2015-12-30T03:42:25.000Z</time>
</trkpt>
<trkpt lat="-27.3981767" lon="152.9610286">
<ele>35.626</ele>
<time>2015-12-30T03:42:34.139Z</time>
</trkpt>
<trkpt lat="-27.3979627" lon="152.9609673">
<ele>35.660</ele>
<time>2015-12-30T03:42:39.536Z</time>
</trkpt>
<trkpt lat="-27.3977079" lon="152.9609560">
<ele>36.021</ele>
<time>2015-12-30T03:42:42.710Z</time>
</trkpt>
<trkpt lat="-27.3974365" lon="152.9609786">
<ele>36.411</ele>
<time>2015-12-30T03:42:45.701Z</time>
</trkpt>
<trkpt lat="-27.3972470" lon="152.9610301">
<ele>36.830</ele>
<time>2015-12-30T03:42:47.819Z</time>
</trkpt>
<trkpt lat="-27.3970696" lon="152.9610628">
<ele>37.095</ele>
<time>2015-12-30T03:42:49.935Z</time>
</trkpt>
<trkpt lat="-27.3968384" lon="152.9611097">
<ele>36.961</ele>
<time>2015-12-30T03:42:52.934Z</time>
</trkpt>
<trkpt lat="-27.3967018" lon="152.9611400">
<ele>36.539</ele>
<time>2015-12-30T03:42:55.049Z</time>
</trkpt>
<trkpt lat="-27.3965805" lon="152.9611672">
<ele>36.160</ele>
<time>2015-12-30T03:42:56.905Z</time>
</trkpt>
<trkpt lat="-27.3963776" lon="152.9612037">
<ele>35.979</ele>
<time>2015-12-30T03:42:59.612Z</time>
</trkpt>
<trkpt lat="-27.3962052" lon="152.9612377">
<ele>35.923</ele>
<time>2015-12-30T03:43:01.420Z</time>
</trkpt>
<trkpt lat="-27.3958706" lon="152.9612993">
<ele>35.964</ele>
<time>2015-12-30T03:43:04.590Z</time>
</trkpt>
<trkpt lat="-27.3956510" lon="152.9613501">
<ele>36.425</ele>
<time>2015-12-30T03:43:06.645Z</time>
</trkpt>
<trkpt lat="-27.3954578" lon="152.9614232">
<ele>37.411</ele>
<time>2015-12-30T03:43:08.694Z</time>
</trkpt>
<trkpt lat="-27.3952192" lon="152.9615832">
<ele>38.348</ele>
<time>2015-12-30T03:43:11.556Z</time>
</trkpt>
<trkpt lat="-27.3950912" lon="152.9617532">
<ele>38.983</ele>
<time>2015-12-30T03:43:13.297Z</time>
</trkpt>
<trkpt lat="-27.3949436" lon="152.9621997">
<ele>39.923</ele>
<time>2015-12-30T03:43:16.482Z</time>
</trkpt>
<trkpt lat="-27.3948973" lon="152.9625394">
<ele>41.516</ele>
<time>2015-12-30T03:43:18.408Z</time>
</trkpt>
<trkpt lat="-27.3948854" lon="152.9630435">
<ele>43.208</ele>
<time>2015-12-30T03:43:21.189Z</time>
</trkpt>
<trkpt lat="-27.3948264" lon="152.9635208">
<ele>44.188</ele>
<time>2015-12-30T03:43:23.935Z</time>
</trkpt>
<trkpt lat="-27.3947359" lon="152.9638327">
<ele>44.319</ele>
<time>2015-12-30T03:43:25.897Z</time>
</trkpt>
<trkpt lat="-27.3947416" lon="152.9641720">
<ele>44.156</ele>
<time>2015-12-30T03:43:27.889Z</time>
</trkpt>
<trkpt lat="-27.3947906" lon="152.9646679">
<ele>44.244</ele>
<time>2015-12-30T03:43:30.748Z</time>
</trkpt>
<trkpt lat="-27.3948574" lon="152.9649704">
<ele>44.903</ele>
<time>2015-12-30T03:43:32.582Z</time>
</trkpt>
<trkpt lat="-27.3948850" lon="152.9652440">
<ele>46.461</ele>
<time>2015-12-30T03:43:34.315Z</time>
</trkpt>
<trkpt lat="-27.3948587" lon="152.9656598">
<ele>48.654</ele>
<time>2015-12-30T03:43:37.170Z</time>
</trkpt>
<trkpt lat="-27.3948393" lon="152.9659739">
<ele>50.629</ele>
<time>2015-12-30T03:43:39.511Z</time>
</trkpt>
<trkpt lat="-27.3947913" lon="152.9662439">
<ele>52.337</ele>
<time>2015-12-30T03:43:41.563Z</time>
</trkpt>
<trkpt lat="-27.3946122" lon="152.9665944">
<ele>54.323</ele>
<time>2015-12-30T03:43:44.709Z</time>
</trkpt>
<trkpt lat="-27.3943324" lon="152.9670714">
<ele>56.533</ele>
<time>2015-12-30T03:43:48.848Z</time>
</trkpt>
<trkpt lat="-27.3941433" lon="152.9672707">
<ele>58.632</ele>
<time>2015-12-30T03:43:50.851Z</time>
</trkpt>
<trkpt lat="-27.3938383" lon="152.9674573">
<ele>60.594</ele>
<time>2015-12-30T03:43:53.667Z</time>
</trkpt>
<trkpt lat="-27.3935369" lon="152.9676337">
<ele>62.270</ele>
<time>2015-12-30T03:43:56.649Z</time>
</trkpt>
<trkpt lat="-27.3934147" lon="152.9677092">
<ele>63.178</ele>
<time>2015-12-30T03:43:58.000Z</time>
</trkpt>
<trkpt lat="-27.3934147" lon="152.9677092">
<ele>63.209</ele>
<time>2015-12-30T03:44:04.000Z</time>
</trkpt>
<trkpt lat="-27.3934147" lon="152.9677092">
<ele>62.954</ele>
<time>2015-12-30T03:44:09.775Z</time>
</trkpt>
<trkpt lat="-27.3932721" lon="152.9677983">
<ele>62.893</ele>
<time>2015-12-30T03:44:14.289Z</time>
</trkpt>
<trkpt lat="-27.3930763" lon="152.9679355">
<ele>63.401</ele>
<time>2015-12-30T03:44:17.563Z</time>
</trkpt>
<trkpt lat="-27.3929564" lon="152.9679475">
<ele>64.795</ele>
<time>2015-12-30T03:44:19.193Z</time>
</trkpt>
<trkpt lat="-27.3928391" lon="152.9680302">
<ele>66.723</ele>
<time>2015-12-30T03:44:21.234Z</time>
</trkpt>
<trkpt lat="-27.3927556" lon="152.9681230">
<ele>68.350</ele>
<time>2015-12-30T03:44:23.226Z</time>
</trkpt>
<trkpt lat="-27.3927050" lon="152.9682285">
<ele>69.235</ele>
<time>2015-12-30T03:44:25.540Z</time>
</trkpt>
<trkpt lat="-27.3926559" lon="152.9683343">
<ele>69.482</ele>
<time>2015-12-30T03:44:28.212Z</time>
</trkpt>
<trkpt lat="-27.3926085" lon="152.9684479">
<ele>69.479</ele>
<time>2015-12-30T03:44:31.168Z</time>
</trkpt>
<trkpt lat="-27.3924488" lon="152.9688234">
<ele>69.737</ele>
<time>2015-12-30T03:44:37.867Z</time>
</trkpt>
<trkpt lat="-27.3923151" lon="152.9690300">
<ele>70.451</ele>
<time>2015-12-30T03:44:40.188Z</time>
</trkpt>
<trkpt lat="-27.3921838" lon="152.9692202">
<ele>71.216</ele>
<time>2015-12-30T03:44:42.103Z</time>
</trkpt>
<trkpt lat="-27.3920150" lon="152.9694140">
<ele>71.649</ele>
<time>2015-12-30T03:44:44.120Z</time>
</trkpt>
<trkpt lat="-27.3917372" lon="152.9697254">
<ele>71.859</ele>
<time>2015-12-30T03:44:47.335Z</time>
</trkpt>
<trkpt lat="-27.3915655" lon="152.9699163">
<ele>72.188</ele>
<time>2015-12-30T03:44:49.327Z</time>
</trkpt>
<trkpt lat="-27.3913058" lon="152.9702066">
<ele>72.823</ele>
<time>2015-12-30T03:44:52.305Z</time>
</trkpt>
<trkpt lat="-27.3911630" lon="152.9704489">
<ele>73.523</ele>
<time>2015-12-30T03:44:54.321Z</time>
</trkpt>
<trkpt lat="-27.3910366" lon="152.9708701">
<ele>73.955</ele>
<time>2015-12-30T03:44:57.438Z</time>
</trkpt>
<trkpt lat="-27.3909958" lon="152.9711410">
<ele>74.182</ele>
<time>2015-12-30T03:44:59.480Z</time>
</trkpt>
<trkpt lat="-27.3910408" lon="152.9715497">
<ele>74.497</ele>
<time>2015-12-30T03:45:02.510Z</time>
</trkpt>
<trkpt lat="-27.3911801" lon="152.9718244">
<ele>75.056</ele>
<time>2015-12-30T03:45:04.750Z</time>
</trkpt>
<trkpt lat="-27.3913777" lon="152.9721910">
<ele>75.716</ele>
<time>2015-12-30T03:45:07.816Z</time>
</trkpt>
<trkpt lat="-27.3914290" lon="152.9724666">
<ele>75.881</ele>
<time>2015-12-30T03:45:09.784Z</time>
</trkpt>
<trkpt lat="-27.3914154" lon="152.9727709">
<ele>75.250</ele>
<time>2015-12-30T03:45:11.773Z</time>
</trkpt>
<trkpt lat="-27.3913821" lon="152.9732669">
<ele>74.850</ele>
<time>2015-12-30T03:45:14.814Z</time>
</trkpt>
<trkpt lat="-27.3913981" lon="152.9736171">
<ele>75.590</ele>
<time>2015-12-30T03:45:17.031Z</time>
</trkpt>
<trkpt lat="-27.3914392" lon="152.9737976">
<ele>76.816</ele>
<time>2015-12-30T03:45:18.280Z</time>
</trkpt>
<trkpt lat="-27.3915443" lon="152.9742625">
<ele>77.595</ele>
<time>2015-12-30T03:45:21.546Z</time>
</trkpt>
<trkpt lat="-27.3916132" lon="152.9745885">
<ele>77.961</ele>
<time>2015-12-30T03:45:24.138Z</time>
</trkpt>
<trkpt lat="-27.3916587" lon="152.9748144">
<ele>78.251</ele>
<time>2015-12-30T03:45:26.436Z</time>
</trkpt>
<trkpt lat="-27.3917468" lon="152.9750571">
<ele>78.121</ele>
<time>2015-12-30T03:45:30.015Z</time>
</trkpt>
<trkpt lat="-27.3917539" lon="152.9751869">
<ele>77.252</ele>
<time>2015-12-30T03:45:32.051Z</time>
</trkpt>
<trkpt lat="-27.3917191" lon="152.9754103">
<ele>76.270</ele>
<time>2015-12-30T03:45:35.012Z</time>
</trkpt>
<trkpt lat="-27.3916480" lon="152.9755940">
<ele>75.952</ele>
<time>2015-12-30T03:45:36.989Z</time>
</trkpt>
<trkpt lat="-27.3915145" lon="152.9757718">
<ele>76.299</ele>
<time>2015-12-30T03:45:38.862Z</time>
</trkpt>
<trkpt lat="-27.3913382" lon="152.9759268">
<ele>77.096</ele>
<time>2015-12-30T03:45:40.655Z</time>
</trkpt>
<trkpt lat="-27.3910964" lon="152.9761310">
<ele>78.118</ele>
<time>2015-12-30T03:45:42.958Z</time>
</trkpt>
<trkpt lat="-27.3908609" lon="152.9762592">
<ele>78.782</ele>
<time>2015-12-30T03:45:44.850Z</time>
</trkpt>
<trkpt lat="-27.3904773" lon="152.9764507">
<ele>78.697</ele>
<time>2015-12-30T03:45:47.867Z</time>
</trkpt>
<trkpt lat="-27.3902249" lon="152.9765711">
<ele>78.372</ele>
<time>2015-12-30T03:45:49.881Z</time>
</trkpt>
<trkpt lat="-27.3898829" lon="152.9768162">
<ele>78.313</ele>
<time>2015-12-30T03:45:52.879Z</time>
</trkpt>
<trkpt lat="-27.3896081" lon="152.9771974">
<ele>78.294</ele>
<time>2015-12-30T03:45:56.240Z</time>
</trkpt>
<trkpt lat="-27.3894879" lon="152.9774240">
<ele>78.014</ele>
<time>2015-12-30T03:45:58.126Z</time>
</trkpt>
<trkpt lat="-27.3893085" lon="152.9778010">
<ele>77.719</ele>
<time>2015-12-30T03:46:01.140Z</time>
</trkpt>
<trkpt lat="-27.3891858" lon="152.9780334">
<ele>77.694</ele>
<time>2015-12-30T03:46:03.050Z</time>
</trkpt>
<trkpt lat="-27.3889960" lon="152.9783993">
<ele>77.585</ele>
<time>2015-12-30T03:46:06.063Z</time>
</trkpt>
<trkpt lat="-27.3888185" lon="152.9788046">
<ele>77.070</ele>
<time>2015-12-30T03:46:09.269Z</time>
</trkpt>
<trkpt lat="-27.3887097" lon="152.9791041">
<ele>76.465</ele>
<time>2015-12-30T03:46:11.494Z</time>
</trkpt>
<trkpt lat="-27.3885303" lon="152.9796349">
<ele>76.139</ele>
<time>2015-12-30T03:46:15.137Z</time>
</trkpt>
<trkpt lat="-27.3883747" lon="152.9800974">
<ele>75.437</ele>
<time>2015-12-30T03:46:18.179Z</time>
</trkpt>
<trkpt lat="-27.3881909" lon="152.9805409">
<ele>73.693</ele>
<time>2015-12-30T03:46:21.247Z</time>
</trkpt>
<trkpt lat="-27.3879197" lon="152.9809025">
<ele>71.545</ele>
<time>2015-12-30T03:46:24.168Z</time>
</trkpt>
<trkpt lat="-27.3876901" lon="152.9810805">
<ele>69.961</ele>
<time>2015-12-30T03:46:26.052Z</time>
</trkpt>
<trkpt lat="-27.3873089" lon="152.9813372">
<ele>68.823</ele>
<time>2015-12-30T03:46:28.836Z</time>
</trkpt>
<trkpt lat="-27.3869870" lon="152.9817073">
<ele>67.805</ele>
<time>2015-12-30T03:46:31.605Z</time>
</trkpt>
<trkpt lat="-27.3867965" lon="152.9820299">
<ele>67.081</ele>
<time>2015-12-30T03:46:33.771Z</time>
</trkpt>
<trkpt lat="-27.3866823" lon="152.9822246">
<ele>66.884</ele>
<time>2015-12-30T03:46:35.232Z</time>
</trkpt>
<trkpt lat="-27.3865040" lon="152.9825403">
<ele>67.108</ele>
<time>2015-12-30T03:46:37.744Z</time>
</trkpt>
<trkpt lat="-27.3863813" lon="152.9828066">
<ele>67.556</ele>
<time>2015-12-30T03:46:39.938Z</time>
</trkpt>
<trkpt lat="-27.3862432" lon="152.9831809">
<ele>68.196</ele>
<time>2015-12-30T03:46:43.089Z</time>
</trkpt>
<trkpt lat="-27.3861632" lon="152.9834248">
<ele>68.980</ele>
<time>2015-12-30T03:46:45.258Z</time>
</trkpt>
<trkpt lat="-27.3861005" lon="152.9836715">
<ele>69.343</ele>
<time>2015-12-30T03:46:47.478Z</time>
</trkpt>
<trkpt lat="-27.3860318" lon="152.9840010">
<ele>68.584</ele>
<time>2015-12-30T03:46:50.916Z</time>
</trkpt>
<trkpt lat="-27.3859083" lon="152.9842289">
<ele>66.220</ele>
<time>2015-12-30T03:46:54.062Z</time>
</trkpt>
<trkpt lat="-27.3857344" lon="152.9842712">
<ele>62.250</ele>
<time>2015-12-30T03:46:56.122Z</time>
</trkpt>
<trkpt lat="-27.3855118" lon="152.9841658">
<ele>58.050</ele>
<time>2015-12-30T03:46:58.140Z</time>
</trkpt>
<trkpt lat="-27.3852886" lon="152.9839854">
<ele>55.432</ele>
<time>2015-12-30T03:46:59.938Z</time>
</trkpt>
<trkpt lat="-27.3849737" lon="152.9837744">
<ele>55.329</ele>
<time>2015-12-30T03:47:02.012Z</time>
</trkpt>
<trkpt lat="-27.3844770" lon="152.9835303">
<ele>57.652</ele>
<time>2015-12-30T03:47:05.001Z</time>
</trkpt>
<trkpt lat="-27.3841676" lon="152.9834777">
<ele>60.879</ele>
<time>2015-12-30T03:47:06.699Z</time>
</trkpt>
<trkpt lat="-27.3836178" lon="152.9832971">
<ele>63.056</ele>
<time>2015-12-30T03:47:09.750Z</time>
</trkpt>
<trkpt lat="-27.3832363" lon="152.9831874">
<ele>63.668</ele>
<time>2015-12-30T03:47:11.857Z</time>
</trkpt>
<trkpt lat="-27.3827052" lon="152.9830431">
<ele>63.043</ele>
<time>2015-12-30T03:47:14.850Z</time>
</trkpt>
<trkpt lat="-27.3821878" lon="152.9828220">
<ele>61.276</ele>
<time>2015-12-30T03:47:17.970Z</time>
</trkpt>
<trkpt lat="-27.3818830" lon="152.9826056">
<ele>57.841</ele>
<time>2015-12-30T03:47:19.892Z</time>
</trkpt>
<trkpt lat="-27.3814199" lon="152.9821836">
<ele>53.268</ele>
<time>2015-12-30T03:47:22.896Z</time>
</trkpt>
<trkpt lat="-27.3809339" lon="152.9817162">
<ele>49.714</ele>
<time>2015-12-30T03:47:25.952Z</time>
</trkpt>
<trkpt lat="-27.3805857" lon="152.9814315">
<ele>48.322</ele>
<time>2015-12-30T03:47:28.020Z</time>
</trkpt>
<trkpt lat="-27.3804595" lon="152.9813193">
<ele>47.877</ele>
<time>2015-12-30T03:47:28.792Z</time>
</trkpt>
<trkpt lat="-27.3797367" lon="152.9809059">
<ele>47.200</ele>
<time>2015-12-30T03:47:32.822Z</time>
</trkpt>
<trkpt lat="-27.3797367" lon="152.9809059">
<ele>47.200</ele>
<time>2015-12-30T03:47:32.822Z</time>
</trkpt>
<trkpt lat="-27.3769364" lon="152.9804520">
<ele>67.767</ele>
<time>2015-12-30T03:47:46.628Z</time>
</trkpt>
<trkpt lat="-27.3764873" lon="152.9804012">
<ele>67.736</ele>
<time>2015-12-30T03:47:48.696Z</time>
</trkpt>
<trkpt lat="-27.3760373" lon="152.9803596">
<ele>67.701</ele>
<time>2015-12-30T03:47:50.754Z</time>
</trkpt>
<trkpt lat="-27.3754367" lon="152.9803252">
<ele>67.418</ele>
<time>2015-12-30T03:47:53.510Z</time>
</trkpt>
<trkpt lat="-27.3748371" lon="152.9803121">
<ele>66.258</ele>
<time>2015-12-30T03:47:56.276Z</time>
</trkpt>
<trkpt lat="-27.3743102" lon="152.9802962">
<ele>63.891</ele>
<time>2015-12-30T03:47:58.814Z</time>
</trkpt>
<trkpt lat="-27.3737415" lon="152.9802414">
<ele>61.198</ele>
<time>2015-12-30T03:48:01.812Z</time>
</trkpt>
<trkpt lat="-27.3733583" lon="152.9802480">
<ele>59.175</ele>
<time>2015-12-30T03:48:03.907Z</time>
</trkpt>
<trkpt lat="-27.3729856" lon="152.9802540">
<ele>57.903</ele>
<time>2015-12-30T03:48:05.954Z</time>
</trkpt>
<trkpt lat="-27.3724431" lon="152.9802746">
<ele>57.307</ele>
<time>2015-12-30T03:48:08.939Z</time>
</trkpt>
<trkpt lat="-27.3720680" lon="152.9802572">
<ele>57.334</ele>
<time>2015-12-30T03:48:10.989Z</time>
</trkpt>
<trkpt lat="-27.3716991" lon="152.9802105">
<ele>57.367</ele>
<time>2015-12-30T03:48:12.991Z</time>
</trkpt>
<trkpt lat="-27.3711340" lon="152.9800843">
<ele>56.771</ele>
<time>2015-12-30T03:48:16.071Z</time>
</trkpt>
<trkpt lat="-27.3707671" lon="152.9799416">
<ele>55.489</ele>
<time>2015-12-30T03:48:18.144Z</time>
</trkpt>
<trkpt lat="-27.3702462" lon="152.9797016">
<ele>53.656</ele>
<time>2015-12-30T03:48:21.181Z</time>
</trkpt>
<trkpt lat="-27.3699058" lon="152.9795338">
<ele>51.071</ele>
<time>2015-12-30T03:48:23.225Z</time>
</trkpt>
<trkpt lat="-27.3695626" lon="152.9793634">
<ele>47.715</ele>
<time>2015-12-30T03:48:25.323Z</time>
</trkpt>
<trkpt lat="-27.3692235" lon="152.9791987">
<ele>44.124</ele>
<time>2015-12-30T03:48:27.387Z</time>
</trkpt>
<trkpt lat="-27.3687068" lon="152.9789420">
<ele>40.987</ele>
<time>2015-12-30T03:48:30.515Z</time>
</trkpt>
<trkpt lat="-27.3683770" lon="152.9787612">
<ele>38.742</ele>
<time>2015-12-30T03:48:32.540Z</time>
</trkpt>
<trkpt lat="-27.3680625" lon="152.9785602">
<ele>37.503</ele>
<time>2015-12-30T03:48:34.547Z</time>
</trkpt>
<trkpt lat="-27.3676353" lon="152.9781856">
<ele>37.482</ele>
<time>2015-12-30T03:48:37.566Z</time>
</trkpt>
<trkpt lat="-27.3673698" lon="152.9779021">
<ele>38.744</ele>
<time>2015-12-30T03:48:39.579Z</time>
</trkpt>
<trkpt lat="-27.3669879" lon="152.9774086">
<ele>40.700</ele>
<time>2015-12-30T03:48:42.651Z</time>
</trkpt>
<trkpt lat="-27.3665924" lon="152.9768888">
<ele>42.471</ele>
<time>2015-12-30T03:48:45.760Z</time>
</trkpt>
<trkpt lat="-27.3662550" lon="152.9763348">
<ele>43.422</ele>
<time>2015-12-30T03:48:48.821Z</time>
</trkpt>
<trkpt lat="-27.3659187" lon="152.9758020">
<ele>43.322</ele>
<time>2015-12-30T03:48:51.882Z</time>
</trkpt>
<trkpt lat="-27.3657187" lon="152.9754725">
<ele>42.496</ele>
<time>2015-12-30T03:48:53.827Z</time>
</trkpt>
<trkpt lat="-27.3654947" lon="152.9751414">
<ele>41.656</ele>
<time>2015-12-30T03:48:55.908Z</time>
</trkpt>
<trkpt lat="-27.3651371" lon="152.9747176">
<ele>41.524</ele>
<time>2015-12-30T03:48:58.877Z</time>
</trkpt>
<trkpt lat="-27.3649183" lon="152.9745011">
<ele>42.392</ele>
<time>2015-12-30T03:49:00.562Z</time>
</trkpt>
<trkpt lat="-27.3644469" lon="152.9740907">
<ele>43.873</ele>
<time>2015-12-30T03:49:04.020Z</time>
</trkpt>
<trkpt lat="-27.3641565" lon="152.9739041">
<ele>45.532</ele>
<time>2015-12-30T03:49:06.113Z</time>
</trkpt>
<trkpt lat="-27.3639329" lon="152.9737995">
<ele>47.139</ele>
<time>2015-12-30T03:49:08.106Z</time>
</trkpt>
<trkpt lat="-27.3637655" lon="152.9737056">
<ele>47.937</ele>
<time>2015-12-30T03:49:10.000Z</time>
</trkpt>
<trkpt lat="-27.3637655" lon="152.9737056">
<ele>47.474</ele>
<time>2015-12-30T03:49:15.005Z</time>
</trkpt>
<trkpt lat="-27.3637655" lon="152.9737056">
<ele>46.765</ele>
<time>2015-12-30T03:49:20.249Z</time>
</trkpt>
<trkpt lat="-27.3636069" lon="152.9736223">
<ele>46.719</ele>
<time>2015-12-30T03:49:25.358Z</time>
</trkpt>
<trkpt lat="-27.3634403" lon="152.9735342">
<ele>46.603</ele>
<time>2015-12-30T03:49:27.401Z</time>
</trkpt>
<trkpt lat="-27.3631794" lon="152.9733522">
<ele>45.644</ele>
<time>2015-12-30T03:49:29.805Z</time>
</trkpt>
<trkpt lat="-27.3627917" lon="152.9730195">
<ele>44.889</ele>
<time>2015-12-30T03:49:33.174Z</time>
</trkpt>
<trkpt lat="-27.3625430" lon="152.9727706">
<ele>45.370</ele>
<time>2015-12-30T03:49:35.294Z</time>
</trkpt>
<trkpt lat="-27.3622974" lon="152.9725365">
<ele>46.390</ele>
<time>2015-12-30T03:49:37.353Z</time>
</trkpt>
<trkpt lat="-27.3620603" lon="152.9723443">
<ele>46.818</ele>
<time>2015-12-30T03:49:39.324Z</time>
</trkpt>
<trkpt lat="-27.3618167" lon="152.9721764">
<ele>46.296</ele>
<time>2015-12-30T03:49:41.355Z</time>
</trkpt>
<trkpt lat="-27.3614686" lon="152.9719654">
<ele>45.061</ele>
<time>2015-12-30T03:49:44.545Z</time>
</trkpt>
<trkpt lat="-27.3612531" lon="152.9718292">
<ele>43.552</ele>
<time>2015-12-30T03:49:47.662Z</time>
</trkpt>
<trkpt lat="-27.3611517" lon="152.9717839">
<ele>41.787</ele>
<time>2015-12-30T03:49:49.946Z</time>
</trkpt>
<trkpt lat="-27.3610339" lon="152.9717239">
<ele>39.448</ele>
<time>2015-12-30T03:49:52.358Z</time>
</trkpt>
<trkpt lat="-27.3609380" lon="152.9716698">
<ele>36.937</ele>
<time>2015-12-30T03:49:53.808Z</time>
</trkpt>
<trkpt lat="-27.3606894" lon="152.9715147">
<ele>35.336</ele>
<time>2015-12-30T03:49:56.602Z</time>
</trkpt>
<trkpt lat="-27.3604407" lon="152.9713649">
<ele>34.954</ele>
<time>2015-12-30T03:49:58.721Z</time>
</trkpt>
<trkpt lat="-27.3600388" lon="152.9711299">
<ele>35.208</ele>
<time>2015-12-30T03:50:01.834Z</time>
</trkpt>
<trkpt lat="-27.3597708" lon="152.9709609">
<ele>35.252</ele>
<time>2015-12-30T03:50:03.786Z</time>
</trkpt>
<trkpt lat="-27.3593492" lon="152.9706935">
<ele>34.488</ele>
<time>2015-12-30T03:50:06.819Z</time>
</trkpt>
<trkpt lat="-27.3589697" lon="152.9704636">
<ele>33.077</ele>
<time>2015-12-30T03:50:09.553Z</time>
</trkpt>
<trkpt lat="-27.3585479" lon="152.9701655">
<ele>31.202</ele>
<time>2015-12-30T03:50:12.874Z</time>
</trkpt>
<trkpt lat="-27.3583257" lon="152.9700022">
<ele>28.969</ele>
<time>2015-12-30T03:50:14.842Z</time>
</trkpt>
<trkpt lat="-27.3581000" lon="152.9698687">
<ele>26.893</ele>
<time>2015-12-30T03:50:16.945Z</time>
</trkpt>
<trkpt lat="-27.3579630" lon="152.9697432">
<ele>25.347</ele>
<time>2015-12-30T03:50:18.665Z</time>
</trkpt>
<trkpt lat="-27.3577142" lon="152.9695316">
<ele>24.289</ele>
<time>2015-12-30T03:50:22.209Z</time>
</trkpt>
<trkpt lat="-27.3576494" lon="152.9693356">
<ele>23.560</ele>
<time>2015-12-30T03:50:24.512Z</time>
</trkpt>
<trkpt lat="-27.3577755" lon="152.9690652">
<ele>22.987</ele>
<time>2015-12-30T03:50:27.447Z</time>
</trkpt>
<trkpt lat="-27.3578817" lon="152.9688296">
<ele>22.674</ele>
<time>2015-12-30T03:50:29.493Z</time>
</trkpt>
<trkpt lat="-27.3579879" lon="152.9685896">
<ele>22.933</ele>
<time>2015-12-30T03:50:31.301Z</time>
</trkpt>
<trkpt lat="-27.3581940" lon="152.9681491">
<ele>23.888</ele>
<time>2015-12-30T03:50:34.410Z</time>
</trkpt>
<trkpt lat="-27.3583397" lon="152.9678686">
<ele>25.453</ele>
<time>2015-12-30T03:50:36.343Z</time>
</trkpt>
<trkpt lat="-27.3585484" lon="152.9674344">
<ele>27.230</ele>
<time>2015-12-30T03:50:39.288Z</time>
</trkpt>
<trkpt lat="-27.3587375" lon="152.9669786">
<ele>28.521</ele>
<time>2015-12-30T03:50:42.294Z</time>
</trkpt>
<trkpt lat="-27.3587993" lon="152.9666541">
<ele>29.162</ele>
<time>2015-12-30T03:50:44.231Z</time>
</trkpt>
<trkpt lat="-27.3587904" lon="152.9661247">
<ele>29.954</ele>
<time>2015-12-30T03:50:47.250Z</time>
</trkpt>
<trkpt lat="-27.3586605" lon="152.9656201">
<ele>31.587</ele>
<time>2015-12-30T03:50:50.195Z</time>
</trkpt>
<trkpt lat="-27.3584261" lon="152.9651559">
<ele>33.746</ele>
<time>2015-12-30T03:50:53.218Z</time>
</trkpt>
<trkpt lat="-27.3581416" lon="152.9647749">
<ele>35.476</ele>
<time>2015-12-30T03:50:56.076Z</time>
</trkpt>
<trkpt lat="-27.3579469" lon="152.9645400">
<ele>36.290</ele>
<time>2015-12-30T03:50:57.898Z</time>
</trkpt>
<trkpt lat="-27.3575770" lon="152.9641568">
<ele>36.426</ele>
<time>2015-12-30T03:51:01.055Z</time>
</trkpt>
<trkpt lat="-27.3573524" lon="152.9639140">
<ele>35.971</ele>
<time>2015-12-30T03:51:03.001Z</time>
</trkpt>
<trkpt lat="-27.3571253" lon="152.9636642">
<ele>34.679</ele>
<time>2015-12-30T03:51:04.998Z</time>
</trkpt>
<trkpt lat="-27.3569118" lon="152.9634220">
<ele>32.775</ele>
<time>2015-12-30T03:51:06.927Z</time>
</trkpt>
<trkpt lat="-27.3566005" lon="152.9630477">
<ele>30.769</ele>
<time>2015-12-30T03:51:09.862Z</time>
</trkpt>
<trkpt lat="-27.3563813" lon="152.9625981">
<ele>28.433</ele>
<time>2015-12-30T03:51:12.848Z</time>
</trkpt>
<trkpt lat="-27.3561757" lon="152.9621601">
<ele>25.715</ele>
<time>2015-12-30T03:51:15.806Z</time>
</trkpt>
<trkpt lat="-27.3560546" lon="152.9619478">
<ele>23.543</ele>
<time>2015-12-30T03:51:17.382Z</time>
</trkpt>
<trkpt lat="-27.3559010" lon="152.9616436">
<ele>22.444</ele>
<time>2015-12-30T03:51:19.743Z</time>
</trkpt>
<trkpt lat="-27.3558140" lon="152.9612546">
<ele>21.859</ele>
<time>2015-12-30T03:51:22.742Z</time>
</trkpt>
<trkpt lat="-27.3556691" lon="152.9609958">
<ele>21.238</ele>
<time>2015-12-30T03:51:25.228Z</time>
</trkpt>
<trkpt lat="-27.3554799" lon="152.9606241">
<ele>20.603</ele>
<time>2015-12-30T03:51:28.380Z</time>
</trkpt>
<trkpt lat="-27.3553548" lon="152.9603092">
<ele>20.520</ele>
<time>2015-12-30T03:51:30.549Z</time>
</trkpt>
<trkpt lat="-27.3552394" lon="152.9600185">
<ele>21.401</ele>
<time>2015-12-30T03:51:32.460Z</time>
</trkpt>
<trkpt lat="-27.3551190" lon="152.9597178">
<ele>22.718</ele>
<time>2015-12-30T03:51:34.430Z</time>
</trkpt>
<trkpt lat="-27.3550243" lon="152.9594121">
<ele>23.565</ele>
<time>2015-12-30T03:51:36.366Z</time>
</trkpt>
<trkpt lat="-27.3549610" lon="152.9589103">
<ele>23.495</ele>
<time>2015-12-30T03:51:39.398Z</time>
</trkpt>
<trkpt lat="-27.3549467" lon="152.9585790">
<ele>22.682</ele>
<time>2015-12-30T03:51:41.382Z</time>
</trkpt>
<trkpt lat="-27.3549348" lon="152.9582586">
<ele>21.779</ele>
<time>2015-12-30T03:51:43.342Z</time>
</trkpt>
<trkpt lat="-27.3549182" lon="152.9578136">
<ele>21.211</ele>
<time>2015-12-30T03:51:46.244Z</time>
</trkpt>
<trkpt lat="-27.3549097" lon="152.9575848">
<ele>20.527</ele>
<time>2015-12-30T03:51:47.961Z</time>
</trkpt>
<trkpt lat="-27.3549548" lon="152.9574035">
<ele>19.050</ele>
<time>2015-12-30T03:51:49.885Z</time>
</trkpt>
<trkpt lat="-27.3553288" lon="152.9573106">
<ele>17.085</ele>
<time>2015-12-30T03:51:54.348Z</time>
</trkpt>
<trkpt lat="-27.3556669" lon="152.9572256">
<ele>15.641</ele>
<time>2015-12-30T03:51:57.440Z</time>
</trkpt>
<trkpt lat="-27.3559927" lon="152.9570738">
<ele>15.392</ele>
<time>2015-12-30T03:52:00.450Z</time>
</trkpt>
<trkpt lat="-27.3562740" lon="152.9568781">
<ele>16.175</ele>
<time>2015-12-30T03:52:03.390Z</time>
</trkpt>
<trkpt lat="-27.3565496" lon="152.9566633">
<ele>17.145</ele>
<time>2015-12-30T03:52:06.471Z</time>
</trkpt>
<trkpt lat="-27.3566699" lon="152.9565695">
<ele>17.646</ele>
<time>2015-12-30T03:52:07.999Z</time>
</trkpt>
<trkpt lat="-27.3566699" lon="152.9565695">
<ele>17.719</ele>
<time>2015-12-30T03:52:12.999Z</time>
</trkpt>
<trkpt lat="-27.3566699" lon="152.9565695">
<ele>17.635</ele>
<time>2015-12-30T03:52:40.999Z</time>
</trkpt>
<trkpt lat="-27.3568723" lon="152.9564487">
<ele>19.070</ele>
<time>2015-12-30T03:53:19.999Z</time>
</trkpt>
<trkpt lat="-27.3569473" lon="152.9563904">
<ele>19.061</ele>
<time>2015-12-30T03:53:21.999Z</time>
</trkpt>
<trkpt lat="-27.3569473" lon="152.9563904">
<ele>19.056</ele>
<time>2015-12-30T03:53:22.000Z</time>
</trkpt>
<trkpt lat="-27.3569473" lon="152.9563904">
<ele>19.051</ele>
<time>2015-12-30T03:53:22.100Z</time>
</trkpt>
<trkpt lat="-27.3569573" lon="152.9566895">
<ele>19.045</ele>
<time>2015-12-30T03:53:32.999Z</time>
</trkpt>
<trkpt lat="-27.3569573" lon="152.9566895">
<ele>19.037</ele>
<time>2015-12-30T03:53:53.999Z</time>
</trkpt>
<trkpt lat="-27.3569573" lon="152.9566895">
<ele>19.028</ele>
<time>2015-12-30T04:30:32.005Z</time>
</trkpt>
<trkpt lat="-27.3568214" lon="152.9565917">
<ele>20.566</ele>
<time>2015-12-30T04:30:41.000Z</time>
</trkpt>
<trkpt lat="-27.3568214" lon="152.9565917">
<ele>20.556</ele>
<time>2015-12-30T04:31:52.005Z</time>
</trkpt>
<trkpt lat="-27.3568061" lon="152.9565937">
<ele>20.531</ele>
<time>2015-12-30T04:32:18.000Z</time>
</trkpt>
<trkpt lat="-27.3568061" lon="152.9565937">
<ele>20.521</ele>
<time>2015-12-30T04:32:48.005Z</time>
</trkpt>
<trkpt lat="-27.3568056" lon="152.9565937">
<ele>20.756</ele>
<time>2015-12-30T04:32:57.000Z</time>
</trkpt>
<trkpt lat="-27.3568056" lon="152.9565937">
<ele>20.746</ele>
<time>2015-12-30T04:35:42.005Z</time>
</trkpt>
<trkpt lat="-27.3567958" lon="152.9565921">
<ele>21.136</ele>
<time>2015-12-30T04:35:56.000Z</time>
</trkpt>
<trkpt lat="-27.3567958" lon="152.9565921">
<ele>21.126</ele>
<time>2015-12-30T04:36:15.001Z</time>
</trkpt>
<trkpt lat="-27.3567940" lon="152.9565926">
<ele>21.229</ele>
<time>2015-12-30T04:36:28.000Z</time>
</trkpt>
<trkpt lat="-27.3567940" lon="152.9565926">
<ele>21.219</ele>
<time>2015-12-30T04:36:37.005Z</time>
</trkpt>
<trkpt lat="-27.3567857" lon="152.9565849">
<ele>21.269</ele>
<time>2015-12-30T04:36:50.000Z</time>
</trkpt>
<trkpt lat="-27.3567857" lon="152.9565849">
<ele>21.260</ele>
<time>2015-12-30T04:37:46.005Z</time>
</trkpt>
<trkpt lat="-27.3567616" lon="152.9565774">
<ele>21.197</ele>
<time>2015-12-30T04:38:26.000Z</time>
</trkpt>
<trkpt lat="-27.3567616" lon="152.9565774">
<ele>21.188</ele>
<time>2015-12-30T04:38:53.005Z</time>
</trkpt>
<trkpt lat="-27.3567606" lon="152.9565780">
<ele>21.212</ele>
<time>2015-12-30T04:39:06.000Z</time>
</trkpt>
<trkpt lat="-27.3567606" lon="152.9565780">
<ele>21.202</ele>
<time>2015-12-30T04:40:13.005Z</time>
</trkpt>
<trkpt lat="-27.3567513" lon="152.9565783">
<ele>21.232</ele>
<time>2015-12-30T04:41:16.999Z</time>
</trkpt>
<trkpt lat="-27.3567513" lon="152.9565783">
<ele>21.223</ele>
<time>2015-12-30T04:41:43.002Z</time>
</trkpt>
<trkpt lat="-27.3567429" lon="152.9565803">
<ele>20.977</ele>
<time>2015-12-30T04:42:40.999Z</time>
</trkpt>
<trkpt lat="-27.3567429" lon="152.9565803">
<ele>20.967</ele>
<time>2015-12-30T04:42:58.001Z</time>
</trkpt>
<trkpt lat="-27.3567399" lon="152.9565818">
<ele>20.988</ele>
<time>2015-12-30T04:43:21.999Z</time>
</trkpt>
<trkpt lat="-27.3567399" lon="152.9565818">
<ele>20.979</ele>
<time>2015-12-30T04:44:50.005Z</time>
</trkpt>
<trkpt lat="-27.3567396" lon="152.9565810">
<ele>20.927</ele>
<time>2015-12-30T04:45:22.999Z</time>
</trkpt>
<trkpt lat="-27.3567396" lon="152.9565810">
<ele>20.917</ele>
<time>2015-12-30T04:45:47.005Z</time>
</trkpt>
<trkpt lat="-27.3567393" lon="152.9565812">
<ele>20.825</ele>
<time>2015-12-30T04:46:08.999Z</time>
</trkpt>
<trkpt lat="-27.3567393" lon="152.9565812">
<ele>20.815</ele>
<time>2015-12-30T04:46:17.005Z</time>
</trkpt>
<trkpt lat="-27.3567367" lon="152.9565797">
<ele>20.558</ele>
<time>2015-12-30T04:46:51.000Z</time>
</trkpt>
<trkpt lat="-27.3567367" lon="152.9565797">
<ele>20.549</ele>
<time>2015-12-30T04:50:35.001Z</time>
</trkpt>
<trkpt lat="-27.3567353" lon="152.9565797">
<ele>20.432</ele>
<time>2015-12-30T04:50:50.997Z</time>
</trkpt>
<trkpt lat="-27.3567353" lon="152.9565797">
<ele>20.422</ele>
<time>2015-12-30T04:51:18.003Z</time>
</trkpt>
<trkpt lat="-27.3567188" lon="152.9565765">
<ele>20.550</ele>
<time>2015-12-30T04:54:13.000Z</time>
</trkpt>
<trkpt lat="-27.3567188" lon="152.9565765">
<ele>20.541</ele>
<time>2015-12-30T04:54:40.005Z</time>
</trkpt>
<trkpt lat="-27.3567102" lon="152.9565637">
<ele>20.628</ele>
<time>2015-12-30T04:55:25.000Z</time>
</trkpt>
<trkpt lat="-27.3567102" lon="152.9565637">
<ele>20.619</ele>
<time>2015-12-30T04:56:35.005Z</time>
</trkpt>
<trkpt lat="-27.3567093" lon="152.9565637">
<ele>20.865</ele>
<time>2015-12-30T04:57:21.000Z</time>
</trkpt>
<trkpt lat="-27.3567093" lon="152.9565637">
<ele>20.855</ele>
<time>2015-12-30T04:57:42.005Z</time>
</trkpt>
<trkpt lat="-27.3567091" lon="152.9565634">
<ele>21.061</ele>
<time>2015-12-30T04:58:03.000Z</time>
</trkpt>
</trkseg>
</trk>
<extensions>
<fpdata xmlns="http://www.motionx.com/GPX-Extensions/1/1" sfv="10" origin="MotionXGPSFull 24.1 Build 5049R64">
<bin enc="base64">
RgIAAAACAAAAXaRii7qg1UEBAAAAjj4Sctmg1UEAAHqzhhTJQEwTAAAf44ABxBy0J9Ho
REBsiuBYnw81QAAAAAAMAAAAQnJ1bm8ncyBSdW4AFQAAADMwIERlYyAyMDE1ICA2OjE2
IGFtAAAAAACnPhJy2aDVQWGJdYDZoNVBlg/GALu80SdKsZ5ALAAAAAEAAACUEwU9mx5j
QAMcxABMWzvAxBy0J9HoREAAAAAAAAAkQAAAAAAAAEBAAAAAAADar0AAAAAAAAAAAAAA
AADeehSuR811QM25IY70NTVAAQAAAKF8J0st7XW/AQAAAAEAAADpSqsHRrq7P98CHYWa
87e/AQAAAAEAAAAAAAAAAAAAAAAAAAAAAAAAAAAAAAEAAAAQAAAAQnJ1bm8nc19SdW4u
Z3B4AAEAAABw7nZ62aDVQQoAAAABAAAADAAAAEJydW5vJ3MgUnVuAAAAAAAMAAAAAAAA
AAAAAAAhAAAAowDAFtmg1UEAAAAAAAAAAAAAAAAAAAAA/yVEvAIAAAAAAAAAAAAAAAEA
AAAnAAAAMjQuMSBCdWlsZCA1MDQ5UjY0LCBNWEFFIDguMSBiLiA2MjZSNjQAAAAAANFo
AAABAAAAAVcAAAAt6oJWW2SDVgQwMIaWuqDVQTAwhpa6oNVBAAAAixdHRkAAAAAAAoyk
You6oNVBNGVHmLqg1UEAAABQgclJQAAAAAADXvY++bqg1UFe9j75uqDVQQAAgIKFmFJA
AAAAAATSAkn7uqDVQdICSfu6oNVBAAAA8pGiVEAAAAAAAqkxi/O6oNVBVthHDrug1UEA
AICqs9BjQAAAAAACCDqKD7ug1UEIk8gTu6DVQQAAgCrg72VAAAAAAAIHzokVu6DVQevh
yHW7oNVBAAAgh9qDgUAAAAAAAgZiCHe7oNVBTMVFhrug1UEAAODvhmuDQAAAAAADwk2/
ubug1UHCTb+5u6DVQQAA6NcekohAAAAAAARGRAjnu6DVQUZECOe7oNVBAAB4oD07jkAA
AAAAAxlVe/G7oNVBGVV78bug1UEAAGC6n4mPQAAAAAAEX9DH9rug1UFf0Mf2u6DVQQAA
1JGXGZBAAAAAAAMOggIJvKDVQQ6CAgm8oNVBAABMrUI9kUAAAAAABHZOhT28oNVBdk6F
Pbyg1UEAAAhzb4WUQAAAAAAC4o6KkLug1UEibAf2vKDVQQAA+KXIBqBAAAAAAAIWUIj4
vKDVQQKdSf28oNVBAABYDdMsoEAAAAAAAsnnyq29oNVBstRHv72g1UEAAKB0urigQAAA
AAACC9JLMcOg1UEmHQgzw6DVQQAAeM2cxqBAAAAAAAKqJso7w6DVQbDHC0nDoNVBAACo
1akwoUAAAAAAAimVTEvDoNVBtHiJTcOg1UEAAADykEKhQAAAAAACilSLT8Og1UG+Zoqw
w6DVQQAAoIOJSqRAAAAAAAJPlcu5w6DVQRgJBwfEoNVBAADoIWW0pkAAAAAAAom2yg3E
oNVBoGzHzsWg1UEAAFBpJV6yQAAAAAACD5wJ4cWg1UGFs8bjxaDVQQAAKMcZabJAAAAA
AALW4YrlxaDVQazmBuzFoNVBAACA2gmDskAAAAAAAn6LyfDFoNVBVi1I+MWg1UEAAOBh
BKGyQAAAAAAC3ucMAMag1UG6D0f8xqDVQQAAUAHtkbZAAAAAAAKxv4gHx6DVQcE5yB3H
oNVBAACQ6erqtkAAAAAAAlhWSnPJoNVB1VwId8mg1UEAAIQD4/m2QAAAAAACRGvOecmg
1UGaIkaCyaDVQQAA3ODBG7dAAAAAAAJ+34uHyaDVQdbGRjjLoNVBAAA8fq3evUAAAAAA
AppBivXPoNVBRbjGkNKg1UEAAHSszyXEQAAAAAACKUDJkdKg1UEYlAed0qDVQQAAUlRM
PMRAAAAAAAKEgJik0qDVQeoKyVPToNVBAAAeaa2axUAAAAAAAqZjS1nToNVB8dgIDtSg
1UEAALRTKATHQAAAAAADEHnrPtSg1UEQees+1KDVQQCA3k9oTsdAAAAAAAR8RsxC1KDV
QXxGzELUoNVBAACm6ilWx0AAAAAAAiB7yxnUoNVBe05JXNSg1UEAAGr6I4nHQAAAAAAC
3j+Qa9Sg1UH5SQiE1KDVQQAAoA4UusdAAAAAAAKyoYiL1KDVQZFFR6jUoNVBAABeVpHz
x0AAAAAAAre2i6vUoNVBXFMGwdSg1UEAAKiPhh7IQAAAAAADAOZr9dSg1UEA5mv11KDV
QQCAiLvIgshAAAAAAATB44f41KDVQcHjh/jUoNVBAAALtwCJyEAAAAAAAjHQSsPUoNVB
HNDIDtWg1UEAAH6PgrXIQAAAAAACp3kMEdWg1UEgYkc71aDVQQAAcGD4CclAAAAAAAN4
1m1C1aDVQXjWbULVoNVBAABwYPgJyUAAAAAABD7tB0zVoNVBPu0HTNWg1UEAAHBg+AnJ
QAAAAAACVieITNWg1UH76o5M1aDVQQAAuucFCslAAAAAAAIGvUdP1aDVQeYiiFTVoNVB
AAB6s4YUyUAAAAAAA2NhKnrXoNVBY2Eqeteg1UEAAHqzhhTJQAAAAAAEbNFFfNeg1UFs
0UV816DVQQAAerOGFMlAAAAAAAPRPiyO16DVQdE+LI7XoNVBAAB6s4YUyUAAAAAABLNE
hpTXoNVBs0SGlNeg1UEAAHqzhhTJQAAAAAADzjYunNeg1UHONi6c16DVQQAAerOGFMlA
AAAAAASc3kWe16DVQZzeRZ7XoNVBAAB6s4YUyUAAAAAAAz1FqsfXoNVBPUWqx9eg1UEA
AHqzhhTJQAAAAAAEP8gFy9eg1UE/yAXL16DVQQAAerOGFMlAAAAAAAPuPOrP16DVQe48
6s/XoNVBAAB6s4YUyUAAAAAABFBvBtPXoNVBUG8G09eg1UEAAHqzhhTJQAAAAAADE7po
1deg1UETumjV16DVQQAAerOGFMlAAAAAAARiTZLY16DVQWJNktjXoNVBAAB6s4YUyUAA
AAAAA3f2qObXoNVBd/ao5teg1UEAAHqzhhTJQAAAAAAEV+uF8Neg1UFX64Xw16DVQQAA
erOGFMlAAAAAAAM/b23316DVQT9vbffXoNVBAAB6s4YUyUAAAAAABDBmhvrXoNVBMGaG
+teg1UEAAHqzhhTJQAAAAAADEmpoC9ig1UESamgL2KDVQQAAerOGFMlAAAAAAASb/0Ub
2KDVQZv/RRvYoNVBAAB6s4YUyUAAAAAAA7A36CHYoNVBsDfoIdig1UEAAHqzhhTJQAAA
AAAErdxFMNig1UGt3EUw2KDVQQAAerOGFMlAAAAAAAPWkKg02KDVQdaQqDTYoNVBAAB6
s4YUyUAAAAAABOvjkDrYoNVB6+OQOtig1UEAAHqzhhTJQAAAAAADZvqoUNig1UFm+qhQ
2KDVQQAAerOGFMlAAAAAAASyLcZY2KDVQbItxljYoNVBAAB6s4YUyUAAAAAAA0Yj6F7Y
oNVBRiPoXtig1UEAAHqzhhTJQAAAAAAEmfRFZNig1UGZ9EVk2KDVQQAAerOGFMlAAAAA
AANn1mxm2KDVQWfWbGbYoNVBAAB6s4YUyUAAAAAABEm6xW7YoNVBSbrFbtig1UEAAHqz
hhTJQAAAAAADebHnptig1UF5seem2KDVQQAAerOGFMlAAAAAAATK+sWq2KDVQcr6xarY
oNVBAAB6s4YUyUAAAAAAA7FsrbHYoNVBsWytsdig1UEAAHqzhhTJQAAAAAAEwO1F3dig
1UHA7UXd2KDVQQAAerOGFMlAAAAAAAPnpink2KDVQeemKeTYoNVBAAB6s4YUyUAAAAAA
BFILRu/YoNVBUgtG79ig1UEAAHqzhhTJQAAAAAADkKXoANmg1UGQpegA2aDVQQAAerOG
FMlAAAAAAASM8kUM2aDVQYzyRQzZoNVBAAB6s4YUyUAAAAAAAz49qRHZoNVBPj2pEdmg
1UEAAHqzhhTJQAAAAAAEIPLFFtmg1UEg8sUW2aDVQQAAerOGFMlAAAAAAAAAAAA=
</bin>
</fpdata>
</extensions>
</gpx>